
Distance (Route):
Temperature : 0°C
Humidity : 0%
Pressure : 0hPa| Receiver | Frames | First received | Last received |
|---|---|---|---|
| MIELECB | 805 | 2026-08-30 23:36:07 | 2026-08-31 01:21:00 |
| SQ9PSP-11 | 337 | 2026-08-30 23:21:23 | 2026-08-31 01:20:28 |
| AKAW68 | 274 | 2026-08-30 23:22:49 | 2026-08-31 01:21:24 |
| AKAW682 | 201 | 2026-08-30 23:36:37 | 2026-08-31 01:17:32 |
| SQ9EZE-12 | 58 | 2026-08-30 23:24:07 | 2026-08-31 00:53:12 |
| SQ9EZE-15 | 9 | 2026-08-30 23:34:57 | 2026-08-31 01:12:38 |
| SQ9EZE-14 | 2 | 2026-08-31 00:57:21 | 2026-08-31 00:57:36 |
| Receiver | Date | Latitude | Longitude | Direction | Speed | Altitude | Climb | Temperature | Humidity | Pressure | Voltage | Killtimer | Uptime | BKT | XDATA |
|---|---|---|---|---|---|---|---|---|---|---|---|---|---|---|---|
| AKAW68 | 2026-08-31 01:21:24 | 50.01272 | 21.81834 | 68° | 31km/h | 2778m | -13.1m/s | 0°C | 0% | 0hPa | 0V | 00:00:00 | 00:00:00 | 00:00:00 | |
| AKAW68 | 2026-08-31 01:21:03 | 50.01192 | 21.81642 | 60° | 27km/h | 3047m | -12.1m/s | 0°C | 0% | 0hPa | 0V | 00:00:00 | 00:00:00 | 00:00:00 | |
| MIELECB | 2026-08-31 01:21:00 | 50.01181 | 21.81612 | 63° | 31km/h | 3085m | -11.9m/s | 0°C | 0% | 0hPa | 0V | 00:00:00 | 00:00:00 | 00:00:00 | |
| MIELECB | 2026-08-31 01:20:50 | 50.01142 | 21.81495 | 72° | 33km/h | 3208m | -12.0m/s | 0°C | 0% | 0hPa | 0V | 00:00:00 | 00:00:00 | 00:00:00 | |
| AKAW68 | 2026-08-31 01:20:43 | 50.01114 | 21.81415 | 55° | 35km/h | 3295m | -14.0m/s | 0°C | 0% | 0hPa | 0V | 00:00:00 | 00:00:00 | 00:00:00 | |
| MIELECB | 2026-08-31 01:20:37 | 50.01087 | 21.81344 | 63° | 31km/h | 3371m | -11.9m/s | 0°C | 0% | 0hPa | 0V | 00:00:00 | 00:00:00 | 00:00:00 | |
| SQ9PSP-11 | 2026-08-31 01:20:28 | 50.01051 | 21.81226 | 66° | 37km/h | 3481m | -13.1m/s | 0°C | 0% | 0hPa | 0V | 00:00:00 | 00:00:00 | 00:00:00 | |
| MIELECB | 2026-08-31 01:20:23 | 50.01027 | 21.81163 | 63° | 38km/h | 3542m | -13.2m/s | 0°C | 0% | 0hPa | 0V | 00:00:00 | 00:00:00 | 00:00:00 | |
| MIELECB | 2026-08-31 01:20:18 | 50.01005 | 21.81097 | 65° | 37km/h | 3602m | -13.2m/s | 0°C | 0% | 0hPa | 0V | 00:00:00 | 00:00:00 | 00:00:00 | |
| MIELECB | 2026-08-31 01:20:12 | 50.00984 | 21.81013 | 76° | 42km/h | 3680m | -12.5m/s | 0°C | 0% | 0hPa | 0V | 00:00:00 | 00:00:00 | 00:00:00 | |
| MIELECB | 2026-08-31 01:20:06 | 50.00964 | 21.80917 | 72° | 47km/h | 3755m | -12.8m/s | 0°C | 0% | 0hPa | 0V | 00:00:00 | 00:00:00 | 00:00:00 | |
| MIELECB | 2026-08-31 01:20:00 | 50.00943 | 21.80813 | 74° | 47km/h | 3830m | -12.4m/s | 0°C | 0% | 0hPa | 0V | 00:00:00 | 00:00:00 | 00:00:00 | |
| MIELECB | 2026-08-31 01:19:55 | 50.00923 | 21.80727 | 71° | 46km/h | 3892m | -12.9m/s | 0°C | 0% | 0hPa | 0V | 00:00:00 | 00:00:00 | 00:00:00 | |
| AKAW68 | 2026-08-31 01:19:54 | 50.00920 | 21.80710 | 73° | 49km/h | 3905m | -11.9m/s | 0°C | 0% | 0hPa | 0V | 00:00:00 | 00:00:00 | 00:00:00 | |
| MIELECB | 2026-08-31 01:19:48 | 50.00900 | 21.80602 | 76° | 51km/h | 3981m | -13.5m/s | 0°C | 0% | 0hPa | 0V | 00:00:00 | 00:00:00 | 00:00:00 | |
| MIELECB | 2026-08-31 01:19:43 | 50.00881 | 21.80514 | 73° | 47km/h | 4044m | -12.4m/s | 0°C | 0% | 0hPa | 0V | 00:00:00 | 00:00:00 | 00:00:00 | |
| MIELECB | 2026-08-31 01:19:36 | 50.00854 | 21.80397 | 76° | 47km/h | 4132m | -11.6m/s | 0°C | 0% | 0hPa | 0V | 00:00:00 | 00:00:00 | 00:00:00 | |
| AKAW68 | 2026-08-31 01:19:33 | 50.00845 | 21.80345 | 79° | 47km/h | 4170m | -12.1m/s | 0°C | 0% | 0hPa | 0V | 00:00:00 | 00:00:00 | 00:00:00 | |
| MIELECB | 2026-08-31 01:19:31 | 50.00838 | 21.80313 | 77° | 44km/h | 4195m | -13.6m/s | 0°C | 0% | 0hPa | 0V | 00:00:00 | 00:00:00 | 00:00:00 | |
| MIELECB | 2026-08-31 01:19:25 | 50.00820 | 21.80230 | 74° | 35km/h | 4269m | -12.7m/s | 0°C | 0% | 0hPa | 0V | 00:00:00 | 00:00:00 | 00:00:00 | |
| MIELECB | 2026-08-31 01:19:20 | 50.00809 | 21.80162 | 88° | 33km/h | 4333m | -13.5m/s | 0°C | 0% | 0hPa | 0V | 00:00:00 | 00:00:00 | 00:00:00 | |
| MIELECB | 2026-08-31 01:19:12 | 50.00808 | 21.80073 | 91° | 27km/h | 4439m | -13.7m/s | 0°C | 0% | 0hPa | 0V | 00:00:00 | 00:00:00 | 00:00:00 | |
| MIELECB | 2026-08-31 01:19:04 | 50.00801 | 21.79980 | 88° | 35km/h | 4545m | -12.9m/s | 0°C | 0% | 0hPa | 0V | 00:00:00 | 00:00:00 | 00:00:00 | |
| MIELECB | 2026-08-31 01:18:58 | 50.00804 | 21.79897 | 97° | 37km/h | 4624m | -13.8m/s | 0°C | 0% | 0hPa | 0V | 00:00:00 | 00:00:00 | 00:00:00 | |
| MIELECB | 2026-08-31 01:18:50 | 50.00802 | 21.79796 | 86° | 35km/h | 4726m | -14.0m/s | 0°C | 0% | 0hPa | 0V | 00:00:00 | 00:00:00 | 00:00:00 | |
| MIELECB | 2026-08-31 01:18:44 | 50.00806 | 21.79712 | 102° | 37km/h | 4808m | -14.4m/s | 0°C | 0% | 0hPa | 0V | 00:00:00 | 00:00:00 | 00:00:00 | |
| MIELECB | 2026-08-31 01:18:29 | 50.00826 | 21.79480 | 102° | 46km/h | 5001m | -13.1m/s | 0°C | 0% | 0hPa | 0V | 00:00:00 | 00:00:00 | 00:00:00 | |
| MIELECB | 2026-08-31 01:18:18 | 50.00842 | 21.79297 | 102° | 42km/h | 5146m | -13.4m/s | 0°C | 0% | 0hPa | 0V | 00:00:00 | 00:00:00 | 00:00:00 | |
| MIELECB | 2026-08-31 01:18:01 | 50.00859 | 21.79023 | 102° | 38km/h | 5365m | -13.2m/s | 0°C | 0% | 0hPa | 0V | 00:00:00 | 00:00:00 | 00:00:00 | |
| MIELECB | 2026-08-31 01:17:56 | 50.00866 | 21.78950 | 92° | 44km/h | 5432m | -12.0m/s | 0°C | 0% | 0hPa | 0V | 00:00:00 | 00:00:00 | 00:00:00 | |
| MIELECB | 2026-08-31 01:17:51 | 50.00871 | 21.78872 | 101° | 35km/h | 5496m | -13.6m/s | 0°C | 0% | 0hPa | 0V | 00:00:00 | 00:00:00 | 00:00:00 | |
| MIELECB | 2026-08-31 01:17:40 | 50.00876 | 21.78708 | 92° | 40km/h | 5639m | -11.9m/s | 0°C | 0% | 0hPa | 0V | 00:00:00 | 00:00:00 | 00:00:00 | |
| AKAW682 | 2026-08-31 01:17:32 | 50.00879 | 21.78586 | 92° | 40km/h | 5745m | -12.2m/s | 0°C | 0% | 0hPa | 0V | 00:00:00 | 00:00:00 | 00:00:00 | |
| MIELECB | 2026-08-31 01:17:22 | 50.00888 | 21.78434 | 96° | 37km/h | 5873m | -12.6m/s | 0°C | 0% | 0hPa | 0V | 00:00:00 | 00:00:00 | 00:00:00 | |
| MIELECB | 2026-08-31 01:17:16 | 50.00888 | 21.78347 | 94° | 35km/h | 5948m | -11.6m/s | 0°C | 0% | 0hPa | 0V | 00:00:00 | 00:00:00 | 00:00:00 | |
| SQ9PSP-11 | 2026-08-31 01:17:15 | 50.00889 | 21.78334 | 90° | 33km/h | 5960m | -10.8m/s | 0°C | 0% | 0hPa | 0V | 00:00:00 | 00:00:00 | 00:00:00 | |
| MIELECB | 2026-08-31 01:17:11 | 50.00887 | 21.78274 | 91° | 37km/h | 6010m | -11.8m/s | 0°C | 0% | 0hPa | 0V | 00:00:00 | 00:00:00 | 00:00:00 | |
| AKAW682 | 2026-08-31 01:17:04 | 50.00888 | 21.78168 | 87° | 38km/h | 6097m | -11.7m/s | 0°C | 0% | 0hPa | 0V | 00:00:00 | 00:00:00 | 00:00:00 | |
| MIELECB | 2026-08-31 01:16:55 | 50.00888 | 21.78024 | 93° | 40km/h | 6209m | -10.9m/s | 0°C | 0% | 0hPa | 0V | 00:00:00 | 00:00:00 | 00:00:00 | |
| AKAW682 | 2026-08-31 01:16:43 | 50.00886 | 21.77827 | 85° | 44km/h | 6357m | -12.4m/s | 0°C | 0% | 0hPa | 0V | 00:00:00 | 00:00:00 | 00:00:00 | |
| SQ9PSP-11 | 2026-08-31 01:16:27 | 50.00873 | 21.77558 | 89° | 42km/h | 6552m | -10.9m/s | 0°C | 0% | 0hPa | 0V | 00:00:00 | 00:00:00 | 00:00:00 | |
| AKAW682 | 2026-08-31 01:16:11 | 50.00857 | 21.77279 | 82° | 44km/h | 6748m | -12.0m/s | 0°C | 0% | 0hPa | 0V | 00:00:00 | 00:00:00 | 00:00:00 | |
| SQ9PSP-11 | 2026-08-31 01:16:05 | 50.00849 | 21.77175 | 88° | 46km/h | 6824m | -11.4m/s | 0°C | 0% | 0hPa | 0V | 00:00:00 | 00:00:00 | 00:00:00 | |
| AKAW68 | 2026-08-31 01:15:57 | 50.00841 | 21.77025 | 90° | 44km/h | 6924m | -12.0m/s | 0°C | 0% | 0hPa | 0V | 00:00:00 | 00:00:00 | 00:00:00 | |
| MIELECB | 2026-08-31 01:15:56 | 50.00840 | 21.77007 | 86° | 46km/h | 6936m | -12.1m/s | 0°C | 0% | 0hPa | 0V | 00:00:00 | 00:00:00 | 00:00:00 | |
| MIELECB | 2026-08-31 01:15:51 | 50.00836 | 21.76914 | 93° | 49km/h | 6999m | -13.4m/s | 0°C | 0% | 0hPa | 0V | 00:00:00 | 00:00:00 | 00:00:00 | |
| SQ9PSP-11 | 2026-08-31 01:15:50 | 50.00836 | 21.76895 | 91° | 49km/h | 7011m | -10.8m/s | 0°C | 0% | 0hPa | 0V | 00:00:00 | 00:00:00 | 00:00:00 | |
| AKAW682 | 2026-08-31 01:15:48 | 50.00836 | 21.76858 | 88° | 49km/h | 7036m | -12.1m/s | 0°C | 0% | 0hPa | 0V | 00:00:00 | 00:00:00 | 00:00:00 | |
| MIELECB | 2026-08-31 01:15:45 | 50.00835 | 21.76799 | 87° | 47km/h | 7075m | -12.7m/s | 0°C | 0% | 0hPa | 0V | 00:00:00 | 00:00:00 | 00:00:00 | |
| MIELECB | 2026-08-31 01:15:34 | 50.00827 | 21.76576 | 92° | 51km/h | 7216m | -14.3m/s | 0°C | 0% | 0hPa | 0V | 00:00:00 | 00:00:00 | 00:00:00 | |
| SQ9PSP-11 | 2026-08-31 01:15:32 | 50.00828 | 21.76537 | 94° | 51km/h | 7244m | -13.1m/s | 0°C | 0% | 0hPa | 0V | 00:00:00 | 00:00:00 | 00:00:00 | |
| MIELECB | 2026-08-31 01:15:28 | 50.00827 | 21.76456 | 90° | 51km/h | 7297m | -13.0m/s | 0°C | 0% | 0hPa | 0V | 00:00:00 | 00:00:00 | 00:00:00 | |
| AKAW682 | 2026-08-31 01:15:27 | 50.00827 | 21.76436 | 91° | 53km/h | 7310m | -13.1m/s | 0°C | 0% | 0hPa | 0V | 00:00:00 | 00:00:00 | 00:00:00 | |
| MIELECB | 2026-08-31 01:15:22 | 50.00829 | 21.76332 | 87° | 55km/h | 7372m | -12.0m/s | 0°C | 0% | 0hPa | 0V | 00:00:00 | 00:00:00 | 00:00:00 | |
| MIELECB | 2026-08-31 01:15:15 | 50.00831 | 21.76149 | 89° | 60km/h | 7478m | -12.8m/s | 0°C | 0% | 0hPa | 0V | 00:00:00 | 00:00:00 | 00:00:00 | |
| SQ9PSP-11 | 2026-08-31 01:15:13 | 50.00830 | 21.76125 | 91° | 60km/h | 7491m | -14.3m/s | 0°C | 0% | 0hPa | 0V | 00:00:00 | 00:00:00 | 00:00:00 | |
| AKAW68 | 2026-08-31 01:15:11 | 50.00831 | 21.76077 | 93° | 57km/h | 7523m | -14.3m/s | 0°C | 0% | 0hPa | 0V | 00:00:00 | 00:00:00 | 00:00:00 | |
| AKAW682 | 2026-08-31 01:15:05 | 50.00837 | 21.75942 | 93° | 60km/h | 7604m | -11.6m/s | 0°C | 0% | 0hPa | 0V | 00:00:00 | 00:00:00 | 00:00:00 | |
| MIELECB | 2026-08-31 01:14:58 | 50.00841 | 21.75780 | 93° | 57km/h | 7695m | -12.2m/s | 0°C | 0% | 0hPa | 0V | 00:00:00 | 00:00:00 | 00:00:00 | |
| MIELECB | 2026-08-31 01:14:45 | 50.00842 | 21.75479 | 92° | 55km/h | 7858m | -12.0m/s | 0°C | 0% | 0hPa | 0V | 00:00:00 | 00:00:00 | 00:00:00 | |
| SQ9PSP-11 | 2026-08-31 01:14:42 | 50.00843 | 21.75412 | 95° | 53km/h | 7898m | -12.4m/s | 0°C | 0% | 0hPa | 0V | 00:00:00 | 00:00:00 | 00:00:00 | |
| AKAW682 | 2026-08-31 01:14:40 | 50.00844 | 21.75367 | 93° | 58km/h | 7922m | -10.4m/s | 0°C | 0% | 0hPa | 0V | 00:00:00 | 00:00:00 | 00:00:00 | |
| MIELECB | 2026-08-31 01:14:38 | 50.00845 | 21.75322 | 90° | 58km/h | 7948m | -11.0m/s | 0°C | 0% | 0hPa | 0V | 00:00:00 | 00:00:00 | 00:00:00 | |
| MIELECB | 2026-08-31 01:14:32 | 50.00849 | 21.75187 | 95° | 58km/h | 8023m | -12.3m/s | 0°C | 0% | 0hPa | 0V | 00:00:00 | 00:00:00 | 00:00:00 | |
| MIELECB | 2026-08-31 01:14:26 | 50.00850 | 21.75053 | 90° | 55km/h | 8096m | -12.2m/s | 0°C | 0% | 0hPa | 0V | 00:00:00 | 00:00:00 | 00:00:00 | |
| SQ9PSP-11 | 2026-08-31 01:14:14 | 50.00854 | 21.74790 | 91° | 53km/h | 8253m | -12.0m/s | 0°C | 0% | 0hPa | 0V | 00:00:00 | 00:00:00 | 00:00:00 | |
| MIELECB | 2026-08-31 01:14:13 | 50.00854 | 21.74769 | 93° | 51km/h | 8266m | -12.6m/s | 0°C | 0% | 0hPa | 0V | 00:00:00 | 00:00:00 | 00:00:00 | |
| MIELECB | 2026-08-31 01:14:05 | 50.00856 | 21.74599 | 92° | 55km/h | 8375m | -12.1m/s | 0°C | 0% | 0hPa | 0V | 00:00:00 | 00:00:00 | 00:00:00 | |
| AKAW682 | 2026-08-31 01:13:58 | 50.00860 | 21.74443 | 94° | 58km/h | 8461m | -11.1m/s | 0°C | 0% | 0hPa | 0V | 00:00:00 | 00:00:00 | 00:00:00 | |
| SQ9PSP-11 | 2026-08-31 01:13:56 | 50.00861 | 21.74399 | 93° | 53km/h | 8487m | -10.5m/s | 0°C | 0% | 0hPa | 0V | 00:00:00 | 00:00:00 | 00:00:00 | |
| MIELECB | 2026-08-31 01:13:54 | 50.00860 | 21.74356 | 86° | 55km/h | 8511m | -12.1m/s | 0°C | 0% | 0hPa | 0V | 00:00:00 | 00:00:00 | 00:00:00 | |
| MIELECB | 2026-08-31 01:13:49 | 50.00860 | 21.74249 | 89° | 51km/h | 8573m | -11.5m/s | 0°C | 0% | 0hPa | 0V | 00:00:00 | 00:00:00 | 00:00:00 | |
| SQ9PSP-11 | 2026-08-31 01:13:41 | 50.00856 | 21.74069 | 88° | 57km/h | 8673m | -10.1m/s | 0°C | 0% | 0hPa | 0V | 00:00:00 | 00:00:00 | 00:00:00 | |
| MIELECB | 2026-08-31 01:13:38 | 50.00855 | 21.73999 | 94° | 60km/h | 8711m | -13.4m/s | 0°C | 0% | 0hPa | 0V | 00:00:00 | 00:00:00 | 00:00:00 | |
| AKAW682 | 2026-08-31 01:13:35 | 50.00856 | 21.73928 | 92° | 57km/h | 8751m | -12.1m/s | 0°C | 0% | 0hPa | 0V | 00:00:00 | 00:00:00 | 00:00:00 | |
| MIELECB | 2026-08-31 01:13:31 | 50.00859 | 21.73836 | 95° | 62km/h | 8798m | -8.4m/s | 0°C | 0% | 0hPa | 0V | 00:00:00 | 00:00:00 | 00:00:00 | |
| MIELECB | 2026-08-31 01:13:26 | 50.00867 | 21.73712 | 100° | 64km/h | 8858m | -12.3m/s | 0°C | 0% | 0hPa | 0V | 00:00:00 | 00:00:00 | 00:00:00 | |
| SQ9PSP-11 | 2026-08-31 01:13:24 | 50.00871 | 21.73663 | 100° | 64km/h | 8885m | -13.3m/s | 0°C | 0% | 0hPa | 0V | 00:00:00 | 00:00:00 | 00:00:00 | |
| MIELECB | 2026-08-31 01:13:19 | 50.00883 | 21.73541 | 97° | 62km/h | 8948m | -11.8m/s | 0°C | 0% | 0hPa | 0V | 00:00:00 | 00:00:00 | 00:00:00 | |
| MIELECB | 2026-08-31 01:13:14 | 50.00893 | 21.73418 | 99° | 62km/h | 9011m | -14.5m/s | 0°C | 0% | 0hPa | 0V | 00:00:00 | 00:00:00 | 00:00:00 | |
| AKAW682 | 2026-08-31 01:13:11 | 50.00900 | 21.73345 | 95° | 64km/h | 9051m | -9.8m/s | 0°C | 0% | 0hPa | 0V | 00:00:00 | 00:00:00 | 00:00:00 | |
| SQ9PSP-11 | 2026-08-31 01:13:09 | 50.00904 | 21.73293 | 96° | 60km/h | 9075m | -12.4m/s | 0°C | 0% | 0hPa | 0V | 00:00:00 | 00:00:00 | 00:00:00 | |
| AKAW68 | 2026-08-31 01:13:07 | 50.00908 | 21.73245 | 98° | 60km/h | 9102m | -11.1m/s | 0°C | 0% | 0hPa | 0V | 00:00:00 | 00:00:00 | 00:00:00 | |
| MIELECB | 2026-08-31 01:13:03 | 50.00916 | 21.73145 | 101° | 62km/h | 9154m | -11.9m/s | 0°C | 0% | 0hPa | 0V | 00:00:00 | 00:00:00 | 00:00:00 | |
| MIELECB | 2026-08-31 01:12:55 | 50.00938 | 21.72938 | 99° | 68km/h | 9254m | -11.1m/s | 0°C | 0% | 0hPa | 0V | 00:00:00 | 00:00:00 | 00:00:00 | |
| SQ9PSP-11 | 2026-08-31 01:12:53 | 50.00943 | 21.72888 | 99° | 64km/h | 9280m | -10.7m/s | 0°C | 0% | 0hPa | 0V | 00:00:00 | 00:00:00 | 00:00:00 | |
| AKAW682 | 2026-08-31 01:12:51 | 50.00947 | 21.72837 | 100° | 68km/h | 9305m | -10.4m/s | 0°C | 0% | 0hPa | 0V | 00:00:00 | 00:00:00 | 00:00:00 | |
| MIELECB | 2026-08-31 01:12:50 | 50.00950 | 21.72810 | 99° | 66km/h | 9317m | -11.7m/s | 0°C | 0% | 0hPa | 0V | 00:00:00 | 00:00:00 | 00:00:00 | |
| MIELECB | 2026-08-31 01:12:45 | 50.00964 | 21.72683 | 101° | 68km/h | 9381m | -10.6m/s | 0°C | 0% | 0hPa | 0V | 00:00:00 | 00:00:00 | 00:00:00 | |
| MIELECB | 2026-08-31 01:12:39 | 50.00980 | 21.72525 | 100° | 66km/h | 9454m | -12.2m/s | 0°C | 0% | 0hPa | 0V | 00:00:00 | 00:00:00 | 00:00:00 | |
| SQ9EZE-15 | 2026-08-31 01:12:38 | 50.00982 | 21.72499 | 102° | 66km/h | 9467m | -10.6m/s | 0°C | 0% | 0hPa | 0V | 00:00:00 | 00:00:00 | 00:00:00 | |
| MIELECB | 2026-08-31 01:12:33 | 50.00997 | 21.72371 | 104° | 66km/h | 9533m | -12.8m/s | 0°C | 0% | 0hPa | 0V | 00:00:00 | 00:00:00 | 00:00:00 | |
| MIELECB | 2026-08-31 01:12:28 | 50.01019 | 21.72214 | 106° | 71km/h | 9610m | -12.4m/s | 0°C | 0% | 0hPa | 0V | 00:00:00 | 00:00:00 | 00:00:00 | |
| AKAW68 | 2026-08-31 01:12:24 | 50.01031 | 21.72133 | 103° | 73km/h | 9652m | -13.9m/s | 0°C | 0% | 0hPa | 0V | 00:00:00 | 00:00:00 | 00:00:00 | |
| SQ9PSP-11 | 2026-08-31 01:12:20 | 50.01049 | 21.72024 | 106° | 69km/h | 9708m | -14.3m/s | 0°C | 0% | 0hPa | 0V | 00:00:00 | 00:00:00 | 00:00:00 | |
| AKAW682 | 2026-08-31 01:12:17 | 50.01063 | 21.71945 | 108° | 71km/h | 9751m | -15.4m/s | 0°C | 0% | 0hPa | 0V | 00:00:00 | 00:00:00 | 00:00:00 | |
| MIELECB | 2026-08-31 01:12:14 | 50.01077 | 21.71863 | 111° | 73km/h | 9797m | -14.2m/s | 0°C | 0% | 0hPa | 0V | 00:00:00 | 00:00:00 | 00:00:00 | |
| MIELECB | 2026-08-31 01:12:08 | 50.01109 | 21.71700 | 111° | 73km/h | 9878m | -14.0m/s | 0°C | 0% | 0hPa | 0V | 00:00:00 | 00:00:00 | 00:00:00 | |
| AKAW68 | 2026-08-31 01:12:02 | 50.01139 | 21.71538 | 106° | 73km/h | 9965m | -15.0m/s | 0°C | 0% | 0hPa | 0V | 00:00:00 | 00:00:00 | 00:00:00 | |
| MIELECB | 2026-08-31 01:12:00 | 50.01150 | 21.71484 | 104° | 73km/h | 9994m | -13.4m/s | 0°C | 0% | 0hPa | 0V | 00:00:00 | 00:00:00 | 00:00:00 | |
| AKAW682 | 2026-08-31 01:11:56 | 50.01167 | 21.71374 | 109° | 68km/h | 10053m | -13.0m/s | 0°C | 0% | 0hPa | 0V | 00:00:00 | 00:00:00 | 00:00:00 | |
| MIELECB | 2026-08-31 01:11:54 | 50.01176 | 21.71320 | 105° | 71km/h | 10083m | -12.6m/s | 0°C | 0% | 0hPa | 0V | 00:00:00 | 00:00:00 | 00:00:00 | |
| MIELECB | 2026-08-31 01:11:48 | 50.01206 | 21.71153 | 108° | 71km/h | 10169m | -13.3m/s | 0°C | 0% | 0hPa | 0V | 00:00:00 | 00:00:00 | 00:00:00 | |
| SQ9PSP-11 | 2026-08-31 01:11:47 | 50.01211 | 21.71125 | 105° | 77km/h | 10183m | -13.4m/s | 0°C | 0% | 0hPa | 0V | 00:00:00 | 00:00:00 | 00:00:00 | |
| MIELECB | 2026-08-31 01:11:42 | 50.01233 | 21.70983 | 102° | 73km/h | 10251m | -14.4m/s | 0°C | 0% | 0hPa | 0V | 00:00:00 | 00:00:00 | 00:00:00 | |
| AKAW68 | 2026-08-31 01:11:41 | 50.01238 | 21.70955 | 105° | 75km/h | 10267m | -12.4m/s | 0°C | 0% | 0hPa | 0V | 00:00:00 | 00:00:00 | 00:00:00 | |
| MIELECB | 2026-08-31 01:11:37 | 50.01256 | 21.70839 | 105° | 78km/h | 10324m | -12.6m/s | 0°C | 0% | 0hPa | 0V | 00:00:00 | 00:00:00 | 00:00:00 | |
| AKAW682 | 2026-08-31 01:11:35 | 50.01266 | 21.70780 | 105° | 77km/h | 10353m | -13.4m/s | 0°C | 0% | 0hPa | 0V | 00:00:00 | 00:00:00 | 00:00:00 | |
| MIELECB | 2026-08-31 01:11:31 | 50.01286 | 21.70658 | 105° | 80km/h | 10408m | -12.4m/s | 0°C | 0% | 0hPa | 0V | 00:00:00 | 00:00:00 | 00:00:00 | |
| SQ9PSP-11 | 2026-08-31 01:11:30 | 50.01290 | 21.70628 | 107° | 80km/h | 10421m | -13.4m/s | 0°C | 0% | 0hPa | 0V | 00:00:00 | 00:00:00 | 00:00:00 | |
| MIELECB | 2026-08-31 01:11:20 | 50.01340 | 21.70313 | 104° | 84km/h | 10560m | -11.4m/s | 0°C | 0% | 0hPa | 0V | 00:00:00 | 00:00:00 | 00:00:00 | |
| AKAW68 | 2026-08-31 01:11:17 | 50.01355 | 21.70214 | 104° | 89km/h | 10601m | -13.2m/s | 0°C | 0% | 0hPa | 0V | 00:00:00 | 00:00:00 | 00:00:00 | |
| AKAW682 | 2026-08-31 01:11:15 | 50.01366 | 21.70148 | 106° | 84km/h | 10629m | -14.4m/s | 0°C | 0% | 0hPa | 0V | 00:00:00 | 00:00:00 | 00:00:00 | |
| MIELECB | 2026-08-31 01:11:14 | 50.01371 | 21.70116 | 106° | 84km/h | 10644m | -14.1m/s | 0°C | 0% | 0hPa | 0V | 00:00:00 | 00:00:00 | 00:00:00 | |
| SQ9PSP-11 | 2026-08-31 01:11:12 | 50.01380 | 21.70051 | 105° | 89km/h | 10673m | -15.1m/s | 0°C | 0% | 0hPa | 0V | 00:00:00 | 00:00:00 | 00:00:00 | |
| MIELECB | 2026-08-31 01:11:08 | 50.01403 | 21.69913 | 103° | 84km/h | 10733m | -15.1m/s | 0°C | 0% | 0hPa | 0V | 00:00:00 | 00:00:00 | 00:00:00 | |
| MIELECB | 2026-08-31 01:11:01 | 50.01439 | 21.69673 | 103° | 89km/h | 10835m | -14.7m/s | 0°C | 0% | 0hPa | 0V | 00:00:00 | 00:00:00 | 00:00:00 | |
| SQ9PSP-11 | 2026-08-31 01:10:56 | 50.01468 | 21.69496 | 104° | 91km/h | 10910m | -14.7m/s | 0°C | 0% | 0hPa | 0V | 00:00:00 | 00:00:00 | 00:00:00 | |
| AKAW68 | 2026-08-31 01:10:55 | 50.01473 | 21.69461 | 102° | 95km/h | 10926m | -15.2m/s | 0°C | 0% | 0hPa | 0V | 00:00:00 | 00:00:00 | 00:00:00 | |
| MIELECB | 2026-08-31 01:10:50 | 50.01502 | 21.69280 | 105° | 91km/h | 11000m | -14.7m/s | 0°C | 0% | 0hPa | 0V | 00:00:00 | 00:00:00 | 00:00:00 | |
| MIELECB | 2026-08-31 01:10:45 | 50.01534 | 21.69102 | 106° | 95km/h | 11075m | -15.6m/s | 0°C | 0% | 0hPa | 0V | 00:00:00 | 00:00:00 | 00:00:00 | |
| SQ9PSP-11 | 2026-08-31 01:10:41 | 50.01559 | 21.68958 | 106° | 95km/h | 11140m | -16.1m/s | 0°C | 0% | 0hPa | 0V | 00:00:00 | 00:00:00 | 00:00:00 | |
| MIELECB | 2026-08-31 01:10:33 | 50.01614 | 21.68684 | 111° | 86km/h | 11261m | -15.7m/s | 0°C | 0% | 0hPa | 0V | 00:00:00 | 00:00:00 | 00:00:00 | |
| MIELECB | 2026-08-31 01:10:28 | 50.01651 | 21.68526 | 109° | 82km/h | 11339m | -15.7m/s | 0°C | 0% | 0hPa | 0V | 00:00:00 | 00:00:00 | 00:00:00 | |
| AKAW68 | 2026-08-31 01:10:27 | 50.01658 | 21.68495 | 112° | 84km/h | 11354m | -13.8m/s | 0°C | 0% | 0hPa | 0V | 00:00:00 | 00:00:00 | 00:00:00 | |
| SQ9PSP-11 | 2026-08-31 01:10:22 | 50.01695 | 21.68334 | 111° | 91km/h | 11434m | -16.5m/s | 0°C | 0% | 0hPa | 0V | 00:00:00 | 00:00:00 | 00:00:00 | |
| MIELECB | 2026-08-31 01:10:19 | 50.01718 | 21.68233 | 110° | 89km/h | 11485m | -15.6m/s | 0°C | 0% | 0hPa | 0V | 00:00:00 | 00:00:00 | 00:00:00 | |
| MIELECB | 2026-08-31 01:10:10 | 50.01783 | 21.67917 | 109° | 91km/h | 11633m | -16.2m/s | 0°C | 0% | 0hPa | 0V | 00:00:00 | 00:00:00 | 00:00:00 | |
| AKAW682 | 2026-08-31 01:10:08 | 50.01798 | 21.67845 | 108° | 95km/h | 11667m | -15.3m/s | 0°C | 0% | 0hPa | 0V | 00:00:00 | 00:00:00 | 00:00:00 | |
| SQ9PSP-11 | 2026-08-31 01:10:07 | 50.01805 | 21.67810 | 108° | 91km/h | 11682m | -14.9m/s | 0°C | 0% | 0hPa | 0V | 00:00:00 | 00:00:00 | 00:00:00 | |
| AKAW68 | 2026-08-31 01:10:01 | 50.01845 | 21.67597 | 105° | 97km/h | 11776m | -16.5m/s | 0°C | 0% | 0hPa | 0V | 00:00:00 | 00:00:00 | 00:00:00 | |
| MIELECB | 2026-08-31 01:09:57 | 50.01870 | 21.67447 | 104° | 99km/h | 11841m | -16.2m/s | 0°C | 0% | 0hPa | 0V | 00:00:00 | 00:00:00 | 00:00:00 | |
| SQ9PSP-11 | 2026-08-31 01:09:52 | 50.01904 | 21.67249 | 107° | 104km/h | 11923m | -17.4m/s | 0°C | 0% | 0hPa | 0V | 00:00:00 | 00:00:00 | 00:00:00 | |
| AKAW682 | 2026-08-31 01:09:46 | 50.01945 | 21.67018 | 106° | 99km/h | 12022m | -15.4m/s | 0°C | 0% | 0hPa | 0V | 00:00:00 | 00:00:00 | 00:00:00 | |
| AKAW68 | 2026-08-31 01:09:41 | 50.01977 | 21.66849 | 109° | 84km/h | 12104m | -15.9m/s | 0°C | 0% | 0hPa | 0V | 00:00:00 | 00:00:00 | 00:00:00 | |
| MIELECB | 2026-08-31 01:09:40 | 50.01984 | 21.66817 | 108° | 89km/h | 12120m | -17.0m/s | 0°C | 0% | 0hPa | 0V | 00:00:00 | 00:00:00 | 00:00:00 | |
| SQ9PSP-11 | 2026-08-31 01:09:36 | 50.02008 | 21.66687 | 107° | 89km/h | 12184m | -15.6m/s | 0°C | 0% | 0hPa | 0V | 00:00:00 | 00:00:00 | 00:00:00 | |
| MIELECB | 2026-08-31 01:09:29 | 50.02056 | 21.66450 | 110° | 95km/h | 12299m | -16.5m/s | 0°C | 0% | 0hPa | 0V | 00:00:00 | 00:00:00 | 00:00:00 | |
| AKAW682 | 2026-08-31 01:09:26 | 50.02080 | 21.66347 | 113° | 89km/h | 12350m | -16.4m/s | 0°C | 0% | 0hPa | 0V | 00:00:00 | 00:00:00 | 00:00:00 | |
| SQ9PSP-11 | 2026-08-31 01:09:21 | 50.02121 | 21.66182 | 112° | 82km/h | 12435m | -17.8m/s | 0°C | 0% | 0hPa | 0V | 00:00:00 | 00:00:00 | 00:00:00 | |
| AKAW68 | 2026-08-31 01:09:20 | 50.02128 | 21.66151 | 110° | 82km/h | 12452m | -15.7m/s | 0°C | 0% | 0hPa | 0V | 00:00:00 | 00:00:00 | 00:00:00 | |
| MIELECB | 2026-08-31 01:09:14 | 50.02167 | 21.65974 | 111° | 73km/h | 12556m | -16.7m/s | 0°C | 0% | 0hPa | 0V | 00:00:00 | 00:00:00 | 00:00:00 | |
| MIELECB | 2026-08-31 01:09:02 | 50.02221 | 21.65643 | 99° | 73km/h | 12766m | -16.5m/s | 0°C | 0% | 0hPa | 0V | 00:00:00 | 00:00:00 | 00:00:00 | |
| AKAW682 | 2026-08-31 01:09:01 | 50.02224 | 21.65615 | 100° | 75km/h | 12784m | -16.5m/s | 0°C | 0% | 0hPa | 0V | 00:00:00 | 00:00:00 | 00:00:00 | |
| AKAW68 | 2026-08-31 01:09:00 | 50.02227 | 21.65585 | 100° | 78km/h | 12801m | -15.9m/s | 0°C | 0% | 0hPa | 0V | 00:00:00 | 00:00:00 | 00:00:00 | |
| MIELECB | 2026-08-31 01:08:56 | 50.02240 | 21.65462 | 100° | 80km/h | 12873m | -16.2m/s | 0°C | 0% | 0hPa | 0V | 00:00:00 | 00:00:00 | 00:00:00 | |
| MIELECB | 2026-08-31 01:08:50 | 50.02256 | 21.65281 | 96° | 78km/h | 12975m | -16.2m/s | 0°C | 0% | 0hPa | 0V | 00:00:00 | 00:00:00 | 00:00:00 | |
| SQ9PSP-11 | 2026-08-31 01:08:47 | 50.02264 | 21.65190 | 100° | 78km/h | 13027m | -15.3m/s | 0°C | 0% | 0hPa | 0V | 00:00:00 | 00:00:00 | 00:00:00 | |
| MIELECB | 2026-08-31 01:08:44 | 50.02274 | 21.65098 | 103° | 73km/h | 13076m | -16.2m/s | 0°C | 0% | 0hPa | 0V | 00:00:00 | 00:00:00 | 00:00:00 | |
| AKAW68 | 2026-08-31 01:08:39 | 50.02290 | 21.64962 | 98° | 71km/h | 13159m | -17.2m/s | 0°C | 0% | 0hPa | 0V | 00:00:00 | 00:00:00 | 00:00:00 | |
| MIELECB | 2026-08-31 01:08:37 | 50.02295 | 21.64907 | 100° | 73km/h | 13196m | -19.9m/s | 0°C | 0% | 0hPa | 0V | 00:00:00 | 00:00:00 | 00:00:00 | |
| AKAW682 | 2026-08-31 01:08:36 | 50.02298 | 21.64879 | 98° | 71km/h | 13215m | -16.7m/s | 0°C | 0% | 0hPa | 0V | 00:00:00 | 00:00:00 | 00:00:00 | |
| MIELECB | 2026-08-31 01:08:31 | 50.02314 | 21.64750 | 102° | 64km/h | 13303m | -18.3m/s | 0°C | 0% | 0hPa | 0V | 00:00:00 | 00:00:00 | 00:00:00 | |
| SQ9PSP-11 | 2026-08-31 01:08:30 | 50.02317 | 21.64725 | 100° | 66km/h | 13321m | -17.3m/s | 0°C | 0% | 0hPa | 0V | 00:00:00 | 00:00:00 | 00:00:00 | |
| MIELECB | 2026-08-31 01:08:24 | 50.02330 | 21.64571 | 99° | 69km/h | 13431m | -18.1m/s | 0°C | 0% | 0hPa | 0V | 00:00:00 | 00:00:00 | 00:00:00 | |
| MIELECB | 2026-08-31 01:08:17 | 50.02346 | 21.64375 | 99° | 80km/h | 13563m | -18.7m/s | 0°C | 0% | 0hPa | 0V | 00:00:00 | 00:00:00 | 00:00:00 | |
| SQ9PSP-11 | 2026-08-31 01:08:15 | 50.02353 | 21.64311 | 102° | 78km/h | 13601m | -16.2m/s | 0°C | 0% | 0hPa | 0V | 00:00:00 | 00:00:00 | 00:00:00 | |
| AKAW682 | 2026-08-31 01:08:12 | 50.02364 | 21.64224 | 102° | 73km/h | 13653m | -17.4m/s | 0°C | 0% | 0hPa | 0V | 00:00:00 | 00:00:00 | 00:00:00 | |
| MIELECB | 2026-08-31 01:08:10 | 50.02370 | 21.64166 | 103° | 73km/h | 13689m | -16.6m/s | 0°C | 0% | 0hPa | 0V | 00:00:00 | 00:00:00 | 00:00:00 | |
| MIELECB | 2026-08-31 01:08:03 | 50.02405 | 21.63969 | 108° | 68km/h | 13813m | -17.8m/s | 0°C | 0% | 0hPa | 0V | 00:00:00 | 00:00:00 | 00:00:00 | |
| MIELECB | 2026-08-31 01:07:58 | 50.02427 | 21.63837 | 102° | 71km/h | 13900m | -15.8m/s | 0°C | 0% | 0hPa | 0V | 00:00:00 | 00:00:00 | 00:00:00 | |
| AKAW68 | 2026-08-31 01:07:57 | 50.02431 | 21.63811 | 104° | 66km/h | 13918m | -15.9m/s | 0°C | 0% | 0hPa | 0V | 00:00:00 | 00:00:00 | 00:00:00 | |
| MIELECB | 2026-08-31 01:07:49 | 50.02450 | 21.63594 | 97° | 73km/h | 14057m | -16.4m/s | 0°C | 0% | 0hPa | 0V | 00:00:00 | 00:00:00 | 00:00:00 | |
| MIELECB | 2026-08-31 01:07:44 | 50.02457 | 21.63447 | 96° | 73km/h | 14142m | -15.2m/s | 0°C | 0% | 0hPa | 0V | 00:00:00 | 00:00:00 | 00:00:00 | |
| SQ9PSP-11 | 2026-08-31 01:07:43 | 50.02459 | 21.63418 | 96° | 75km/h | 14159m | -16.0m/s | 0°C | 0% | 0hPa | 0V | 00:00:00 | 00:00:00 | 00:00:00 | |
| AKAW68 | 2026-08-31 01:07:37 | 50.02471 | 21.63247 | 96° | 71km/h | 14256m | -15.0m/s | 0°C | 0% | 0hPa | 0V | 00:00:00 | 00:00:00 | 00:00:00 | |
| MIELECB | 2026-08-31 01:07:34 | 50.02478 | 21.63163 | 100° | 66km/h | 14308m | -17.8m/s | 0°C | 0% | 0hPa | 0V | 00:00:00 | 00:00:00 | 00:00:00 | |
| SQ9PSP-11 | 2026-08-31 01:07:28 | 50.02498 | 21.63013 | 105° | 68km/h | 14416m | -18.7m/s | 0°C | 0% | 0hPa | 0V | 00:00:00 | 00:00:00 | 00:00:00 | |
| MIELECB | 2026-08-31 01:07:26 | 50.02506 | 21.62961 | 102° | 68km/h | 14455m | -16.9m/s | 0°C | 0% | 0hPa | 0V | 00:00:00 | 00:00:00 | 00:00:00 | |
| MIELECB | 2026-08-31 01:07:18 | 50.02530 | 21.62782 | 99° | 53km/h | 14602m | -18.9m/s | 0°C | 0% | 0hPa | 0V | 00:00:00 | 00:00:00 | 00:00:00 | |
| AKAW68 | 2026-08-31 01:07:17 | 50.02532 | 21.62764 | 101° | 46km/h | 14623m | -17.6m/s | 0°C | 0% | 0hPa | 0V | 00:00:00 | 00:00:00 | 00:00:00 | |
| MIELECB | 2026-08-31 01:07:12 | 50.02541 | 21.62679 | 92° | 38km/h | 14722m | -21.5m/s | 0°C | 0% | 0hPa | 0V | 00:00:00 | 00:00:00 | 00:00:00 | |
| AKAW682 | 2026-08-31 01:07:08 | 50.02541 | 21.62618 | 86° | 42km/h | 14806m | -18.6m/s | 0°C | 0% | 0hPa | 0V | 00:00:00 | 00:00:00 | 00:00:00 | |
| MIELECB | 2026-08-31 01:07:06 | 50.02539 | 21.62584 | 86° | 38km/h | 14847m | -19.7m/s | 0°C | 0% | 0hPa | 0V | 00:00:00 | 00:00:00 | 00:00:00 | |
| SQ9PSP-11 | 2026-08-31 01:06:57 | 50.02521 | 21.62417 | 85° | 53km/h | 15031m | -20.0m/s | 0°C | 0% | 0hPa | 0V | 00:00:00 | 00:00:00 | 00:00:00 | |
| AKAW68 | 2026-08-31 01:06:56 | 50.02520 | 21.62396 | 87° | 58km/h | 15053m | -20.2m/s | 0°C | 0% | 0hPa | 0V | 00:00:00 | 00:00:00 | 00:00:00 | |
| MIELECB | 2026-08-31 01:06:51 | 50.02523 | 21.62286 | 99° | 47km/h | 15156m | -20.8m/s | 0°C | 0% | 0hPa | 0V | 00:00:00 | 00:00:00 | 00:00:00 | |
| MIELECB | 2026-08-31 01:06:46 | 50.02529 | 21.62192 | 92° | 51km/h | 15260m | -18.7m/s | 0°C | 0% | 0hPa | 0V | 00:00:00 | 00:00:00 | 00:00:00 | |
| MIELECB | 2026-08-31 01:06:40 | 50.02527 | 21.62094 | 90° | 40km/h | 15386m | -21.4m/s | 0°C | 0% | 0hPa | 0V | 00:00:00 | 00:00:00 | 00:00:00 | |
| SQ9PSP-11 | 2026-08-31 01:06:39 | 50.02527 | 21.62080 | 90° | 37km/h | 15408m | -19.8m/s | 0°C | 0% | 0hPa | 0V | 00:00:00 | 00:00:00 | 00:00:00 | |
| AKAW68 | 2026-08-31 01:06:35 | 50.02534 | 21.62021 | 107° | 31km/h | 15494m | -21.2m/s | 0°C | 0% | 0hPa | 0V | 00:00:00 | 00:00:00 | 00:00:00 | |
| AKAW682 | 2026-08-31 01:06:34 | 50.02536 | 21.62009 | 102° | 33km/h | 15516m | -21.3m/s | 0°C | 0% | 0hPa | 0V | 00:00:00 | 00:00:00 | 00:00:00 | |
| MIELECB | 2026-08-31 01:06:25 | 50.02546 | 21.61911 | 83° | 27km/h | 15711m | -22.1m/s | 0°C | 0% | 0hPa | 0V | 00:00:00 | 00:00:00 | 00:00:00 | |
| SQ9PSP-11 | 2026-08-31 01:06:23 | 50.02544 | 21.61890 | 90° | 26km/h | 15755m | -20.9m/s | 0°C | 0% | 0hPa | 0V | 00:00:00 | 00:00:00 | 00:00:00 | |
| MIELECB | 2026-08-31 01:06:17 | 50.02539 | 21.61845 | 65° | 16km/h | 15883m | -19.8m/s | 0°C | 0% | 0hPa | 0V | 00:00:00 | 00:00:00 | 00:00:00 | |
| AKAW68 | 2026-08-31 01:06:15 | 50.02537 | 21.61833 | 74° | 18km/h | 15924m | -22.8m/s | 0°C | 0% | 0hPa | 0V | 00:00:00 | 00:00:00 | 00:00:00 | |
| AKAW682 | 2026-08-31 01:06:12 | 50.02533 | 21.61809 | 78° | 24km/h | 15989m | -21.7m/s | 0°C | 0% | 0hPa | 0V | 00:00:00 | 00:00:00 | 00:00:00 | |
| MIELECB | 2026-08-31 01:06:10 | 50.02532 | 21.61792 | 87° | 26km/h | 16034m | -21.5m/s | 0°C | 0% | 0hPa | 0V | 00:00:00 | 00:00:00 | 00:00:00 | |
| SQ9PSP-11 | 2026-08-31 01:06:05 | 50.02525 | 21.61742 | 68° | 26km/h | 16145m | -21.3m/s | 0°C | 0% | 0hPa | 0V | 00:00:00 | 00:00:00 | 00:00:00 | |
| MIELECB | 2026-08-31 01:05:57 | 50.02507 | 21.61657 | 76° | 26km/h | 16322m | -23.3m/s | 0°C | 0% | 0hPa | 0V | 00:00:00 | 00:00:00 | 00:00:00 | |
| AKAW68 | 2026-08-31 01:05:55 | 50.02506 | 21.61635 | 77° | 31km/h | 16366m | -21.8m/s | 0°C | 0% | 0hPa | 0V | 00:00:00 | 00:00:00 | 00:00:00 | |
| MIELECB | 2026-08-31 01:05:51 | 50.02498 | 21.61584 | 71° | 35km/h | 16455m | -21.5m/s | 0°C | 0% | 0hPa | 0V | 00:00:00 | 00:00:00 | 00:00:00 | |
| SQ9PSP-11 | 2026-08-31 01:05:49 | 50.02492 | 21.61558 | 69° | 35km/h | 16501m | -22.4m/s | 0°C | 0% | 0hPa | 0V | 00:00:00 | 00:00:00 | 00:00:00 | |
| MIELECB | 2026-08-31 01:05:45 | 50.02480 | 21.61512 | 72° | 33km/h | 16594m | -23.8m/s | 0°C | 0% | 0hPa | 0V | 00:00:00 | 00:00:00 | 00:00:00 | |
| MIELECB | 2026-08-31 01:05:38 | 50.02467 | 21.61434 | 73° | 29km/h | 16755m | -23.1m/s | 0°C | 0% | 0hPa | 0V | 00:00:00 | 00:00:00 | 00:00:00 | |
| AKAW68 | 2026-08-31 01:05:35 | 50.02462 | 21.61396 | 76° | 33km/h | 16823m | -22.5m/s | 0°C | 0% | 0hPa | 0V | 00:00:00 | 00:00:00 | 00:00:00 | |
| SQ9PSP-11 | 2026-08-31 01:05:33 | 50.02458 | 21.61372 | 72° | 33km/h | 16864m | -21.4m/s | 0°C | 0% | 0hPa | 0V | 00:00:00 | 00:00:00 | 00:00:00 | |
| AKAW682 | 2026-08-31 01:05:28 | 50.02450 | 21.61302 | 89° | 35km/h | 16981m | -23.0m/s | 0°C | 0% | 0hPa | 0V | 00:00:00 | 00:00:00 | 00:00:00 | |
| MIELECB | 2026-08-31 01:05:23 | 50.02453 | 21.61238 | 105° | 29km/h | 17098m | -22.1m/s | 0°C | 0% | 0hPa | 0V | 00:00:00 | 00:00:00 | 00:00:00 | |
| SQ9PSP-11 | 2026-08-31 01:05:18 | 50.02462 | 21.61193 | 125° | 18km/h | 17210m | -20.7m/s | 0°C | 0% | 0hPa | 0V | 00:00:00 | 00:00:00 | 00:00:00 | |
| MIELECB | 2026-08-31 01:05:16 | 50.02465 | 21.61182 | 112° | 16km/h | 17255m | -20.9m/s | 0°C | 0% | 0hPa | 0V | 00:00:00 | 00:00:00 | 00:00:00 | |
| AKAW68 | 2026-08-31 01:05:13 | 50.02467 | 21.61167 | 82° | 7km/h | 17324m | -22.8m/s | 0°C | 0% | 0hPa | 0V | 00:00:00 | 00:00:00 | 00:00:00 | |
| MIELECB | 2026-08-31 01:05:09 | 50.02464 | 21.61154 | 91° | 5km/h | 17420m | -22.6m/s | 0°C | 0% | 0hPa | 0V | 00:00:00 | 00:00:00 | 00:00:00 | |
| AKAW682 | 2026-08-31 01:05:04 | 50.02456 | 21.61146 | 4° | 9km/h | 17541m | -23.5m/s | 0°C | 0% | 0hPa | 0V | 00:00:00 | 00:00:00 | 00:00:00 | |
| MIELECB | 2026-08-31 01:05:03 | 50.02453 | 21.61145 | 14° | 11km/h | 17566m | -22.9m/s | 0°C | 0% | 0hPa | 0V | 00:00:00 | 00:00:00 | 00:00:00 | |
| SQ9PSP-11 | 2026-08-31 01:05:02 | 50.02451 | 21.61145 | 343° | 9km/h | 17590m | -22.2m/s | 0°C | 0% | 0hPa | 0V | 00:00:00 | 00:00:00 | 00:00:00 | |
| AKAW68 | 2026-08-31 01:04:53 | 50.02428 | 21.61116 | 48° | 20km/h | 17833m | -22.8m/s | 0°C | 0% | 0hPa | 0V | 00:00:00 | 00:00:00 | 00:00:00 | |
| MIELECB | 2026-08-31 01:04:51 | 50.02425 | 21.61109 | 44° | 26km/h | 17856m | -22.8m/s | 0°C | 0% | 0hPa | 0V | 00:00:00 | 00:00:00 | 00:00:00 | |
| SQ9PSP-11 | 2026-08-31 01:04:47 | 50.02412 | 21.61078 | 62° | 22km/h | 17950m | -23.6m/s | 0°C | 0% | 0hPa | 0V | 00:00:00 | 00:00:00 | 00:00:00 | |
| AKAW682 | 2026-08-31 01:04:44 | 50.02403 | 21.61060 | 74° | 16km/h | 18027m | -24.4m/s | 0°C | 0% | 0hPa | 0V | 00:00:00 | 00:00:00 | 00:00:00 | |
| MIELECB | 2026-08-31 01:04:39 | 50.02396 | 21.61033 | 66° | 18km/h | 18147m | -22.5m/s | 0°C | 0% | 0hPa | 0V | 00:00:00 | 00:00:00 | 00:00:00 | |
| MIELECB | 2026-08-31 01:04:33 | 50.02382 | 21.60992 | 59° | 27km/h | 18293m | -23.6m/s | 0°C | 0% | 0hPa | 0V | 00:00:00 | 00:00:00 | 00:00:00 | |
| AKAW68 | 2026-08-31 01:04:32 | 50.02379 | 21.60983 | 65° | 26km/h | 18317m | -22.5m/s | 0°C | 0% | 0hPa | 0V | 00:00:00 | 00:00:00 | 00:00:00 | |
| SQ9PSP-11 | 2026-08-31 01:04:31 | 50.02377 | 21.60975 | 72° | 22km/h | 18341m | -22.3m/s | 0°C | 0% | 0hPa | 0V | 00:00:00 | 00:00:00 | 00:00:00 | |
| AKAW682 | 2026-08-31 01:04:23 | 50.02373 | 21.60881 | 98° | 29km/h | 18550m | -22.9m/s | 0°C | 0% | 0hPa | 0V | 00:00:00 | 00:00:00 | 00:00:00 | |
| MIELECB | 2026-08-31 01:04:20 | 50.02378 | 21.60848 | 111° | 26km/h | 18621m | -25.0m/s | 0°C | 0% | 0hPa | 0V | 00:00:00 | 00:00:00 | 00:00:00 | |
| MIELECB | 2026-08-31 01:04:14 | 50.02393 | 21.60798 | 131° | 20km/h | 18782m | -22.4m/s | 0°C | 0% | 0hPa | 0V | 00:00:00 | 00:00:00 | 00:00:00 | |
| AKAW68 | 2026-08-31 01:04:11 | 50.02402 | 21.60783 | 144° | 16km/h | 18859m | -22.0m/s | 0°C | 0% | 0hPa | 0V | 00:00:00 | 00:00:00 | 00:00:00 | |
| SQ9PSP-11 | 2026-08-31 01:04:08 | 50.02406 | 21.60783 | 78° | 7km/h | 18930m | -23.4m/s | 0°C | 0% | 0hPa | 0V | 00:00:00 | 00:00:00 | 00:00:00 | |
| MIELECB | 2026-08-31 01:04:05 | 50.02404 | 21.60774 | 63° | 15km/h | 19002m | -23.3m/s | 0°C | 0% | 0hPa | 0V | 00:00:00 | 00:00:00 | 00:00:00 | |
| SQ9PSP-11 | 2026-08-31 01:03:53 | 50.02399 | 21.60731 | 335° | 4km/h | 19289m | -24.0m/s | 0°C | 0% | 0hPa | 0V | 00:00:00 | 00:00:00 | 00:00:00 | |
| MIELECB | 2026-08-31 01:03:51 | 50.02397 | 21.60737 | 295° | 15km/h | 19344m | -27.9m/s | 0°C | 0% | 0hPa | 0V | 00:00:00 | 00:00:00 | 00:00:00 | |
| SQ9PSP-11 | 2026-08-31 01:03:37 | 50.02390 | 21.60743 | 101° | 4km/h | 19735m | -25.7m/s | 0°C | 0% | 0hPa | 0V | 00:00:00 | 00:00:00 | 00:00:00 | |
| AKAW682 | 2026-08-31 01:03:36 | 50.02390 | 21.60740 | 130° | 5km/h | 19763m | -25.9m/s | 0°C | 0% | 0hPa | 0V | 00:00:00 | 00:00:00 | 00:00:00 | |
| MIELECB | 2026-08-31 01:03:34 | 50.02389 | 21.60737 | 280° | 5km/h | 19819m | -25.3m/s | 0°C | 0% | 0hPa | 0V | 00:00:00 | 00:00:00 | 00:00:00 | |
| AKAW68 | 2026-08-31 01:03:31 | 50.02384 | 21.60745 | 304° | 5km/h | 19931m | -18.9m/s | 0°C | 0% | 0hPa | 0V | 00:00:00 | 00:00:00 | 00:00:00 | |
| MIELECB | 2026-08-31 01:03:28 | 50.02382 | 21.60751 | 253° | 7km/h | 19975m | -21.0m/s | 0°C | 0% | 0hPa | 0V | 00:00:00 | 00:00:00 | 00:00:00 | |
| SQ9PSP-11 | 2026-08-31 01:03:16 | 50.02364 | 21.60748 | 336° | 5km/h | 20307m | -27.6m/s | 0°C | 0% | 0hPa | 0V | 00:00:00 | 00:00:00 | 00:00:00 | |
| AKAW682 | 2026-08-31 01:03:15 | 50.02364 | 21.60749 | 335° | 15km/h | 20334m | -29.1m/s | 0°C | 0% | 0hPa | 0V | 00:00:00 | 00:00:00 | 00:00:00 | |
| MIELECB | 2026-08-31 01:03:14 | 50.02361 | 21.60750 | 359° | 9km/h | 20365m | -27.9m/s | 0°C | 0% | 0hPa | 0V | 00:00:00 | 00:00:00 | 00:00:00 | |
| AKAW68 | 2026-08-31 01:03:10 | 50.02354 | 21.60744 | 359° | 5km/h | 20479m | -27.3m/s | 0°C | 0% | 0hPa | 0V | 00:00:00 | 00:00:00 | 00:00:00 | |
| MIELECB | 2026-08-31 01:03:09 | 50.02353 | 21.60745 | 340° | 7km/h | 20507m | -25.4m/s | 0°C | 0% | 0hPa | 0V | 00:00:00 | 00:00:00 | 00:00:00 | |
| MIELECB | 2026-08-31 01:03:04 | 50.02338 | 21.60734 | 57° | 18km/h | 20640m | -25.7m/s | 0°C | 0% | 0hPa | 0V | 00:00:00 | 00:00:00 | 00:00:00 | |
| MIELECB | 2026-08-31 01:02:57 | 50.02334 | 21.60684 | 87° | 18km/h | 20835m | -29.0m/s | 0°C | 0% | 0hPa | 0V | 00:00:00 | 00:00:00 | 00:00:00 | |
| SQ9PSP-11 | 2026-08-31 01:02:56 | 50.02334 | 21.60677 | 92° | 18km/h | 20864m | -26.6m/s | 0°C | 0% | 0hPa | 0V | 00:00:00 | 00:00:00 | 00:00:00 | |
| AKAW682 | 2026-08-31 01:02:52 | 50.02332 | 21.60653 | 97° | 15km/h | 20980m | -24.6m/s | 0°C | 0% | 0hPa | 0V | 00:00:00 | 00:00:00 | 00:00:00 | |
| AKAW68 | 2026-08-31 01:02:49 | 50.02333 | 21.60637 | 90° | 5km/h | 21063m | -24.7m/s | 0°C | 0% | 0hPa | 0V | 00:00:00 | 00:00:00 | 00:00:00 | |
| SQ9PSP-11 | 2026-08-31 01:02:40 | 50.02340 | 21.60620 | 123° | 4km/h | 21308m | -26.2m/s | 0°C | 0% | 0hPa | 0V | 00:00:00 | 00:00:00 | 00:00:00 | |
| AKAW68 | 2026-08-31 01:02:27 | 50.02359 | 21.60627 | 184° | 7km/h | 21676m | -29.3m/s | 0°C | 0% | 0hPa | 0V | 00:00:00 | 00:00:00 | 00:00:00 | |
| AKAW682 | 2026-08-31 01:02:19 | 50.02355 | 21.60624 | 357° | 7km/h | 21932m | -29.8m/s | 0°C | 0% | 0hPa | 0V | 00:00:00 | 00:00:00 | 00:00:00 | |
| MIELECB | 2026-08-31 01:02:13 | 50.02348 | 21.60618 | 23° | 13km/h | 22125m | -32.6m/s | 0°C | 0% | 0hPa | 0V | 00:00:00 | 00:00:00 | 00:00:00 | |
| AKAW68 | 2026-08-31 01:02:07 | 50.02339 | 21.60598 | 71° | 4km/h | 22315m | -30.1m/s | 0°C | 0% | 0hPa | 0V | 00:00:00 | 00:00:00 | 00:00:00 | |
| AKAW682 | 2026-08-31 01:01:57 | 50.02365 | 21.60597 | 165° | 16km/h | 22619m | -28.9m/s | 0°C | 0% | 0hPa | 0V | 00:00:00 | 00:00:00 | 00:00:00 | |
| SQ9PSP-11 | 2026-08-31 01:01:45 | 50.02367 | 21.60620 | 17° | 22km/h | 22994m | -30.3m/s | 0°C | 0% | 0hPa | 0V | 00:00:00 | 00:00:00 | 00:00:00 | |
| AKAW68 | 2026-08-31 01:01:42 | 50.02356 | 21.60605 | 69° | 16km/h | 23089m | -31.0m/s | 0°C | 0% | 0hPa | 0V | 00:00:00 | 00:00:00 | 00:00:00 | |
| SQ9EZE-15 | 2026-08-31 01:01:36 | 50.02360 | 21.60569 | 131° | 15km/h | 23280m | -34.3m/s | 0°C | 0% | 0hPa | 0V | 00:00:00 | 00:00:00 | 00:00:00 | |
| AKAW682 | 2026-08-31 01:01:33 | 50.02369 | 21.60565 | 175° | 16km/h | 23381m | -31.9m/s | 0°C | 0% | 0hPa | 0V | 00:00:00 | 00:00:00 | 00:00:00 | |
| SQ9PSP-11 | 2026-08-31 01:01:30 | 50.02377 | 21.60566 | 182° | 7km/h | 23482m | -33.6m/s | 0°C | 0% | 0hPa | 0V | 00:00:00 | 00:00:00 | 00:00:00 | |
| AKAW68 | 2026-08-31 01:01:22 | 50.02388 | 21.60576 | 221° | 13km/h | 23757m | -30.9m/s | 0°C | 0% | 0hPa | 0V | 00:00:00 | 00:00:00 | 00:00:00 | |
| SQ9PSP-11 | 2026-08-31 01:01:04 | 50.02372 | 21.60612 | 80° | 16km/h | 24355m | -30.7m/s | 0°C | 0% | 0hPa | 0V | 00:00:00 | 00:00:00 | 00:00:00 | |
| AKAW68 | 2026-08-31 01:01:02 | 50.02371 | 21.60601 | 90° | 16km/h | 24417m | -31.9m/s | 0°C | 0% | 0hPa | 0V | 00:00:00 | 00:00:00 | 00:00:00 | |
| AKAW68 | 2026-08-31 01:00:39 | 50.02413 | 21.60512 | 94° | 15km/h | 25227m | -39.1m/s | 0°C | 0% | 0hPa | 0V | 00:00:00 | 00:00:00 | 00:00:00 | |
| SQ9PSP-11 | 2026-08-31 01:00:26 | 50.02419 | 21.60527 | 33° | 7km/h | 25720m | -36.6m/s | 0°C | 0% | 0hPa | 0V | 00:00:00 | 00:00:00 | 00:00:00 | |
| AKAW68 | 2026-08-31 01:00:18 | 50.02410 | 21.60474 | 84° | 24km/h | 26001m | -38.2m/s | 0°C | 0% | 0hPa | 0V | 00:00:00 | 00:00:00 | 00:00:00 | |
| MIELECB | 2026-08-31 01:00:17 | 50.02411 | 21.60468 | 128° | 13km/h | 26039m | -38.2m/s | 0°C | 0% | 0hPa | 0V | 00:00:00 | 00:00:00 | 00:00:00 | |
| SQ9PSP-11 | 2026-08-31 01:00:08 | 50.02414 | 21.60469 | 345° | 11km/h | 26364m | -34.3m/s | 0°C | 0% | 0hPa | 0V | 00:00:00 | 00:00:00 | 00:00:00 | |
| AKAW682 | 2026-08-31 01:00:07 | 50.02412 | 21.60472 | 310° | 16km/h | 26399m | -36.5m/s | 0°C | 0% | 0hPa | 0V | 00:00:00 | 00:00:00 | 00:00:00 | |
| AKAW68 | 2026-08-31 00:59:57 | 50.02391 | 21.60482 | 135° | 13km/h | 26768m | -38.7m/s | 0°C | 0% | 0hPa | 0V | 00:00:00 | 00:00:00 | 00:00:00 | |
| SQ9PSP-11 | 2026-08-31 00:59:53 | 50.02401 | 21.60480 | 180° | 11km/h | 26921m | -38.7m/s | 0°C | 0% | 0hPa | 0V | 00:00:00 | 00:00:00 | 00:00:00 | |
| AKAW68 | 2026-08-31 00:59:37 | 50.02390 | 21.60534 | 351° | 16km/h | 27512m | -36.6m/s | 0°C | 0% | 0hPa | 0V | 00:00:00 | 00:00:00 | 00:00:00 | |
| SQ9PSP-11 | 2026-08-31 00:59:36 | 50.02386 | 21.60535 | 346° | 11km/h | 27550m | -37.7m/s | 0°C | 0% | 0hPa | 0V | 00:00:00 | 00:00:00 | 00:00:00 | |
| MIELECB | 2026-08-31 00:59:30 | 50.02373 | 21.60522 | 52° | 13km/h | 27779m | -33.7m/s | 0°C | 0% | 0hPa | 0V | 00:00:00 | 00:00:00 | 00:00:00 | |
| MIELECB | 2026-08-31 00:59:24 | 50.02370 | 21.60505 | 122° | 7km/h | 28007m | -39.2m/s | 0°C | 0% | 0hPa | 0V | 00:00:00 | 00:00:00 | 00:00:00 | |
| AKAW682 | 2026-08-31 00:59:19 | 50.02374 | 21.60495 | 138° | 11km/h | 28217m | -39.5m/s | 0°C | 0% | 0hPa | 0V | 00:00:00 | 00:00:00 | 00:00:00 | |
| AKAW68 | 2026-08-31 00:59:16 | 50.02383 | 21.60492 | 216° | 16km/h | 28332m | -40.0m/s | 0°C | 0% | 0hPa | 0V | 00:00:00 | 00:00:00 | 00:00:00 | |
| MIELECB | 2026-08-31 00:59:09 | 50.02392 | 21.60519 | 309° | 11km/h | 28625m | -43.2m/s | 0°C | 0% | 0hPa | 0V | 00:00:00 | 00:00:00 | 00:00:00 | |
| MIELECB | 2026-08-31 00:59:02 | 50.02369 | 21.60502 | 78° | 18km/h | 28915m | -39.9m/s | 0°C | 0% | 0hPa | 0V | 00:00:00 | 00:00:00 | 00:00:00 | |
| MIELECB | 2026-08-31 00:58:55 | 50.02358 | 21.60455 | 95° | 13km/h | 29221m | -40.0m/s | 0°C | 0% | 0hPa | 0V | 00:00:00 | 00:00:00 | 00:00:00 | |
| SQ9PSP-11 | 2026-08-31 00:58:54 | 50.02358 | 21.60450 | 59° | 13km/h | 29263m | -40.1m/s | 0°C | 0% | 0hPa | 0V | 00:00:00 | 00:00:00 | 00:00:00 | |
| AKAW68 | 2026-08-31 00:58:47 | 50.02351 | 21.60418 | 118° | 20km/h | 29605m | -42.4m/s | 0°C | 0% | 0hPa | 0V | 00:00:00 | 00:00:00 | 00:00:00 | |
| MIELECB | 2026-08-31 00:58:45 | 50.02352 | 21.60411 | 88° | 15km/h | 29648m | -40.7m/s | 0°C | 0% | 0hPa | 0V | 00:00:00 | 00:00:00 | 00:00:00 | |
| MIELECB | 2026-08-31 00:58:39 | 50.02355 | 21.60396 | 19° | 13km/h | 29908m | -44.2m/s | 0°C | 0% | 0hPa | 0V | 00:00:00 | 00:00:00 | 00:00:00 | |
| SQ9PSP-11 | 2026-08-31 00:58:36 | 50.02345 | 21.60394 | 5° | 16km/h | 30044m | -42.2m/s | 0°C | 0% | 0hPa | 0V | 00:00:00 | 00:00:00 | 00:00:00 | |
| AKAW682 | 2026-08-31 00:58:34 | 50.02337 | 21.60392 | 29° | 18km/h | 30129m | -42.6m/s | 0°C | 0% | 0hPa | 0V | 00:00:00 | 00:00:00 | 00:00:00 | |
| MIELECB | 2026-08-31 00:58:29 | 50.02311 | 21.60379 | 28° | 24km/h | 30352m | -44.1m/s | 0°C | 0% | 0hPa | 0V | 00:00:00 | 00:00:00 | 00:00:00 | |
| AKAW68 | 2026-08-31 00:58:20 | 50.02274 | 21.60330 | 61° | 18km/h | 30745m | -43.3m/s | 0°C | 0% | 0hPa | 0V | 00:00:00 | 00:00:00 | 00:00:00 | |
| SQ9PSP-11 | 2026-08-31 00:58:17 | 50.02269 | 21.60316 | 63° | 13km/h | 30880m | -43.8m/s | 0°C | 0% | 0hPa | 0V | 00:00:00 | 00:00:00 | 00:00:00 | |
| AKAW682 | 2026-08-31 00:58:05 | 50.02253 | 21.60263 | 60° | 11km/h | 31412m | -49.5m/s | 0°C | 0% | 0hPa | 0V | 00:00:00 | 00:00:00 | 00:00:00 | |
| AKAW68 | 2026-08-31 00:58:00 | 50.02238 | 21.60238 | 26° | 15km/h | 31648m | -44.8m/s | 0°C | 0% | 0hPa | 0V | 00:00:00 | 00:00:00 | 00:00:00 | |
| AKAW682 | 2026-08-31 00:57:43 | 50.02168 | 21.60158 | 348° | 9km/h | 32469m | -48.1m/s | 0°C | 0% | 0hPa | 0V | 00:00:00 | 00:00:00 | 00:00:00 | |
| SQ9EZE-14 | 2026-08-31 00:57:36 | 50.02144 | 21.60107 | 47° | 26km/h | 32817m | -51.7m/s | 0°C | 0% | 0hPa | 0V | 00:00:00 | 00:00:00 | 00:00:00 | |
| SQ9PSP-11 | 2026-08-31 00:57:31 | 50.02131 | 21.60057 | 31° | 31km/h | 33084m | -50.1m/s | 0°C | 0% | 0hPa | 0V | 00:00:00 | 00:00:00 | 00:00:00 | |
| SQ9EZE-14 | 2026-08-31 00:57:21 | 50.02071 | 21.59982 | 77° | 51km/h | 33486m | -30.3m/s | 0°C | 0% | 0hPa | 0V | 00:00:00 | 00:00:00 | 00:00:00 | |
| MIELECB | 2026-08-31 00:57:16 | 50.02027 | 21.59943 | 11° | 40km/h | 33632m | -30.2m/s | 0°C | 0% | 0hPa | 0V | 00:00:00 | 00:00:00 | 00:00:00 | |
| SQ9PSP-11 | 2026-08-31 00:57:14 | 50.02012 | 21.59921 | 81° | 42km/h | 33693m | -20.7m/s | 0°C | 0% | 0hPa | 0V | 00:00:00 | 00:00:00 | 00:00:00 | |
| MIELECB | 2026-08-31 00:57:07 | 50.01997 | 21.59710 | 344° | 53km/h | 33847m | -43.8m/s | 0°C | 0% | 0hPa | 0V | 00:00:00 | 00:00:00 | 00:00:00 | |
| AKAW682 | 2026-08-31 00:57:05 | 50.01984 | 21.59714 | 100° | 58km/h | 33940m | -30.1m/s | 0°C | 0% | 0hPa | 0V | 00:00:00 | 00:00:00 | 00:00:00 | |
| MIELECB | 2026-08-31 00:56:59 | 50.01941 | 21.59607 | 92° | 20km/h | 33998m | 4.2m/s | 0°C | 0% | 0hPa | 0V | 00:00:00 | 00:00:00 | 00:00:00 | |
| SQ9PSP-11 | 2026-08-31 00:56:54 | 50.01947 | 21.59472 | 65° | 93km/h | 33973m | 4.9m/s | 0°C | 0% | 0hPa | 0V | 00:00:00 | 00:00:00 | 00:00:00 | |
| MIELECB | 2026-08-31 00:56:47 | 50.01910 | 21.59347 | 104° | 84km/h | 33938m | 11.6m/s | 0°C | 0% | 0hPa | 0V | 00:00:00 | 00:00:00 | 00:00:00 | |
| AKAW682 | 2026-08-31 00:56:41 | 50.01858 | 21.59205 | 14° | 11km/h | 33881m | 7.5m/s | 0°C | 0% | 0hPa | 0V | 00:00:00 | 00:00:00 | 00:00:00 | |
| MIELECB | 2026-08-31 00:56:39 | 50.01867 | 21.59184 | 123° | 58km/h | 33864m | 9.8m/s | 0°C | 0% | 0hPa | 0V | 00:00:00 | 00:00:00 | 00:00:00 | |
| AKAW68 | 2026-08-31 00:56:37 | 50.01873 | 21.59130 | 83° | 89km/h | 33845m | 5.1m/s | 0°C | 0% | 0hPa | 0V | 00:00:00 | 00:00:00 | 00:00:00 | |
| SQ9PSP-11 | 2026-08-31 00:56:36 | 50.01866 | 21.59097 | 66° | 93km/h | 33839m | 6.0m/s | 0°C | 0% | 0hPa | 0V | 00:00:00 | 00:00:00 | 00:00:00 | |
| MIELECB | 2026-08-31 00:56:28 | 50.01825 | 21.58970 | 86° | 77km/h | 33786m | 2.7m/s | 0°C | 0% | 0hPa | 0V | 00:00:00 | 00:00:00 | 00:00:00 | |
| MIELECB | 2026-08-31 00:56:20 | 50.01764 | 21.58851 | 77° | 53km/h | 33739m | 6.6m/s | 0°C | 0% | 0hPa | 0V | 00:00:00 | 00:00:00 | 00:00:00 | |
| SQ9PSP-11 | 2026-08-31 00:56:18 | 50.01759 | 21.58804 | 75° | 66km/h | 33728m | 2.5m/s | 0°C | 0% | 0hPa | 0V | 00:00:00 | 00:00:00 | 00:00:00 | |
| AKAW68 | 2026-08-31 00:56:16 | 50.01749 | 21.58760 | 65° | 51km/h | 33725m | 5.3m/s | 0°C | 0% | 0hPa | 0V | 00:00:00 | 00:00:00 | 00:00:00 | |
| MIELECB | 2026-08-31 00:56:12 | 50.01719 | 21.58727 | 53° | 31km/h | 33711m | 9.3m/s | 0°C | 0% | 0hPa | 0V | 00:00:00 | 00:00:00 | 00:00:00 | |
| MIELECB | 2026-08-31 00:56:05 | 50.01665 | 21.58620 | 56° | 26km/h | 33666m | 5.1m/s | 0°C | 0% | 0hPa | 0V | 00:00:00 | 00:00:00 | 00:00:00 | |
| SQ9PSP-11 | 2026-08-31 00:56:03 | 50.01664 | 21.58608 | 80° | 37km/h | 33660m | 3.3m/s | 0°C | 0% | 0hPa | 0V | 00:00:00 | 00:00:00 | 00:00:00 | |
| AKAW682 | 2026-08-31 00:55:58 | 50.01633 | 21.58536 | 26° | 47km/h | 33621m | 6.2m/s | 0°C | 0% | 0hPa | 0V | 00:00:00 | 00:00:00 | 00:00:00 | |
| MIELECB | 2026-08-31 00:55:56 | 50.01623 | 21.58526 | 52° | 44km/h | 33615m | 5.8m/s | 0°C | 0% | 0hPa | 0V | 00:00:00 | 00:00:00 | 00:00:00 | |
| MIELECB | 2026-08-31 00:55:50 | 50.01609 | 21.58463 | 43° | 27km/h | 33577m | 7.3m/s | 0°C | 0% | 0hPa | 0V | 00:00:00 | 00:00:00 | 00:00:00 | |
| SQ9PSP-11 | 2026-08-31 00:55:48 | 50.01594 | 21.58447 | 32° | 53km/h | 33563m | 4.8m/s | 0°C | 0% | 0hPa | 0V | 00:00:00 | 00:00:00 | 00:00:00 | |
| MIELECB | 2026-08-31 00:55:42 | 50.01565 | 21.58374 | 77° | 15km/h | 33522m | 6.3m/s | 0°C | 0% | 0hPa | 0V | 00:00:00 | 00:00:00 | 00:00:00 | |
| AKAW68 | 2026-08-31 00:55:41 | 50.01564 | 21.58369 | 42° | 15km/h | 33516m | 6.8m/s | 0°C | 0% | 0hPa | 0V | 00:00:00 | 00:00:00 | 00:00:00 | |
| AKAW682 | 2026-08-31 00:55:37 | 50.01538 | 21.58347 | 42° | 38km/h | 33486m | 8.4m/s | 0°C | 0% | 0hPa | 0V | 00:00:00 | 00:00:00 | 00:00:00 | |
| MIELECB | 2026-08-31 00:55:36 | 50.01532 | 21.58338 | 53° | 33km/h | 33477m | 7.3m/s | 0°C | 0% | 0hPa | 0V | 00:00:00 | 00:00:00 | 00:00:00 | |
| SQ9PSP-11 | 2026-08-31 00:55:32 | 50.01519 | 21.58308 | 90° | 11km/h | 33438m | 7.1m/s | 0°C | 0% | 0hPa | 0V | 00:00:00 | 00:00:00 | 00:00:00 | |
| MIELECB | 2026-08-31 00:55:31 | 50.01518 | 21.58303 | 67° | 13km/h | 33429m | 7.4m/s | 0°C | 0% | 0hPa | 0V | 00:00:00 | 00:00:00 | 00:00:00 | |
| MIELECB | 2026-08-31 00:55:25 | 50.01482 | 21.58266 | 18° | 35km/h | 33378m | 5.4m/s | 0°C | 0% | 0hPa | 0V | 00:00:00 | 00:00:00 | 00:00:00 | |
| MIELECB | 2026-08-31 00:55:20 | 50.01464 | 21.58231 | 83° | 33km/h | 33345m | 5.2m/s | 0°C | 0% | 0hPa | 0V | 00:00:00 | 00:00:00 | 00:00:00 | |
| AKAW68 | 2026-08-31 00:55:19 | 50.01464 | 21.58220 | 83° | 22km/h | 33340m | 8.1m/s | 0°C | 0% | 0hPa | 0V | 00:00:00 | 00:00:00 | 00:00:00 | |
| SQ9PSP-11 | 2026-08-31 00:55:15 | 50.01438 | 21.58209 | 22° | 38km/h | 33309m | 4.9m/s | 0°C | 0% | 0hPa | 0V | 00:00:00 | 00:00:00 | 00:00:00 | |
| MIELECB | 2026-08-31 00:55:13 | 50.01418 | 21.58198 | 32° | 40km/h | 33295m | 5.9m/s | 0°C | 0% | 0hPa | 0V | 00:00:00 | 00:00:00 | 00:00:00 | |
| AKAW682 | 2026-08-31 00:55:12 | 50.01409 | 21.58191 | 35° | 35km/h | 33288m | 8.7m/s | 0°C | 0% | 0hPa | 0V | 00:00:00 | 00:00:00 | 00:00:00 | |
| MIELECB | 2026-08-31 00:55:08 | 50.01390 | 21.58166 | 77° | 33km/h | 33259m | 8.0m/s | 0°C | 0% | 0hPa | 0V | 00:00:00 | 00:00:00 | 00:00:00 | |
| MIELECB | 2026-08-31 00:55:02 | 50.01361 | 21.58110 | 13° | 29km/h | 33239m | 0.6m/s | 0°C | 0% | 0hPa | 0V | 00:00:00 | 00:00:00 | 00:00:00 | |
| AKAW68 | 2026-08-31 00:54:57 | 50.01342 | 21.58054 | 84° | 44km/h | 33220m | 5.5m/s | 0°C | 0% | 0hPa | 0V | 00:00:00 | 00:00:00 | 00:00:00 | |
| MIELECB | 2026-08-31 00:54:49 | 50.01301 | 21.57993 | 75° | 40km/h | 33164m | 5.8m/s | 0°C | 0% | 0hPa | 0V | 00:00:00 | 00:00:00 | 00:00:00 | |
| MIELECB | 2026-08-31 00:54:43 | 50.01283 | 21.57936 | 46° | 35km/h | 33126m | 7.2m/s | 0°C | 0% | 0hPa | 0V | 00:00:00 | 00:00:00 | 00:00:00 | |
| SQ9PSP-11 | 2026-08-31 00:54:39 | 50.01264 | 21.57882 | 51° | 31km/h | 33105m | 5.7m/s | 0°C | 0% | 0hPa | 0V | 00:00:00 | 00:00:00 | 00:00:00 | |
| AKAW68 | 2026-08-31 00:54:37 | 50.01258 | 21.57866 | 37° | 16km/h | 33095m | 5.6m/s | 0°C | 0% | 0hPa | 0V | 00:00:00 | 00:00:00 | 00:00:00 | |
| MIELECB | 2026-08-31 00:54:32 | 50.01229 | 21.57808 | 55° | 53km/h | 33069m | 6.1m/s | 0°C | 0% | 0hPa | 0V | 00:00:00 | 00:00:00 | 00:00:00 | |
| AKAW682 | 2026-08-31 00:54:27 | 50.01198 | 21.57770 | 40° | 13km/h | 33044m | 9.5m/s | 0°C | 0% | 0hPa | 0V | 00:00:00 | 00:00:00 | 00:00:00 | |
| MIELECB | 2026-08-31 00:54:26 | 50.01195 | 21.57762 | 75° | 33km/h | 33037m | 11.7m/s | 0°C | 0% | 0hPa | 0V | 00:00:00 | 00:00:00 | 00:00:00 | |
| SQ9PSP-11 | 2026-08-31 00:54:23 | 50.01185 | 21.57722 | 36° | 38km/h | 33010m | 4.9m/s | 0°C | 0% | 0hPa | 0V | 00:00:00 | 00:00:00 | 00:00:00 | |
| MIELECB | 2026-08-31 00:54:20 | 50.01156 | 21.57716 | 6° | 35km/h | 32992m | 8.8m/s | 0°C | 0% | 0hPa | 0V | 00:00:00 | 00:00:00 | 00:00:00 | |
| AKAW68 | 2026-08-31 00:54:16 | 50.01137 | 21.57674 | 79° | 47km/h | 32960m | 7.2m/s | 0°C | 0% | 0hPa | 0V | 00:00:00 | 00:00:00 | 00:00:00 | |
| MIELECB | 2026-08-31 00:54:14 | 50.01130 | 21.57643 | 72° | 38km/h | 32946m | 8.6m/s | 0°C | 0% | 0hPa | 0V | 00:00:00 | 00:00:00 | 00:00:00 | |
| MIELECB | 2026-08-31 00:54:09 | 50.01088 | 21.57612 | 48° | 40km/h | 32904m | 6.7m/s | 0°C | 0% | 0hPa | 0V | 00:00:00 | 00:00:00 | 00:00:00 | |
| AKAW682 | 2026-08-31 00:54:06 | 50.01074 | 21.57584 | 71° | 44km/h | 32893m | 8.9m/s | 0°C | 0% | 0hPa | 0V | 00:00:00 | 00:00:00 | 00:00:00 | |
| SQ9PSP-11 | 2026-08-31 00:54:04 | 50.01071 | 21.57558 | 79° | 20km/h | 32876m | 5.9m/s | 0°C | 0% | 0hPa | 0V | 00:00:00 | 00:00:00 | 00:00:00 | |
| MIELECB | 2026-08-31 00:54:03 | 50.01071 | 21.57551 | 95° | 16km/h | 32871m | 5.0m/s | 0°C | 0% | 0hPa | 0V | 00:00:00 | 00:00:00 | 00:00:00 | |
| AKAW68 | 2026-08-31 00:53:56 | 50.01017 | 21.57512 | 20° | 29km/h | 32835m | 6.2m/s | 0°C | 0% | 0hPa | 0V | 00:00:00 | 00:00:00 | 00:00:00 | |
| MIELECB | 2026-08-31 00:53:51 | 50.01014 | 21.57469 | 67° | 47km/h | 32813m | 3.1m/s | 0°C | 0% | 0hPa | 0V | 00:00:00 | 00:00:00 | 00:00:00 | |
| SQ9PSP-11 | 2026-08-31 00:53:49 | 50.00993 | 21.57451 | 18° | 57km/h | 32807m | 8.2m/s | 0°C | 0% | 0hPa | 0V | 00:00:00 | 00:00:00 | 00:00:00 | |
| AKAW682 | 2026-08-31 00:53:45 | 50.00958 | 21.57470 | 315° | 13km/h | 32775m | 7.3m/s | 0°C | 0% | 0hPa | 0V | 00:00:00 | 00:00:00 | 00:00:00 | |
| MIELECB | 2026-08-31 00:53:44 | 50.00954 | 21.57474 | 87° | 13km/h | 32769m | 10.8m/s | 0°C | 0% | 0hPa | 0V | 00:00:00 | 00:00:00 | 00:00:00 | |
| MIELECB | 2026-08-31 00:53:38 | 50.00919 | 21.57396 | 343° | 31km/h | 32737m | 13.0m/s | 0°C | 0% | 0hPa | 0V | 00:00:00 | 00:00:00 | 00:00:00 | |
| AKAW68 | 2026-08-31 00:53:35 | 50.00909 | 21.57419 | 143° | 15km/h | 32701m | 10.3m/s | 0°C | 0% | 0hPa | 0V | 00:00:00 | 00:00:00 | 00:00:00 | |
| MIELECB | 2026-08-31 00:53:33 | 50.00917 | 21.57399 | 120° | 42km/h | 32674m | 7.1m/s | 0°C | 0% | 0hPa | 0V | 00:00:00 | 00:00:00 | 00:00:00 | |
| SQ9PSP-11 | 2026-08-31 00:53:32 | 50.00918 | 21.57381 | 82° | 51km/h | 32664m | 8.7m/s | 0°C | 0% | 0hPa | 0V | 00:00:00 | 00:00:00 | 00:00:00 | |
| AKAW682 | 2026-08-31 00:53:25 | 50.00886 | 21.57326 | 240° | 11km/h | 32580m | 10.3m/s | 0°C | 0% | 0hPa | 0V | 00:00:00 | 00:00:00 | 00:00:00 | |
| MIELECB | 2026-08-31 00:53:22 | 50.00887 | 21.57310 | 112° | 13km/h | 32546m | 0.9m/s | 0°C | 0% | 0hPa | 0V | 00:00:00 | 00:00:00 | 00:00:00 | |
| MIELECB | 2026-08-31 00:53:17 | 50.00879 | 21.57309 | 306° | 26km/h | 32572m | -3.5m/s | 0°C | 0% | 0hPa | 0V | 00:00:00 | 00:00:00 | 00:00:00 | |
| SQ9PSP-11 | 2026-08-31 00:53:16 | 50.00876 | 21.57318 | 300° | 29km/h | 32576m | 0.7m/s | 0°C | 0% | 0hPa | 0V | 00:00:00 | 00:00:00 | 00:00:00 | |
| AKAW68 | 2026-08-31 00:53:13 | 50.00876 | 21.57345 | 239° | 27km/h | 32566m | 4.7m/s | 0°C | 0% | 0hPa | 0V | 00:00:00 | 00:00:00 | 00:00:00 | |
| SQ9EZE-12 | 2026-08-31 00:53:12 | 50.00878 | 21.57351 | 205° | 15km/h | 32564m | 3.7m/s | 0°C | 0% | 0hPa | 0V | 00:00:00 | 00:00:00 | 00:00:00 | |
| MIELECB | 2026-08-31 00:53:11 | 50.00879 | 21.57349 | 114° | 9km/h | 32561m | 8.9m/s | 0°C | 0% | 0hPa | 0V | 00:00:00 | 00:00:00 | 00:00:00 | |
| AKAW682 | 2026-08-31 00:53:02 | 50.00851 | 21.57330 | 181° | 18km/h | 32509m | 6.6m/s | 0°C | 0% | 0hPa | 0V | 00:00:00 | 00:00:00 | 00:00:00 | |
| SQ9PSP-11 | 2026-08-31 00:53:01 | 50.00853 | 21.57327 | 88° | 11km/h | 32503m | 10.0m/s | 0°C | 0% | 0hPa | 0V | 00:00:00 | 00:00:00 | 00:00:00 | |
| MIELECB | 2026-08-31 00:52:56 | 50.00814 | 21.57292 | 32° | 26km/h | 32448m | 5.0m/s | 0°C | 0% | 0hPa | 0V | 00:00:00 | 00:00:00 | 00:00:00 | |
| MIELECB | 2026-08-31 00:52:51 | 50.00817 | 21.57260 | 121° | 18km/h | 32411m | 6.9m/s | 0°C | 0% | 0hPa | 0V | 00:00:00 | 00:00:00 | 00:00:00 | |
| SQ9PSP-11 | 2026-08-31 00:52:45 | 50.00780 | 21.57243 | 26° | 46km/h | 32373m | 5.6m/s | 0°C | 0% | 0hPa | 0V | 00:00:00 | 00:00:00 | 00:00:00 | |
| AKAW682 | 2026-08-31 00:52:40 | 50.00779 | 21.57189 | 257° | 18km/h | 32352m | 3.6m/s | 0°C | 0% | 0hPa | 0V | 00:00:00 | 00:00:00 | 00:00:00 | |
| MIELECB | 2026-08-31 00:52:39 | 50.00778 | 21.57192 | 299° | 16km/h | 32346m | 2.1m/s | 0°C | 0% | 0hPa | 0V | 00:00:00 | 00:00:00 | 00:00:00 | |
| AKAW68 | 2026-08-31 00:52:33 | 50.00731 | 21.57123 | 68° | 22km/h | 32288m | 11.9m/s | 0°C | 0% | 0hPa | 0V | 00:00:00 | 00:00:00 | 00:00:00 | |
| SQ9PSP-11 | 2026-08-31 00:52:30 | 50.00730 | 21.57118 | 248° | 16km/h | 32261m | 6.9m/s | 0°C | 0% | 0hPa | 0V | 00:00:00 | 00:00:00 | 00:00:00 | |
| MIELECB | 2026-08-31 00:52:28 | 50.00731 | 21.57114 | 107° | 16km/h | 32237m | 9.7m/s | 0°C | 0% | 0hPa | 0V | 00:00:00 | 00:00:00 | 00:00:00 | |
| MIELECB | 2026-08-31 00:52:22 | 50.00708 | 21.57049 | 316° | 13km/h | 32215m | -11.4m/s | 0°C | 0% | 0hPa | 0V | 00:00:00 | 00:00:00 | 00:00:00 | |
| AKAW682 | 2026-08-31 00:52:19 | 50.00703 | 21.57060 | 8° | 18km/h | 32234m | 1.7m/s | 0°C | 0% | 0hPa | 0V | 00:00:00 | 00:00:00 | 00:00:00 | |
| MIELECB | 2026-08-31 00:52:16 | 50.00692 | 21.57027 | 61° | 38km/h | 32216m | 6.6m/s | 0°C | 0% | 0hPa | 0V | 00:00:00 | 00:00:00 | 00:00:00 | |
| SQ9PSP-11 | 2026-08-31 00:52:15 | 50.00686 | 21.57015 | 52° | 35km/h | 32209m | 6.6m/s | 0°C | 0% | 0hPa | 0V | 00:00:00 | 00:00:00 | 00:00:00 | |
| AKAW68 | 2026-08-31 00:52:11 | 50.00664 | 21.56995 | 19° | 24km/h | 32185m | 1.9m/s | 0°C | 0% | 0hPa | 0V | 00:00:00 | 00:00:00 | 00:00:00 | |
| MIELECB | 2026-08-31 00:52:10 | 50.00658 | 21.56991 | 18° | 24km/h | 32182m | 6.7m/s | 0°C | 0% | 0hPa | 0V | 00:00:00 | 00:00:00 | 00:00:00 | |
| MIELECB | 2026-08-31 00:52:04 | 50.00614 | 21.56946 | 5° | 29km/h | 32135m | 5.6m/s | 0°C | 0% | 0hPa | 0V | 00:00:00 | 00:00:00 | 00:00:00 | |
| AKAW682 | 2026-08-31 00:51:59 | 50.00577 | 21.56915 | 44° | 38km/h | 32107m | 2.7m/s | 0°C | 0% | 0hPa | 0V | 00:00:00 | 00:00:00 | 00:00:00 | |
| SQ9PSP-11 | 2026-08-31 00:51:58 | 50.00570 | 21.56905 | 54° | 31km/h | 32103m | 5.0m/s | 0°C | 0% | 0hPa | 0V | 00:00:00 | 00:00:00 | 00:00:00 | |
| MIELECB | 2026-08-31 00:51:50 | 50.00506 | 21.56857 | 62° | 29km/h | 32059m | 9.0m/s | 0°C | 0% | 0hPa | 0V | 00:00:00 | 00:00:00 | 00:00:00 | |
| MIELECB | 2026-08-31 00:51:42 | 50.00453 | 21.56812 | 25° | 37km/h | 31961m | 9.4m/s | 0°C | 0% | 0hPa | 0V | 00:00:00 | 00:00:00 | 00:00:00 | |
| MIELECB | 2026-08-31 00:51:37 | 50.00424 | 21.56782 | 38° | 27km/h | 31914m | 4.0m/s | 0°C | 0% | 0hPa | 0V | 00:00:00 | 00:00:00 | 00:00:00 | |
| AKAW68 | 2026-08-31 00:51:30 | 50.00390 | 21.56810 | 45° | 20km/h | 31920m | 4.1m/s | 0°C | 0% | 0hPa | 0V | 00:00:00 | 00:00:00 | 00:00:00 | |
| SQ9PSP-11 | 2026-08-31 00:51:27 | 50.00381 | 21.56800 | 338° | 16km/h | 31903m | 9.5m/s | 0°C | 0% | 0hPa | 0V | 00:00:00 | 00:00:00 | 00:00:00 | |
| MIELECB | 2026-08-31 00:51:26 | 50.00379 | 21.56803 | 283° | 11km/h | 31891m | 6.4m/s | 0°C | 0% | 0hPa | 0V | 00:00:00 | 00:00:00 | 00:00:00 | |
| AKAW682 | 2026-08-31 00:51:13 | 50.00347 | 21.56817 | 59° | 24km/h | 31813m | 7.9m/s | 0°C | 0% | 0hPa | 0V | 00:00:00 | 00:00:00 | 00:00:00 | |
| SQ9PSP-11 | 2026-08-31 00:51:12 | 50.00344 | 21.56811 | 53° | 24km/h | 31805m | 7.5m/s | 0°C | 0% | 0hPa | 0V | 00:00:00 | 00:00:00 | 00:00:00 | |
| AKAW68 | 2026-08-31 00:51:08 | 50.00333 | 21.56817 | 309° | 16km/h | 31771m | 6.0m/s | 0°C | 0% | 0hPa | 0V | 00:00:00 | 00:00:00 | 00:00:00 | |
| SQ9EZE-15 | 2026-08-31 00:51:07 | 50.00331 | 21.56820 | 352° | 15km/h | 31764m | 9.4m/s | 0°C | 0% | 0hPa | 0V | 00:00:00 | 00:00:00 | 00:00:00 | |
| SQ9PSP-11 | 2026-08-31 00:50:56 | 50.00295 | 21.56799 | 58° | 13km/h | 31732m | 13.6m/s | 0°C | 0% | 0hPa | 0V | 00:00:00 | 00:00:00 | 00:00:00 | |
| AKAW682 | 2026-08-31 00:50:53 | 50.00302 | 21.56787 | 93° | 18km/h | 31694m | 10.1m/s | 0°C | 0% | 0hPa | 0V | 00:00:00 | 00:00:00 | 00:00:00 | |
| SQ9EZE-15 | 2026-08-31 00:50:47 | 50.00295 | 21.56747 | 91° | 11km/h | 31653m | 7.2m/s | 0°C | 0% | 0hPa | 0V | 00:00:00 | 00:00:00 | 00:00:00 | |
| AKAW68 | 2026-08-31 00:50:46 | 50.00295 | 21.56744 | 78° | 9km/h | 31645m | 6.3m/s | 0°C | 0% | 0hPa | 0V | 00:00:00 | 00:00:00 | 00:00:00 | |
| SQ9PSP-11 | 2026-08-31 00:50:41 | 50.00283 | 21.56701 | 75° | 27km/h | 31597m | 7.6m/s | 0°C | 0% | 0hPa | 0V | 00:00:00 | 00:00:00 | 00:00:00 | |
| AKAW682 | 2026-08-31 00:50:32 | 50.00250 | 21.56655 | 44° | 22km/h | 31530m | 2.7m/s | 0°C | 0% | 0hPa | 0V | 00:00:00 | 00:00:00 | 00:00:00 | |
| AKAW68 | 2026-08-31 00:50:25 | 50.00234 | 21.56618 | 39° | 40km/h | 31497m | 5.5m/s | 0°C | 0% | 0hPa | 0V | 00:00:00 | 00:00:00 | 00:00:00 | |
| AKAW682 | 2026-08-31 00:50:12 | 50.00214 | 21.56563 | 80° | 11km/h | 31416m | 6.1m/s | 0°C | 0% | 0hPa | 0V | 00:00:00 | 00:00:00 | 00:00:00 | |
| SQ9PSP-11 | 2026-08-31 00:50:10 | 50.00210 | 21.56553 | 50° | 20km/h | 31402m | 7.8m/s | 0°C | 0% | 0hPa | 0V | 00:00:00 | 00:00:00 | 00:00:00 | |
| AKAW68 | 2026-08-31 00:50:04 | 50.00205 | 21.56515 | 62° | 20km/h | 31360m | 4.7m/s | 0°C | 0% | 0hPa | 0V | 00:00:00 | 00:00:00 | 00:00:00 | |
| SQ9PSP-11 | 2026-08-31 00:49:55 | 50.00190 | 21.56471 | 75° | 31km/h | 31315m | 3.6m/s | 0°C | 0% | 0hPa | 0V | 00:00:00 | 00:00:00 | 00:00:00 | |
| AKAW682 | 2026-08-31 00:49:51 | 50.00178 | 21.56445 | 18° | 4km/h | 31295m | 6.8m/s | 0°C | 0% | 0hPa | 0V | 00:00:00 | 00:00:00 | 00:00:00 | |
| AKAW68 | 2026-08-31 00:49:43 | 50.00191 | 21.56397 | 102° | 22km/h | 31258m | 7.9m/s | 0°C | 0% | 0hPa | 0V | 00:00:00 | 00:00:00 | 00:00:00 | |
| SQ9PSP-11 | 2026-08-31 00:49:39 | 50.00181 | 21.56362 | 34° | 15km/h | 31239m | 5.1m/s | 0°C | 0% | 0hPa | 0V | 00:00:00 | 00:00:00 | 00:00:00 | |
| AKAW682 | 2026-08-31 00:49:31 | 50.00184 | 21.56314 | 51° | 42km/h | 31167m | 6.0m/s | 0°C | 0% | 0hPa | 0V | 00:00:00 | 00:00:00 | 00:00:00 | |
| MIELECB | 2026-08-31 00:49:27 | 50.00159 | 21.56300 | 65° | 15km/h | 31130m | 7.9m/s | 0°C | 0% | 0hPa | 0V | 00:00:00 | 00:00:00 | 00:00:00 | |
| SQ9PSP-11 | 2026-08-31 00:49:24 | 50.00159 | 21.56282 | 95° | 29km/h | 31118m | 5.9m/s | 0°C | 0% | 0hPa | 0V | 00:00:00 | 00:00:00 | 00:00:00 | |
| AKAW68 | 2026-08-31 00:49:20 | 50.00161 | 21.56246 | 92° | 13km/h | 31105m | 6.8m/s | 0°C | 0% | 0hPa | 0V | 00:00:00 | 00:00:00 | 00:00:00 | |
| MIELECB | 2026-08-31 00:49:13 | 50.00134 | 21.56203 | 73° | 18km/h | 31068m | 13.0m/s | 0°C | 0% | 0hPa | 0V | 00:00:00 | 00:00:00 | 00:00:00 | |
| AKAW682 | 2026-08-31 00:49:10 | 50.00129 | 21.56174 | 74° | 31km/h | 31041m | 8.9m/s | 0°C | 0% | 0hPa | 0V | 00:00:00 | 00:00:00 | 00:00:00 | |
| SQ9PSP-11 | 2026-08-31 00:49:08 | 50.00123 | 21.56154 | 58° | 22km/h | 31027m | 8.0m/s | 0°C | 0% | 0hPa | 0V | 00:00:00 | 00:00:00 | 00:00:00 | |
| MIELECB | 2026-08-31 00:49:07 | 50.00119 | 21.56150 | 11° | 15km/h | 31019m | 9.9m/s | 0°C | 0% | 0hPa | 0V | 00:00:00 | 00:00:00 | 00:00:00 | |
| MIELECB | 2026-08-31 00:49:02 | 50.00106 | 21.56134 | 88° | 27km/h | 30982m | 6.7m/s | 0°C | 0% | 0hPa | 0V | 00:00:00 | 00:00:00 | 00:00:00 | |
| AKAW68 | 2026-08-31 00:48:59 | 50.00106 | 21.56109 | 136° | 11km/h | 30961m | 8.2m/s | 0°C | 0% | 0hPa | 0V | 00:00:00 | 00:00:00 | 00:00:00 | |
| SQ9PSP-11 | 2026-08-31 00:48:52 | 50.00088 | 21.56091 | 92° | 7km/h | 30918m | 7.9m/s | 0°C | 0% | 0hPa | 0V | 00:00:00 | 00:00:00 | 00:00:00 | |
| MIELECB | 2026-08-31 00:48:51 | 50.00089 | 21.56090 | 188° | 9km/h | 30910m | 3.2m/s | 0°C | 0% | 0hPa | 0V | 00:00:00 | 00:00:00 | 00:00:00 | |
| AKAW682 | 2026-08-31 00:48:48 | 50.00090 | 21.56073 | 66° | 27km/h | 30897m | 8.1m/s | 0°C | 0% | 0hPa | 0V | 00:00:00 | 00:00:00 | 00:00:00 | |
| MIELECB | 2026-08-31 00:48:45 | 50.00078 | 21.56058 | 5° | 16km/h | 30883m | 7.7m/s | 0°C | 0% | 0hPa | 0V | 00:00:00 | 00:00:00 | 00:00:00 | |
| MIELECB | 2026-08-31 00:48:38 | 50.00060 | 21.56037 | 81° | 27km/h | 30831m | 6.3m/s | 0°C | 0% | 0hPa | 0V | 00:00:00 | 00:00:00 | 00:00:00 | |
| AKAW68 | 2026-08-31 00:48:37 | 50.00059 | 21.56027 | 69° | 22km/h | 30825m | 5.6m/s | 0°C | 0% | 0hPa | 0V | 00:00:00 | 00:00:00 | 00:00:00 | |
| SQ9PSP-11 | 2026-08-31 00:48:36 | 50.00059 | 21.56021 | 77° | 13km/h | 30821m | 3.7m/s | 0°C | 0% | 0hPa | 0V | 00:00:00 | 00:00:00 | 00:00:00 | |
| MIELECB | 2026-08-31 00:48:32 | 50.00052 | 21.56004 | 16° | 20km/h | 30803m | 8.1m/s | 0°C | 0% | 0hPa | 0V | 00:00:00 | 00:00:00 | 00:00:00 | |
| AKAW682 | 2026-08-31 00:48:28 | 50.00042 | 21.55989 | 50° | 24km/h | 30774m | 6.3m/s | 0°C | 0% | 0hPa | 0V | 00:00:00 | 00:00:00 | 00:00:00 | |
| MIELECB | 2026-08-31 00:48:24 | 50.00027 | 21.55959 | 13° | 20km/h | 30753m | 7.9m/s | 0°C | 0% | 0hPa | 0V | 00:00:00 | 00:00:00 | 00:00:00 | |
| SQ9PSP-11 | 2026-08-31 00:48:19 | 50.00035 | 21.55950 | 47° | 18km/h | 30703m | 10.5m/s | 0°C | 0% | 0hPa | 0V | 00:00:00 | 00:00:00 | 00:00:00 | |
| MIELECB | 2026-08-31 00:48:18 | 50.00034 | 21.55945 | 36° | 37km/h | 30688m | 9.1m/s | 0°C | 0% | 0hPa | 0V | 00:00:00 | 00:00:00 | 00:00:00 | |
| AKAW68 | 2026-08-31 00:48:16 | 50.00008 | 21.55930 | 14° | 51km/h | 30660m | 5.0m/s | 0°C | 0% | 0hPa | 0V | 00:00:00 | 00:00:00 | 00:00:00 | |
| MIELECB | 2026-08-31 00:48:12 | 49.99955 | 21.55921 | 1° | 33km/h | 30625m | 3.0m/s | 0°C | 0% | 0hPa | 0V | 00:00:00 | 00:00:00 | 00:00:00 | |
| MIELECB | 2026-08-31 00:48:06 | 49.99948 | 21.55896 | 48° | 37km/h | 30606m | 2.5m/s | 0°C | 0% | 0hPa | 0V | 00:00:00 | 00:00:00 | 00:00:00 | |
| SQ9PSP-11 | 2026-08-31 00:48:04 | 49.99928 | 21.55882 | 10° | 46km/h | 30603m | 3.0m/s | 0°C | 0% | 0hPa | 0V | 00:00:00 | 00:00:00 | 00:00:00 | |
| MIELECB | 2026-08-31 00:47:57 | 49.99900 | 21.55883 | 60° | 31km/h | 30568m | 8.9m/s | 0°C | 0% | 0hPa | 0V | 00:00:00 | 00:00:00 | 00:00:00 | |
| AKAW68 | 2026-08-31 00:47:54 | 49.99882 | 21.55861 | 27° | 22km/h | 30543m | 7.6m/s | 0°C | 0% | 0hPa | 0V | 00:00:00 | 00:00:00 | 00:00:00 | |
| MIELECB | 2026-08-31 00:47:52 | 49.99872 | 21.55860 | 351° | 27km/h | 30525m | 9.4m/s | 0°C | 0% | 0hPa | 0V | 00:00:00 | 00:00:00 | 00:00:00 | |
| SQ9PSP-11 | 2026-08-31 00:47:49 | 49.99851 | 21.55862 | 8° | 22km/h | 30496m | 3.2m/s | 0°C | 0% | 0hPa | 0V | 00:00:00 | 00:00:00 | 00:00:00 | |
| MIELECB | 2026-08-31 00:47:47 | 49.99845 | 21.55864 | 358° | 7km/h | 30485m | 2.1m/s | 0°C | 0% | 0hPa | 0V | 00:00:00 | 00:00:00 | 00:00:00 | |
| AKAW682 | 2026-08-31 00:47:44 | 49.99838 | 21.55858 | 25° | 24km/h | 30482m | 7.6m/s | 0°C | 0% | 0hPa | 0V | 00:00:00 | 00:00:00 | 00:00:00 | |
| MIELECB | 2026-08-31 00:47:40 | 49.99797 | 21.55853 | 350° | 42km/h | 30449m | 6.8m/s | 0°C | 0% | 0hPa | 0V | 00:00:00 | 00:00:00 | 00:00:00 | |
| AKAW68 | 2026-08-31 00:47:34 | 49.99774 | 21.55847 | 36° | 26km/h | 30416m | 4.9m/s | 0°C | 0% | 0hPa | 0V | 00:00:00 | 00:00:00 | 00:00:00 | |
| MIELECB | 2026-08-31 00:47:32 | 49.99760 | 21.55841 | 351° | 26km/h | 30405m | 5.2m/s | 0°C | 0% | 0hPa | 0V | 00:00:00 | 00:00:00 | 00:00:00 | |
| MIELECB | 2026-08-31 00:47:26 | 49.99718 | 21.55862 | 68° | 11km/h | 30376m | 8.0m/s | 0°C | 0% | 0hPa | 0V | 00:00:00 | 00:00:00 | 00:00:00 | |
| AKAW682 | 2026-08-31 00:47:23 | 49.99722 | 21.55850 | 148° | 11km/h | 30355m | 4.0m/s | 0°C | 0% | 0hPa | 0V | 00:00:00 | 00:00:00 | 00:00:00 | |
| MIELECB | 2026-08-31 00:47:21 | 49.99715 | 21.55848 | 23° | 24km/h | 30346m | 6.7m/s | 0°C | 0% | 0hPa | 0V | 00:00:00 | 00:00:00 | 00:00:00 | |
| SQ9PSP-11 | 2026-08-31 00:47:18 | 49.99685 | 21.55847 | 354° | 35km/h | 30332m | 6.8m/s | 0°C | 0% | 0hPa | 0V | 00:00:00 | 00:00:00 | 00:00:00 | |
| MIELECB | 2026-08-31 00:47:16 | 49.99675 | 21.55851 | 282° | 7km/h | 30322m | 5.7m/s | 0°C | 0% | 0hPa | 0V | 00:00:00 | 00:00:00 | 00:00:00 | |
| AKAW68 | 2026-08-31 00:47:13 | 49.99681 | 21.55849 | 44° | 11km/h | 30306m | 3.6m/s | 0°C | 0% | 0hPa | 0V | 00:00:00 | 00:00:00 | 00:00:00 | |
| MIELECB | 2026-08-31 00:47:10 | 49.99658 | 21.55856 | 328° | 46km/h | 30280m | 6.6m/s | 0°C | 0% | 0hPa | 0V | 00:00:00 | 00:00:00 | 00:00:00 | |
| MIELECB | 2026-08-31 00:47:03 | 49.99636 | 21.55862 | 104° | 4km/h | 30230m | 9.0m/s | 0°C | 0% | 0hPa | 0V | 00:00:00 | 00:00:00 | 00:00:00 | |
| SQ9PSP-11 | 2026-08-31 00:47:01 | 49.99635 | 21.55866 | 312° | 13km/h | 30208m | 6.3m/s | 0°C | 0% | 0hPa | 0V | 00:00:00 | 00:00:00 | 00:00:00 | |
| MIELECB | 2026-08-31 00:46:58 | 49.99618 | 21.55877 | 361° | 27km/h | 30183m | 6.9m/s | 0°C | 0% | 0hPa | 0V | 00:00:00 | 00:00:00 | 00:00:00 | |
| MIELECB | 2026-08-31 00:46:52 | 49.99602 | 21.55886 | 91° | 13km/h | 30144m | 4.6m/s | 0°C | 0% | 0hPa | 0V | 00:00:00 | 00:00:00 | 00:00:00 | |
| AKAW68 | 2026-08-31 00:46:51 | 49.99602 | 21.55882 | 69° | 13km/h | 30136m | 6.1m/s | 0°C | 0% | 0hPa | 0V | 00:00:00 | 00:00:00 | 00:00:00 | |
| MIELECB | 2026-08-31 00:46:47 | 49.99594 | 21.55893 | 270° | 31km/h | 30089m | 6.4m/s | 0°C | 0% | 0hPa | 0V | 00:00:00 | 00:00:00 | 00:00:00 | |
| SQ9PSP-11 | 2026-08-31 00:46:45 | 49.99595 | 21.55914 | 270° | 20km/h | 30074m | 5.8m/s | 0°C | 0% | 0hPa | 0V | 00:00:00 | 00:00:00 | 00:00:00 | |
| MIELECB | 2026-08-31 00:46:41 | 49.99599 | 21.55894 | 99° | 27km/h | 30044m | 2.0m/s | 0°C | 0% | 0hPa | 0V | 00:00:00 | 00:00:00 | 00:00:00 | |
| AKAW682 | 2026-08-31 00:46:38 | 49.99603 | 21.55893 | 263° | 18km/h | 30039m | 8.4m/s | 0°C | 0% | 0hPa | 0V | 00:00:00 | 00:00:00 | 00:00:00 | |
| MIELECB | 2026-08-31 00:46:35 | 49.99597 | 21.55918 | 320° | 20km/h | 30017m | 0.1m/s | 0°C | 0% | 0hPa | 0V | 00:00:00 | 00:00:00 | 00:00:00 | |
| AKAW68 | 2026-08-31 00:46:31 | 49.99606 | 21.55929 | 156° | 18km/h | 30010m | 3.3m/s | 0°C | 0% | 0hPa | 0V | 00:00:00 | 00:00:00 | 00:00:00 | |
| MIELECB | 2026-08-31 00:46:29 | 49.99620 | 21.55919 | 146° | 20km/h | 30011m | 7.3m/s | 0°C | 0% | 0hPa | 0V | 00:00:00 | 00:00:00 | 00:00:00 | |
| MIELECB | 2026-08-31 00:46:24 | 49.99650 | 21.55920 | 356° | 22km/h | 29972m | 11.7m/s | 0°C | 0% | 0hPa | 0V | 00:00:00 | 00:00:00 | 00:00:00 | |
| MIELECB | 2026-08-31 00:46:18 | 49.99629 | 21.55890 | 110° | 13km/h | 29927m | 7.1m/s | 0°C | 0% | 0hPa | 0V | 00:00:00 | 00:00:00 | 00:00:00 | |
| AKAW682 | 2026-08-31 00:46:17 | 49.99629 | 21.55888 | 0° | 0km/h | 29921m | 7.8m/s | 0°C | 0% | 0hPa | 0V | 00:00:00 | 00:00:00 | 00:00:00 | |
| SQ9PSP-11 | 2026-08-31 00:46:13 | 49.99630 | 21.55897 | 8° | 13km/h | 29902m | 8.4m/s | 0°C | 0% | 0hPa | 0V | 00:00:00 | 00:00:00 | 00:00:00 | |
| MIELECB | 2026-08-31 00:46:12 | 49.99632 | 21.55896 | 67° | 9km/h | 29897m | 6.1m/s | 0°C | 0% | 0hPa | 0V | 00:00:00 | 00:00:00 | 00:00:00 | |
| AKAW68 | 2026-08-31 00:46:09 | 49.99633 | 21.55882 | 77° | 31km/h | 29887m | 13.1m/s | 0°C | 0% | 0hPa | 0V | 00:00:00 | 00:00:00 | 00:00:00 | |
| MIELECB | 2026-08-31 00:46:06 | 49.99638 | 21.55850 | 135° | 20km/h | 29850m | 13.4m/s | 0°C | 0% | 0hPa | 0V | 00:00:00 | 00:00:00 | 00:00:00 | |
| MIELECB | 2026-08-31 00:46:00 | 49.99645 | 21.55816 | 69° | 38km/h | 29801m | 6.2m/s | 0°C | 0% | 0hPa | 0V | 00:00:00 | 00:00:00 | 00:00:00 | |
| SQ9PSP-11 | 2026-08-31 00:45:58 | 49.99643 | 21.55791 | 99° | 33km/h | 29795m | 7.1m/s | 0°C | 0% | 0hPa | 0V | 00:00:00 | 00:00:00 | 00:00:00 | |
| AKAW682 | 2026-08-31 00:45:56 | 49.99653 | 21.55779 | 173° | 27km/h | 29787m | 7.0m/s | 0°C | 0% | 0hPa | 0V | 00:00:00 | 00:00:00 | 00:00:00 | |
| MIELECB | 2026-08-31 00:45:55 | 49.99660 | 21.55778 | 160° | 26km/h | 29783m | 5.9m/s | 0°C | 0% | 0hPa | 0V | 00:00:00 | 00:00:00 | 00:00:00 | |
| MIELECB | 2026-08-31 00:45:49 | 49.99671 | 21.55742 | 119° | 26km/h | 29753m | 6.0m/s | 0°C | 0% | 0hPa | 0V | 00:00:00 | 00:00:00 | 00:00:00 | |
| AKAW68 | 2026-08-31 00:45:48 | 49.99676 | 21.55732 | 126° | 31km/h | 29748m | 6.4m/s | 0°C | 0% | 0hPa | 0V | 00:00:00 | 00:00:00 | 00:00:00 | |
| MIELECB | 2026-08-31 00:45:44 | 49.99687 | 21.55693 | 99° | 24km/h | 29733m | 7.1m/s | 0°C | 0% | 0hPa | 0V | 00:00:00 | 00:00:00 | 00:00:00 | |
| SQ9PSP-11 | 2026-08-31 00:45:42 | 49.99693 | 21.55680 | 114° | 16km/h | 29718m | 16.7m/s | 0°C | 0% | 0hPa | 0V | 00:00:00 | 00:00:00 | 00:00:00 | |
| MIELECB | 2026-08-31 00:45:38 | 49.99690 | 21.55663 | 51° | 20km/h | 29667m | 6.2m/s | 0°C | 0% | 0hPa | 0V | 00:00:00 | 00:00:00 | 00:00:00 | |
| MIELECB | 2026-08-31 00:45:33 | 49.99688 | 21.55626 | 144° | 20km/h | 29626m | 2.9m/s | 0°C | 0% | 0hPa | 0V | 00:00:00 | 00:00:00 | 00:00:00 | |
| AKAW68 | 2026-08-31 00:45:28 | 49.99682 | 21.55614 | 46° | 18km/h | 29584m | 7.8m/s | 0°C | 0% | 0hPa | 0V | 00:00:00 | 00:00:00 | 00:00:00 | |
| MIELECB | 2026-08-31 00:45:27 | 49.99679 | 21.55610 | 46° | 16km/h | 29572m | 2.9m/s | 0°C | 0% | 0hPa | 0V | 00:00:00 | 00:00:00 | 00:00:00 | |
| SQ9PSP-11 | 2026-08-31 00:45:25 | 49.99671 | 21.55597 | 55° | 22km/h | 29572m | 6.4m/s | 0°C | 0% | 0hPa | 0V | 00:00:00 | 00:00:00 | 00:00:00 | |
| MIELECB | 2026-08-31 00:45:22 | 49.99663 | 21.55573 | 74° | 18km/h | 29552m | 4.4m/s | 0°C | 0% | 0hPa | 0V | 00:00:00 | 00:00:00 | 00:00:00 | |
| MIELECB | 2026-08-31 00:45:17 | 49.99665 | 21.55567 | 335° | 11km/h | 29527m | 7.8m/s | 0°C | 0% | 0hPa | 0V | 00:00:00 | 00:00:00 | 00:00:00 | |
| AKAW682 | 2026-08-31 00:45:12 | 49.99638 | 21.55544 | 105° | 16km/h | 29492m | 6.3m/s | 0°C | 0% | 0hPa | 0V | 00:00:00 | 00:00:00 | 00:00:00 | |
| SQ9PSP-11 | 2026-08-31 00:45:10 | 49.99640 | 21.55534 | 162° | 9km/h | 29485m | 6.2m/s | 0°C | 0% | 0hPa | 0V | 00:00:00 | 00:00:00 | 00:00:00 | |
| AKAW68 | 2026-08-31 00:45:08 | 49.99638 | 21.55539 | 329° | 26km/h | 29473m | 4.8m/s | 0°C | 0% | 0hPa | 0V | 00:00:00 | 00:00:00 | 00:00:00 | |
| MIELECB | 2026-08-31 00:45:06 | 49.99626 | 21.55547 | 342° | 22km/h | 29461m | 5.8m/s | 0°C | 0% | 0hPa | 0V | 00:00:00 | 00:00:00 | 00:00:00 | |
| MIELECB | 2026-08-31 00:45:00 | 49.99620 | 21.55553 | 0° | 0km/h | 29395m | 7.6m/s | 0°C | 0% | 0hPa | 0V | 00:00:00 | 00:00:00 | 00:00:00 | |
| MIELECB | 2026-08-31 00:44:54 | 49.99610 | 21.55536 | 16° | 26km/h | 29368m | 3.3m/s | 0°C | 0% | 0hPa | 0V | 00:00:00 | 00:00:00 | 00:00:00 | |
| SQ9PSP-11 | 2026-08-31 00:44:53 | 49.99605 | 21.55536 | 358° | 18km/h | 29363m | 3.2m/s | 0°C | 0% | 0hPa | 0V | 00:00:00 | 00:00:00 | 00:00:00 | |
| MIELECB | 2026-08-31 00:44:49 | 49.99608 | 21.55525 | 163° | 24km/h | 29357m | 6.3m/s | 0°C | 0% | 0hPa | 0V | 00:00:00 | 00:00:00 | 00:00:00 | |
| AKAW68 | 2026-08-31 00:44:48 | 49.99613 | 21.55523 | 140° | 20km/h | 29348m | 5.7m/s | 0°C | 0% | 0hPa | 0V | 00:00:00 | 00:00:00 | 00:00:00 | |
| MIELECB | 2026-08-31 00:44:44 | 49.99608 | 21.55503 | 55° | 26km/h | 29329m | 8.0m/s | 0°C | 0% | 0hPa | 0V | 00:00:00 | 00:00:00 | 00:00:00 | |
| MIELECB | 2026-08-31 00:44:38 | 49.99610 | 21.55470 | 168° | 4km/h | 29294m | 4.8m/s | 0°C | 0% | 0hPa | 0V | 00:00:00 | 00:00:00 | 00:00:00 | |
| SQ9PSP-11 | 2026-08-31 00:44:35 | 49.99608 | 21.55447 | 88° | 38km/h | 29277m | 5.2m/s | 0°C | 0% | 0hPa | 0V | 00:00:00 | 00:00:00 | 00:00:00 | |
| MIELECB | 2026-08-31 00:44:33 | 49.99606 | 21.55412 | 81° | 15km/h | 29263m | 6.6m/s | 0°C | 0% | 0hPa | 0V | 00:00:00 | 00:00:00 | 00:00:00 | |
| AKAW682 | 2026-08-31 00:44:29 | 49.99605 | 21.55401 | 102° | 15km/h | 29247m | 6.7m/s | 0°C | 0% | 0hPa | 0V | 00:00:00 | 00:00:00 | 00:00:00 | |
| MIELECB | 2026-08-31 00:44:26 | 49.99606 | 21.55380 | 81° | 16km/h | 29224m | 6.5m/s | 0°C | 0% | 0hPa | 0V | 00:00:00 | 00:00:00 | 00:00:00 | |
| MIELECB | 2026-08-31 00:44:21 | 49.99598 | 21.55337 | 81° | 26km/h | 29189m | 5.1m/s | 0°C | 0% | 0hPa | 0V | 00:00:00 | 00:00:00 | 00:00:00 | |
| MIELECB | 2026-08-31 00:44:15 | 49.99590 | 21.55306 | 70° | 26km/h | 29161m | 7.9m/s | 0°C | 0% | 0hPa | 0V | 00:00:00 | 00:00:00 | 00:00:00 | |
| MIELECB | 2026-08-31 00:44:09 | 49.99577 | 21.55249 | 69° | 24km/h | 29123m | 6.6m/s | 0°C | 0% | 0hPa | 0V | 00:00:00 | 00:00:00 | 00:00:00 | |
| AKAW682 | 2026-08-31 00:44:04 | 49.99561 | 21.55239 | 41° | 13km/h | 29094m | 3.7m/s | 0°C | 0% | 0hPa | 0V | 00:00:00 | 00:00:00 | 00:00:00 | |
| MIELECB | 2026-08-31 00:44:03 | 49.99558 | 21.55234 | 55° | 26km/h | 29088m | 6.9m/s | 0°C | 0% | 0hPa | 0V | 00:00:00 | 00:00:00 | 00:00:00 | |
| MIELECB | 2026-08-31 00:43:57 | 49.99548 | 21.55184 | 306° | 11km/h | 29056m | 4.0m/s | 0°C | 0% | 0hPa | 0V | 00:00:00 | 00:00:00 | 00:00:00 | |
| MIELECB | 2026-08-31 00:43:51 | 49.99527 | 21.55168 | 46° | 18km/h | 29019m | 5.2m/s | 0°C | 0% | 0hPa | 0V | 00:00:00 | 00:00:00 | 00:00:00 | |
| MIELECB | 2026-08-31 00:43:45 | 49.99510 | 21.55140 | 46° | 26km/h | 28986m | 4.2m/s | 0°C | 0% | 0hPa | 0V | 00:00:00 | 00:00:00 | 00:00:00 | |
| AKAW68 | 2026-08-31 00:43:42 | 49.99502 | 21.55126 | 47° | 15km/h | 28971m | 5.4m/s | 0°C | 0% | 0hPa | 0V | 00:00:00 | 00:00:00 | 00:00:00 | |
| MIELECB | 2026-08-31 00:43:39 | 49.99489 | 21.55114 | 29° | 27km/h | 28953m | 5.0m/s | 0°C | 0% | 0hPa | 0V | 00:00:00 | 00:00:00 | 00:00:00 | |
| AKAW682 | 2026-08-31 00:43:37 | 49.99479 | 21.55109 | 9° | 18km/h | 28944m | 7.2m/s | 0°C | 0% | 0hPa | 0V | 00:00:00 | 00:00:00 | 00:00:00 | |
| MIELECB | 2026-08-31 00:43:34 | 49.99471 | 21.55112 | 360° | 11km/h | 28923m | 7.2m/s | 0°C | 0% | 0hPa | 0V | 00:00:00 | 00:00:00 | 00:00:00 | |
| MIELECB | 2026-08-31 00:43:28 | 49.99445 | 21.55102 | 355° | 16km/h | 28882m | 4.8m/s | 0°C | 0% | 0hPa | 0V | 00:00:00 | 00:00:00 | 00:00:00 | |
| SQ9PSP-11 | 2026-08-31 00:43:26 | 49.99435 | 21.55103 | 5° | 22km/h | 28871m | 5.8m/s | 0°C | 0% | 0hPa | 0V | 00:00:00 | 00:00:00 | 00:00:00 | |
| MIELECB | 2026-08-31 00:43:22 | 49.99422 | 21.55106 | 313° | 11km/h | 28852m | 5.8m/s | 0°C | 0% | 0hPa | 0V | 00:00:00 | 00:00:00 | 00:00:00 | |
| AKAW68 | 2026-08-31 00:43:21 | 49.99420 | 21.55109 | 344° | 15km/h | 28846m | 6.3m/s | 0°C | 0% | 0hPa | 0V | 00:00:00 | 00:00:00 | 00:00:00 | |
| MIELECB | 2026-08-31 00:43:17 | 49.99397 | 21.55117 | 340° | 24km/h | 28819m | 5.0m/s | 0°C | 0% | 0hPa | 0V | 00:00:00 | 00:00:00 | 00:00:00 | |
| MIELECB | 2026-08-31 00:43:11 | 49.99384 | 21.55144 | 348° | 16km/h | 28788m | 4.9m/s | 0°C | 0% | 0hPa | 0V | 00:00:00 | 00:00:00 | 00:00:00 | |
| AKAW682 | 2026-08-31 00:43:09 | 49.99373 | 21.55149 | 350° | 16km/h | 28784m | 5.0m/s | 0°C | 0% | 0hPa | 0V | 00:00:00 | 00:00:00 | 00:00:00 | |
| SQ9PSP-11 | 2026-08-31 00:43:05 | 49.99367 | 21.55170 | 279° | 13km/h | 28771m | 5.2m/s | 0°C | 0% | 0hPa | 0V | 00:00:00 | 00:00:00 | 00:00:00 | |
| AKAW68 | 2026-08-31 00:43:01 | 49.99362 | 21.55190 | 252° | 18km/h | 28767m | 8.8m/s | 0°C | 0% | 0hPa | 0V | 00:00:00 | 00:00:00 | 00:00:00 | |
| MIELECB | 2026-08-31 00:42:59 | 49.99364 | 21.55207 | 263° | 13km/h | 28756m | 13.6m/s | 0°C | 0% | 0hPa | 0V | 00:00:00 | 00:00:00 | 00:00:00 | |
| MIELECB | 2026-08-31 00:42:54 | 49.99361 | 21.55210 | 229° | 11km/h | 28669m | 14.4m/s | 0°C | 0% | 0hPa | 0V | 00:00:00 | 00:00:00 | 00:00:00 | |
| SQ9PSP-11 | 2026-08-31 00:42:48 | 49.99366 | 21.55258 | 285° | 16km/h | 28638m | 4.2m/s | 0°C | 0% | 0hPa | 0V | 00:00:00 | 00:00:00 | 00:00:00 | |
| AKAW682 | 2026-08-31 00:42:47 | 49.99366 | 21.55263 | 238° | 15km/h | 28635m | 8.2m/s | 0°C | 0% | 0hPa | 0V | 00:00:00 | 00:00:00 | 00:00:00 | |
| MIELECB | 2026-08-31 00:42:42 | 49.99372 | 21.55282 | 268° | 13km/h | 28604m | 2.7m/s | 0°C | 0% | 0hPa | 0V | 00:00:00 | 00:00:00 | 00:00:00 | |
| MIELECB | 2026-08-31 00:42:36 | 49.99393 | 21.55315 | 262° | 13km/h | 28577m | 6.7m/s | 0°C | 0% | 0hPa | 0V | 00:00:00 | 00:00:00 | 00:00:00 | |
| MIELECB | 2026-08-31 00:42:30 | 49.99410 | 21.55344 | 234° | 22km/h | 28541m | 6.9m/s | 0°C | 0% | 0hPa | 0V | 00:00:00 | 00:00:00 | 00:00:00 | |
| AKAW682 | 2026-08-31 00:42:28 | 49.99417 | 21.55367 | 238° | 16km/h | 28522m | 5.9m/s | 0°C | 0% | 0hPa | 0V | 00:00:00 | 00:00:00 | 00:00:00 | |
| MIELECB | 2026-08-31 00:42:24 | 49.99432 | 21.55369 | 168° | 24km/h | 28503m | 4.2m/s | 0°C | 0% | 0hPa | 0V | 00:00:00 | 00:00:00 | 00:00:00 | |
| AKAW68 | 2026-08-31 00:42:20 | 49.99447 | 21.55378 | 207° | 24km/h | 28481m | 6.8m/s | 0°C | 0% | 0hPa | 0V | 00:00:00 | 00:00:00 | 00:00:00 | |
| MIELECB | 2026-08-31 00:42:18 | 49.99460 | 21.55384 | 188° | 26km/h | 28466m | 5.9m/s | 0°C | 0% | 0hPa | 0V | 00:00:00 | 00:00:00 | 00:00:00 | |
| MIELECB | 2026-08-31 00:42:12 | 49.99485 | 21.55381 | 153° | 22km/h | 28434m | 7.6m/s | 0°C | 0% | 0hPa | 0V | 00:00:00 | 00:00:00 | 00:00:00 | |
| MIELECB | 2026-08-31 00:42:07 | 49.99510 | 21.55389 | 211° | 7km/h | 28404m | 4.9m/s | 0°C | 0% | 0hPa | 0V | 00:00:00 | 00:00:00 | 00:00:00 | |
| AKAW682 | 2026-08-31 00:42:05 | 49.99513 | 21.55386 | 122° | 22km/h | 28391m | 8.1m/s | 0°C | 0% | 0hPa | 0V | 00:00:00 | 00:00:00 | 00:00:00 | |
| MIELECB | 2026-08-31 00:42:01 | 49.99530 | 21.55354 | 158° | 20km/h | 28366m | 4.6m/s | 0°C | 0% | 0hPa | 0V | 00:00:00 | 00:00:00 | 00:00:00 | |
| AKAW68 | 2026-08-31 00:41:58 | 49.99548 | 21.55350 | 173° | 20km/h | 28351m | 6.0m/s | 0°C | 0% | 0hPa | 0V | 00:00:00 | 00:00:00 | 00:00:00 | |
| MIELECB | 2026-08-31 00:41:56 | 49.99554 | 21.55345 | 84° | 13km/h | 28339m | 5.5m/s | 0°C | 0% | 0hPa | 0V | 00:00:00 | 00:00:00 | 00:00:00 | |
| SQ9PSP-11 | 2026-08-31 00:41:55 | 49.99549 | 21.55339 | 31° | 22km/h | 28329m | 7.7m/s | 0°C | 0% | 0hPa | 0V | 00:00:00 | 00:00:00 | 00:00:00 | |
| MIELECB | 2026-08-31 00:41:50 | 49.99551 | 21.55306 | 158° | 37km/h | 28288m | 6.1m/s | 0°C | 0% | 0hPa | 0V | 00:00:00 | 00:00:00 | 00:00:00 | |
| AKAW682 | 2026-08-31 00:41:44 | 49.99545 | 21.55300 | 31° | 38km/h | 28254m | 4.8m/s | 0°C | 0% | 0hPa | 0V | 00:00:00 | 00:00:00 | 00:00:00 | |
| MIELECB | 2026-08-31 00:41:39 | 49.99545 | 21.55276 | 237° | 20km/h | 28226m | 6.1m/s | 0°C | 0% | 0hPa | 0V | 00:00:00 | 00:00:00 | 00:00:00 | |
| AKAW68 | 2026-08-31 00:41:36 | 49.99544 | 21.55285 | 51° | 13km/h | 28210m | 5.6m/s | 0°C | 0% | 0hPa | 0V | 00:00:00 | 00:00:00 | 00:00:00 | |
| MIELECB | 2026-08-31 00:41:34 | 49.99540 | 21.55271 | 71° | 20km/h | 28199m | 5.1m/s | 0°C | 0% | 0hPa | 0V | 00:00:00 | 00:00:00 | 00:00:00 | |
| MIELECB | 2026-08-31 00:41:28 | 49.99529 | 21.55267 | 100° | 7km/h | 28161m | 6.4m/s | 0°C | 0% | 0hPa | 0V | 00:00:00 | 00:00:00 | 00:00:00 | |
| AKAW682 | 2026-08-31 00:41:24 | 49.99536 | 21.55254 | 189° | 7km/h | 28135m | 7.4m/s | 0°C | 0% | 0hPa | 0V | 00:00:00 | 00:00:00 | 00:00:00 | |
| MIELECB | 2026-08-31 00:41:23 | 49.99538 | 21.55256 | 233° | 9km/h | 28126m | 5.2m/s | 0°C | 0% | 0hPa | 0V | 00:00:00 | 00:00:00 | 00:00:00 | |
| SQ9PSP-11 | 2026-08-31 00:41:19 | 49.99523 | 21.55261 | 2° | 26km/h | 28102m | 4.0m/s | 0°C | 0% | 0hPa | 0V | 00:00:00 | 00:00:00 | 00:00:00 | |
| MIELECB | 2026-08-31 00:41:17 | 49.99515 | 21.55267 | 279° | 11km/h | 28092m | 8.1m/s | 0°C | 0% | 0hPa | 0V | 00:00:00 | 00:00:00 | 00:00:00 | |
| AKAW68 | 2026-08-31 00:41:15 | 49.99518 | 21.55272 | 177° | 13km/h | 28074m | 4.1m/s | 0°C | 0% | 0hPa | 0V | 00:00:00 | 00:00:00 | 00:00:00 | |
| MIELECB | 2026-08-31 00:41:11 | 49.99521 | 21.55258 | 35° | 11km/h | 28050m | 7.8m/s | 0°C | 0% | 0hPa | 0V | 00:00:00 | 00:00:00 | 00:00:00 | |
| AKAW682 | 2026-08-31 00:41:03 | 49.99512 | 21.55247 | 163° | 27km/h | 27994m | 5.7m/s | 0°C | 0% | 0hPa | 0V | 00:00:00 | 00:00:00 | 00:00:00 | |
| SQ9PSP-11 | 2026-08-31 00:41:02 | 49.99518 | 21.55244 | 157° | 20km/h | 27988m | 4.3m/s | 0°C | 0% | 0hPa | 0V | 00:00:00 | 00:00:00 | 00:00:00 | |
| MIELECB | 2026-08-31 00:41:00 | 49.99523 | 21.55233 | 69° | 20km/h | 27973m | 6.8m/s | 0°C | 0% | 0hPa | 0V | 00:00:00 | 00:00:00 | 00:00:00 | |
| MIELECB | 2026-08-31 00:40:55 | 49.99503 | 21.55223 | 127° | 9km/h | 27937m | 4.8m/s | 0°C | 0% | 0hPa | 0V | 00:00:00 | 00:00:00 | 00:00:00 | |
| AKAW68 | 2026-08-31 00:40:54 | 49.99504 | 21.55219 | 111° | 16km/h | 27931m | 6.3m/s | 0°C | 0% | 0hPa | 0V | 00:00:00 | 00:00:00 | 00:00:00 | |
| MIELECB | 2026-08-31 00:40:49 | 49.99503 | 21.55174 | 28° | 9km/h | 27906m | 7.0m/s | 0°C | 0% | 0hPa | 0V | 00:00:00 | 00:00:00 | 00:00:00 | |
| SQ9PSP-11 | 2026-08-31 00:40:47 | 49.99498 | 21.55179 | 319° | 22km/h | 27895m | 4.8m/s | 0°C | 0% | 0hPa | 0V | 00:00:00 | 00:00:00 | 00:00:00 | |
| AKAW682 | 2026-08-31 00:40:42 | 49.99473 | 21.55158 | 83° | 29km/h | 27872m | 7.1m/s | 0°C | 0% | 0hPa | 0V | 00:00:00 | 00:00:00 | 00:00:00 | |
| MIELECB | 2026-08-31 00:40:38 | 49.99474 | 21.55139 | 349° | 16km/h | 27842m | 6.9m/s | 0°C | 0% | 0hPa | 0V | 00:00:00 | 00:00:00 | 00:00:00 | |
| AKAW68 | 2026-08-31 00:40:33 | 49.99440 | 21.55127 | 57° | 20km/h | 27808m | 5.7m/s | 0°C | 0% | 0hPa | 0V | 00:00:00 | 00:00:00 | 00:00:00 | |
| MIELECB | 2026-08-31 00:40:32 | 49.99437 | 21.55119 | 65° | 26km/h | 27803m | 5.1m/s | 0°C | 0% | 0hPa | 0V | 00:00:00 | 00:00:00 | 00:00:00 | |
| MIELECB | 2026-08-31 00:40:27 | 49.99421 | 21.55095 | 319° | 16km/h | 27774m | 6.1m/s | 0°C | 0% | 0hPa | 0V | 00:00:00 | 00:00:00 | 00:00:00 | |
| MIELECB | 2026-08-31 00:40:21 | 49.99394 | 21.55079 | 71° | 26km/h | 27740m | 8.0m/s | 0°C | 0% | 0hPa | 0V | 00:00:00 | 00:00:00 | 00:00:00 | |
| MIELECB | 2026-08-31 00:40:16 | 49.99388 | 21.55081 | 335° | 26km/h | 27709m | 6.3m/s | 0°C | 0% | 0hPa | 0V | 00:00:00 | 00:00:00 | 00:00:00 | |
| AKAW68 | 2026-08-31 00:40:13 | 49.99370 | 21.55084 | 8° | 13km/h | 27691m | 7.4m/s | 0°C | 0% | 0hPa | 0V | 00:00:00 | 00:00:00 | 00:00:00 | |
| MIELECB | 2026-08-31 00:40:11 | 49.99368 | 21.55084 | 231° | 5km/h | 27673m | 4.9m/s | 0°C | 0% | 0hPa | 0V | 00:00:00 | 00:00:00 | 00:00:00 | |
| MIELECB | 2026-08-31 00:40:05 | 49.99348 | 21.55095 | 300° | 16km/h | 27643m | 7.6m/s | 0°C | 0% | 0hPa | 0V | 00:00:00 | 00:00:00 | 00:00:00 | |
| SQ9PSP-11 | 2026-08-31 00:40:00 | 49.99335 | 21.55121 | 338° | 11km/h | 27612m | 7.3m/s | 0°C | 0% | 0hPa | 0V | 00:00:00 | 00:00:00 | 00:00:00 | |
| MIELECB | 2026-08-31 00:39:59 | 49.99333 | 21.55124 | 284° | 11km/h | 27604m | 8.9m/s | 0°C | 0% | 0hPa | 0V | 00:00:00 | 00:00:00 | 00:00:00 | |
| MIELECB | 2026-08-31 00:39:54 | 49.99321 | 21.55145 | 351° | 18km/h | 27568m | 6.1m/s | 0°C | 0% | 0hPa | 0V | 00:00:00 | 00:00:00 | 00:00:00 | |
| AKAW68 | 2026-08-31 00:39:51 | 49.99315 | 21.55149 | 265° | 11km/h | 27549m | 5.2m/s | 0°C | 0% | 0hPa | 0V | 00:00:00 | 00:00:00 | 00:00:00 | |
| MIELECB | 2026-08-31 00:39:49 | 49.99311 | 21.55155 | 354° | 15km/h | 27531m | 6.7m/s | 0°C | 0% | 0hPa | 0V | 00:00:00 | 00:00:00 | 00:00:00 | |
| SQ9PSP-11 | 2026-08-31 00:39:44 | 49.99300 | 21.55162 | 318° | 15km/h | 27503m | 5.1m/s | 0°C | 0% | 0hPa | 0V | 00:00:00 | 00:00:00 | 00:00:00 | |
| MIELECB | 2026-08-31 00:39:43 | 49.99297 | 21.55164 | 351° | 13km/h | 27496m | 5.4m/s | 0°C | 0% | 0hPa | 0V | 00:00:00 | 00:00:00 | 00:00:00 | |
| MIELECB | 2026-08-31 00:39:38 | 49.99283 | 21.55145 | 271° | 7km/h | 27461m | 8.1m/s | 0°C | 0% | 0hPa | 0V | 00:00:00 | 00:00:00 | 00:00:00 | |
| MIELECB | 2026-08-31 00:39:32 | 49.99268 | 21.55162 | 288° | 5km/h | 27410m | 6.9m/s | 0°C | 0% | 0hPa | 0V | 00:00:00 | 00:00:00 | 00:00:00 | |
| AKAW68 | 2026-08-31 00:39:30 | 49.99266 | 21.55167 | 292° | 5km/h | 27396m | 2.1m/s | 0°C | 0% | 0hPa | 0V | 00:00:00 | 00:00:00 | 00:00:00 | |
| SQ9PSP-11 | 2026-08-31 00:39:29 | 49.99264 | 21.55168 | 347° | 11km/h | 27392m | 4.7m/s | 0°C | 0% | 0hPa | 0V | 00:00:00 | 00:00:00 | 00:00:00 | |
| MIELECB | 2026-08-31 00:39:26 | 49.99253 | 21.55169 | 325° | 22km/h | 27376m | 5.7m/s | 0°C | 0% | 0hPa | 0V | 00:00:00 | 00:00:00 | 00:00:00 | |
| MIELECB | 2026-08-31 00:39:21 | 49.99243 | 21.55205 | 318° | 20km/h | 27355m | 4.7m/s | 0°C | 0% | 0hPa | 0V | 00:00:00 | 00:00:00 | 00:00:00 | |
| AKAW682 | 2026-08-31 00:39:16 | 49.99227 | 21.55225 | 294° | 18km/h | 27335m | 6.6m/s | 0°C | 0% | 0hPa | 0V | 00:00:00 | 00:00:00 | 00:00:00 | |
| MIELECB | 2026-08-31 00:39:15 | 49.99224 | 21.55231 | 305° | 22km/h | 27328m | 6.5m/s | 0°C | 0% | 0hPa | 0V | 00:00:00 | 00:00:00 | 00:00:00 | |
| MIELECB | 2026-08-31 00:39:10 | 49.99216 | 21.55266 | 272° | 20km/h | 27293m | 5.4m/s | 0°C | 0% | 0hPa | 0V | 00:00:00 | 00:00:00 | 00:00:00 | |
| AKAW68 | 2026-08-31 00:39:09 | 49.99215 | 21.55273 | 286° | 16km/h | 27287m | 4.6m/s | 0°C | 0% | 0hPa | 0V | 00:00:00 | 00:00:00 | 00:00:00 | |
| MIELECB | 2026-08-31 00:39:04 | 49.99198 | 21.55303 | 281° | 31km/h | 27252m | 6.4m/s | 0°C | 0% | 0hPa | 0V | 00:00:00 | 00:00:00 | 00:00:00 | |
| MIELECB | 2026-08-31 00:38:59 | 49.99207 | 21.55346 | 267° | 7km/h | 27222m | 3.1m/s | 0°C | 0% | 0hPa | 0V | 00:00:00 | 00:00:00 | 00:00:00 | |
| SQ9PSP-11 | 2026-08-31 00:38:58 | 49.99208 | 21.55350 | 251° | 9km/h | 27217m | 5.2m/s | 0°C | 0% | 0hPa | 0V | 00:00:00 | 00:00:00 | 00:00:00 | |
| AKAW682 | 2026-08-31 00:38:55 | 49.99209 | 21.55370 | 271° | 18km/h | 27197m | 4.8m/s | 0°C | 0% | 0hPa | 0V | 00:00:00 | 00:00:00 | 00:00:00 | |
| MIELECB | 2026-08-31 00:38:54 | 49.99209 | 21.55377 | 287° | 16km/h | 27190m | 4.4m/s | 0°C | 0% | 0hPa | 0V | 00:00:00 | 00:00:00 | 00:00:00 | |
| MIELECB | 2026-08-31 00:38:48 | 49.99224 | 21.55415 | 214° | 15km/h | 27155m | 6.6m/s | 0°C | 0% | 0hPa | 0V | 00:00:00 | 00:00:00 | 00:00:00 | |
| AKAW68 | 2026-08-31 00:38:46 | 49.99226 | 21.55415 | 257° | 4km/h | 27138m | 3.4m/s | 0°C | 0% | 0hPa | 0V | 00:00:00 | 00:00:00 | 00:00:00 | |
| MIELECB | 2026-08-31 00:38:43 | 49.99229 | 21.55424 | 235° | 24km/h | 27126m | 4.2m/s | 0°C | 0% | 0hPa | 0V | 00:00:00 | 00:00:00 | 00:00:00 | |
| MIELECB | 2026-08-31 00:38:37 | 49.99248 | 21.55451 | 300° | 11km/h | 27099m | 5.5m/s | 0°C | 0% | 0hPa | 0V | 00:00:00 | 00:00:00 | 00:00:00 | |
| AKAW682 | 2026-08-31 00:38:35 | 49.99249 | 21.55461 | 243° | 18km/h | 27085m | 4.7m/s | 0°C | 0% | 0hPa | 0V | 00:00:00 | 00:00:00 | 00:00:00 | |
| MIELECB | 2026-08-31 00:38:31 | 49.99268 | 21.55460 | 179° | 31km/h | 27054m | 3.3m/s | 0°C | 0% | 0hPa | 0V | 00:00:00 | 00:00:00 | 00:00:00 | |
| MIELECB | 2026-08-31 00:38:26 | 49.99297 | 21.55464 | 156° | 9km/h | 27039m | 5.7m/s | 0°C | 0% | 0hPa | 0V | 00:00:00 | 00:00:00 | 00:00:00 | |
| AKAW68 | 2026-08-31 00:38:25 | 49.99299 | 21.55463 | 161° | 11km/h | 27034m | 5.2m/s | 0°C | 0% | 0hPa | 0V | 00:00:00 | 00:00:00 | 00:00:00 | |
| MIELECB | 2026-08-31 00:38:20 | 49.99321 | 21.55465 | 170° | 16km/h | 26997m | 7.9m/s | 0°C | 0% | 0hPa | 0V | 00:00:00 | 00:00:00 | 00:00:00 | |
| MIELECB | 2026-08-31 00:38:15 | 49.99340 | 21.55452 | 184° | 13km/h | 26951m | 6.8m/s | 0°C | 0% | 0hPa | 0V | 00:00:00 | 00:00:00 | 00:00:00 | |
| MIELECB | 2026-08-31 00:38:09 | 49.99354 | 21.55434 | 162° | 18km/h | 26923m | 6.9m/s | 0°C | 0% | 0hPa | 0V | 00:00:00 | 00:00:00 | 00:00:00 | |
| SQ9PSP-11 | 2026-08-31 00:38:07 | 49.99358 | 21.55426 | 114° | 13km/h | 26921m | 7.6m/s | 0°C | 0% | 0hPa | 0V | 00:00:00 | 00:00:00 | 00:00:00 | |
| MIELECB | 2026-08-31 00:38:04 | 49.99360 | 21.55407 | 121° | 18km/h | 26918m | 6.8m/s | 0°C | 0% | 0hPa | 0V | 00:00:00 | 00:00:00 | 00:00:00 | |
| AKAW68 | 2026-08-31 00:38:03 | 49.99364 | 21.55402 | 152° | 15km/h | 26910m | 4.6m/s | 0°C | 0% | 0hPa | 0V | 00:00:00 | 00:00:00 | 00:00:00 | |
| MIELECB | 2026-08-31 00:37:59 | 49.99372 | 21.55392 | 91° | 13km/h | 26891m | 5.2m/s | 0°C | 0% | 0hPa | 0V | 00:00:00 | 00:00:00 | 00:00:00 | |
| MIELECB | 2026-08-31 00:37:48 | 49.99377 | 21.55355 | 102° | 7km/h | 26833m | 5.6m/s | 0°C | 0% | 0hPa | 0V | 00:00:00 | 00:00:00 | 00:00:00 | |
| AKAW682 | 2026-08-31 00:37:44 | 49.99375 | 21.55329 | 84° | 18km/h | 26805m | 4.2m/s | 0°C | 0% | 0hPa | 0V | 00:00:00 | 00:00:00 | 00:00:00 | |
| MIELECB | 2026-08-31 00:37:42 | 49.99373 | 21.55323 | 333° | 5km/h | 26793m | 4.5m/s | 0°C | 0% | 0hPa | 0V | 00:00:00 | 00:00:00 | 00:00:00 | |
| AKAW68 | 2026-08-31 00:37:41 | 49.99372 | 21.55325 | 308° | 9km/h | 26789m | 4.9m/s | 0°C | 0% | 0hPa | 0V | 00:00:00 | 00:00:00 | 00:00:00 | |
| MIELECB | 2026-08-31 00:37:37 | 49.99367 | 21.55311 | 102° | 15km/h | 26764m | 5.8m/s | 0°C | 0% | 0hPa | 0V | 00:00:00 | 00:00:00 | 00:00:00 | |
| SQ9PSP-11 | 2026-08-31 00:37:32 | 49.99364 | 21.55301 | 1° | 20km/h | 26730m | 5.9m/s | 0°C | 0% | 0hPa | 0V | 00:00:00 | 00:00:00 | 00:00:00 | |
| MIELECB | 2026-08-31 00:37:31 | 49.99359 | 21.55301 | 359° | 18km/h | 26724m | 5.2m/s | 0°C | 0% | 0hPa | 0V | 00:00:00 | 00:00:00 | 00:00:00 | |
| MIELECB | 2026-08-31 00:37:26 | 49.99346 | 21.55308 | 11° | 13km/h | 26687m | 5.0m/s | 0°C | 0% | 0hPa | 0V | 00:00:00 | 00:00:00 | 00:00:00 | |
| AKAW682 | 2026-08-31 00:37:22 | 49.99334 | 21.55310 | 315° | 11km/h | 26665m | 4.0m/s | 0°C | 0% | 0hPa | 0V | 00:00:00 | 00:00:00 | 00:00:00 | |
| MIELECB | 2026-08-31 00:37:21 | 49.99332 | 21.55313 | 331° | 18km/h | 26660m | 4.8m/s | 0°C | 0% | 0hPa | 0V | 00:00:00 | 00:00:00 | 00:00:00 | |
| AKAW68 | 2026-08-31 00:37:18 | 49.99318 | 21.55318 | 342° | 18km/h | 26644m | 5.1m/s | 0°C | 0% | 0hPa | 0V | 00:00:00 | 00:00:00 | 00:00:00 | |
| SQ9PSP-11 | 2026-08-31 00:37:16 | 49.99309 | 21.55326 | 313° | 20km/h | 26633m | 6.3m/s | 0°C | 0% | 0hPa | 0V | 00:00:00 | 00:00:00 | 00:00:00 | |
| MIELECB | 2026-08-31 00:37:15 | 49.99306 | 21.55333 | 299° | 24km/h | 26627m | 4.9m/s | 0°C | 0% | 0hPa | 0V | 00:00:00 | 00:00:00 | 00:00:00 | |
| MIELECB | 2026-08-31 00:37:09 | 49.99273 | 21.55366 | 316° | 9km/h | 26593m | 6.9m/s | 0°C | 0% | 0hPa | 0V | 00:00:00 | 00:00:00 | 00:00:00 | |
| MIELECB | 2026-08-31 00:37:04 | 49.99260 | 21.55378 | 338° | 26km/h | 26569m | 4.7m/s | 0°C | 0% | 0hPa | 0V | 00:00:00 | 00:00:00 | 00:00:00 | |
| SQ9PSP-11 | 2026-08-31 00:36:59 | 49.99242 | 21.55403 | 324° | 16km/h | 26538m | 5.9m/s | 0°C | 0% | 0hPa | 0V | 00:00:00 | 00:00:00 | 00:00:00 | |
| MIELECB | 2026-08-31 00:36:58 | 49.99238 | 21.55407 | 331° | 20km/h | 26533m | 4.1m/s | 0°C | 0% | 0hPa | 0V | 00:00:00 | 00:00:00 | 00:00:00 | |
| AKAW68 | 2026-08-31 00:36:56 | 49.99232 | 21.55419 | 293° | 18km/h | 26524m | 5.0m/s | 0°C | 0% | 0hPa | 0V | 00:00:00 | 00:00:00 | 00:00:00 | |
| MIELECB | 2026-08-31 00:36:53 | 49.99226 | 21.55438 | 312° | 16km/h | 26512m | 5.1m/s | 0°C | 0% | 0hPa | 0V | 00:00:00 | 00:00:00 | 00:00:00 | |
| MIELECB | 2026-08-31 00:36:47 | 49.99214 | 21.55481 | 304° | 18km/h | 26490m | 7.2m/s | 0°C | 0% | 0hPa | 0V | 00:00:00 | 00:00:00 | 00:00:00 | |
| MIELECB | 2026-08-31 00:36:42 | 49.99201 | 21.55514 | 272° | 26km/h | 26453m | 6.1m/s | 0°C | 0% | 0hPa | 0V | 00:00:00 | 00:00:00 | 00:00:00 | |
| MIELECB | 2026-08-31 00:36:37 | 49.99192 | 21.55541 | 330° | 20km/h | 26409m | 4.1m/s | 0°C | 0% | 0hPa | 0V | 00:00:00 | 00:00:00 | 00:00:00 | |
| AKAW68 | 2026-08-31 00:36:36 | 49.99188 | 21.55545 | 303° | 20km/h | 26402m | 6.0m/s | 0°C | 0% | 0hPa | 0V | 00:00:00 | 00:00:00 | 00:00:00 | |
| AKAW682 | 2026-08-31 00:36:34 | 49.99188 | 21.55562 | 265° | 22km/h | 26389m | 4.1m/s | 0°C | 0% | 0hPa | 0V | 00:00:00 | 00:00:00 | 00:00:00 | |
| MIELECB | 2026-08-31 00:36:31 | 49.99186 | 21.55578 | 320° | 15km/h | 26371m | 3.4m/s | 0°C | 0% | 0hPa | 0V | 00:00:00 | 00:00:00 | 00:00:00 | |
| MIELECB | 2026-08-31 00:36:26 | 49.99181 | 21.55604 | 251° | 13km/h | 26353m | 5.2m/s | 0°C | 0% | 0hPa | 0V | 00:00:00 | 00:00:00 | 00:00:00 | |
| MIELECB | 2026-08-31 00:36:20 | 49.99178 | 21.55623 | 238° | 18km/h | 26320m | 7.0m/s | 0°C | 0% | 0hPa | 0V | 00:00:00 | 00:00:00 | 00:00:00 | |
| AKAW68 | 2026-08-31 00:36:15 | 49.99184 | 21.55627 | 169° | 7km/h | 26285m | 6.4m/s | 0°C | 0% | 0hPa | 0V | 00:00:00 | 00:00:00 | 00:00:00 | |
| MIELECB | 2026-08-31 00:36:14 | 49.99186 | 21.55627 | 215° | 9km/h | 26278m | 5.5m/s | 0°C | 0% | 0hPa | 0V | 00:00:00 | 00:00:00 | 00:00:00 | |
| SQ9PSP-11 | 2026-08-31 00:36:11 | 49.99192 | 21.55630 | 64° | 2km/h | 26261m | 6.6m/s | 0°C | 0% | 0hPa | 0V | 00:00:00 | 00:00:00 | 00:00:00 | |
| AKAW682 | 2026-08-31 00:36:09 | 49.99192 | 21.55625 | 119° | 5km/h | 26249m | 4.4m/s | 0°C | 0% | 0hPa | 0V | 00:00:00 | 00:00:00 | 00:00:00 | |
| MIELECB | 2026-08-31 00:36:08 | 49.99194 | 21.55623 | 179° | 13km/h | 26243m | 7.8m/s | 0°C | 0% | 0hPa | 0V | 00:00:00 | 00:00:00 | 00:00:00 | |
| MIELECB | 2026-08-31 00:36:02 | 49.99206 | 21.55620 | 144° | 2km/h | 26208m | 6.0m/s | 0°C | 0% | 0hPa | 0V | 00:00:00 | 00:00:00 | 00:00:00 | |
| MIELECB | 2026-08-31 00:35:57 | 49.99221 | 21.55601 | 124° | 22km/h | 26180m | 5.3m/s | 0°C | 0% | 0hPa | 0V | 00:00:00 | 00:00:00 | 00:00:00 | |
| SQ9PSP-11 | 2026-08-31 00:35:55 | 49.99226 | 21.55591 | 155° | 13km/h | 26166m | 6.8m/s | 0°C | 0% | 0hPa | 0V | 00:00:00 | 00:00:00 | 00:00:00 | |
| AKAW68 | 2026-08-31 00:35:54 | 49.99229 | 21.55590 | 184° | 11km/h | 26160m | 6.8m/s | 0°C | 0% | 0hPa | 0V | 00:00:00 | 00:00:00 | 00:00:00 | |
| MIELECB | 2026-08-31 00:35:51 | 49.99229 | 21.55580 | 59° | 18km/h | 26138m | 5.8m/s | 0°C | 0% | 0hPa | 0V | 00:00:00 | 00:00:00 | 00:00:00 | |
| AKAW682 | 2026-08-31 00:35:49 | 49.99229 | 21.55567 | 114° | 20km/h | 26126m | 4.2m/s | 0°C | 0% | 0hPa | 0V | 00:00:00 | 00:00:00 | 00:00:00 | |
| MIELECB | 2026-08-31 00:35:45 | 49.99240 | 21.55537 | 102° | 22km/h | 26110m | 6.3m/s | 0°C | 0% | 0hPa | 0V | 00:00:00 | 00:00:00 | 00:00:00 | |
| MIELECB | 2026-08-31 00:35:40 | 49.99241 | 21.55489 | 75° | 29km/h | 26074m | 6.7m/s | 0°C | 0% | 0hPa | 0V | 00:00:00 | 00:00:00 | 00:00:00 | |
| MIELECB | 2026-08-31 00:35:33 | 49.99244 | 21.55442 | 89° | 24km/h | 26033m | 7.5m/s | 0°C | 0% | 0hPa | 0V | 00:00:00 | 00:00:00 | 00:00:00 | |
| AKAW68 | 2026-08-31 00:35:32 | 49.99243 | 21.55432 | 70° | 22km/h | 26026m | 6.2m/s | 0°C | 0% | 0hPa | 0V | 00:00:00 | 00:00:00 | 00:00:00 | |
| MIELECB | 2026-08-31 00:35:27 | 49.99237 | 21.55379 | 70° | 35km/h | 25997m | 6.2m/s | 0°C | 0% | 0hPa | 0V | 00:00:00 | 00:00:00 | 00:00:00 | |
| AKAW682 | 2026-08-31 00:35:26 | 49.99234 | 21.55367 | 62° | 35km/h | 25991m | 5.2m/s | 0°C | 0% | 0hPa | 0V | 00:00:00 | 00:00:00 | 00:00:00 | |
| MIELECB | 2026-08-31 00:35:23 | 49.99225 | 21.55338 | 80° | 13km/h | 25966m | 5.4m/s | 0°C | 0% | 0hPa | 0V | 00:00:00 | 00:00:00 | 00:00:00 | |
| MIELECB | 2026-08-31 00:35:16 | 49.99213 | 21.55277 | 69° | 22km/h | 25918m | 3.6m/s | 0°C | 0% | 0hPa | 0V | 00:00:00 | 00:00:00 | 00:00:00 | |
| MIELECB | 2026-08-31 00:35:11 | 49.99192 | 21.55249 | 49° | 13km/h | 25875m | 5.3m/s | 0°C | 0% | 0hPa | 0V | 00:00:00 | 00:00:00 | 00:00:00 | |
| AKAW68 | 2026-08-31 00:35:10 | 49.99190 | 21.55244 | 56° | 16km/h | 25866m | 4.8m/s | 0°C | 0% | 0hPa | 0V | 00:00:00 | 00:00:00 | 00:00:00 | |
| SQ9PSP-11 | 2026-08-31 00:35:07 | 49.99182 | 21.55221 | 52° | 29km/h | 25833m | 6.6m/s | 0°C | 0% | 0hPa | 0V | 00:00:00 | 00:00:00 | 00:00:00 | |
| AKAW682 | 2026-08-31 00:35:06 | 49.99177 | 21.55214 | 49° | 27km/h | 25819m | 5.4m/s | 0°C | 0% | 0hPa | 0V | 00:00:00 | 00:00:00 | 00:00:00 | |
| MIELECB | 2026-08-31 00:35:05 | 49.99174 | 21.55207 | 49° | 18km/h | 25805m | 4.6m/s | 0°C | 0% | 0hPa | 0V | 00:00:00 | 00:00:00 | 00:00:00 | |
| MIELECB | 2026-08-31 00:34:59 | 49.99154 | 21.55186 | 42° | 16km/h | 25774m | 2.5m/s | 0°C | 0% | 0hPa | 0V | 00:00:00 | 00:00:00 | 00:00:00 | |
| MIELECB | 2026-08-31 00:34:54 | 49.99142 | 21.55166 | 24° | 22km/h | 25756m | -0.3m/s | 0°C | 0% | 0hPa | 0V | 00:00:00 | 00:00:00 | 00:00:00 | |
| SQ9PSP-11 | 2026-08-31 00:34:52 | 49.99134 | 21.55164 | 4° | 11km/h | 25752m | 2.0m/s | 0°C | 0% | 0hPa | 0V | 00:00:00 | 00:00:00 | 00:00:00 | |
| AKAW68 | 2026-08-31 00:34:49 | 49.99125 | 21.55167 | 352° | 11km/h | 25749m | 1.4m/s | 0°C | 0% | 0hPa | 0V | 00:00:00 | 00:00:00 | 00:00:00 | |
| MIELECB | 2026-08-31 00:34:48 | 49.99121 | 21.55166 | 19° | 15km/h | 25749m | 0.2m/s | 0°C | 0% | 0hPa | 0V | 00:00:00 | 00:00:00 | 00:00:00 | |
| MIELECB | 2026-08-31 00:34:43 | 49.99113 | 21.55155 | 6° | 11km/h | 25747m | 2.6m/s | 0°C | 0% | 0hPa | 0V | 00:00:00 | 00:00:00 | 00:00:00 | |
| AKAW682 | 2026-08-31 00:34:42 | 49.99110 | 21.55156 | 342° | 13km/h | 25742m | 3.2m/s | 0°C | 0% | 0hPa | 0V | 00:00:00 | 00:00:00 | 00:00:00 | |
| MIELECB | 2026-08-31 00:34:37 | 49.99105 | 21.55170 | 254° | 9km/h | 25705m | 5.1m/s | 0°C | 0% | 0hPa | 0V | 00:00:00 | 00:00:00 | 00:00:00 | |
| SQ9PSP-11 | 2026-08-31 00:34:36 | 49.99104 | 21.55172 | 343° | 5km/h | 25700m | 6.1m/s | 0°C | 0% | 0hPa | 0V | 00:00:00 | 00:00:00 | 00:00:00 | |
| MIELECB | 2026-08-31 00:34:32 | 49.99100 | 21.55174 | 219° | 9km/h | 25683m | 7.1m/s | 0°C | 0% | 0hPa | 0V | 00:00:00 | 00:00:00 | 00:00:00 | |
| AKAW68 | 2026-08-31 00:34:29 | 49.99102 | 21.55190 | 289° | 15km/h | 25665m | 7.9m/s | 0°C | 0% | 0hPa | 0V | 00:00:00 | 00:00:00 | 00:00:00 | |
| MIELECB | 2026-08-31 00:34:26 | 49.99096 | 21.55210 | 272° | 16km/h | 25646m | 7.9m/s | 0°C | 0% | 0hPa | 0V | 00:00:00 | 00:00:00 | 00:00:00 | |
| MIELECB | 2026-08-31 00:34:21 | 49.99100 | 21.55236 | 267° | 18km/h | 25616m | 5.8m/s | 0°C | 0% | 0hPa | 0V | 00:00:00 | 00:00:00 | 00:00:00 | |
| AKAW682 | 2026-08-31 00:34:20 | 49.99101 | 21.55244 | 261° | 24km/h | 25607m | 6.5m/s | 0°C | 0% | 0hPa | 0V | 00:00:00 | 00:00:00 | 00:00:00 | |
| MIELECB | 2026-08-31 00:34:15 | 49.99106 | 21.55287 | 269° | 9km/h | 25578m | 4.8m/s | 0°C | 0% | 0hPa | 0V | 00:00:00 | 00:00:00 | 00:00:00 | |
| MIELECB | 2026-08-31 00:34:09 | 49.99115 | 21.55304 | 268° | 16km/h | 25552m | 5.8m/s | 0°C | 0% | 0hPa | 0V | 00:00:00 | 00:00:00 | 00:00:00 | |
| AKAW68 | 2026-08-31 00:34:08 | 49.99117 | 21.55311 | 243° | 26km/h | 25545m | 5.5m/s | 0°C | 0% | 0hPa | 0V | 00:00:00 | 00:00:00 | 00:00:00 | |
| SQ9PSP-11 | 2026-08-31 00:34:05 | 49.99128 | 21.55331 | 230° | 16km/h | 25528m | 6.6m/s | 0°C | 0% | 0hPa | 0V | 00:00:00 | 00:00:00 | 00:00:00 | |
| MIELECB | 2026-08-31 00:34:03 | 49.99131 | 21.55332 | 105° | 5km/h | 25516m | 5.6m/s | 0°C | 0% | 0hPa | 0V | 00:00:00 | 00:00:00 | 00:00:00 | |
| MIELECB | 2026-08-31 00:33:58 | 49.99151 | 21.55336 | 219° | 18km/h | 25487m | 6.4m/s | 0°C | 0% | 0hPa | 0V | 00:00:00 | 00:00:00 | 00:00:00 | |
| AKAW682 | 2026-08-31 00:33:56 | 49.99156 | 21.55342 | 214° | 11km/h | 25477m | 6.6m/s | 0°C | 0% | 0hPa | 0V | 00:00:00 | 00:00:00 | 00:00:00 | |
| MIELECB | 2026-08-31 00:33:52 | 49.99172 | 21.55336 | 169° | 9km/h | 25451m | 7.6m/s | 0°C | 0% | 0hPa | 0V | 00:00:00 | 00:00:00 | 00:00:00 | |
| SQ9PSP-11 | 2026-08-31 00:33:50 | 49.99174 | 21.55333 | 47° | 2km/h | 25437m | 4.9m/s | 0°C | 0% | 0hPa | 0V | 00:00:00 | 00:00:00 | 00:00:00 | |
| AKAW68 | 2026-08-31 00:33:48 | 49.99174 | 21.55331 | 117° | 7km/h | 25424m | 5.5m/s | 0°C | 0% | 0hPa | 0V | 00:00:00 | 00:00:00 | 00:00:00 | |
| MIELECB | 2026-08-31 00:33:46 | 49.99179 | 21.55329 | 179° | 16km/h | 25414m | 4.5m/s | 0°C | 0% | 0hPa | 0V | 00:00:00 | 00:00:00 | 00:00:00 | |
| MIELECB | 2026-08-31 00:33:41 | 49.99191 | 21.55314 | 103° | 27km/h | 25388m | 4.8m/s | 0°C | 0% | 0hPa | 0V | 00:00:00 | 00:00:00 | 00:00:00 | |
| MIELECB | 2026-08-31 00:33:35 | 49.99193 | 21.55283 | 169° | 22km/h | 25361m | 5.8m/s | 0°C | 0% | 0hPa | 0V | 00:00:00 | 00:00:00 | 00:00:00 | |
| SQ9PSP-11 | 2026-08-31 00:33:34 | 49.99199 | 21.55280 | 149° | 26km/h | 25356m | 4.4m/s | 0°C | 0% | 0hPa | 0V | 00:00:00 | 00:00:00 | 00:00:00 | |
| MIELECB | 2026-08-31 00:33:29 | 49.99204 | 21.55245 | 72° | 20km/h | 25329m | 4.1m/s | 0°C | 0% | 0hPa | 0V | 00:00:00 | 00:00:00 | 00:00:00 | |
| AKAW68 | 2026-08-31 00:33:27 | 49.99205 | 21.55238 | 172° | 9km/h | 25324m | 7.6m/s | 0°C | 0% | 0hPa | 0V | 00:00:00 | 00:00:00 | 00:00:00 | |
| MIELECB | 2026-08-31 00:33:24 | 49.99213 | 21.55236 | 153° | 11km/h | 25303m | 7.4m/s | 0°C | 0% | 0hPa | 0V | 00:00:00 | 00:00:00 | 00:00:00 | |
| MIELECB | 2026-08-31 00:33:19 | 49.99221 | 21.55192 | 23° | 11km/h | 25270m | 5.6m/s | 0°C | 0% | 0hPa | 0V | 00:00:00 | 00:00:00 | 00:00:00 | |
| AKAW682 | 2026-08-31 00:33:14 | 49.99221 | 21.55187 | 108° | 15km/h | 25242m | 4.9m/s | 0°C | 0% | 0hPa | 0V | 00:00:00 | 00:00:00 | 00:00:00 | |
| MIELECB | 2026-08-31 00:33:13 | 49.99222 | 21.55182 | 100° | 9km/h | 25238m | 6.2m/s | 0°C | 0% | 0hPa | 0V | 00:00:00 | 00:00:00 | 00:00:00 | |
| AKAW68 | 2026-08-31 00:33:07 | 49.99219 | 21.55150 | 172° | 4km/h | 25193m | 9.9m/s | 0°C | 0% | 0hPa | 0V | 00:00:00 | 00:00:00 | 00:00:00 | |
| SQ9PSP-11 | 2026-08-31 00:33:03 | 49.99224 | 21.55160 | 167° | 15km/h | 25165m | 5.4m/s | 0°C | 0% | 0hPa | 0V | 00:00:00 | 00:00:00 | 00:00:00 | |
| MIELECB | 2026-08-31 00:33:01 | 49.99229 | 21.55149 | 108° | 24km/h | 25151m | 3.4m/s | 0°C | 0% | 0hPa | 0V | 00:00:00 | 00:00:00 | 00:00:00 | |
| MIELECB | 2026-08-31 00:32:56 | 49.99232 | 21.55130 | 179° | 13km/h | 25119m | 6.5m/s | 0°C | 0% | 0hPa | 0V | 00:00:00 | 00:00:00 | 00:00:00 | |
| MIELECB | 2026-08-31 00:32:50 | 49.99242 | 21.55121 | 114° | 20km/h | 25100m | 5.1m/s | 0°C | 0% | 0hPa | 0V | 00:00:00 | 00:00:00 | 00:00:00 | |
| AKAW682 | 2026-08-31 00:32:49 | 49.99244 | 21.55114 | 123° | 16km/h | 25094m | 1.0m/s | 0°C | 0% | 0hPa | 0V | 00:00:00 | 00:00:00 | 00:00:00 | |
| SQ9PSP-11 | 2026-08-31 00:32:47 | 49.99246 | 21.55107 | 212° | 4km/h | 25096m | 6.1m/s | 0°C | 0% | 0hPa | 0V | 00:00:00 | 00:00:00 | 00:00:00 | |
| AKAW68 | 2026-08-31 00:32:46 | 49.99247 | 21.55110 | 252° | 15km/h | 25092m | 3.7m/s | 0°C | 0% | 0hPa | 0V | 00:00:00 | 00:00:00 | 00:00:00 | |
| MIELECB | 2026-08-31 00:32:39 | 49.99262 | 21.55126 | 105° | 15km/h | 25055m | 7.7m/s | 0°C | 0% | 0hPa | 0V | 00:00:00 | 00:00:00 | 00:00:00 | |
| MIELECB | 2026-08-31 00:32:34 | 49.99275 | 21.55129 | 250° | 27km/h | 25018m | 5.2m/s | 0°C | 0% | 0hPa | 0V | 00:00:00 | 00:00:00 | 00:00:00 | |
| SQ9PSP-11 | 2026-08-31 00:32:32 | 49.99281 | 21.55146 | 210° | 27km/h | 25007m | 5.1m/s | 0°C | 0% | 0hPa | 0V | 00:00:00 | 00:00:00 | 00:00:00 | |
| AKAW682 | 2026-08-31 00:32:29 | 49.99292 | 21.55147 | 111° | 5km/h | 24987m | 6.6m/s | 0°C | 0% | 0hPa | 0V | 00:00:00 | 00:00:00 | 00:00:00 | |
| MIELECB | 2026-08-31 00:32:28 | 49.99293 | 21.55145 | 145° | 7km/h | 24980m | 4.8m/s | 0°C | 0% | 0hPa | 0V | 00:00:00 | 00:00:00 | 00:00:00 | |
| AKAW68 | 2026-08-31 00:32:26 | 49.99297 | 21.55141 | 176° | 11km/h | 24967m | 5.6m/s | 0°C | 0% | 0hPa | 0V | 00:00:00 | 00:00:00 | 00:00:00 | |
| MIELECB | 2026-08-31 00:32:23 | 49.99310 | 21.55156 | 240° | 29km/h | 24955m | 4.4m/s | 0°C | 0% | 0hPa | 0V | 00:00:00 | 00:00:00 | 00:00:00 | |
| MIELECB | 2026-08-31 00:32:17 | 49.99338 | 21.55161 | 136° | 22km/h | 24921m | 5.9m/s | 0°C | 0% | 0hPa | 0V | 00:00:00 | 00:00:00 | 00:00:00 | |
| SQ9PSP-11 | 2026-08-31 00:32:16 | 49.99342 | 21.55156 | 136° | 16km/h | 24913m | 5.1m/s | 0°C | 0% | 0hPa | 0V | 00:00:00 | 00:00:00 | 00:00:00 | |
| MIELECB | 2026-08-31 00:32:12 | 49.99360 | 21.55164 | 191° | 24km/h | 24893m | 1.7m/s | 0°C | 0% | 0hPa | 0V | 00:00:00 | 00:00:00 | 00:00:00 | |
| AKAW682 | 2026-08-31 00:32:06 | 49.99382 | 21.55133 | 124° | 31km/h | 24874m | 6.1m/s | 0°C | 0% | 0hPa | 0V | 00:00:00 | 00:00:00 | 00:00:00 | |
| AKAW68 | 2026-08-31 00:32:05 | 49.99387 | 21.55124 | 141° | 26km/h | 24869m | 5.0m/s | 0°C | 0% | 0hPa | 0V | 00:00:00 | 00:00:00 | 00:00:00 | |
| MIELECB | 2026-08-31 00:32:00 | 49.99405 | 21.55108 | 146° | 24km/h | 24844m | 6.2m/s | 0°C | 0% | 0hPa | 0V | 00:00:00 | 00:00:00 | 00:00:00 | |
| MIELECB | 2026-08-31 00:31:55 | 49.99421 | 21.55067 | 102° | 13km/h | 24810m | 5.8m/s | 0°C | 0% | 0hPa | 0V | 00:00:00 | 00:00:00 | 00:00:00 | |
| MIELECB | 2026-08-31 00:31:49 | 49.99428 | 21.55031 | 91° | 22km/h | 24768m | 7.1m/s | 0°C | 0% | 0hPa | 0V | 00:00:00 | 00:00:00 | 00:00:00 | |
| AKAW68 | 2026-08-31 00:31:45 | 49.99432 | 21.54986 | 82° | 35km/h | 24746m | 5.4m/s | 0°C | 0% | 0hPa | 0V | 00:00:00 | 00:00:00 | 00:00:00 | |
| MIELECB | 2026-08-31 00:31:43 | 49.99427 | 21.54966 | 59° | 27km/h | 24737m | 4.3m/s | 0°C | 0% | 0hPa | 0V | 00:00:00 | 00:00:00 | 00:00:00 | |
| MIELECB | 2026-08-31 00:31:38 | 49.99429 | 21.54930 | 117° | 22km/h | 24710m | 6.0m/s | 0°C | 0% | 0hPa | 0V | 00:00:00 | 00:00:00 | 00:00:00 | |
| MIELECB | 2026-08-31 00:31:32 | 49.99428 | 21.54886 | 71° | 26km/h | 24667m | 6.3m/s | 0°C | 0% | 0hPa | 0V | 00:00:00 | 00:00:00 | 00:00:00 | |
| SQ9PSP-11 | 2026-08-31 00:31:30 | 49.99423 | 21.54870 | 60° | 22km/h | 24656m | 5.1m/s | 0°C | 0% | 0hPa | 0V | 00:00:00 | 00:00:00 | 00:00:00 | |
| MIELECB | 2026-08-31 00:31:26 | 49.99428 | 21.54844 | 111° | 18km/h | 24633m | 5.2m/s | 0°C | 0% | 0hPa | 0V | 00:00:00 | 00:00:00 | 00:00:00 | |
| AKAW68 | 2026-08-31 00:31:24 | 49.99429 | 21.54830 | 78° | 15km/h | 24621m | 7.3m/s | 0°C | 0% | 0hPa | 0V | 00:00:00 | 00:00:00 | 00:00:00 | |
| MIELECB | 2026-08-31 00:31:21 | 49.99426 | 21.54811 | 95° | 18km/h | 24600m | 4.9m/s | 0°C | 0% | 0hPa | 0V | 00:00:00 | 00:00:00 | 00:00:00 | |
| SQ9PSP-11 | 2026-08-31 00:31:15 | 49.99427 | 21.54758 | 83° | 22km/h | 24564m | 7.0m/s | 0°C | 0% | 0hPa | 0V | 00:00:00 | 00:00:00 | 00:00:00 | |
| MIELECB | 2026-08-31 00:31:10 | 49.99423 | 21.54730 | 47° | 16km/h | 24533m | 6.7m/s | 0°C | 0% | 0hPa | 0V | 00:00:00 | 00:00:00 | 00:00:00 | |
| MIELECB | 2026-08-31 00:31:05 | 49.99423 | 21.54693 | 88° | 20km/h | 24505m | 7.4m/s | 0°C | 0% | 0hPa | 0V | 00:00:00 | 00:00:00 | 00:00:00 | |
| AKAW68 | 2026-08-31 00:31:04 | 49.99422 | 21.54686 | 77° | 13km/h | 24499m | 7.8m/s | 0°C | 0% | 0hPa | 0V | 00:00:00 | 00:00:00 | 00:00:00 | |
| SQ9PSP-11 | 2026-08-31 00:30:59 | 49.99412 | 21.54665 | 55° | 22km/h | 24468m | 7.1m/s | 0°C | 0% | 0hPa | 0V | 00:00:00 | 00:00:00 | 00:00:00 | |
| MIELECB | 2026-08-31 00:30:55 | 49.99403 | 21.54627 | 86° | 13km/h | 24445m | 6.2m/s | 0°C | 0% | 0hPa | 0V | 00:00:00 | 00:00:00 | 00:00:00 | |
| MIELECB | 2026-08-31 00:30:48 | 49.99387 | 21.54607 | 30° | 15km/h | 24415m | 6.2m/s | 0°C | 0% | 0hPa | 0V | 00:00:00 | 00:00:00 | 00:00:00 | |
| AKAW68 | 2026-08-31 00:30:43 | 49.99377 | 21.54577 | 120° | 15km/h | 24397m | 6.8m/s | 0°C | 0% | 0hPa | 0V | 00:00:00 | 00:00:00 | 00:00:00 | |
| AKAW682 | 2026-08-31 00:30:42 | 49.99378 | 21.54572 | 106° | 15km/h | 24391m | 5.8m/s | 0°C | 0% | 0hPa | 0V | 00:00:00 | 00:00:00 | 00:00:00 | |
| MIELECB | 2026-08-31 00:30:36 | 49.99360 | 21.54558 | 27° | 11km/h | 24382m | 5.2m/s | 0°C | 0% | 0hPa | 0V | 00:00:00 | 00:00:00 | 00:00:00 | |
| MIELECB | 2026-08-31 00:30:31 | 49.99338 | 21.54532 | 0° | 0km/h | 24389m | 8.1m/s | 0°C | 0% | 0hPa | 0V | 00:00:00 | 00:00:00 | 00:00:00 | |
| SQ9PSP-11 | 2026-08-31 00:30:27 | 49.99326 | 21.54527 | 340° | 16km/h | 24386m | 16.2m/s | 0°C | 0% | 0hPa | 0V | 00:00:00 | 00:00:00 | 00:00:00 | |
| MIELECB | 2026-08-31 00:30:25 | 49.99323 | 21.54535 | 307° | 13km/h | 24339m | 18.3m/s | 0°C | 0% | 0hPa | 0V | 00:00:00 | 00:00:00 | 00:00:00 | |
| AKAW68 | 2026-08-31 00:30:22 | 49.99316 | 21.54549 | 339° | 18km/h | 24283m | 13.9m/s | 0°C | 0% | 0hPa | 0V | 00:00:00 | 00:00:00 | 00:00:00 | |
| MIELECB | 2026-08-31 00:30:20 | 49.99309 | 21.54556 | 317° | 15km/h | 24259m | 12.8m/s | 0°C | 0% | 0hPa | 0V | 00:00:00 | 00:00:00 | 00:00:00 | |
| AKAW682 | 2026-08-31 00:30:19 | 49.99306 | 21.54561 | 284° | 18km/h | 24249m | 15.8m/s | 0°C | 0% | 0hPa | 0V | 00:00:00 | 00:00:00 | 00:00:00 | |
| MIELECB | 2026-08-31 00:30:14 | 49.99294 | 21.54575 | 1° | 13km/h | 24208m | 8.6m/s | 0°C | 0% | 0hPa | 0V | 00:00:00 | 00:00:00 | 00:00:00 | |
| SQ9PSP-11 | 2026-08-31 00:30:12 | 49.99288 | 21.54567 | 0° | 0km/h | 24213m | 7.3m/s | 0°C | 0% | 0hPa | 0V | 00:00:00 | 00:00:00 | 00:00:00 | |
| MIELECB | 2026-08-31 00:30:08 | 49.99282 | 21.54577 | 354° | 13km/h | 24183m | 5.1m/s | 0°C | 0% | 0hPa | 0V | 00:00:00 | 00:00:00 | 00:00:00 | |
| AKAW68 | 2026-08-31 00:30:01 | 49.99265 | 21.54590 | 277° | 16km/h | 24137m | 7.1m/s | 0°C | 0% | 0hPa | 0V | 00:00:00 | 00:00:00 | 00:00:00 | |
| AKAW682 | 2026-08-31 00:29:58 | 49.99270 | 21.54610 | 268° | 15km/h | 24119m | 6.1m/s | 0°C | 0% | 0hPa | 0V | 00:00:00 | 00:00:00 | 00:00:00 | |
| MIELECB | 2026-08-31 00:29:57 | 49.99270 | 21.54616 | 264° | 11km/h | 24115m | 6.3m/s | 0°C | 0% | 0hPa | 0V | 00:00:00 | 00:00:00 | 00:00:00 | |
| MIELECB | 2026-08-31 00:29:51 | 49.99260 | 21.54625 | 295° | 15km/h | 24077m | 7.2m/s | 0°C | 0% | 0hPa | 0V | 00:00:00 | 00:00:00 | 00:00:00 | |
| MIELECB | 2026-08-31 00:29:46 | 49.99261 | 21.54653 | 249° | 7km/h | 24049m | 6.2m/s | 0°C | 0% | 0hPa | 0V | 00:00:00 | 00:00:00 | 00:00:00 | |
| SQ9PSP-11 | 2026-08-31 00:29:42 | 49.99261 | 21.54667 | 250° | 9km/h | 24029m | 4.3m/s | 0°C | 0% | 0hPa | 0V | 00:00:00 | 00:00:00 | 00:00:00 | |
| MIELECB | 2026-08-31 00:29:41 | 49.99262 | 21.54671 | 230° | 16km/h | 24024m | 5.9m/s | 0°C | 0% | 0hPa | 0V | 00:00:00 | 00:00:00 | 00:00:00 | |
| AKAW68 | 2026-08-31 00:29:40 | 49.99265 | 21.54676 | 243° | 16km/h | 24018m | 5.7m/s | 0°C | 0% | 0hPa | 0V | 00:00:00 | 00:00:00 | 00:00:00 | |
| AKAW682 | 2026-08-31 00:29:36 | 49.99275 | 21.54708 | 225° | 16km/h | 23998m | 6.0m/s | 0°C | 0% | 0hPa | 0V | 00:00:00 | 00:00:00 | 00:00:00 | |
| MIELECB | 2026-08-31 00:29:35 | 49.99278 | 21.54710 | 219° | 11km/h | 23994m | 6.1m/s | 0°C | 0% | 0hPa | 0V | 00:00:00 | 00:00:00 | 00:00:00 | |
| MIELECB | 2026-08-31 00:29:30 | 49.99290 | 21.54726 | 220° | 24km/h | 23965m | 6.0m/s | 0°C | 0% | 0hPa | 0V | 00:00:00 | 00:00:00 | 00:00:00 | |
| SQ9PSP-11 | 2026-08-31 00:29:26 | 49.99303 | 21.54756 | 262° | 15km/h | 23942m | 5.2m/s | 0°C | 0% | 0hPa | 0V | 00:00:00 | 00:00:00 | 00:00:00 | |
| MIELECB | 2026-08-31 00:29:24 | 49.99303 | 21.54763 | 237° | 5km/h | 23934m | 4.6m/s | 0°C | 0% | 0hPa | 0V | 00:00:00 | 00:00:00 | 00:00:00 | |
| AKAW68 | 2026-08-31 00:29:19 | 49.99314 | 21.54769 | 220° | 13km/h | 23909m | 7.4m/s | 0°C | 0% | 0hPa | 0V | 00:00:00 | 00:00:00 | 00:00:00 | |
| MIELECB | 2026-08-31 00:29:18 | 49.99317 | 21.54773 | 206° | 16km/h | 23901m | 6.8m/s | 0°C | 0% | 0hPa | 0V | 00:00:00 | 00:00:00 | 00:00:00 | |
| AKAW682 | 2026-08-31 00:29:15 | 49.99328 | 21.54781 | 232° | 9km/h | 23881m | 4.4m/s | 0°C | 0% | 0hPa | 0V | 00:00:00 | 00:00:00 | 00:00:00 | |
| MIELECB | 2026-08-31 00:29:13 | 49.99329 | 21.54785 | 229° | 5km/h | 23872m | 5.6m/s | 0°C | 0% | 0hPa | 0V | 00:00:00 | 00:00:00 | 00:00:00 | |
| SQ9PSP-11 | 2026-08-31 00:29:10 | 49.99337 | 21.54785 | 178° | 20km/h | 23855m | 3.5m/s | 0°C | 0% | 0hPa | 0V | 00:00:00 | 00:00:00 | 00:00:00 | |
| MIELECB | 2026-08-31 00:29:07 | 49.99349 | 21.54790 | 219° | 16km/h | 23840m | 6.1m/s | 0°C | 0% | 0hPa | 0V | 00:00:00 | 00:00:00 | 00:00:00 | |
| MIELECB | 2026-08-31 00:29:02 | 49.99362 | 21.54795 | 92° | 5km/h | 23819m | 5.2m/s | 0°C | 0% | 0hPa | 0V | 00:00:00 | 00:00:00 | 00:00:00 | |
| AKAW68 | 2026-08-31 00:28:58 | 49.99367 | 21.54795 | 205° | 22km/h | 23806m | 4.9m/s | 0°C | 0% | 0hPa | 0V | 00:00:00 | 00:00:00 | 00:00:00 | |
| MIELECB | 2026-08-31 00:28:56 | 49.99373 | 21.54803 | 243° | 15km/h | 23800m | 4.3m/s | 0°C | 0% | 0hPa | 0V | 00:00:00 | 00:00:00 | 00:00:00 | |
| SQ9PSP-11 | 2026-08-31 00:28:55 | 49.99373 | 21.54807 | 255° | 11km/h | 23800m | 5.0m/s | 0°C | 0% | 0hPa | 0V | 00:00:00 | 00:00:00 | 00:00:00 | |
| AKAW682 | 2026-08-31 00:28:53 | 49.99374 | 21.54810 | 140° | 5km/h | 23789m | 7.2m/s | 0°C | 0% | 0hPa | 0V | 00:00:00 | 00:00:00 | 00:00:00 | |
| MIELECB | 2026-08-31 00:28:51 | 49.99379 | 21.54803 | 144° | 16km/h | 23775m | 8.2m/s | 0°C | 0% | 0hPa | 0V | 00:00:00 | 00:00:00 | 00:00:00 | |
| MIELECB | 2026-08-31 00:28:45 | 49.99381 | 21.54790 | 0° | 0km/h | 23761m | 4.3m/s | 0°C | 0% | 0hPa | 0V | 00:00:00 | 00:00:00 | 00:00:00 | |
| MIELECB | 2026-08-31 00:28:40 | 49.99378 | 21.54789 | 197° | 20km/h | 23730m | 17.0m/s | 0°C | 0% | 0hPa | 0V | 00:00:00 | 00:00:00 | 00:00:00 | |
| SQ9PSP-11 | 2026-08-31 00:28:39 | 49.99382 | 21.54791 | 210° | 15km/h | 23717m | 11.8m/s | 0°C | 0% | 0hPa | 0V | 00:00:00 | 00:00:00 | 00:00:00 | |
| AKAW68 | 2026-08-31 00:28:38 | 49.99385 | 21.54792 | 206° | 13km/h | 23706m | 13.5m/s | 0°C | 0% | 0hPa | 0V | 00:00:00 | 00:00:00 | 00:00:00 | |
| MIELECB | 2026-08-31 00:28:34 | 49.99386 | 21.54798 | 252° | 15km/h | 23663m | 8.6m/s | 0°C | 0% | 0hPa | 0V | 00:00:00 | 00:00:00 | 00:00:00 | |
| AKAW682 | 2026-08-31 00:28:32 | 49.99387 | 21.54805 | 238° | 5km/h | 23646m | 5.0m/s | 0°C | 0% | 0hPa | 0V | 00:00:00 | 00:00:00 | 00:00:00 | |
| MIELECB | 2026-08-31 00:28:29 | 49.99392 | 21.54805 | 157° | 15km/h | 23632m | 8.3m/s | 0°C | 0% | 0hPa | 0V | 00:00:00 | 00:00:00 | 00:00:00 | |
| SQ9PSP-11 | 2026-08-31 00:28:24 | 49.99400 | 21.54792 | 268° | 5km/h | 23603m | 5.3m/s | 0°C | 0% | 0hPa | 0V | 00:00:00 | 00:00:00 | 00:00:00 | |
| MIELECB | 2026-08-31 00:28:23 | 49.99401 | 21.54795 | 219° | 13km/h | 23599m | 6.6m/s | 0°C | 0% | 0hPa | 0V | 00:00:00 | 00:00:00 | 00:00:00 | |
| MIELECB | 2026-08-31 00:28:17 | 49.99422 | 21.54795 | 170° | 16km/h | 23567m | 7.4m/s | 0°C | 0% | 0hPa | 0V | 00:00:00 | 00:00:00 | 00:00:00 | |
| MIELECB | 2026-08-31 00:28:12 | 49.99439 | 21.54801 | 225° | 5km/h | 23537m | 5.4m/s | 0°C | 0% | 0hPa | 0V | 00:00:00 | 00:00:00 | 00:00:00 | |
| AKAW682 | 2026-08-31 00:28:11 | 49.99441 | 21.54801 | 183° | 11km/h | 23532m | 6.1m/s | 0°C | 0% | 0hPa | 0V | 00:00:00 | 00:00:00 | 00:00:00 | |
| SQ9PSP-11 | 2026-08-31 00:28:10 | 49.99455 | 21.54795 | 162° | 20km/h | 23515m | 5.0m/s | 0°C | 0% | 0hPa | 0V | 00:00:00 | 00:00:00 | 00:00:00 | |
| MIELECB | 2026-08-31 00:28:09 | 49.99463 | 21.54789 | 152° | 16km/h | 23505m | 5.4m/s | 0°C | 0% | 0hPa | 0V | 00:00:00 | 00:00:00 | 00:00:00 | |
| MIELECB | 2026-08-31 00:27:59 | 49.99547 | 21.54740 | 130° | 22km/h | 23379m | 5.9m/s | 0°C | 0% | 0hPa | 0V | 00:00:00 | 00:00:00 | 00:00:00 | |
| MIELECB | 2026-08-31 00:27:38 | 49.99558 | 21.54714 | 133° | 22km/h | 23349m | 3.8m/s | 0°C | 0% | 0hPa | 0V | 00:00:00 | 00:00:00 | 00:00:00 | |
| SQ9PSP-11 | 2026-08-31 00:27:37 | 49.99562 | 21.54706 | 113° | 24km/h | 23345m | 6.0m/s | 0°C | 0% | 0hPa | 0V | 00:00:00 | 00:00:00 | 00:00:00 | |
| AKAW68 | 2026-08-31 00:27:35 | 49.99564 | 21.54690 | 80° | 20km/h | 23332m | 5.8m/s | 0°C | 0% | 0hPa | 0V | 00:00:00 | 00:00:00 | 00:00:00 | |
| MIELECB | 2026-08-31 00:27:32 | 49.99566 | 21.54664 | 130° | 24km/h | 23318m | 5.6m/s | 0°C | 0% | 0hPa | 0V | 00:00:00 | 00:00:00 | 00:00:00 | |
| AKAW682 | 2026-08-31 00:27:29 | 49.99575 | 21.54650 | 92° | 11km/h | 23307m | 2.3m/s | 0°C | 0% | 0hPa | 0V | 00:00:00 | 00:00:00 | 00:00:00 | |
| MIELECB | 2026-08-31 00:27:27 | 49.99576 | 21.54634 | 83° | 26km/h | 23296m | 7.0m/s | 0°C | 0% | 0hPa | 0V | 00:00:00 | 00:00:00 | 00:00:00 | |
| MIELECB | 2026-08-31 00:27:21 | 49.99562 | 21.54582 | 76° | 15km/h | 23265m | 7.2m/s | 0°C | 0% | 0hPa | 0V | 00:00:00 | 00:00:00 | 00:00:00 | |
| SQ9PSP-11 | 2026-08-31 00:27:20 | 49.99562 | 21.54576 | 100° | 16km/h | 23259m | 4.6m/s | 0°C | 0% | 0hPa | 0V | 00:00:00 | 00:00:00 | 00:00:00 | |
| MIELECB | 2026-08-31 00:27:15 | 49.99556 | 21.54551 | 79° | 16km/h | 23236m | 6.8m/s | 0°C | 0% | 0hPa | 0V | 00:00:00 | 00:00:00 | 00:00:00 | |
| AKAW68 | 2026-08-31 00:27:14 | 49.99554 | 21.54544 | 67° | 16km/h | 23232m | 5.5m/s | 0°C | 0% | 0hPa | 0V | 00:00:00 | 00:00:00 | 00:00:00 | |
| MIELECB | 2026-08-31 00:27:09 | 49.99535 | 21.54518 | 60° | 22km/h | 23203m | 7.4m/s | 0°C | 0% | 0hPa | 0V | 00:00:00 | 00:00:00 | 00:00:00 | |
| AKAW682 | 2026-08-31 00:27:07 | 49.99532 | 21.54503 | 64° | 20km/h | 23191m | 5.1m/s | 0°C | 0% | 0hPa | 0V | 00:00:00 | 00:00:00 | 00:00:00 | |
| MIELECB | 2026-08-31 00:27:03 | 49.99522 | 21.54492 | 33° | 15km/h | 23167m | 6.6m/s | 0°C | 0% | 0hPa | 0V | 00:00:00 | 00:00:00 | 00:00:00 | |
| SQ9PSP-11 | 2026-08-31 00:27:02 | 49.99520 | 21.54487 | 56° | 20km/h | 23161m | 5.7m/s | 0°C | 0% | 0hPa | 0V | 00:00:00 | 00:00:00 | 00:00:00 | |
| MIELECB | 2026-08-31 00:26:58 | 49.99504 | 21.54467 | 32° | 20km/h | 23133m | 5.4m/s | 0°C | 0% | 0hPa | 0V | 00:00:00 | 00:00:00 | 00:00:00 | |
| AKAW68 | 2026-08-31 00:26:54 | 49.99489 | 21.54443 | 33° | 26km/h | 23110m | 4.5m/s | 0°C | 0% | 0hPa | 0V | 00:00:00 | 00:00:00 | 00:00:00 | |
| MIELECB | 2026-08-31 00:26:52 | 49.99476 | 21.54436 | 15° | 31km/h | 23099m | 4.6m/s | 0°C | 0% | 0hPa | 0V | 00:00:00 | 00:00:00 | 00:00:00 | |
| MIELECB | 2026-08-31 00:26:47 | 49.99442 | 21.54429 | 351° | 18km/h | 23079m | 4.1m/s | 0°C | 0% | 0hPa | 0V | 00:00:00 | 00:00:00 | 00:00:00 | |
| SQ9PSP-11 | 2026-08-31 00:26:46 | 49.99436 | 21.54429 | 15° | 15km/h | 23076m | 4.1m/s | 0°C | 0% | 0hPa | 0V | 00:00:00 | 00:00:00 | 00:00:00 | |
| MIELECB | 2026-08-31 00:26:41 | 49.99423 | 21.54415 | 334° | 11km/h | 23049m | 6.3m/s | 0°C | 0% | 0hPa | 0V | 00:00:00 | 00:00:00 | 00:00:00 | |
| MIELECB | 2026-08-31 00:26:35 | 49.99408 | 21.54425 | 345° | 5km/h | 23012m | 7.3m/s | 0°C | 0% | 0hPa | 0V | 00:00:00 | 00:00:00 | 00:00:00 | |
| AKAW68 | 2026-08-31 00:26:33 | 49.99406 | 21.54429 | 322° | 5km/h | 23001m | 5.1m/s | 0°C | 0% | 0hPa | 0V | 00:00:00 | 00:00:00 | 00:00:00 | |
| MIELECB | 2026-08-31 00:26:30 | 49.99397 | 21.54433 | 335° | 11km/h | 22985m | 6.0m/s | 0°C | 0% | 0hPa | 0V | 00:00:00 | 00:00:00 | 00:00:00 | |
| AKAW682 | 2026-08-31 00:26:26 | 49.99391 | 21.54452 | 317° | 16km/h | 22960m | 6.7m/s | 0°C | 0% | 0hPa | 0V | 00:00:00 | 00:00:00 | 00:00:00 | |
| MIELECB | 2026-08-31 00:26:24 | 49.99386 | 21.54458 | 311° | 7km/h | 22948m | 5.7m/s | 0°C | 0% | 0hPa | 0V | 00:00:00 | 00:00:00 | 00:00:00 | |
| MIELECB | 2026-08-31 00:26:18 | 49.99380 | 21.54486 | 313° | 15km/h | 22914m | 5.2m/s | 0°C | 0% | 0hPa | 0V | 00:00:00 | 00:00:00 | 00:00:00 | |
| SQ9EZE-12 | 2026-08-31 00:26:14 | 49.99382 | 21.54503 | 250° | 11km/h | 22889m | 7.1m/s | 0°C | 0% | 0hPa | 0V | 00:00:00 | 00:00:00 | 00:00:00 | |
| AKAW68 | 2026-08-31 00:26:12 | 49.99383 | 21.54513 | 288° | 15km/h | 22876m | 5.0m/s | 0°C | 0% | 0hPa | 0V | 00:00:00 | 00:00:00 | 00:00:00 | |
| SQ9PSP-11 | 2026-08-31 00:26:10 | 49.99383 | 21.54524 | 258° | 16km/h | 22865m | 5.7m/s | 0°C | 0% | 0hPa | 0V | 00:00:00 | 00:00:00 | 00:00:00 | |
| MIELECB | 2026-08-31 00:26:06 | 49.99384 | 21.54554 | 289° | 15km/h | 22839m | 4.2m/s | 0°C | 0% | 0hPa | 0V | 00:00:00 | 00:00:00 | 00:00:00 | |
| AKAW682 | 2026-08-31 00:26:05 | 49.99383 | 21.54559 | 270° | 11km/h | 22834m | 3.7m/s | 0°C | 0% | 0hPa | 0V | 00:00:00 | 00:00:00 | 00:00:00 | |
| MIELECB | 2026-08-31 00:26:01 | 49.99395 | 21.54572 | 218° | 9km/h | 22819m | 4.1m/s | 0°C | 0% | 0hPa | 0V | 00:00:00 | 00:00:00 | 00:00:00 | |
| MIELECB | 2026-08-31 00:25:55 | 49.99395 | 21.54613 | 246° | 15km/h | 22792m | 6.3m/s | 0°C | 0% | 0hPa | 0V | 00:00:00 | 00:00:00 | 00:00:00 | |
| SQ9PSP-11 | 2026-08-31 00:25:52 | 49.99405 | 21.54621 | 200° | 20km/h | 22776m | 7.0m/s | 0°C | 0% | 0hPa | 0V | 00:00:00 | 00:00:00 | 00:00:00 | |
| AKAW68 | 2026-08-31 00:25:51 | 49.99410 | 21.54625 | 202° | 24km/h | 22770m | 5.5m/s | 0°C | 0% | 0hPa | 0V | 00:00:00 | 00:00:00 | 00:00:00 | |
| MIELECB | 2026-08-31 00:25:49 | 49.99419 | 21.54629 | 198° | 9km/h | 22760m | 6.6m/s | 0°C | 0% | 0hPa | 0V | 00:00:00 | 00:00:00 | 00:00:00 | |
| SQ9EZE-12 | 2026-08-31 00:25:46 | 49.99424 | 21.54637 | 231° | 20km/h | 22744m | 6.2m/s | 0°C | 0% | 0hPa | 0V | 00:00:00 | 00:00:00 | 00:00:00 | |
| AKAW682 | 2026-08-31 00:25:45 | 49.99428 | 21.54644 | 222° | 24km/h | 22739m | 5.2m/s | 0°C | 0% | 0hPa | 0V | 00:00:00 | 00:00:00 | 00:00:00 | |
| MIELECB | 2026-08-31 00:25:43 | 49.99438 | 21.54655 | 213° | 20km/h | 22729m | 6.7m/s | 0°C | 0% | 0hPa | 0V | 00:00:00 | 00:00:00 | 00:00:00 | |
| MIELECB | 2026-08-31 00:25:37 | 49.99461 | 21.54667 | 162° | 9km/h | 22690m | 5.9m/s | 0°C | 0% | 0hPa | 0V | 00:00:00 | 00:00:00 | 00:00:00 | |
| SQ9PSP-11 | 2026-08-31 00:25:36 | 49.99464 | 21.54666 | 167° | 9km/h | 22684m | 3.4m/s | 0°C | 0% | 0hPa | 0V | 00:00:00 | 00:00:00 | 00:00:00 | |
| MIELECB | 2026-08-31 00:25:31 | 49.99492 | 21.54682 | 216° | 20km/h | 22657m | 6.0m/s | 0°C | 0% | 0hPa | 0V | 00:00:00 | 00:00:00 | 00:00:00 | |
| SQ9EZE-12 | 2026-08-31 00:25:27 | 49.99506 | 21.54681 | 148° | 24km/h | 22637m | 2.8m/s | 0°C | 0% | 0hPa | 0V | 00:00:00 | 00:00:00 | 00:00:00 | |
| MIELECB | 2026-08-31 00:25:25 | 49.99516 | 21.54673 | 161° | 15km/h | 22629m | 3.7m/s | 0°C | 0% | 0hPa | 0V | 00:00:00 | 00:00:00 | 00:00:00 | |
| AKAW682 | 2026-08-31 00:25:24 | 49.99519 | 21.54673 | 194° | 15km/h | 22624m | 5.3m/s | 0°C | 0% | 0hPa | 0V | 00:00:00 | 00:00:00 | 00:00:00 | |
| MIELECB | 2026-08-31 00:25:20 | 49.99540 | 21.54686 | 193° | 20km/h | 22600m | 4.7m/s | 0°C | 0% | 0hPa | 0V | 00:00:00 | 00:00:00 | 00:00:00 | |
| SQ9PSP-11 | 2026-08-31 00:25:17 | 49.99543 | 21.54681 | 85° | 11km/h | 22581m | 5.1m/s | 0°C | 0% | 0hPa | 0V | 00:00:00 | 00:00:00 | 00:00:00 | |
| MIELECB | 2026-08-31 00:25:14 | 49.99550 | 21.54673 | 170° | 16km/h | 22563m | 4.7m/s | 0°C | 0% | 0hPa | 0V | 00:00:00 | 00:00:00 | 00:00:00 | |
| AKAW682 | 2026-08-31 00:25:04 | 49.99570 | 21.54660 | 119° | 9km/h | 22507m | 6.3m/s | 0°C | 0% | 0hPa | 0V | 00:00:00 | 00:00:00 | 00:00:00 | |
| MIELECB | 2026-08-31 00:25:03 | 49.99572 | 21.54657 | 159° | 13km/h | 22501m | 5.6m/s | 0°C | 0% | 0hPa | 0V | 00:00:00 | 00:00:00 | 00:00:00 | |
| SQ9PSP-11 | 2026-08-31 00:25:01 | 49.99578 | 21.54655 | 180° | 9km/h | 22491m | 6.6m/s | 0°C | 0% | 0hPa | 0V | 00:00:00 | 00:00:00 | 00:00:00 | |
| MIELECB | 2026-08-31 00:24:58 | 49.99582 | 21.54651 | 128° | 11km/h | 22474m | 6.0m/s | 0°C | 0% | 0hPa | 0V | 00:00:00 | 00:00:00 | 00:00:00 | |
| MIELECB | 2026-08-31 00:24:52 | 49.99585 | 21.54636 | 66° | 5km/h | 22441m | 6.4m/s | 0°C | 0% | 0hPa | 0V | 00:00:00 | 00:00:00 | 00:00:00 | |
| AKAW68 | 2026-08-31 00:24:51 | 49.99586 | 21.54635 | 124° | 11km/h | 22435m | 5.4m/s | 0°C | 0% | 0hPa | 0V | 00:00:00 | 00:00:00 | 00:00:00 | |
| MIELECB | 2026-08-31 00:24:47 | 49.99585 | 21.54622 | 57° | 9km/h | 22412m | 5.6m/s | 0°C | 0% | 0hPa | 0V | 00:00:00 | 00:00:00 | 00:00:00 | |
| SQ9PSP-11 | 2026-08-31 00:24:44 | 49.99585 | 21.54614 | 132° | 7km/h | 22395m | 4.7m/s | 0°C | 0% | 0hPa | 0V | 00:00:00 | 00:00:00 | 00:00:00 | |
| AKAW682 | 2026-08-31 00:24:42 | 49.99587 | 21.54611 | 123° | 5km/h | 22382m | 6.2m/s | 0°C | 0% | 0hPa | 0V | 00:00:00 | 00:00:00 | 00:00:00 | |
| MIELECB | 2026-08-31 00:24:41 | 49.99588 | 21.54609 | 76° | 5km/h | 22377m | 4.9m/s | 0°C | 0% | 0hPa | 0V | 00:00:00 | 00:00:00 | 00:00:00 | |
| MIELECB | 2026-08-31 00:24:36 | 49.99586 | 21.54590 | 30° | 16km/h | 22348m | 4.7m/s | 0°C | 0% | 0hPa | 0V | 00:00:00 | 00:00:00 | 00:00:00 | |
| MIELECB | 2026-08-31 00:24:31 | 49.99581 | 21.54580 | 44° | 9km/h | 22319m | 6.2m/s | 0°C | 0% | 0hPa | 0V | 00:00:00 | 00:00:00 | 00:00:00 | |
| AKAW68 | 2026-08-31 00:24:30 | 49.99580 | 21.54577 | 59° | 13km/h | 22312m | 4.9m/s | 0°C | 0% | 0hPa | 0V | 00:00:00 | 00:00:00 | 00:00:00 | |
| SQ9PSP-11 | 2026-08-31 00:24:28 | 49.99578 | 21.54570 | 85° | 9km/h | 22302m | 6.1m/s | 0°C | 0% | 0hPa | 0V | 00:00:00 | 00:00:00 | 00:00:00 | |
| MIELECB | 2026-08-31 00:24:25 | 49.99572 | 21.54560 | 21° | 20km/h | 22286m | 6.0m/s | 0°C | 0% | 0hPa | 0V | 00:00:00 | 00:00:00 | 00:00:00 | |
| MIELECB | 2026-08-31 00:24:20 | 49.99553 | 21.54552 | 22° | 7km/h | 22262m | 3.9m/s | 0°C | 0% | 0hPa | 0V | 00:00:00 | 00:00:00 | 00:00:00 | |
| MIELECB | 2026-08-31 00:24:15 | 49.99541 | 21.54553 | 29° | 7km/h | 22237m | 5.4m/s | 0°C | 0% | 0hPa | 0V | 00:00:00 | 00:00:00 | 00:00:00 | |
| SQ9PSP-11 | 2026-08-31 00:24:12 | 49.99532 | 21.54545 | 24° | 26km/h | 22221m | 4.1m/s | 0°C | 0% | 0hPa | 0V | 00:00:00 | 00:00:00 | 00:00:00 | |
| MIELECB | 2026-08-31 00:24:09 | 49.99518 | 21.54540 | 346° | 9km/h | 22205m | 5.7m/s | 0°C | 0% | 0hPa | 0V | 00:00:00 | 00:00:00 | 00:00:00 | |
| MIELECB | 2026-08-31 00:24:03 | 49.99501 | 21.54532 | 56° | 11km/h | 22170m | 5.9m/s | 0°C | 0% | 0hPa | 0V | 00:00:00 | 00:00:00 | 00:00:00 | |
| AKAW682 | 2026-08-31 00:24:00 | 49.99495 | 21.54531 | 339° | 11km/h | 22155m | 6.2m/s | 0°C | 0% | 0hPa | 0V | 00:00:00 | 00:00:00 | 00:00:00 | |
| SQ9PSP-11 | 2026-08-31 00:23:57 | 49.99484 | 21.54543 | 326° | 13km/h | 22139m | 5.6m/s | 0°C | 0% | 0hPa | 0V | 00:00:00 | 00:00:00 | 00:00:00 | |
| MIELECB | 2026-08-31 00:23:52 | 49.99474 | 21.54533 | 39° | 20km/h | 22111m | 3.7m/s | 0°C | 0% | 0hPa | 0V | 00:00:00 | 00:00:00 | 00:00:00 | |
| AKAW68 | 2026-08-31 00:23:48 | 49.99464 | 21.54531 | 316° | 13km/h | 22089m | 6.3m/s | 0°C | 0% | 0hPa | 0V | 00:00:00 | 00:00:00 | 00:00:00 | |
| MIELECB | 2026-08-31 00:23:41 | 49.99453 | 21.54540 | 361° | 13km/h | 22053m | 5.4m/s | 0°C | 0% | 0hPa | 0V | 00:00:00 | 00:00:00 | 00:00:00 | |
| SQ9PSP-11 | 2026-08-31 00:23:40 | 49.99449 | 21.54539 | 12° | 15km/h | 22049m | 4.7m/s | 0°C | 0% | 0hPa | 0V | 00:00:00 | 00:00:00 | 00:00:00 | |
| AKAW682 | 2026-08-31 00:23:38 | 49.99444 | 21.54539 | 8° | 5km/h | 22037m | 4.3m/s | 0°C | 0% | 0hPa | 0V | 00:00:00 | 00:00:00 | 00:00:00 | |
| MIELECB | 2026-08-31 00:23:36 | 49.99439 | 21.54541 | 329° | 11km/h | 22028m | 6.3m/s | 0°C | 0% | 0hPa | 0V | 00:00:00 | 00:00:00 | 00:00:00 | |
| AKAW68 | 2026-08-31 00:23:26 | 49.99420 | 21.54547 | 354° | 11km/h | 21975m | 6.4m/s | 0°C | 0% | 0hPa | 0V | 00:00:00 | 00:00:00 | 00:00:00 | |
| MIELECB | 2026-08-31 00:23:24 | 49.99416 | 21.54548 | 347° | 5km/h | 21964m | 7.0m/s | 0°C | 0% | 0hPa | 0V | 00:00:00 | 00:00:00 | 00:00:00 | |
| SQ9PSP-11 | 2026-08-31 00:23:23 | 49.99414 | 21.54550 | 310° | 9km/h | 21956m | 6.6m/s | 0°C | 0% | 0hPa | 0V | 00:00:00 | 00:00:00 | 00:00:00 | |
| MIELECB | 2026-08-31 00:23:18 | 49.99409 | 21.54551 | 2° | 7km/h | 21929m | 6.7m/s | 0°C | 0% | 0hPa | 0V | 00:00:00 | 00:00:00 | 00:00:00 | |
| AKAW682 | 2026-08-31 00:23:16 | 49.99404 | 21.54558 | 313° | 15km/h | 21917m | 4.8m/s | 0°C | 0% | 0hPa | 0V | 00:00:00 | 00:00:00 | 00:00:00 | |
| MIELECB | 2026-08-31 00:23:13 | 49.99398 | 21.54564 | 347° | 7km/h | 21901m | 5.1m/s | 0°C | 0% | 0hPa | 0V | 00:00:00 | 00:00:00 | 00:00:00 | |
| SQ9PSP-11 | 2026-08-31 00:23:07 | 49.99395 | 21.54567 | 205° | 4km/h | 21868m | 4.7m/s | 0°C | 0% | 0hPa | 0V | 00:00:00 | 00:00:00 | 00:00:00 | |
| AKAW68 | 2026-08-31 00:23:05 | 49.99394 | 21.54572 | 309° | 13km/h | 21856m | 5.1m/s | 0°C | 0% | 0hPa | 0V | 00:00:00 | 00:00:00 | 00:00:00 | |
| MIELECB | 2026-08-31 00:23:02 | 49.99385 | 21.54579 | 9° | 13km/h | 21838m | 4.8m/s | 0°C | 0% | 0hPa | 0V | 00:00:00 | 00:00:00 | 00:00:00 | |
| MIELECB | 2026-08-31 00:22:56 | 49.99383 | 21.54579 | 161° | 7km/h | 21807m | 3.4m/s | 0°C | 0% | 0hPa | 0V | 00:00:00 | 00:00:00 | 00:00:00 | |
| SQ9PSP-11 | 2026-08-31 00:22:51 | 49.99373 | 21.54586 | 14° | 16km/h | 21781m | 5.2m/s | 0°C | 0% | 0hPa | 0V | 00:00:00 | 00:00:00 | 00:00:00 | |
| MIELECB | 2026-08-31 00:22:50 | 49.99370 | 21.54584 | 34° | 13km/h | 21777m | 2.9m/s | 0°C | 0% | 0hPa | 0V | 00:00:00 | 00:00:00 | 00:00:00 | |
| MIELECB | 2026-08-31 00:22:45 | 49.99373 | 21.54585 | 151° | 5km/h | 21750m | 5.9m/s | 0°C | 0% | 0hPa | 0V | 00:00:00 | 00:00:00 | 00:00:00 | |
| AKAW68 | 2026-08-31 00:22:43 | 49.99373 | 21.54581 | 0° | 0km/h | 21741m | 5.2m/s | 0°C | 0% | 0hPa | 0V | 00:00:00 | 00:00:00 | 00:00:00 | |
| MIELECB | 2026-08-31 00:22:39 | 49.99376 | 21.54587 | 141° | 2km/h | 21721m | 6.7m/s | 0°C | 0% | 0hPa | 0V | 00:00:00 | 00:00:00 | 00:00:00 | |
| SQ9PSP-11 | 2026-08-31 00:22:36 | 49.99380 | 21.54583 | 192° | 9km/h | 21704m | 7.0m/s | 0°C | 0% | 0hPa | 0V | 00:00:00 | 00:00:00 | 00:00:00 | |
| AKAW682 | 2026-08-31 00:22:35 | 49.99384 | 21.54584 | 197° | 13km/h | 21698m | 5.6m/s | 0°C | 0% | 0hPa | 0V | 00:00:00 | 00:00:00 | 00:00:00 | |
| MIELECB | 2026-08-31 00:22:34 | 49.99386 | 21.54585 | 222° | 5km/h | 21692m | 6.4m/s | 0°C | 0% | 0hPa | 0V | 00:00:00 | 00:00:00 | 00:00:00 | |
| MIELECB | 2026-08-31 00:22:28 | 49.99384 | 21.54590 | 140° | 4km/h | 21657m | 6.7m/s | 0°C | 0% | 0hPa | 0V | 00:00:00 | 00:00:00 | 00:00:00 | |
| MIELECB | 2026-08-31 00:22:23 | 49.99402 | 21.54586 | 203° | 18km/h | 21627m | 4.5m/s | 0°C | 0% | 0hPa | 0V | 00:00:00 | 00:00:00 | 00:00:00 | |
| AKAW68 | 2026-08-31 00:22:21 | 49.99407 | 21.54589 | 63° | 2km/h | 21615m | 5.4m/s | 0°C | 0% | 0hPa | 0V | 00:00:00 | 00:00:00 | 00:00:00 | |
| SQ9PSP-11 | 2026-08-31 00:22:20 | 49.99406 | 21.54589 | 5° | 5km/h | 21610m | 4.9m/s | 0°C | 0% | 0hPa | 0V | 00:00:00 | 00:00:00 | 00:00:00 | |
| MIELECB | 2026-08-31 00:22:17 | 49.99406 | 21.54589 | 171° | 9km/h | 21594m | 3.9m/s | 0°C | 0% | 0hPa | 0V | 00:00:00 | 00:00:00 | 00:00:00 | |
| AKAW682 | 2026-08-31 00:22:14 | 49.99419 | 21.54580 | 166° | 24km/h | 21580m | 3.7m/s | 0°C | 0% | 0hPa | 0V | 00:00:00 | 00:00:00 | 00:00:00 | |
| MIELECB | 2026-08-31 00:22:11 | 49.99431 | 21.54583 | 216° | 11km/h | 21567m | 6.6m/s | 0°C | 0% | 0hPa | 0V | 00:00:00 | 00:00:00 | 00:00:00 | |
| MIELECB | 2026-08-31 00:22:05 | 49.99443 | 21.54575 | 150° | 18km/h | 21534m | 6.5m/s | 0°C | 0% | 0hPa | 0V | 00:00:00 | 00:00:00 | 00:00:00 | |
| SQ9PSP-11 | 2026-08-31 00:22:02 | 49.99456 | 21.54567 | 186° | 18km/h | 21517m | 7.3m/s | 0°C | 0% | 0hPa | 0V | 00:00:00 | 00:00:00 | 00:00:00 | |
| AKAW68 | 2026-08-31 00:22:00 | 49.99464 | 21.54571 | 193° | 16km/h | 21504m | 4.9m/s | 0°C | 0% | 0hPa | 0V | 00:00:00 | 00:00:00 | 00:00:00 | |
| MIELECB | 2026-08-31 00:21:55 | 49.99484 | 21.54566 | 178° | 16km/h | 21477m | 3.6m/s | 0°C | 0% | 0hPa | 0V | 00:00:00 | 00:00:00 | 00:00:00 | |
| AKAW682 | 2026-08-31 00:21:54 | 49.99488 | 21.54565 | 160° | 15km/h | 21474m | 4.2m/s | 0°C | 0% | 0hPa | 0V | 00:00:00 | 00:00:00 | 00:00:00 | |
| MIELECB | 2026-08-31 00:21:49 | 49.99496 | 21.54560 | 208° | 9km/h | 21445m | 3.9m/s | 0°C | 0% | 0hPa | 0V | 00:00:00 | 00:00:00 | 00:00:00 | |
| SQ9PSP-11 | 2026-08-31 00:21:45 | 49.99501 | 21.54562 | 167° | 7km/h | 21426m | 5.0m/s | 0°C | 0% | 0hPa | 0V | 00:00:00 | 00:00:00 | 00:00:00 | |
| MIELECB | 2026-08-31 00:21:43 | 49.99508 | 21.54563 | 181° | 15km/h | 21416m | 4.2m/s | 0°C | 0% | 0hPa | 0V | 00:00:00 | 00:00:00 | 00:00:00 | |
| AKAW68 | 2026-08-31 00:21:40 | 49.99516 | 21.54556 | 122° | 13km/h | 21402m | 4.8m/s | 0°C | 0% | 0hPa | 0V | 00:00:00 | 00:00:00 | 00:00:00 | |
| MIELECB | 2026-08-31 00:21:38 | 49.99519 | 21.54551 | 169° | 5km/h | 21390m | 5.0m/s | 0°C | 0% | 0hPa | 0V | 00:00:00 | 00:00:00 | 00:00:00 | |
| MIELECB | 2026-08-31 00:21:32 | 49.99527 | 21.54533 | 159° | 16km/h | 21361m | 5.8m/s | 0°C | 0% | 0hPa | 0V | 00:00:00 | 00:00:00 | 00:00:00 | |
| AKAW682 | 2026-08-31 00:21:30 | 49.99534 | 21.54527 | 147° | 13km/h | 21351m | 5.5m/s | 0°C | 0% | 0hPa | 0V | 00:00:00 | 00:00:00 | 00:00:00 | |
| MIELECB | 2026-08-31 00:21:26 | 49.99540 | 21.54507 | 146° | 11km/h | 21331m | 6.8m/s | 0°C | 0% | 0hPa | 0V | 00:00:00 | 00:00:00 | 00:00:00 | |
| SQ9PSP-11 | 2026-08-31 00:21:25 | 49.99542 | 21.54504 | 146° | 11km/h | 21324m | 5.9m/s | 0°C | 0% | 0hPa | 0V | 00:00:00 | 00:00:00 | 00:00:00 | |
| MIELECB | 2026-08-31 00:21:21 | 49.99549 | 21.54491 | 143° | 13km/h | 21303m | 5.6m/s | 0°C | 0% | 0hPa | 0V | 00:00:00 | 00:00:00 | 00:00:00 | |
| AKAW68 | 2026-08-31 00:21:19 | 49.99555 | 21.54484 | 118° | 15km/h | 21293m | 5.6m/s | 0°C | 0% | 0hPa | 0V | 00:00:00 | 00:00:00 | 00:00:00 | |
| MIELECB | 2026-08-31 00:21:16 | 49.99555 | 21.54466 | 99° | 15km/h | 21275m | 5.9m/s | 0°C | 0% | 0hPa | 0V | 00:00:00 | 00:00:00 | 00:00:00 | |
| MIELECB | 2026-08-31 00:21:10 | 49.99560 | 21.54434 | 117° | 15km/h | 21244m | 5.2m/s | 0°C | 0% | 0hPa | 0V | 00:00:00 | 00:00:00 | 00:00:00 | |
| AKAW682 | 2026-08-31 00:21:09 | 49.99562 | 21.54430 | 125° | 9km/h | 21239m | 4.0m/s | 0°C | 0% | 0hPa | 0V | 00:00:00 | 00:00:00 | 00:00:00 | |
| MIELECB | 2026-08-31 00:21:04 | 49.99563 | 21.54409 | 102° | 13km/h | 21215m | 4.7m/s | 0°C | 0% | 0hPa | 0V | 00:00:00 | 00:00:00 | 00:00:00 | |
| MIELECB | 2026-08-31 00:20:59 | 49.99570 | 21.54384 | 58° | 11km/h | 21188m | 4.3m/s | 0°C | 0% | 0hPa | 0V | 00:00:00 | 00:00:00 | 00:00:00 | |
| AKAW68 | 2026-08-31 00:20:57 | 49.99567 | 21.54380 | 70° | 5km/h | 21177m | 3.8m/s | 0°C | 0% | 0hPa | 0V | 00:00:00 | 00:00:00 | 00:00:00 | |
| MIELECB | 2026-08-31 00:20:53 | 49.99566 | 21.54374 | 88° | 5km/h | 21160m | 5.5m/s | 0°C | 0% | 0hPa | 0V | 00:00:00 | 00:00:00 | 00:00:00 | |
| AKAW682 | 2026-08-31 00:20:49 | 49.99575 | 21.54358 | 123° | 15km/h | 21140m | 5.0m/s | 0°C | 0% | 0hPa | 0V | 00:00:00 | 00:00:00 | 00:00:00 | |
| MIELECB | 2026-08-31 00:20:48 | 49.99576 | 21.54353 | 92° | 15km/h | 21136m | 4.6m/s | 0°C | 0% | 0hPa | 0V | 00:00:00 | 00:00:00 | 00:00:00 | |
| SQ9PSP-11 | 2026-08-31 00:20:47 | 49.99575 | 21.54348 | 58° | 11km/h | 21133m | 5.4m/s | 0°C | 0% | 0hPa | 0V | 00:00:00 | 00:00:00 | 00:00:00 | |
| MIELECB | 2026-08-31 00:20:42 | 49.99571 | 21.54341 | 106° | 13km/h | 21109m | 5.0m/s | 0°C | 0% | 0hPa | 0V | 00:00:00 | 00:00:00 | 00:00:00 | |
| AKAW68 | 2026-08-31 00:20:37 | 49.99575 | 21.54322 | 59° | 7km/h | 21084m | 6.0m/s | 0°C | 0% | 0hPa | 0V | 00:00:00 | 00:00:00 | 00:00:00 | |
| MIELECB | 2026-08-31 00:20:32 | 49.99580 | 21.54313 | 120° | 13km/h | 21059m | 6.5m/s | 0°C | 0% | 0hPa | 0V | 00:00:00 | 00:00:00 | 00:00:00 | |
| SQ9PSP-11 | 2026-08-31 00:20:29 | 49.99583 | 21.54296 | 105° | 13km/h | 21045m | 6.1m/s | 0°C | 0% | 0hPa | 0V | 00:00:00 | 00:00:00 | 00:00:00 | |
| AKAW682 | 2026-08-31 00:20:27 | 49.99588 | 21.54288 | 102° | 7km/h | 21029m | 6.9m/s | 0°C | 0% | 0hPa | 0V | 00:00:00 | 00:00:00 | 00:00:00 | |
| MIELECB | 2026-08-31 00:20:21 | 49.99595 | 21.54271 | 103° | 15km/h | 21001m | 6.4m/s | 0°C | 0% | 0hPa | 0V | 00:00:00 | 00:00:00 | 00:00:00 | |
| AKAW68 | 2026-08-31 00:20:16 | 49.99592 | 21.54238 | 58° | 11km/h | 20976m | 4.3m/s | 0°C | 0% | 0hPa | 0V | 00:00:00 | 00:00:00 | 00:00:00 | |
| MIELECB | 2026-08-31 00:20:15 | 49.99589 | 21.54234 | 50° | 16km/h | 20973m | 4.6m/s | 0°C | 0% | 0hPa | 0V | 00:00:00 | 00:00:00 | 00:00:00 | |
| SQ9PSP-11 | 2026-08-31 00:20:12 | 49.99588 | 21.54217 | 114° | 15km/h | 20955m | 6.1m/s | 0°C | 0% | 0hPa | 0V | 00:00:00 | 00:00:00 | 00:00:00 | |
| MIELECB | 2026-08-31 00:20:10 | 49.99592 | 21.54203 | 104° | 24km/h | 20946m | 6.5m/s | 0°C | 0% | 0hPa | 0V | 00:00:00 | 00:00:00 | 00:00:00 | |
| AKAW682 | 2026-08-31 00:20:05 | 49.99592 | 21.54159 | 95° | 16km/h | 20922m | 3.7m/s | 0°C | 0% | 0hPa | 0V | 00:00:00 | 00:00:00 | 00:00:00 | |
| MIELECB | 2026-08-31 00:20:04 | 49.99592 | 21.54152 | 91° | 15km/h | 20919m | 4.0m/s | 0°C | 0% | 0hPa | 0V | 00:00:00 | 00:00:00 | 00:00:00 | |
| MIELECB | 2026-08-31 00:19:58 | 49.99584 | 21.54106 | 116° | 18km/h | 20889m | 6.0m/s | 0°C | 0% | 0hPa | 0V | 00:00:00 | 00:00:00 | 00:00:00 | |
| SQ9PSP-11 | 2026-08-31 00:19:57 | 49.99585 | 21.54099 | 106° | 18km/h | 20883m | 4.3m/s | 0°C | 0% | 0hPa | 0V | 00:00:00 | 00:00:00 | 00:00:00 | |
| AKAW68 | 2026-08-31 00:19:55 | 49.99583 | 21.54084 | 74° | 26km/h | 20874m | 4.6m/s | 0°C | 0% | 0hPa | 0V | 00:00:00 | 00:00:00 | 00:00:00 | |
| MIELECB | 2026-08-31 00:19:53 | 49.99577 | 21.54069 | 61° | 15km/h | 20865m | 7.1m/s | 0°C | 0% | 0hPa | 0V | 00:00:00 | 00:00:00 | 00:00:00 | |
| MIELECB | 2026-08-31 00:19:47 | 49.99570 | 21.54042 | 100° | 16km/h | 20832m | 5.2m/s | 0°C | 0% | 0hPa | 0V | 00:00:00 | 00:00:00 | 00:00:00 | |
| AKAW682 | 2026-08-31 00:19:44 | 49.99567 | 21.54015 | 64° | 29km/h | 20819m | 5.4m/s | 0°C | 0% | 0hPa | 0V | 00:00:00 | 00:00:00 | 00:00:00 | |
| MIELECB | 2026-08-31 00:19:41 | 49.99556 | 21.53987 | 52° | 22km/h | 20803m | 5.1m/s | 0°C | 0% | 0hPa | 0V | 00:00:00 | 00:00:00 | 00:00:00 | |
| MIELECB | 2026-08-31 00:19:36 | 49.99545 | 21.53960 | 93° | 15km/h | 20777m | 6.4m/s | 0°C | 0% | 0hPa | 0V | 00:00:00 | 00:00:00 | 00:00:00 | |
| AKAW68 | 2026-08-31 00:19:35 | 49.99545 | 21.53954 | 75° | 16km/h | 20772m | 4.9m/s | 0°C | 0% | 0hPa | 0V | 00:00:00 | 00:00:00 | 00:00:00 | |
| MIELECB | 2026-08-31 00:19:31 | 49.99532 | 21.53928 | 51° | 22km/h | 20750m | 7.1m/s | 0°C | 0% | 0hPa | 0V | 00:00:00 | 00:00:00 | 00:00:00 | |
| MIELECB | 2026-08-31 00:19:25 | 49.99513 | 21.53899 | 36° | 9km/h | 20720m | 6.8m/s | 0°C | 0% | 0hPa | 0V | 00:00:00 | 00:00:00 | 00:00:00 | |
| AKAW682 | 2026-08-31 00:19:23 | 49.99510 | 21.53896 | 49° | 9km/h | 20708m | 5.1m/s | 0°C | 0% | 0hPa | 0V | 00:00:00 | 00:00:00 | 00:00:00 | |
| MIELECB | 2026-08-31 00:19:20 | 49.99499 | 21.53884 | 41° | 18km/h | 20696m | 4.4m/s | 0°C | 0% | 0hPa | 0V | 00:00:00 | 00:00:00 | 00:00:00 | |
| AKAW68 | 2026-08-31 00:19:14 | 49.99480 | 21.53870 | 337° | 16km/h | 20663m | 7.4m/s | 0°C | 0% | 0hPa | 0V | 00:00:00 | 00:00:00 | 00:00:00 | |
| SQ9PSP-11 | 2026-08-31 00:19:10 | 49.99463 | 21.53877 | 7° | 27km/h | 20638m | 4.6m/s | 0°C | 0% | 0hPa | 0V | 00:00:00 | 00:00:00 | 00:00:00 | |
| MIELECB | 2026-08-31 00:19:08 | 49.99452 | 21.53872 | 24° | 20km/h | 20627m | 5.3m/s | 0°C | 0% | 0hPa | 0V | 00:00:00 | 00:00:00 | 00:00:00 | |
| MIELECB | 2026-08-31 00:19:03 | 49.99430 | 21.53875 | 316° | 13km/h | 20604m | 5.8m/s | 0°C | 0% | 0hPa | 0V | 00:00:00 | 00:00:00 | 00:00:00 | |
| AKAW682 | 2026-08-31 00:19:02 | 49.99428 | 21.53879 | 288° | 11km/h | 20599m | 5.3m/s | 0°C | 0% | 0hPa | 0V | 00:00:00 | 00:00:00 | 00:00:00 | |
| MIELECB | 2026-08-31 00:18:57 | 49.99410 | 21.53892 | 6° | 20km/h | 20579m | 6.4m/s | 0°C | 0% | 0hPa | 0V | 00:00:00 | 00:00:00 | 00:00:00 | |
| SQ9PSP-11 | 2026-08-31 00:18:54 | 49.99400 | 21.53892 | 344° | 15km/h | 20563m | 5.3m/s | 0°C | 0% | 0hPa | 0V | 00:00:00 | 00:00:00 | 00:00:00 | |
| MIELECB | 2026-08-31 00:18:51 | 49.99390 | 21.53898 | 317° | 7km/h | 20548m | 6.0m/s | 0°C | 0% | 0hPa | 0V | 00:00:00 | 00:00:00 | 00:00:00 | |
| MIELECB | 2026-08-31 00:18:46 | 49.99379 | 21.53910 | 322° | 18km/h | 20519m | 2.5m/s | 0°C | 0% | 0hPa | 0V | 00:00:00 | 00:00:00 | 00:00:00 | |
| MIELECB | 2026-08-31 00:18:40 | 49.99369 | 21.53925 | 315° | 15km/h | 20493m | 4.9m/s | 0°C | 0% | 0hPa | 0V | 00:00:00 | 00:00:00 | 00:00:00 | |
| AKAW682 | 2026-08-31 00:18:38 | 49.99364 | 21.53931 | 339° | 5km/h | 20482m | 6.7m/s | 0°C | 0% | 0hPa | 0V | 00:00:00 | 00:00:00 | 00:00:00 | |
| MIELECB | 2026-08-31 00:18:35 | 49.99362 | 21.53938 | 292° | 11km/h | 20466m | 5.8m/s | 0°C | 0% | 0hPa | 0V | 00:00:00 | 00:00:00 | 00:00:00 | |
| AKAW68 | 2026-08-31 00:18:33 | 49.99360 | 21.53945 | 303° | 7km/h | 20456m | 6.9m/s | 0°C | 0% | 0hPa | 0V | 00:00:00 | 00:00:00 | 00:00:00 | |
| MIELECB | 2026-08-31 00:18:30 | 49.99357 | 21.53946 | 3° | 9km/h | 20438m | 5.8m/s | 0°C | 0% | 0hPa | 0V | 00:00:00 | 00:00:00 | 00:00:00 | |
| MIELECB | 2026-08-31 00:18:24 | 49.99349 | 21.53951 | 307° | 5km/h | 20405m | 6.3m/s | 0°C | 0% | 0hPa | 0V | 00:00:00 | 00:00:00 | 00:00:00 | |
| SQ9PSP-11 | 2026-08-31 00:18:22 | 49.99346 | 21.53956 | 314° | 11km/h | 20395m | 5.5m/s | 0°C | 0% | 0hPa | 0V | 00:00:00 | 00:00:00 | 00:00:00 | |
| MIELECB | 2026-08-31 00:18:19 | 49.99340 | 21.53958 | 13° | 9km/h | 20380m | 5.2m/s | 0°C | 0% | 0hPa | 0V | 00:00:00 | 00:00:00 | 00:00:00 | |
| AKAW682 | 2026-08-31 00:18:17 | 49.99335 | 21.53961 | 326° | 15km/h | 20372m | 1.1m/s | 0°C | 0% | 0hPa | 0V | 00:00:00 | 00:00:00 | 00:00:00 | |
| AKAW68 | 2026-08-31 00:18:13 | 49.99332 | 21.53969 | 287° | 4km/h | 20355m | 3.7m/s | 0°C | 0% | 0hPa | 0V | 00:00:00 | 00:00:00 | 00:00:00 | |
| MIELECB | 2026-08-31 00:18:08 | 49.99321 | 21.53976 | 16° | 13km/h | 20325m | 5.3m/s | 0°C | 0% | 0hPa | 0V | 00:00:00 | 00:00:00 | 00:00:00 | |
| SQ9PSP-11 | 2026-08-31 00:18:07 | 49.99318 | 21.53976 | 354° | 11km/h | 20319m | 6.7m/s | 0°C | 0% | 0hPa | 0V | 00:00:00 | 00:00:00 | 00:00:00 | |
| MIELECB | 2026-08-31 00:18:02 | 49.99310 | 21.53976 | 356° | 9km/h | 20294m | 4.1m/s | 0°C | 0% | 0hPa | 0V | 00:00:00 | 00:00:00 | 00:00:00 | |
| MIELECB | 2026-08-31 00:17:56 | 49.99295 | 21.53980 | 18° | 5km/h | 20265m | 4.7m/s | 0°C | 0% | 0hPa | 0V | 00:00:00 | 00:00:00 | 00:00:00 | |
| AKAW68 | 2026-08-31 00:17:53 | 49.99292 | 21.53984 | 293° | 5km/h | 20251m | 6.3m/s | 0°C | 0% | 0hPa | 0V | 00:00:00 | 00:00:00 | 00:00:00 | |
| SQ9PSP-11 | 2026-08-31 00:17:51 | 49.99291 | 21.53986 | 349° | 7km/h | 20240m | 5.1m/s | 0°C | 0% | 0hPa | 0V | 00:00:00 | 00:00:00 | 00:00:00 | |
| MIELECB | 2026-08-31 00:17:50 | 49.99290 | 21.53988 | 317° | 7km/h | 20234m | 6.8m/s | 0°C | 0% | 0hPa | 0V | 00:00:00 | 00:00:00 | 00:00:00 | |
| MIELECB | 2026-08-31 00:17:44 | 49.99277 | 21.53989 | 342° | 9km/h | 20202m | 6.0m/s | 0°C | 0% | 0hPa | 0V | 00:00:00 | 00:00:00 | 00:00:00 | |
| MIELECB | 2026-08-31 00:17:39 | 49.99266 | 21.53995 | 336° | 2km/h | 20176m | 6.7m/s | 0°C | 0% | 0hPa | 0V | 00:00:00 | 00:00:00 | 00:00:00 | |
| SQ9PSP-11 | 2026-08-31 00:17:35 | 49.99264 | 21.53996 | 9° | 15km/h | 20155m | 3.2m/s | 0°C | 0% | 0hPa | 0V | 00:00:00 | 00:00:00 | 00:00:00 | |
| MIELECB | 2026-08-31 00:17:33 | 49.99257 | 21.53994 | 346° | 11km/h | 20147m | 5.4m/s | 0°C | 0% | 0hPa | 0V | 00:00:00 | 00:00:00 | 00:00:00 | |
| AKAW68 | 2026-08-31 00:17:32 | 49.99255 | 21.53996 | 303° | 9km/h | 20142m | 5.0m/s | 0°C | 0% | 0hPa | 0V | 00:00:00 | 00:00:00 | 00:00:00 | |
| SQ9EZE-12 | 2026-08-31 00:17:29 | 49.99251 | 21.53997 | 44° | 5km/h | 20125m | 6.1m/s | 0°C | 0% | 0hPa | 0V | 00:00:00 | 00:00:00 | 00:00:00 | |
| MIELECB | 2026-08-31 00:17:28 | 49.99251 | 21.53997 | 0° | 0km/h | 20119m | 6.1m/s | 0°C | 0% | 0hPa | 0V | 00:00:00 | 00:00:00 | 00:00:00 | |
| MIELECB | 2026-08-31 00:17:22 | 49.99240 | 21.54008 | 327° | 11km/h | 20089m | 6.0m/s | 0°C | 0% | 0hPa | 0V | 00:00:00 | 00:00:00 | 00:00:00 | |
| SQ9PSP-11 | 2026-08-31 00:17:20 | 49.99238 | 21.54013 | 290° | 7km/h | 20078m | 5.1m/s | 0°C | 0% | 0hPa | 0V | 00:00:00 | 00:00:00 | 00:00:00 | |
| MIELECB | 2026-08-31 00:17:16 | 49.99231 | 21.54021 | 331° | 5km/h | 20058m | 5.8m/s | 0°C | 0% | 0hPa | 0V | 00:00:00 | 00:00:00 | 00:00:00 | |
| MIELECB | 2026-08-31 00:17:12 | 49.99219 | 21.54040 | 297° | 16km/h | 20037m | 5.9m/s | 0°C | 0% | 0hPa | 0V | 00:00:00 | 00:00:00 | 00:00:00 | |
| MIELECB | 2026-08-31 00:17:05 | 49.99212 | 21.54053 | 306° | 7km/h | 20012m | 6.1m/s | 0°C | 0% | 0hPa | 0V | 00:00:00 | 00:00:00 | 00:00:00 | |
| SQ9PSP-11 | 2026-08-31 00:17:04 | 49.99211 | 21.54056 | 299° | 9km/h | 20008m | 7.0m/s | 0°C | 0% | 0hPa | 0V | 00:00:00 | 00:00:00 | 00:00:00 | |
| MIELECB | 2026-08-31 00:17:00 | 49.99205 | 21.54071 | 274° | 11km/h | 19983m | 6.4m/s | 0°C | 0% | 0hPa | 0V | 00:00:00 | 00:00:00 | 00:00:00 | |
| MIELECB | 2026-08-31 00:16:54 | 49.99202 | 21.54093 | 304° | 11km/h | 19950m | 6.7m/s | 0°C | 0% | 0hPa | 0V | 00:00:00 | 00:00:00 | 00:00:00 | |
| AKAW68 | 2026-08-31 00:16:52 | 49.99202 | 21.54099 | 237° | 9km/h | 19939m | 3.8m/s | 0°C | 0% | 0hPa | 0V | 00:00:00 | 00:00:00 | 00:00:00 | |
| AKAW682 | 2026-08-31 00:16:51 | 49.99203 | 21.54101 | 250° | 7km/h | 19934m | 6.6m/s | 0°C | 0% | 0hPa | 0V | 00:00:00 | 00:00:00 | 00:00:00 | |
| MIELECB | 2026-08-31 00:16:49 | 49.99203 | 21.54105 | 252° | 4km/h | 19924m | 5.2m/s | 0°C | 0% | 0hPa | 0V | 00:00:00 | 00:00:00 | 00:00:00 | |
| MIELECB | 2026-08-31 00:16:43 | 49.99193 | 21.54107 | 6° | 13km/h | 19895m | 5.2m/s | 0°C | 0% | 0hPa | 0V | 00:00:00 | 00:00:00 | 00:00:00 | |
| MIELECB | 2026-08-31 00:16:38 | 49.99203 | 21.54113 | 209° | 13km/h | 19868m | 4.5m/s | 0°C | 0% | 0hPa | 0V | 00:00:00 | 00:00:00 | 00:00:00 | |
| MIELECB | 2026-08-31 00:16:32 | 49.99193 | 21.54109 | 355° | 9km/h | 19838m | 3.8m/s | 0°C | 0% | 0hPa | 0V | 00:00:00 | 00:00:00 | 00:00:00 | |
| AKAW682 | 2026-08-31 00:16:31 | 49.99191 | 21.54108 | 15° | 5km/h | 19833m | 4.1m/s | 0°C | 0% | 0hPa | 0V | 00:00:00 | 00:00:00 | 00:00:00 | |
| MIELECB | 2026-08-31 00:16:27 | 49.99198 | 21.54106 | 170° | 5km/h | 19815m | 4.1m/s | 0°C | 0% | 0hPa | 0V | 00:00:00 | 00:00:00 | 00:00:00 | |
| SQ9EZE-12 | 2026-08-31 00:16:22 | 49.99198 | 21.54095 | 44° | 2km/h | 19791m | 4.1m/s | 0°C | 0% | 0hPa | 0V | 00:00:00 | 00:00:00 | 00:00:00 | |
| MIELECB | 2026-08-31 00:16:21 | 49.99197 | 21.54094 | 101° | 4km/h | 19787m | 4.4m/s | 0°C | 0% | 0hPa | 0V | 00:00:00 | 00:00:00 | 00:00:00 | |
| SQ9PSP-11 | 2026-08-31 00:16:17 | 49.99200 | 21.54081 | 104° | 9km/h | 19769m | 4.8m/s | 0°C | 0% | 0hPa | 0V | 00:00:00 | 00:00:00 | 00:00:00 | |
| MIELECB | 2026-08-31 00:16:15 | 49.99201 | 21.54075 | 104° | 7km/h | 19760m | 4.9m/s | 0°C | 0% | 0hPa | 0V | 00:00:00 | 00:00:00 | 00:00:00 | |
| AKAW68 | 2026-08-31 00:16:10 | 49.99203 | 21.54058 | 81° | 5km/h | 19735m | 4.2m/s | 0°C | 0% | 0hPa | 0V | 00:00:00 | 00:00:00 | 00:00:00 | |
| MIELECB | 2026-08-31 00:16:09 | 49.99203 | 21.54055 | 58° | 9km/h | 19731m | 5.9m/s | 0°C | 0% | 0hPa | 0V | 00:00:00 | 00:00:00 | 00:00:00 | |
| MIELECB | 2026-08-31 00:16:03 | 49.99199 | 21.54025 | 102° | 16km/h | 19698m | 5.4m/s | 0°C | 0% | 0hPa | 0V | 00:00:00 | 00:00:00 | 00:00:00 | |
| SQ9PSP-11 | 2026-08-31 00:16:00 | 49.99201 | 21.54008 | 111° | 11km/h | 19683m | 6.0m/s | 0°C | 0% | 0hPa | 0V | 00:00:00 | 00:00:00 | 00:00:00 | |
| MIELECB | 2026-08-31 00:15:57 | 49.99201 | 21.53998 | 88° | 11km/h | 19668m | 5.1m/s | 0°C | 0% | 0hPa | 0V | 00:00:00 | 00:00:00 | 00:00:00 | |
| MIELECB | 2026-08-31 00:15:51 | 49.99201 | 21.53973 | 80° | 16km/h | 19641m | 3.9m/s | 0°C | 0% | 0hPa | 0V | 00:00:00 | 00:00:00 | 00:00:00 | |
| AKAW68 | 2026-08-31 00:15:48 | 49.99202 | 21.53961 | 40° | 2km/h | 19626m | 5.1m/s | 0°C | 0% | 0hPa | 0V | 00:00:00 | 00:00:00 | 00:00:00 | |
| SQ9PSP-11 | 2026-08-31 00:15:45 | 49.99200 | 21.53955 | 44° | 4km/h | 19611m | 5.3m/s | 0°C | 0% | 0hPa | 0V | 00:00:00 | 00:00:00 | 00:00:00 | |
| MIELECB | 2026-08-31 00:15:39 | 49.99198 | 21.53944 | 40° | 5km/h | 19580m | 5.6m/s | 0°C | 0% | 0hPa | 0V | 00:00:00 | 00:00:00 | 00:00:00 | |
| MIELECB | 2026-08-31 00:15:34 | 49.99197 | 21.53947 | 11° | 7km/h | 19552m | 4.5m/s | 0°C | 0% | 0hPa | 0V | 00:00:00 | 00:00:00 | 00:00:00 | |
| SQ9PSP-11 | 2026-08-31 00:15:30 | 49.99192 | 21.53948 | 1° | 4km/h | 19535m | 6.5m/s | 0°C | 0% | 0hPa | 0V | 00:00:00 | 00:00:00 | 00:00:00 | |
| MIELECB | 2026-08-31 00:15:28 | 49.99192 | 21.53947 | 131° | 5km/h | 19525m | 4.7m/s | 0°C | 0% | 0hPa | 0V | 00:00:00 | 00:00:00 | 00:00:00 | |
| AKAW68 | 2026-08-31 00:15:26 | 49.99193 | 21.53947 | 269° | 7km/h | 19515m | 4.0m/s | 0°C | 0% | 0hPa | 0V | 00:00:00 | 00:00:00 | 00:00:00 | |
| MIELECB | 2026-08-31 00:15:23 | 49.99187 | 21.53953 | 334° | 18km/h | 19499m | 4.6m/s | 0°C | 0% | 0hPa | 0V | 00:00:00 | 00:00:00 | 00:00:00 | |
| AKAW682 | 2026-08-31 00:15:21 | 49.99181 | 21.53959 | 318° | 11km/h | 19489m | 4.1m/s | 0°C | 0% | 0hPa | 0V | 00:00:00 | 00:00:00 | 00:00:00 | |
| MIELECB | 2026-08-31 00:15:17 | 49.99180 | 21.53958 | 122° | 4km/h | 19471m | 6.5m/s | 0°C | 0% | 0hPa | 0V | 00:00:00 | 00:00:00 | 00:00:00 | |
| MIELECB | 2026-08-31 00:15:12 | 49.99175 | 21.53973 | 306° | 9km/h | 19444m | 5.0m/s | 0°C | 0% | 0hPa | 0V | 00:00:00 | 00:00:00 | 00:00:00 | |
| MIELECB | 2026-08-31 00:15:07 | 49.99177 | 21.53979 | 239° | 2km/h | 19419m | 4.0m/s | 0°C | 0% | 0hPa | 0V | 00:00:00 | 00:00:00 | 00:00:00 | |
| AKAW68 | 2026-08-31 00:15:06 | 49.99177 | 21.53981 | 253° | 9km/h | 19415m | 7.2m/s | 0°C | 0% | 0hPa | 0V | 00:00:00 | 00:00:00 | 00:00:00 | |
| MIELECB | 2026-08-31 00:15:01 | 49.99180 | 21.53999 | 256° | 5km/h | 19387m | 6.8m/s | 0°C | 0% | 0hPa | 0V | 00:00:00 | 00:00:00 | 00:00:00 | |
| AKAW682 | 2026-08-31 00:15:00 | 49.99182 | 21.54002 | 224° | 15km/h | 19381m | 6.6m/s | 0°C | 0% | 0hPa | 0V | 00:00:00 | 00:00:00 | 00:00:00 | |
| MIELECB | 2026-08-31 00:14:55 | 49.99190 | 21.54013 | 258° | 18km/h | 19358m | 6.2m/s | 0°C | 0% | 0hPa | 0V | 00:00:00 | 00:00:00 | 00:00:00 | |
| MIELECB | 2026-08-31 00:14:49 | 49.99193 | 21.54038 | 215° | 9km/h | 19332m | 6.4m/s | 0°C | 0% | 0hPa | 0V | 00:00:00 | 00:00:00 | 00:00:00 | |
| AKAW68 | 2026-08-31 00:14:46 | 49.99199 | 21.54046 | 254° | 11km/h | 19317m | 4.4m/s | 0°C | 0% | 0hPa | 0V | 00:00:00 | 00:00:00 | 00:00:00 | |
| MIELECB | 2026-08-31 00:14:43 | 49.99204 | 21.54057 | 233° | 13km/h | 19303m | 4.2m/s | 0°C | 0% | 0hPa | 0V | 00:00:00 | 00:00:00 | 00:00:00 | |
| AKAW682 | 2026-08-31 00:14:39 | 49.99208 | 21.54061 | 91° | 2km/h | 19284m | 4.0m/s | 0°C | 0% | 0hPa | 0V | 00:00:00 | 00:00:00 | 00:00:00 | |
| MIELECB | 2026-08-31 00:14:37 | 49.99212 | 21.54062 | 192° | 13km/h | 19275m | 5.1m/s | 0°C | 0% | 0hPa | 0V | 00:00:00 | 00:00:00 | 00:00:00 | |
| MIELECB | 2026-08-31 00:14:31 | 49.99222 | 21.54062 | 242° | 5km/h | 19245m | 5.8m/s | 0°C | 0% | 0hPa | 0V | 00:00:00 | 00:00:00 | 00:00:00 | |
| MIELECB | 2026-08-31 00:14:26 | 49.99231 | 21.54059 | 164° | 15km/h | 19217m | 4.6m/s | 0°C | 0% | 0hPa | 0V | 00:00:00 | 00:00:00 | 00:00:00 | |
| SQ9PSP-11 | 2026-08-31 00:14:24 | 49.99238 | 21.54054 | 123° | 7km/h | 19209m | 6.3m/s | 0°C | 0% | 0hPa | 0V | 00:00:00 | 00:00:00 | 00:00:00 | |
| MIELECB | 2026-08-31 00:14:21 | 49.99239 | 21.54043 | 143° | 9km/h | 19189m | 5.2m/s | 0°C | 0% | 0hPa | 0V | 00:00:00 | 00:00:00 | 00:00:00 | |
| AKAW682 | 2026-08-31 00:14:19 | 49.99241 | 21.54040 | 131° | 9km/h | 19184m | 5.6m/s | 0°C | 0% | 0hPa | 0V | 00:00:00 | 00:00:00 | 00:00:00 | |
| MIELECB | 2026-08-31 00:14:15 | 49.99254 | 21.54029 | 150° | 22km/h | 19167m | 3.7m/s | 0°C | 0% | 0hPa | 0V | 00:00:00 | 00:00:00 | 00:00:00 | |
| MIELECB | 2026-08-31 00:14:10 | 49.99258 | 21.54009 | 87° | 15km/h | 19141m | 6.4m/s | 0°C | 0% | 0hPa | 0V | 00:00:00 | 00:00:00 | 00:00:00 | |
| SQ9PSP-11 | 2026-08-31 00:14:08 | 49.99258 | 21.53996 | 95° | 18km/h | 19130m | 4.1m/s | 0°C | 0% | 0hPa | 0V | 00:00:00 | 00:00:00 | 00:00:00 | |
| AKAW68 | 2026-08-31 00:14:05 | 49.99260 | 21.53976 | 118° | 16km/h | 19115m | 5.8m/s | 0°C | 0% | 0hPa | 0V | 00:00:00 | 00:00:00 | 00:00:00 | |
| MIELECB | 2026-08-31 00:14:04 | 49.99262 | 21.53970 | 120° | 18km/h | 19110m | 4.0m/s | 0°C | 0% | 0hPa | 0V | 00:00:00 | 00:00:00 | 00:00:00 | |
| AKAW682 | 2026-08-31 00:13:58 | 49.99262 | 21.53923 | 93° | 16km/h | 19082m | 3.7m/s | 0°C | 0% | 0hPa | 0V | 00:00:00 | 00:00:00 | 00:00:00 | |
| MIELECB | 2026-08-31 00:13:53 | 49.99260 | 21.53891 | 69° | 11km/h | 19062m | 4.0m/s | 0°C | 0% | 0hPa | 0V | 00:00:00 | 00:00:00 | 00:00:00 | |
| AKAW68 | 2026-08-31 00:13:44 | 49.99243 | 21.53842 | 47° | 11km/h | 19017m | 4.0m/s | 0°C | 0% | 0hPa | 0V | 00:00:00 | 00:00:00 | 00:00:00 | |
| MIELECB | 2026-08-31 00:13:42 | 49.99242 | 21.53835 | 101° | 11km/h | 19005m | 4.6m/s | 0°C | 0% | 0hPa | 0V | 00:00:00 | 00:00:00 | 00:00:00 | |
| SQ9PSP-11 | 2026-08-31 00:13:38 | 49.99237 | 21.53802 | 87° | 22km/h | 18987m | 5.5m/s | 0°C | 0% | 0hPa | 0V | 00:00:00 | 00:00:00 | 00:00:00 | |
| MIELECB | 2026-08-31 00:13:37 | 49.99238 | 21.53794 | 110° | 18km/h | 18981m | 6.0m/s | 0°C | 0% | 0hPa | 0V | 00:00:00 | 00:00:00 | 00:00:00 | |
| MIELECB | 2026-08-31 00:13:31 | 49.99239 | 21.53764 | 100° | 15km/h | 18955m | 6.6m/s | 0°C | 0% | 0hPa | 0V | 00:00:00 | 00:00:00 | 00:00:00 | |
| MIELECB | 2026-08-31 00:13:26 | 49.99241 | 21.53725 | 112° | 20km/h | 18931m | 5.2m/s | 0°C | 0% | 0hPa | 0V | 00:00:00 | 00:00:00 | 00:00:00 | |
| AKAW68 | 2026-08-31 00:13:24 | 49.99245 | 21.53712 | 119° | 15km/h | 18922m | 6.3m/s | 0°C | 0% | 0hPa | 0V | 00:00:00 | 00:00:00 | 00:00:00 | |
| MIELECB | 2026-08-31 00:13:21 | 49.99246 | 21.53703 | 96° | 7km/h | 18907m | 6.4m/s | 0°C | 0% | 0hPa | 0V | 00:00:00 | 00:00:00 | 00:00:00 | |
| AKAW682 | 2026-08-31 00:13:17 | 49.99256 | 21.53690 | 142° | 20km/h | 18888m | 7.1m/s | 0°C | 0% | 0hPa | 0V | 00:00:00 | 00:00:00 | 00:00:00 | |
| MIELECB | 2026-08-31 00:13:15 | 49.99264 | 21.53678 | 142° | 26km/h | 18876m | 7.0m/s | 0°C | 0% | 0hPa | 0V | 00:00:00 | 00:00:00 | 00:00:00 | |
| MIELECB | 2026-08-31 00:13:09 | 49.99284 | 21.53642 | 123° | 15km/h | 18842m | 4.5m/s | 0°C | 0% | 0hPa | 0V | 00:00:00 | 00:00:00 | 00:00:00 | |
| SQ9PSP-11 | 2026-08-31 00:13:05 | 49.99294 | 21.53615 | 138° | 20km/h | 18821m | 5.8m/s | 0°C | 0% | 0hPa | 0V | 00:00:00 | 00:00:00 | 00:00:00 | |
| AKAW68 | 2026-08-31 00:13:04 | 49.99299 | 21.53610 | 146° | 22km/h | 18815m | 4.1m/s | 0°C | 0% | 0hPa | 0V | 00:00:00 | 00:00:00 | 00:00:00 | |
| MIELECB | 2026-08-31 00:13:03 | 49.99304 | 21.53606 | 157° | 24km/h | 18812m | 3.8m/s | 0°C | 0% | 0hPa | 0V | 00:00:00 | 00:00:00 | 00:00:00 | |
| AKAW682 | 2026-08-31 00:12:57 | 49.99328 | 21.53555 | 120° | 31km/h | 18777m | 5.8m/s | 0°C | 0% | 0hPa | 0V | 00:00:00 | 00:00:00 | 00:00:00 | |
| MIELECB | 2026-08-31 00:12:52 | 49.99345 | 21.53519 | 124° | 26km/h | 18755m | 4.1m/s | 0°C | 0% | 0hPa | 0V | 00:00:00 | 00:00:00 | 00:00:00 | |
| SQ9PSP-11 | 2026-08-31 00:12:49 | 49.99350 | 21.53495 | 102° | 24km/h | 18741m | 6.0m/s | 0°C | 0% | 0hPa | 0V | 00:00:00 | 00:00:00 | 00:00:00 | |
| MIELECB | 2026-08-31 00:12:46 | 49.99359 | 21.53467 | 129° | 27km/h | 18724m | 5.5m/s | 0°C | 0% | 0hPa | 0V | 00:00:00 | 00:00:00 | 00:00:00 | |
| AKAW68 | 2026-08-31 00:12:43 | 49.99370 | 21.53444 | 126° | 24km/h | 18707m | 5.7m/s | 0°C | 0% | 0hPa | 0V | 00:00:00 | 00:00:00 | 00:00:00 | |
| MIELECB | 2026-08-31 00:12:40 | 49.99379 | 21.53417 | 101° | 26km/h | 18690m | 5.8m/s | 0°C | 0% | 0hPa | 0V | 00:00:00 | 00:00:00 | 00:00:00 | |
| MIELECB | 2026-08-31 00:12:35 | 49.99390 | 21.53359 | 110° | 33km/h | 18665m | 4.5m/s | 0°C | 0% | 0hPa | 0V | 00:00:00 | 00:00:00 | 00:00:00 | |
| MIELECB | 2026-08-31 00:12:29 | 49.99404 | 21.53293 | 90° | 29km/h | 18638m | 4.6m/s | 0°C | 0% | 0hPa | 0V | 00:00:00 | 00:00:00 | 00:00:00 | |
| MIELECB | 2026-08-31 00:12:24 | 49.99410 | 21.53234 | 98° | 27km/h | 18613m | 4.4m/s | 0°C | 0% | 0hPa | 0V | 00:00:00 | 00:00:00 | 00:00:00 | |
| AKAW68 | 2026-08-31 00:12:21 | 49.99414 | 21.53201 | 99° | 33km/h | 18598m | 3.1m/s | 0°C | 0% | 0hPa | 0V | 00:00:00 | 00:00:00 | 00:00:00 | |
| MIELECB | 2026-08-31 00:12:18 | 49.99413 | 21.53162 | 81° | 37km/h | 18584m | 5.4m/s | 0°C | 0% | 0hPa | 0V | 00:00:00 | 00:00:00 | 00:00:00 | |
| SQ9PSP-11 | 2026-08-31 00:12:17 | 49.99412 | 21.53147 | 88° | 38km/h | 18578m | 6.4m/s | 0°C | 0% | 0hPa | 0V | 00:00:00 | 00:00:00 | 00:00:00 | |
| AKAW682 | 2026-08-31 00:12:15 | 49.99413 | 21.53120 | 102° | 29km/h | 18568m | 6.4m/s | 0°C | 0% | 0hPa | 0V | 00:00:00 | 00:00:00 | 00:00:00 | |
| MIELECB | 2026-08-31 00:12:13 | 49.99415 | 21.53101 | 98° | 18km/h | 18558m | 4.1m/s | 0°C | 0% | 0hPa | 0V | 00:00:00 | 00:00:00 | 00:00:00 | |
| MIELECB | 2026-08-31 00:12:08 | 49.99412 | 21.53025 | 72° | 57km/h | 18535m | 4.7m/s | 0°C | 0% | 0hPa | 0V | 00:00:00 | 00:00:00 | 00:00:00 | |
| MIELECB | 2026-08-31 00:12:02 | 49.99400 | 21.52948 | 77° | 27km/h | 18510m | 4.0m/s | 0°C | 0% | 0hPa | 0V | 00:00:00 | 00:00:00 | 00:00:00 | |
| SQ9PSP-11 | 2026-08-31 00:12:01 | 49.99398 | 21.52937 | 72° | 35km/h | 18507m | 3.2m/s | 0°C | 0% | 0hPa | 0V | 00:00:00 | 00:00:00 | 00:00:00 | |
| AKAW68 | 2026-08-31 00:12:00 | 49.99396 | 21.52923 | 76° | 40km/h | 18502m | 5.5m/s | 0°C | 0% | 0hPa | 0V | 00:00:00 | 00:00:00 | 00:00:00 | |
| MIELECB | 2026-08-31 00:11:57 | 49.99384 | 21.52858 | 59° | 37km/h | 18484m | 5.8m/s | 0°C | 0% | 0hPa | 0V | 00:00:00 | 00:00:00 | 00:00:00 | |
| AKAW682 | 2026-08-31 00:11:54 | 49.99375 | 21.52839 | 54° | 24km/h | 18475m | 6.0m/s | 0°C | 0% | 0hPa | 0V | 00:00:00 | 00:00:00 | 00:00:00 | |
| SQ9EZE-12 | 2026-08-31 00:11:50 | 49.99368 | 21.52806 | 63° | 29km/h | 18456m | 3.4m/s | 0°C | 0% | 0hPa | 0V | 00:00:00 | 00:00:00 | 00:00:00 | |
| SQ9PSP-11 | 2026-08-31 00:11:45 | 49.99351 | 21.52747 | 52° | 31km/h | 18432m | 5.8m/s | 0°C | 0% | 0hPa | 0V | 00:00:00 | 00:00:00 | 00:00:00 | |
| MIELECB | 2026-08-31 00:11:44 | 49.99345 | 21.52739 | 38° | 33km/h | 18427m | 5.0m/s | 0°C | 0% | 0hPa | 0V | 00:00:00 | 00:00:00 | 00:00:00 | |
| AKAW68 | 2026-08-31 00:11:39 | 49.99323 | 21.52693 | 57° | 27km/h | 18404m | 5.1m/s | 0°C | 0% | 0hPa | 0V | 00:00:00 | 00:00:00 | 00:00:00 | |
| MIELECB | 2026-08-31 00:11:38 | 49.99319 | 21.52684 | 66° | 27km/h | 18400m | 3.8m/s | 0°C | 0% | 0hPa | 0V | 00:00:00 | 00:00:00 | 00:00:00 | |
| MIELECB | 2026-08-31 00:11:33 | 49.99298 | 21.52640 | 29° | 26km/h | 18375m | 4.8m/s | 0°C | 0% | 0hPa | 0V | 00:00:00 | 00:00:00 | 00:00:00 | |
| SQ9PSP-11 | 2026-08-31 00:11:30 | 49.99284 | 21.52623 | 57° | 24km/h | 18360m | 3.6m/s | 0°C | 0% | 0hPa | 0V | 00:00:00 | 00:00:00 | 00:00:00 | |
| MIELECB | 2026-08-31 00:11:27 | 49.99277 | 21.52601 | 63° | 22km/h | 18344m | 5.0m/s | 0°C | 0% | 0hPa | 0V | 00:00:00 | 00:00:00 | 00:00:00 | |
| SQ9EZE-12 | 2026-08-31 00:11:26 | 49.99274 | 21.52592 | 64° | 29km/h | 18339m | 4.7m/s | 0°C | 0% | 0hPa | 0V | 00:00:00 | 00:00:00 | 00:00:00 | |
| MIELECB | 2026-08-31 00:11:22 | 49.99258 | 21.52568 | 30° | 22km/h | 18322m | 4.1m/s | 0°C | 0% | 0hPa | 0V | 00:00:00 | 00:00:00 | 00:00:00 | |
| AKAW68 | 2026-08-31 00:11:18 | 49.99240 | 21.52542 | 54° | 18km/h | 18303m | 4.8m/s | 0°C | 0% | 0hPa | 0V | 00:00:00 | 00:00:00 | 00:00:00 | |
| MIELECB | 2026-08-31 00:11:16 | 49.99234 | 21.52529 | 57° | 22km/h | 18296m | 6.0m/s | 0°C | 0% | 0hPa | 0V | 00:00:00 | 00:00:00 | 00:00:00 | |
| SQ9PSP-11 | 2026-08-31 00:11:15 | 49.99226 | 21.52516 | 48° | 18km/h | 18286m | 4.9m/s | 0°C | 0% | 0hPa | 0V | 00:00:00 | 00:00:00 | 00:00:00 | |
| MIELECB | 2026-08-31 00:11:10 | 49.99210 | 21.52498 | 45° | 24km/h | 18268m | 5.7m/s | 0°C | 0% | 0hPa | 0V | 00:00:00 | 00:00:00 | 00:00:00 | |
| SQ9EZE-12 | 2026-08-31 00:11:06 | 49.99199 | 21.52474 | 43° | 20km/h | 18247m | 6.4m/s | 0°C | 0% | 0hPa | 0V | 00:00:00 | 00:00:00 | 00:00:00 | |
| MIELECB | 2026-08-31 00:11:05 | 49.99195 | 21.52468 | 38° | 24km/h | 18240m | 5.8m/s | 0°C | 0% | 0hPa | 0V | 00:00:00 | 00:00:00 | 00:00:00 | |
| MIELECB | 2026-08-31 00:10:59 | 49.99173 | 21.52436 | 48° | 26km/h | 18208m | 4.0m/s | 0°C | 0% | 0hPa | 0V | 00:00:00 | 00:00:00 | 00:00:00 | |
| SQ9PSP-11 | 2026-08-31 00:10:58 | 49.99169 | 21.52428 | 50° | 22km/h | 18204m | 4.4m/s | 0°C | 0% | 0hPa | 0V | 00:00:00 | 00:00:00 | 00:00:00 | |
| MIELECB | 2026-08-31 00:10:54 | 49.99158 | 21.52412 | 42° | 18km/h | 18188m | 5.3m/s | 0°C | 0% | 0hPa | 0V | 00:00:00 | 00:00:00 | 00:00:00 | |
| MIELECB | 2026-08-31 00:10:48 | 49.99137 | 21.52384 | 47° | 22km/h | 18158m | 4.5m/s | 0°C | 0% | 0hPa | 0V | 00:00:00 | 00:00:00 | 00:00:00 | |
| AKAW68 | 2026-08-31 00:10:45 | 49.99130 | 21.52372 | 63° | 5km/h | 18143m | 4.1m/s | 0°C | 0% | 0hPa | 0V | 00:00:00 | 00:00:00 | 00:00:00 | |
| SQ9PSP-11 | 2026-08-31 00:10:43 | 49.99128 | 21.52364 | 61° | 15km/h | 18132m | 5.8m/s | 0°C | 0% | 0hPa | 0V | 00:00:00 | 00:00:00 | 00:00:00 | |
| MIELECB | 2026-08-31 00:10:42 | 49.99126 | 21.52358 | 80° | 16km/h | 18127m | 5.6m/s | 0°C | 0% | 0hPa | 0V | 00:00:00 | 00:00:00 | 00:00:00 | |
| MIELECB | 2026-08-31 00:10:36 | 49.99112 | 21.52325 | 32° | 11km/h | 18102m | 4.5m/s | 0°C | 0% | 0hPa | 0V | 00:00:00 | 00:00:00 | 00:00:00 | |
| MIELECB | 2026-08-31 00:10:31 | 49.99103 | 21.52311 | 61° | 16km/h | 18080m | 5.9m/s | 0°C | 0% | 0hPa | 0V | 00:00:00 | 00:00:00 | 00:00:00 | |
| SQ9EZE-12 | 2026-08-31 00:10:30 | 49.99101 | 21.52306 | 73° | 16km/h | 18076m | 5.4m/s | 0°C | 0% | 0hPa | 0V | 00:00:00 | 00:00:00 | 00:00:00 | |
| SQ9PSP-11 | 2026-08-31 00:10:28 | 49.99097 | 21.52290 | 57° | 27km/h | 18065m | 6.1m/s | 0°C | 0% | 0hPa | 0V | 00:00:00 | 00:00:00 | 00:00:00 | |
| MIELECB | 2026-08-31 00:10:26 | 49.99089 | 21.52274 | 50° | 18km/h | 18058m | 6.9m/s | 0°C | 0% | 0hPa | 0V | 00:00:00 | 00:00:00 | 00:00:00 | |
| AKAW68 | 2026-08-31 00:10:25 | 49.99088 | 21.52269 | 61° | 9km/h | 18053m | 6.7m/s | 0°C | 0% | 0hPa | 0V | 00:00:00 | 00:00:00 | 00:00:00 | |
| MIELECB | 2026-08-31 00:10:20 | 49.99075 | 21.52254 | 35° | 20km/h | 18026m | 5.7m/s | 0°C | 0% | 0hPa | 0V | 00:00:00 | 00:00:00 | 00:00:00 | |
| SQ9EZE-12 | 2026-08-31 00:10:14 | 49.99051 | 21.52209 | 41° | 18km/h | 17999m | 3.8m/s | 0°C | 0% | 0hPa | 0V | 00:00:00 | 00:00:00 | 00:00:00 | |
| SQ9PSP-11 | 2026-08-31 00:10:13 | 49.99043 | 21.52200 | 33° | 24km/h | 17987m | 6.6m/s | 0°C | 0% | 0hPa | 0V | 00:00:00 | 00:00:00 | 00:00:00 | |
| AKAW68 | 2026-08-31 00:10:04 | 49.99008 | 21.52156 | 44° | 20km/h | 17950m | 5.1m/s | 0°C | 0% | 0hPa | 0V | 00:00:00 | 00:00:00 | 00:00:00 | |
| MIELECB | 2026-08-31 00:10:03 | 49.99005 | 21.52151 | 37° | 22km/h | 17944m | 7.2m/s | 0°C | 0% | 0hPa | 0V | 00:00:00 | 00:00:00 | 00:00:00 | |
| MIELECB | 2026-08-31 00:09:58 | 49.98980 | 21.52135 | 23° | 24km/h | 17918m | 6.0m/s | 0°C | 0% | 0hPa | 0V | 00:00:00 | 00:00:00 | 00:00:00 | |
| SQ9PSP-11 | 2026-08-31 00:09:56 | 49.98970 | 21.52126 | 36° | 22km/h | 17908m | 6.6m/s | 0°C | 0% | 0hPa | 0V | 00:00:00 | 00:00:00 | 00:00:00 | |
| AKAW682 | 2026-08-31 00:09:53 | 49.98962 | 21.52117 | 39° | 15km/h | 17894m | 6.9m/s | 0°C | 0% | 0hPa | 0V | 00:00:00 | 00:00:00 | 00:00:00 | |
| MIELECB | 2026-08-31 00:09:52 | 49.98959 | 21.52112 | 40° | 22km/h | 17887m | 4.7m/s | 0°C | 0% | 0hPa | 0V | 00:00:00 | 00:00:00 | 00:00:00 | |
| MIELECB | 2026-08-31 00:09:47 | 49.98934 | 21.52097 | 15° | 22km/h | 17862m | 3.1m/s | 0°C | 0% | 0hPa | 0V | 00:00:00 | 00:00:00 | 00:00:00 | |
| AKAW68 | 2026-08-31 00:09:44 | 49.98925 | 21.52095 | 356° | 5km/h | 17849m | 3.8m/s | 0°C | 0% | 0hPa | 0V | 00:00:00 | 00:00:00 | 00:00:00 | |
| SQ9PSP-11 | 2026-08-31 00:09:41 | 49.98919 | 21.52093 | 4° | 13km/h | 17838m | 4.6m/s | 0°C | 0% | 0hPa | 0V | 00:00:00 | 00:00:00 | 00:00:00 | |
| MIELECB | 2026-08-31 00:09:36 | 49.98900 | 21.52090 | 38° | 16km/h | 17812m | 4.5m/s | 0°C | 0% | 0hPa | 0V | 00:00:00 | 00:00:00 | 00:00:00 | |
| MIELECB | 2026-08-31 00:09:31 | 49.98892 | 21.52078 | 28° | 13km/h | 17788m | 3.9m/s | 0°C | 0% | 0hPa | 0V | 00:00:00 | 00:00:00 | 00:00:00 | |
| SQ9EZE-12 | 2026-08-31 00:09:28 | 49.98886 | 21.52077 | 353° | 7km/h | 17773m | 4.4m/s | 0°C | 0% | 0hPa | 0V | 00:00:00 | 00:00:00 | 00:00:00 | |
| SQ9PSP-11 | 2026-08-31 00:09:25 | 49.98880 | 21.52075 | 14° | 9km/h | 17758m | 7.0m/s | 0°C | 0% | 0hPa | 0V | 00:00:00 | 00:00:00 | 00:00:00 | |
| AKAW68 | 2026-08-31 00:09:24 | 49.98878 | 21.52074 | 353° | 7km/h | 17752m | 4.5m/s | 0°C | 0% | 0hPa | 0V | 00:00:00 | 00:00:00 | 00:00:00 | |
| MIELECB | 2026-08-31 00:09:20 | 49.98865 | 21.52073 | 353° | 11km/h | 17735m | 4.3m/s | 0°C | 0% | 0hPa | 0V | 00:00:00 | 00:00:00 | 00:00:00 | |
| MIELECB | 2026-08-31 00:09:14 | 49.98857 | 21.52084 | 7° | 5km/h | 17707m | 6.5m/s | 0°C | 0% | 0hPa | 0V | 00:00:00 | 00:00:00 | 00:00:00 | |
| SQ9EZE-12 | 2026-08-31 00:09:11 | 49.98849 | 21.52079 | 3° | 18km/h | 17691m | 6.6m/s | 0°C | 0% | 0hPa | 0V | 00:00:00 | 00:00:00 | 00:00:00 | |
| SQ9PSP-11 | 2026-08-31 00:09:09 | 49.98842 | 21.52082 | 328° | 13km/h | 17681m | 6.1m/s | 0°C | 0% | 0hPa | 0V | 00:00:00 | 00:00:00 | 00:00:00 | |
| MIELECB | 2026-08-31 00:09:08 | 49.98840 | 21.52086 | 283° | 11km/h | 17675m | 5.4m/s | 0°C | 0% | 0hPa | 0V | 00:00:00 | 00:00:00 | 00:00:00 | |
| AKAW68 | 2026-08-31 00:09:05 | 49.98836 | 21.52101 | 342° | 9km/h | 17655m | 5.8m/s | 0°C | 0% | 0hPa | 0V | 00:00:00 | 00:00:00 | 00:00:00 | |
| MIELECB | 2026-08-31 00:09:02 | 49.98832 | 21.52101 | 357° | 13km/h | 17645m | 6.1m/s | 0°C | 0% | 0hPa | 0V | 00:00:00 | 00:00:00 | 00:00:00 | |
| MIELECB | 2026-08-31 00:08:57 | 49.98814 | 21.52115 | 280° | 11km/h | 17622m | 4.7m/s | 0°C | 0% | 0hPa | 0V | 00:00:00 | 00:00:00 | 00:00:00 | |
| SQ9PSP-11 | 2026-08-31 00:08:54 | 49.98811 | 21.52125 | 322° | 9km/h | 17607m | 5.4m/s | 0°C | 0% | 0hPa | 0V | 00:00:00 | 00:00:00 | 00:00:00 | |
| SQ9EZE-12 | 2026-08-31 00:08:52 | 49.98806 | 21.52130 | 329° | 16km/h | 17598m | 4.6m/s | 0°C | 0% | 0hPa | 0V | 00:00:00 | 00:00:00 | 00:00:00 | |
| MIELECB | 2026-08-31 00:08:51 | 49.98802 | 21.52134 | 333° | 20km/h | 17593m | 5.3m/s | 0°C | 0% | 0hPa | 0V | 00:00:00 | 00:00:00 | 00:00:00 | |
| AKAW68 | 2026-08-31 00:08:43 | 49.98786 | 21.52162 | 321° | 7km/h | 17553m | 5.2m/s | 0°C | 0% | 0hPa | 0V | 00:00:00 | 00:00:00 | 00:00:00 | |
| MIELECB | 2026-08-31 00:08:40 | 49.98778 | 21.52167 | 330° | 16km/h | 17538m | 6.4m/s | 0°C | 0% | 0hPa | 0V | 00:00:00 | 00:00:00 | 00:00:00 | |
| SQ9PSP-11 | 2026-08-31 00:08:38 | 49.98772 | 21.52177 | 306° | 16km/h | 17529m | 4.2m/s | 0°C | 0% | 0hPa | 0V | 00:00:00 | 00:00:00 | 00:00:00 | |
| MIELECB | 2026-08-31 00:08:35 | 49.98769 | 21.52182 | 306° | 2km/h | 17514m | 6.4m/s | 0°C | 0% | 0hPa | 0V | 00:00:00 | 00:00:00 | 00:00:00 | |
| MIELECB | 2026-08-31 00:08:29 | 49.98754 | 21.52192 | 329° | 20km/h | 17481m | 2.7m/s | 0°C | 0% | 0hPa | 0V | 00:00:00 | 00:00:00 | 00:00:00 | |
| MIELECB | 2026-08-31 00:08:24 | 49.98746 | 21.52209 | 274° | 5km/h | 17461m | 5.1m/s | 0°C | 0% | 0hPa | 0V | 00:00:00 | 00:00:00 | 00:00:00 | |
| AKAW68 | 2026-08-31 00:08:22 | 49.98745 | 21.52210 | 25° | 7km/h | 17450m | 6.7m/s | 0°C | 0% | 0hPa | 0V | 00:00:00 | 00:00:00 | 00:00:00 | |
| MIELECB | 2026-08-31 00:08:18 | 49.98736 | 21.52203 | 319° | 15km/h | 17428m | 5.7m/s | 0°C | 0% | 0hPa | 0V | 00:00:00 | 00:00:00 | 00:00:00 | |
| MIELECB | 2026-08-31 00:08:13 | 49.98732 | 21.52203 | 68° | 16km/h | 17401m | 5.1m/s | 0°C | 0% | 0hPa | 0V | 00:00:00 | 00:00:00 | 00:00:00 | |
| MIELECB | 2026-08-31 00:08:07 | 49.98715 | 21.52186 | 47° | 20km/h | 17372m | 4.7m/s | 0°C | 0% | 0hPa | 0V | 00:00:00 | 00:00:00 | 00:00:00 | |
| AKAW68 | 2026-08-31 00:08:02 | 49.98710 | 21.52181 | 181° | 7km/h | 17345m | 7.5m/s | 0°C | 0% | 0hPa | 0V | 00:00:00 | 00:00:00 | 00:00:00 | |
| MIELECB | 2026-08-31 00:07:56 | 49.98704 | 21.52159 | 54° | 13km/h | 17308m | 6.1m/s | 0°C | 0% | 0hPa | 0V | 00:00:00 | 00:00:00 | 00:00:00 | |
| SQ9PSP-11 | 2026-08-31 00:07:52 | 49.98702 | 21.52146 | 94° | 11km/h | 17286m | 6.8m/s | 0°C | 0% | 0hPa | 0V | 00:00:00 | 00:00:00 | 00:00:00 | |
| MIELECB | 2026-08-31 00:07:51 | 49.98702 | 21.52142 | 93° | 7km/h | 17281m | 3.0m/s | 0°C | 0% | 0hPa | 0V | 00:00:00 | 00:00:00 | 00:00:00 | |
| MIELECB | 2026-08-31 00:07:46 | 49.98701 | 21.52119 | 97° | 18km/h | 17250m | 6.2m/s | 0°C | 0% | 0hPa | 0V | 00:00:00 | 00:00:00 | 00:00:00 | |
| SQ9EZE-12 | 2026-08-31 00:07:44 | 49.98701 | 21.52111 | 87° | 9km/h | 17239m | 4.0m/s | 0°C | 0% | 0hPa | 0V | 00:00:00 | 00:00:00 | 00:00:00 | |
| AKAW68 | 2026-08-31 00:07:41 | 49.98703 | 21.52093 | 85° | 20km/h | 17222m | 6.9m/s | 0°C | 0% | 0hPa | 0V | 00:00:00 | 00:00:00 | 00:00:00 | |
| MIELECB | 2026-08-31 00:07:40 | 49.98703 | 21.52086 | 81° | 18km/h | 17215m | 5.5m/s | 0°C | 0% | 0hPa | 0V | 00:00:00 | 00:00:00 | 00:00:00 | |
| SQ9PSP-11 | 2026-08-31 00:07:36 | 49.98703 | 21.52053 | 98° | 20km/h | 17194m | 8.7m/s | 0°C | 0% | 0hPa | 0V | 00:00:00 | 00:00:00 | 00:00:00 | |
| MIELECB | 2026-08-31 00:07:34 | 49.98703 | 21.52037 | 94° | 20km/h | 17182m | 6.4m/s | 0°C | 0% | 0hPa | 0V | 00:00:00 | 00:00:00 | 00:00:00 | |
| MIELECB | 2026-08-31 00:07:29 | 49.98705 | 21.52001 | 98° | 18km/h | 17154m | 7.9m/s | 0°C | 0% | 0hPa | 0V | 00:00:00 | 00:00:00 | 00:00:00 | |
| MIELECB | 2026-08-31 00:07:24 | 49.98714 | 21.51951 | 106° | 20km/h | 17120m | 4.6m/s | 0°C | 0% | 0hPa | 0V | 00:00:00 | 00:00:00 | 00:00:00 | |
| SQ9EZE-15 | 2026-08-31 00:07:22 | 49.98715 | 21.51942 | 102° | 22km/h | 17115m | 6.9m/s | 0°C | 0% | 0hPa | 0V | 00:00:00 | 00:00:00 | 00:00:00 | |
| AKAW68 | 2026-08-31 00:07:21 | 49.98716 | 21.51932 | 93° | 29km/h | 17108m | 3.7m/s | 0°C | 0% | 0hPa | 0V | 00:00:00 | 00:00:00 | 00:00:00 | |
| SQ9PSP-11 | 2026-08-31 00:07:20 | 49.98716 | 21.51920 | 96° | 29km/h | 17105m | 5.1m/s | 0°C | 0% | 0hPa | 0V | 00:00:00 | 00:00:00 | 00:00:00 | |
| MIELECB | 2026-08-31 00:07:18 | 49.98719 | 21.51903 | 113° | 20km/h | 17096m | 5.2m/s | 0°C | 0% | 0hPa | 0V | 00:00:00 | 00:00:00 | 00:00:00 | |
| MIELECB | 2026-08-31 00:07:13 | 49.98727 | 21.51855 | 92° | 31km/h | 17068m | 5.1m/s | 0°C | 0% | 0hPa | 0V | 00:00:00 | 00:00:00 | 00:00:00 | |
| MIELECB | 2026-08-31 00:07:07 | 49.98727 | 21.51788 | 96° | 27km/h | 17038m | 7.1m/s | 0°C | 0% | 0hPa | 0V | 00:00:00 | 00:00:00 | 00:00:00 | |
| AKAW682 | 2026-08-31 00:07:05 | 49.98732 | 21.51765 | 116° | 33km/h | 17025m | 7.4m/s | 0°C | 0% | 0hPa | 0V | 00:00:00 | 00:00:00 | 00:00:00 | |
| MIELECB | 2026-08-31 00:07:01 | 49.98737 | 21.51711 | 87° | 42km/h | 17007m | 5.8m/s | 0°C | 0% | 0hPa | 0V | 00:00:00 | 00:00:00 | 00:00:00 | |
| AKAW68 | 2026-08-31 00:07:00 | 49.98735 | 21.51695 | 81° | 40km/h | 17001m | 7.7m/s | 0°C | 0% | 0hPa | 0V | 00:00:00 | 00:00:00 | 00:00:00 | |
| MIELECB | 2026-08-31 00:06:56 | 49.98731 | 21.51640 | 82° | 38km/h | 16976m | 4.8m/s | 0°C | 0% | 0hPa | 0V | 00:00:00 | 00:00:00 | 00:00:00 | |
| MIELECB | 2026-08-31 00:06:50 | 49.98725 | 21.51558 | 89° | 38km/h | 16944m | 3.9m/s | 0°C | 0% | 0hPa | 0V | 00:00:00 | 00:00:00 | 00:00:00 | |
| SQ9PSP-11 | 2026-08-31 00:06:49 | 49.98724 | 21.51543 | 85° | 37km/h | 16940m | 5.0m/s | 0°C | 0% | 0hPa | 0V | 00:00:00 | 00:00:00 | 00:00:00 | |
| SQ9EZE-12 | 2026-08-31 00:06:46 | 49.98718 | 21.51499 | 73° | 31km/h | 16924m | 9.6m/s | 0°C | 0% | 0hPa | 0V | 00:00:00 | 00:00:00 | 00:00:00 | |
| MIELECB | 2026-08-31 00:06:45 | 49.98716 | 21.51488 | 69° | 27km/h | 16918m | 4.6m/s | 0°C | 0% | 0hPa | 0V | 00:00:00 | 00:00:00 | 00:00:00 | |
| AKAW682 | 2026-08-31 00:06:43 | 49.98710 | 21.51466 | 71° | 31km/h | 16906m | 5.5m/s | 0°C | 0% | 0hPa | 0V | 00:00:00 | 00:00:00 | 00:00:00 | |
| AKAW68 | 2026-08-31 00:06:40 | 49.98706 | 21.51430 | 85° | 29km/h | 16891m | 5.4m/s | 0°C | 0% | 0hPa | 0V | 00:00:00 | 00:00:00 | 00:00:00 | |
| MIELECB | 2026-08-31 00:06:39 | 49.98705 | 21.51418 | 84° | 33km/h | 16885m | 7.2m/s | 0°C | 0% | 0hPa | 0V | 00:00:00 | 00:00:00 | 00:00:00 | |
| MIELECB | 2026-08-31 00:06:34 | 49.98693 | 21.51365 | 63° | 27km/h | 16860m | 6.8m/s | 0°C | 0% | 0hPa | 0V | 00:00:00 | 00:00:00 | 00:00:00 | |
| SQ9PSP-11 | 2026-08-31 00:06:33 | 49.98690 | 21.51355 | 65° | 31km/h | 16854m | 4.7m/s | 0°C | 0% | 0hPa | 0V | 00:00:00 | 00:00:00 | 00:00:00 | |
| MIELECB | 2026-08-31 00:06:23 | 49.98676 | 21.51262 | 70° | 27km/h | 16799m | 4.7m/s | 0°C | 0% | 0hPa | 0V | 00:00:00 | 00:00:00 | 00:00:00 | |
| AKAW682 | 2026-08-31 00:06:22 | 49.98673 | 21.51252 | 78° | 24km/h | 16794m | 5.2m/s | 0°C | 0% | 0hPa | 0V | 00:00:00 | 00:00:00 | 00:00:00 | |
| AKAW68 | 2026-08-31 00:06:19 | 49.98673 | 21.51229 | 83° | 16km/h | 16779m | 8.4m/s | 0°C | 0% | 0hPa | 0V | 00:00:00 | 00:00:00 | 00:00:00 | |
| SQ9PSP-11 | 2026-08-31 00:06:17 | 49.98671 | 21.51211 | 84° | 26km/h | 16769m | 4.1m/s | 0°C | 0% | 0hPa | 0V | 00:00:00 | 00:00:00 | 00:00:00 | |
| SQ9EZE-12 | 2026-08-31 00:06:14 | 49.98669 | 21.51184 | 81° | 24km/h | 16753m | 8.6m/s | 0°C | 0% | 0hPa | 0V | 00:00:00 | 00:00:00 | 00:00:00 | |
| MIELECB | 2026-08-31 00:06:11 | 49.98669 | 21.51160 | 97° | 18km/h | 16739m | 4.2m/s | 0°C | 0% | 0hPa | 0V | 00:00:00 | 00:00:00 | 00:00:00 | |
| MIELECB | 2026-08-31 00:06:06 | 49.98671 | 21.51112 | 85° | 27km/h | 16712m | 4.3m/s | 0°C | 0% | 0hPa | 0V | 00:00:00 | 00:00:00 | 00:00:00 | |
| SQ9PSP-11 | 2026-08-31 00:06:02 | 49.98672 | 21.51068 | 92° | 27km/h | 16686m | 6.0m/s | 0°C | 0% | 0hPa | 0V | 00:00:00 | 00:00:00 | 00:00:00 | |
| MIELECB | 2026-08-31 00:06:01 | 49.98672 | 21.51058 | 81° | 26km/h | 16681m | 3.8m/s | 0°C | 0% | 0hPa | 0V | 00:00:00 | 00:00:00 | 00:00:00 | |
| AKAW68 | 2026-08-31 00:05:58 | 49.98668 | 21.51025 | 81° | 37km/h | 16664m | 4.9m/s | 0°C | 0% | 0hPa | 0V | 00:00:00 | 00:00:00 | 00:00:00 | |
| MIELECB | 2026-08-31 00:05:55 | 49.98660 | 21.50988 | 75° | 26km/h | 16651m | 8.3m/s | 0°C | 0% | 0hPa | 0V | 00:00:00 | 00:00:00 | 00:00:00 | |
| MIELECB | 2026-08-31 00:05:49 | 49.98658 | 21.50921 | 77° | 37km/h | 16616m | 5.7m/s | 0°C | 0% | 0hPa | 0V | 00:00:00 | 00:00:00 | 00:00:00 | |
| SQ9PSP-11 | 2026-08-31 00:05:47 | 49.98654 | 21.50891 | 75° | 38km/h | 16603m | 7.8m/s | 0°C | 0% | 0hPa | 0V | 00:00:00 | 00:00:00 | 00:00:00 | |
| MIELECB | 2026-08-31 00:05:44 | 49.98646 | 21.50856 | 79° | 27km/h | 16586m | 4.5m/s | 0°C | 0% | 0hPa | 0V | 00:00:00 | 00:00:00 | 00:00:00 | |
| AKAW682 | 2026-08-31 00:05:40 | 49.98640 | 21.50810 | 73° | 31km/h | 16565m | 5.5m/s | 0°C | 0% | 0hPa | 0V | 00:00:00 | 00:00:00 | 00:00:00 | |
| MIELECB | 2026-08-31 00:05:39 | 49.98638 | 21.50797 | 74° | 38km/h | 16559m | 4.8m/s | 0°C | 0% | 0hPa | 0V | 00:00:00 | 00:00:00 | 00:00:00 | |
| AKAW68 | 2026-08-31 00:05:38 | 49.98635 | 21.50782 | 71° | 40km/h | 16555m | 5.7m/s | 0°C | 0% | 0hPa | 0V | 00:00:00 | 00:00:00 | 00:00:00 | |
| MIELECB | 2026-08-31 00:05:33 | 49.98618 | 21.50723 | 78° | 26km/h | 16527m | 6.8m/s | 0°C | 0% | 0hPa | 0V | 00:00:00 | 00:00:00 | 00:00:00 | |
| SQ9PSP-11 | 2026-08-31 00:05:32 | 49.98617 | 21.50714 | 75° | 26km/h | 16519m | 9.0m/s | 0°C | 0% | 0hPa | 0V | 00:00:00 | 00:00:00 | 00:00:00 | |
| MIELECB | 2026-08-31 00:05:28 | 49.98607 | 21.50668 | 78° | 38km/h | 16496m | 5.9m/s | 0°C | 0% | 0hPa | 0V | 00:00:00 | 00:00:00 | 00:00:00 | |
| SQ9EZE-12 | 2026-08-31 00:05:27 | 49.98605 | 21.50654 | 75° | 35km/h | 16490m | 6.0m/s | 0°C | 0% | 0hPa | 0V | 00:00:00 | 00:00:00 | 00:00:00 | |
| MIELECB | 2026-08-31 00:05:22 | 49.98592 | 21.50601 | 59° | 26km/h | 16461m | 4.3m/s | 0°C | 0% | 0hPa | 0V | 00:00:00 | 00:00:00 | 00:00:00 | |
| AKAW682 | 2026-08-31 00:05:19 | 49.98584 | 21.50570 | 74° | 35km/h | 16446m | 6.0m/s | 0°C | 0% | 0hPa | 0V | 00:00:00 | 00:00:00 | 00:00:00 | |
| AKAW68 | 2026-08-31 00:05:18 | 49.98581 | 21.50557 | 74° | 38km/h | 16440m | 8.1m/s | 0°C | 0% | 0hPa | 0V | 00:00:00 | 00:00:00 | 00:00:00 | |
| MIELECB | 2026-08-31 00:05:16 | 49.98576 | 21.50527 | 87° | 33km/h | 16430m | 8.2m/s | 0°C | 0% | 0hPa | 0V | 00:00:00 | 00:00:00 | 00:00:00 | |
| MIELECB | 2026-08-31 00:05:10 | 49.98570 | 21.50456 | 84° | 29km/h | 16393m | 6.2m/s | 0°C | 0% | 0hPa | 0V | 00:00:00 | 00:00:00 | 00:00:00 | |
| MIELECB | 2026-08-31 00:05:04 | 49.98562 | 21.50386 | 80° | 31km/h | 16357m | 7.9m/s | 0°C | 0% | 0hPa | 0V | 00:00:00 | 00:00:00 | 00:00:00 | |
| SQ9PSP-11 | 2026-08-31 00:05:00 | 49.98560 | 21.50336 | 88° | 37km/h | 16333m | 7.7m/s | 0°C | 0% | 0hPa | 0V | 00:00:00 | 00:00:00 | 00:00:00 | |
| MIELECB | 2026-08-31 00:04:59 | 49.98558 | 21.50323 | 81° | 33km/h | 16326m | 4.8m/s | 0°C | 0% | 0hPa | 0V | 00:00:00 | 00:00:00 | 00:00:00 | |
| AKAW682 | 2026-08-31 00:04:57 | 49.98556 | 21.50299 | 85° | 31km/h | 16315m | 4.3m/s | 0°C | 0% | 0hPa | 0V | 00:00:00 | 00:00:00 | 00:00:00 | |
| MIELECB | 2026-08-31 00:04:53 | 49.98551 | 21.50259 | 71° | 31km/h | 16290m | 6.1m/s | 0°C | 0% | 0hPa | 0V | 00:00:00 | 00:00:00 | 00:00:00 | |
| SQ9EZE-12 | 2026-08-31 00:04:49 | 49.98546 | 21.50216 | 66° | 26km/h | 16262m | 4.7m/s | 0°C | 0% | 0hPa | 0V | 00:00:00 | 00:00:00 | 00:00:00 | |
| MIELECB | 2026-08-31 00:04:47 | 49.98541 | 21.50196 | 76° | 26km/h | 16251m | 1.9m/s | 0°C | 0% | 0hPa | 0V | 00:00:00 | 00:00:00 | 00:00:00 | |
| SQ9PSP-11 | 2026-08-31 00:04:45 | 49.98533 | 21.50170 | 78° | 29km/h | 16252m | 9.0m/s | 0°C | 0% | 0hPa | 0V | 00:00:00 | 00:00:00 | 00:00:00 | |
| AKAW68 | 2026-08-31 00:04:38 | 49.98504 | 21.50086 | 77° | 31km/h | 16203m | 4.7m/s | 0°C | 0% | 0hPa | 0V | 00:00:00 | 00:00:00 | 00:00:00 | |
| SQ9EZE-12 | 2026-08-31 00:04:36 | 49.98500 | 21.50063 | 66° | 29km/h | 16192m | 5.9m/s | 0°C | 0% | 0hPa | 0V | 00:00:00 | 00:00:00 | 00:00:00 | |
| SQ9PSP-11 | 2026-08-31 00:04:30 | 49.98485 | 21.50038 | 59° | 22km/h | 16161m | 3.5m/s | 0°C | 0% | 0hPa | 0V | 00:00:00 | 00:00:00 | 00:00:00 | |
| MIELECB | 2026-08-31 00:04:25 | 49.98476 | 21.49997 | 80° | 26km/h | 16136m | 5.7m/s | 0°C | 0% | 0hPa | 0V | 00:00:00 | 00:00:00 | 00:00:00 | |
| MIELECB | 2026-08-31 00:04:20 | 49.98460 | 21.49965 | 24° | 22km/h | 16110m | 3.5m/s | 0°C | 0% | 0hPa | 0V | 00:00:00 | 00:00:00 | 00:00:00 | |
| AKAW682 | 2026-08-31 00:04:16 | 49.98438 | 21.49932 | 100° | 29km/h | 16084m | 5.7m/s | 0°C | 0% | 0hPa | 0V | 00:00:00 | 00:00:00 | 00:00:00 | |
| AKAW68 | 2026-08-31 00:04:15 | 49.98438 | 21.49932 | 100° | 29km/h | 16084m | 5.7m/s | 0°C | 0% | 0hPa | 0V | 00:00:00 | 00:00:00 | 00:00:00 | |
| SQ9EZE-12 | 2026-08-31 00:04:11 | 49.98436 | 21.49901 | 32° | 22km/h | 16063m | 6.4m/s | 0°C | 0% | 0hPa | 0V | 00:00:00 | 00:00:00 | 00:00:00 | |
| MIELECB | 2026-08-31 00:04:03 | 49.98404 | 21.49854 | 92° | 7km/h | 16015m | 7.6m/s | 0°C | 0% | 0hPa | 0V | 00:00:00 | 00:00:00 | 00:00:00 | |
| MIELECB | 2026-08-31 00:03:58 | 49.98389 | 21.49834 | 7° | 20km/h | 15987m | 5.2m/s | 0°C | 0% | 0hPa | 0V | 00:00:00 | 00:00:00 | 00:00:00 | |
| AKAW68 | 2026-08-31 00:03:55 | 49.98381 | 21.49830 | 52° | 13km/h | 15977m | 8.3m/s | 0°C | 0% | 0hPa | 0V | 00:00:00 | 00:00:00 | 00:00:00 | |
| AKAW682 | 2026-08-31 00:03:54 | 49.98380 | 21.49824 | 81° | 24km/h | 15969m | 8.3m/s | 0°C | 0% | 0hPa | 0V | 00:00:00 | 00:00:00 | 00:00:00 | |
| MIELECB | 2026-08-31 00:03:52 | 49.98379 | 21.49806 | 99° | 24km/h | 15956m | 5.9m/s | 0°C | 0% | 0hPa | 0V | 00:00:00 | 00:00:00 | 00:00:00 | |
| MIELECB | 2026-08-31 00:03:46 | 49.98386 | 21.49761 | 96° | 24km/h | 15926m | 3.7m/s | 0°C | 0% | 0hPa | 0V | 00:00:00 | 00:00:00 | 00:00:00 | |
| SQ9PSP-11 | 2026-08-31 00:03:43 | 49.98388 | 21.49731 | 88° | 20km/h | 15911m | 2.6m/s | 0°C | 0% | 0hPa | 0V | 00:00:00 | 00:00:00 | 00:00:00 | |
| MIELECB | 2026-08-31 00:03:41 | 49.98387 | 21.49725 | 90° | 15km/h | 15907m | 5.7m/s | 0°C | 0% | 0hPa | 0V | 00:00:00 | 00:00:00 | 00:00:00 | |
| SQ9EZE-12 | 2026-08-31 00:03:34 | 49.98385 | 21.49681 | 99° | 18km/h | 15876m | 4.4m/s | 0°C | 0% | 0hPa | 0V | 00:00:00 | 00:00:00 | 00:00:00 | |
| AKAW682 | 2026-08-31 00:03:33 | 49.98386 | 21.49673 | 114° | 20km/h | 15872m | 5.7m/s | 0°C | 0% | 0hPa | 0V | 00:00:00 | 00:00:00 | 00:00:00 | |
| MIELECB | 2026-08-31 00:03:32 | 49.98388 | 21.49657 | 60° | 9km/h | 15858m | 3.3m/s | 0°C | 0% | 0hPa | 0V | 00:00:00 | 00:00:00 | 00:00:00 | |
| SQ9PSP-11 | 2026-08-31 00:03:27 | 49.98381 | 21.49637 | 79° | 11km/h | 15842m | 5.2m/s | 0°C | 0% | 0hPa | 0V | 00:00:00 | 00:00:00 | 00:00:00 | |
| MIELECB | 2026-08-31 00:03:24 | 49.98380 | 21.49630 | 74° | 9km/h | 15832m | 4.5m/s | 0°C | 0% | 0hPa | 0V | 00:00:00 | 00:00:00 | 00:00:00 | |
| MIELECB | 2026-08-31 00:03:20 | 49.98377 | 21.49592 | 69° | 22km/h | 15805m | 4.9m/s | 0°C | 0% | 0hPa | 0V | 00:00:00 | 00:00:00 | 00:00:00 | |
| AKAW68 | 2026-08-31 00:03:16 | 49.98369 | 21.49568 | 98° | 11km/h | 15786m | 4.2m/s | 0°C | 0% | 0hPa | 0V | 00:00:00 | 00:00:00 | 00:00:00 | |
| MIELECB | 2026-08-31 00:03:15 | 49.98370 | 21.49564 | 101° | 15km/h | 15780m | 7.2m/s | 0°C | 0% | 0hPa | 0V | 00:00:00 | 00:00:00 | 00:00:00 | |
| AKAW682 | 2026-08-31 00:03:14 | 49.98371 | 21.49557 | 107° | 20km/h | 15775m | 4.6m/s | 0°C | 0% | 0hPa | 0V | 00:00:00 | 00:00:00 | 00:00:00 | |
| SQ9PSP-11 | 2026-08-31 00:03:13 | 49.98372 | 21.49550 | 103° | 18km/h | 15770m | 5.1m/s | 0°C | 0% | 0hPa | 0V | 00:00:00 | 00:00:00 | 00:00:00 | |
| SQ9EZE-12 | 2026-08-31 00:03:11 | 49.98372 | 21.49528 | 72° | 24km/h | 15756m | 6.0m/s | 0°C | 0% | 0hPa | 0V | 00:00:00 | 00:00:00 | 00:00:00 | |
| MIELECB | 2026-08-31 00:03:09 | 49.98370 | 21.49518 | 77° | 27km/h | 15751m | 3.1m/s | 0°C | 0% | 0hPa | 0V | 00:00:00 | 00:00:00 | 00:00:00 | |
| AKAW68 | 2026-08-31 00:02:50 | 49.98421 | 21.48906 | 83° | 33km/h | 15497m | 5.2m/s | 0°C | 0% | 0hPa | 0V | 00:00:00 | 00:00:00 | 00:00:00 | |
| AKAW682 | 2026-08-31 00:02:47 | 49.98419 | 21.48878 | 80° | 37km/h | 15489m | 4.4m/s | 0°C | 0% | 0hPa | 0V | 00:00:00 | 00:00:00 | 00:00:00 | |
| SQ9PSP-11 | 2026-08-31 00:02:41 | 49.98414 | 21.48831 | 85° | 44km/h | 15476m | 6.8m/s | 0°C | 0% | 0hPa | 0V | 00:00:00 | 00:00:00 | 00:00:00 | |
| SQ9EZE-12 | 2026-08-31 00:02:39 | 49.98412 | 21.48812 | 83° | 49km/h | 15470m | 5.9m/s | 0°C | 0% | 0hPa | 0V | 00:00:00 | 00:00:00 | 00:00:00 | |
| MIELECB | 2026-08-31 00:02:36 | 49.98410 | 21.48775 | 84° | 40km/h | 15459m | 5.9m/s | 0°C | 0% | 0hPa | 0V | 00:00:00 | 00:00:00 | 00:00:00 | |
| MIELECB | 2026-08-31 00:02:30 | 49.98406 | 21.48686 | 100° | 40km/h | 15431m | 5.0m/s | 0°C | 0% | 0hPa | 0V | 00:00:00 | 00:00:00 | 00:00:00 | |
| MIELECB | 2026-08-31 00:02:22 | 49.98406 | 21.48601 | 86° | 40km/h | 15407m | 4.6m/s | 0°C | 0% | 0hPa | 0V | 00:00:00 | 00:00:00 | 00:00:00 | |
| AKAW68 | 2026-08-31 00:02:21 | 49.98405 | 21.48585 | 86° | 40km/h | 15404m | 3.9m/s | 0°C | 0% | 0hPa | 0V | 00:00:00 | 00:00:00 | 00:00:00 | |
| AKAW682 | 2026-08-31 00:02:15 | 49.98406 | 21.48537 | 99° | 44km/h | 15388m | 6.3m/s | 0°C | 0% | 0hPa | 0V | 00:00:00 | 00:00:00 | 00:00:00 | |
| MIELECB | 2026-08-31 00:02:13 | 49.98409 | 21.48504 | 96° | 46km/h | 15381m | 4.5m/s | 0°C | 0% | 0hPa | 0V | 00:00:00 | 00:00:00 | 00:00:00 | |
| MIELECB | 2026-08-31 00:02:08 | 49.98400 | 21.48412 | 89° | 44km/h | 15358m | 3.5m/s | 0°C | 0% | 0hPa | 0V | 00:00:00 | 00:00:00 | 00:00:00 | |
| MIELECB | 2026-08-31 00:01:59 | 49.98398 | 21.48304 | 85° | 49km/h | 15327m | 3.5m/s | 0°C | 0% | 0hPa | 0V | 00:00:00 | 00:00:00 | 00:00:00 | |
| SQ9PSP-11 | 2026-08-31 00:01:58 | 49.98398 | 21.48304 | 85° | 49km/h | 15327m | 3.5m/s | 0°C | 0% | 0hPa | 0V | 00:00:00 | 00:00:00 | 00:00:00 | |
| AKAW68 | 2026-08-31 00:01:51 | 49.98392 | 21.48211 | 90° | 53km/h | 15308m | 6.2m/s | 0°C | 0% | 0hPa | 0V | 00:00:00 | 00:00:00 | 00:00:00 | |
| MIELECB | 2026-08-31 00:01:50 | 49.98392 | 21.48211 | 90° | 53km/h | 15308m | 6.2m/s | 0°C | 0% | 0hPa | 0V | 00:00:00 | 00:00:00 | 00:00:00 | |
| AKAW682 | 2026-08-31 00:01:46 | 49.98391 | 21.48169 | 93° | 51km/h | 15298m | 4.3m/s | 0°C | 0% | 0hPa | 0V | 00:00:00 | 00:00:00 | 00:00:00 | |
| MIELECB | 2026-08-31 00:01:41 | 49.98389 | 21.48110 | 80° | 55km/h | 15285m | 5.6m/s | 0°C | 0% | 0hPa | 0V | 00:00:00 | 00:00:00 | 00:00:00 | |
| MIELECB | 2026-08-31 00:01:33 | 49.98388 | 21.47986 | 90° | 53km/h | 15258m | 5.8m/s | 0°C | 0% | 0hPa | 0V | 00:00:00 | 00:00:00 | 00:00:00 | |
| SQ9EZE-12 | 2026-08-31 00:01:30 | 49.98386 | 21.47947 | 86° | 53km/h | 15248m | 4.3m/s | 0°C | 0% | 0hPa | 0V | 00:00:00 | 00:00:00 | 00:00:00 | |
| MIELECB | 2026-08-31 00:01:26 | 49.98382 | 21.47880 | 93° | 58km/h | 15234m | 6.6m/s | 0°C | 0% | 0hPa | 0V | 00:00:00 | 00:00:00 | 00:00:00 | |
| AKAW682 | 2026-08-31 00:01:19 | 49.98388 | 21.47747 | 94° | 57km/h | 15207m | 5.5m/s | 0°C | 0% | 0hPa | 0V | 00:00:00 | 00:00:00 | 00:00:00 | |
| MIELECB | 2026-08-31 00:01:12 | 49.98380 | 21.47637 | 84° | 55km/h | 15181m | 3.6m/s | 0°C | 0% | 0hPa | 0V | 00:00:00 | 00:00:00 | 00:00:00 | |
| SQ9EZE-12 | 2026-08-31 00:01:11 | 49.98377 | 21.47614 | 81° | 57km/h | 15178m | 3.9m/s | 0°C | 0% | 0hPa | 0V | 00:00:00 | 00:00:00 | 00:00:00 | |
| MIELECB | 2026-08-31 00:01:06 | 49.98376 | 21.47495 | 93° | 60km/h | 15156m | 5.6m/s | 0°C | 0% | 0hPa | 0V | 00:00:00 | 00:00:00 | 00:00:00 | |
| MIELECB | 2026-08-31 00:00:56 | 49.98359 | 21.47368 | 79° | 57km/h | 15133m | 4.0m/s | 0°C | 0% | 0hPa | 0V | 00:00:00 | 00:00:00 | 00:00:00 | |
| AKAW68 | 2026-08-31 00:00:53 | 49.98351 | 21.47301 | 85° | 57km/h | 15121m | 6.1m/s | 0°C | 0% | 0hPa | 0V | 00:00:00 | 00:00:00 | 00:00:00 | |
| SQ9PSP-11 | 2026-08-31 00:00:52 | 49.98350 | 21.47280 | 86° | 55km/h | 15116m | 4.7m/s | 0°C | 0% | 0hPa | 0V | 00:00:00 | 00:00:00 | 00:00:00 | |
| MIELECB | 2026-08-31 00:00:49 | 49.98348 | 21.47258 | 84° | 57km/h | 15111m | 6.6m/s | 0°C | 0% | 0hPa | 0V | 00:00:00 | 00:00:00 | 00:00:00 | |
| MIELECB | 2026-08-31 00:00:45 | 49.98323 | 21.47124 | 78° | 64km/h | 15080m | 3.6m/s | 0°C | 0% | 0hPa | 0V | 00:00:00 | 00:00:00 | 00:00:00 | |
| MIELECB | 2026-08-31 00:00:41 | 49.98314 | 21.47014 | 83° | 60km/h | 15058m | 4.7m/s | 0°C | 0% | 0hPa | 0V | 00:00:00 | 00:00:00 | 00:00:00 | |
| SQ9PSP-11 | 2026-08-31 00:00:36 | 49.98304 | 21.46952 | 73° | 51km/h | 15045m | 4.5m/s | 0°C | 0% | 0hPa | 0V | 00:00:00 | 00:00:00 | 00:00:00 | |
| MIELECB | 2026-08-31 00:00:34 | 49.98292 | 21.46892 | 75° | 57km/h | 15031m | 3.5m/s | 0°C | 0% | 0hPa | 0V | 00:00:00 | 00:00:00 | 00:00:00 | |
| AKAW68 | 2026-08-31 00:00:33 | 49.98289 | 21.46873 | 78° | 51km/h | 15026m | 4.6m/s | 0°C | 0% | 0hPa | 0V | 00:00:00 | 00:00:00 | 00:00:00 | |
| MIELECB | 2026-08-31 00:00:23 | 49.98267 | 21.46660 | 86° | 44km/h | 14976m | 4.7m/s | 0°C | 0% | 0hPa | 0V | 00:00:00 | 00:00:00 | 00:00:00 | |
| SQ9PSP-11 | 2026-08-31 00:00:22 | 49.98265 | 21.46642 | 84° | 49km/h | 14971m | 7.0m/s | 0°C | 0% | 0hPa | 0V | 00:00:00 | 00:00:00 | 00:00:00 | |
| MIELECB | 2026-08-31 00:00:14 | 49.98256 | 21.46552 | 73° | 44km/h | 14947m | 4.9m/s | 0°C | 0% | 0hPa | 0V | 00:00:00 | 00:00:00 | 00:00:00 | |
| AKAW68 | 2026-08-31 00:00:13 | 49.98248 | 21.46505 | 83° | 35km/h | 14936m | 2.9m/s | 0°C | 0% | 0hPa | 0V | 00:00:00 | 00:00:00 | 00:00:00 | |
| MIELECB | 2026-08-31 00:00:10 | 49.98244 | 21.46461 | 86° | 40km/h | 14922m | 5.3m/s | 0°C | 0% | 0hPa | 0V | 00:00:00 | 00:00:00 | 00:00:00 | |
| MIELECB | 2026-08-31 00:00:01 | 49.98241 | 21.46370 | 94° | 38km/h | 14890m | 4.8m/s | 0°C | 0% | 0hPa | 0V | 00:00:00 | 00:00:00 | 00:00:00 | |
| MIELECB | 2026-08-30 23:59:56 | 49.98244 | 21.46290 | 99° | 38km/h | 14868m | 4.4m/s | 0°C | 0% | 0hPa | 0V | 00:00:00 | 00:00:00 | 00:00:00 | |
| MIELECB | 2026-08-30 23:59:51 | 49.98249 | 21.46217 | 98° | 40km/h | 14844m | 3.6m/s | 0°C | 0% | 0hPa | 0V | 00:00:00 | 00:00:00 | 00:00:00 | |
| AKAW68 | 2026-08-30 23:59:50 | 49.98250 | 21.46201 | 93° | 44km/h | 14840m | 4.8m/s | 0°C | 0% | 0hPa | 0V | 00:00:00 | 00:00:00 | 00:00:00 | |
| SQ9PSP-11 | 2026-08-30 23:59:47 | 49.98252 | 21.46152 | 100° | 42km/h | 14826m | 4.6m/s | 0°C | 0% | 0hPa | 0V | 00:00:00 | 00:00:00 | 00:00:00 | |
| MIELECB | 2026-08-30 23:59:46 | 49.98256 | 21.46119 | 97° | 47km/h | 14815m | 4.7m/s | 0°C | 0% | 0hPa | 0V | 00:00:00 | 00:00:00 | 00:00:00 | |
| AKAW682 | 2026-08-30 23:59:43 | 49.98259 | 21.46083 | 101° | 46km/h | 14807m | 4.3m/s | 0°C | 0% | 0hPa | 0V | 00:00:00 | 00:00:00 | 00:00:00 | |
| MIELECB | 2026-08-30 23:59:40 | 49.98266 | 21.46034 | 102° | 46km/h | 14792m | 5.8m/s | 0°C | 0% | 0hPa | 0V | 00:00:00 | 00:00:00 | 00:00:00 | |
| MIELECB | 2026-08-30 23:59:34 | 49.98282 | 21.45932 | 105° | 46km/h | 14765m | 4.0m/s | 0°C | 0% | 0hPa | 0V | 00:00:00 | 00:00:00 | 00:00:00 | |
| SQ9PSP-11 | 2026-08-30 23:59:31 | 49.98290 | 21.45878 | 102° | 51km/h | 14750m | 6.6m/s | 0°C | 0% | 0hPa | 0V | 00:00:00 | 00:00:00 | 00:00:00 | |
| AKAW68 | 2026-08-30 23:59:29 | 49.98295 | 21.45840 | 103° | 44km/h | 14740m | 5.6m/s | 0°C | 0% | 0hPa | 0V | 00:00:00 | 00:00:00 | 00:00:00 | |
| MIELECB | 2026-08-30 23:59:28 | 49.98298 | 21.45824 | 106° | 38km/h | 14735m | 4.8m/s | 0°C | 0% | 0hPa | 0V | 00:00:00 | 00:00:00 | 00:00:00 | |
| AKAW682 | 2026-08-30 23:59:23 | 49.98314 | 21.45737 | 110° | 55km/h | 14713m | 4.1m/s | 0°C | 0% | 0hPa | 0V | 00:00:00 | 00:00:00 | 00:00:00 | |
| MIELECB | 2026-08-30 23:59:22 | 49.98317 | 21.45717 | 107° | 57km/h | 14709m | 5.7m/s | 0°C | 0% | 0hPa | 0V | 00:00:00 | 00:00:00 | 00:00:00 | |
| SQ9PSP-11 | 2026-08-30 23:59:16 | 49.98336 | 21.45602 | 104° | 49km/h | 14679m | 4.1m/s | 0°C | 0% | 0hPa | 0V | 00:00:00 | 00:00:00 | 00:00:00 | |
| MIELECB | 2026-08-30 23:59:15 | 49.98340 | 21.45583 | 106° | 57km/h | 14675m | 4.5m/s | 0°C | 0% | 0hPa | 0V | 00:00:00 | 00:00:00 | 00:00:00 | |
| AKAW68 | 2026-08-30 23:59:09 | 49.98364 | 21.45455 | 107° | 49km/h | 14644m | 4.8m/s | 0°C | 0% | 0hPa | 0V | 00:00:00 | 00:00:00 | 00:00:00 | |
| MIELECB | 2026-08-30 23:59:03 | 49.98385 | 21.45331 | 110° | 64km/h | 14613m | 5.2m/s | 0°C | 0% | 0hPa | 0V | 00:00:00 | 00:00:00 | 00:00:00 | |
| AKAW682 | 2026-08-30 23:59:01 | 49.98393 | 21.45284 | 102° | 60km/h | 14604m | 4.1m/s | 0°C | 0% | 0hPa | 0V | 00:00:00 | 00:00:00 | 00:00:00 | |
| SQ9PSP-11 | 2026-08-30 23:59:00 | 49.98397 | 21.45262 | 104° | 57km/h | 14600m | 5.7m/s | 0°C | 0% | 0hPa | 0V | 00:00:00 | 00:00:00 | 00:00:00 | |
| MIELECB | 2026-08-30 23:58:52 | 49.98420 | 21.45080 | 99° | 64km/h | 14561m | 6.7m/s | 0°C | 0% | 0hPa | 0V | 00:00:00 | 00:00:00 | 00:00:00 | |
| AKAW68 | 2026-08-30 23:58:49 | 49.98425 | 21.45006 | 95° | 64km/h | 14547m | 3.7m/s | 0°C | 0% | 0hPa | 0V | 00:00:00 | 00:00:00 | 00:00:00 | |
| MIELECB | 2026-08-30 23:58:46 | 49.98427 | 21.44931 | 94° | 71km/h | 14533m | 5.5m/s | 0°C | 0% | 0hPa | 0V | 00:00:00 | 00:00:00 | 00:00:00 | |
| SQ9PSP-11 | 2026-08-30 23:58:45 | 49.98430 | 21.44904 | 101° | 71km/h | 14529m | 6.3m/s | 0°C | 0% | 0hPa | 0V | 00:00:00 | 00:00:00 | 00:00:00 | |
| AKAW682 | 2026-08-30 23:58:41 | 49.98440 | 21.44799 | 97° | 64km/h | 14508m | 5.8m/s | 0°C | 0% | 0hPa | 0V | 00:00:00 | 00:00:00 | 00:00:00 | |
| MIELECB | 2026-08-30 23:58:40 | 49.98442 | 21.44774 | 96° | 62km/h | 14503m | 5.6m/s | 0°C | 0% | 0hPa | 0V | 00:00:00 | 00:00:00 | 00:00:00 | |
| MIELECB | 2026-08-30 23:58:35 | 49.98446 | 21.44635 | 94° | 73km/h | 14479m | 6.8m/s | 0°C | 0% | 0hPa | 0V | 00:00:00 | 00:00:00 | 00:00:00 | |
| SQ9PSP-11 | 2026-08-30 23:58:29 | 49.98466 | 21.44488 | 95° | 60km/h | 14450m | 4.3m/s | 0°C | 0% | 0hPa | 0V | 00:00:00 | 00:00:00 | 00:00:00 | |
| AKAW68 | 2026-08-30 23:58:28 | 49.98467 | 21.44462 | 94° | 66km/h | 14444m | 8.2m/s | 0°C | 0% | 0hPa | 0V | 00:00:00 | 00:00:00 | 00:00:00 | |
| MIELECB | 2026-08-30 23:58:27 | 49.98468 | 21.44435 | 99° | 69km/h | 14438m | 5.1m/s | 0°C | 0% | 0hPa | 0V | 00:00:00 | 00:00:00 | 00:00:00 | |
| MIELECB | 2026-08-30 23:58:21 | 49.98489 | 21.44281 | 102° | 60km/h | 14404m | 5.3m/s | 0°C | 0% | 0hPa | 0V | 00:00:00 | 00:00:00 | 00:00:00 | |
| AKAW682 | 2026-08-30 23:58:20 | 49.98491 | 21.44258 | 100° | 62km/h | 14399m | 4.5m/s | 0°C | 0% | 0hPa | 0V | 00:00:00 | 00:00:00 | 00:00:00 | |
| SQ9PSP-11 | 2026-08-30 23:58:14 | 49.98512 | 21.44101 | 108° | 68km/h | 14363m | 4.8m/s | 0°C | 0% | 0hPa | 0V | 00:00:00 | 00:00:00 | 00:00:00 | |
| MIELECB | 2026-08-30 23:58:10 | 49.98527 | 21.44002 | 103° | 66km/h | 14341m | 6.4m/s | 0°C | 0% | 0hPa | 0V | 00:00:00 | 00:00:00 | 00:00:00 | |
| AKAW68 | 2026-08-30 23:58:07 | 49.98537 | 21.43924 | 99° | 62km/h | 14329m | 5.3m/s | 0°C | 0% | 0hPa | 0V | 00:00:00 | 00:00:00 | 00:00:00 | |
| MIELECB | 2026-08-30 23:58:04 | 49.98545 | 21.43853 | 103° | 68km/h | 14310m | 5.7m/s | 0°C | 0% | 0hPa | 0V | 00:00:00 | 00:00:00 | 00:00:00 | |
| MIELECB | 2026-08-30 23:57:59 | 49.98558 | 21.43723 | 99° | 77km/h | 14283m | 5.4m/s | 0°C | 0% | 0hPa | 0V | 00:00:00 | 00:00:00 | 00:00:00 | |
| MIELECB | 2026-08-30 23:57:54 | 49.98563 | 21.43584 | 92° | 69km/h | 14254m | 6.3m/s | 0°C | 0% | 0hPa | 0V | 00:00:00 | 00:00:00 | 00:00:00 | |
| MIELECB | 2026-08-30 23:57:48 | 49.98568 | 21.43413 | 95° | 77km/h | 14223m | 6.3m/s | 0°C | 0% | 0hPa | 0V | 00:00:00 | 00:00:00 | 00:00:00 | |
| AKAW68 | 2026-08-30 23:57:46 | 49.98569 | 21.43353 | 88° | 77km/h | 14210m | 6.6m/s | 0°C | 0% | 0hPa | 0V | 00:00:00 | 00:00:00 | 00:00:00 | |
| SQ9PSP-11 | 2026-08-30 23:57:44 | 49.98568 | 21.43295 | 89° | 73km/h | 14202m | 4.5m/s | 0°C | 0% | 0hPa | 0V | 00:00:00 | 00:00:00 | 00:00:00 | |
| MIELECB | 2026-08-30 23:57:42 | 49.98566 | 21.43234 | 86° | 84km/h | 14190m | 5.6m/s | 0°C | 0% | 0hPa | 0V | 00:00:00 | 00:00:00 | 00:00:00 | |
| MIELECB | 2026-08-30 23:57:37 | 49.98568 | 21.43083 | 94° | 75km/h | 14160m | 6.1m/s | 0°C | 0% | 0hPa | 0V | 00:00:00 | 00:00:00 | 00:00:00 | |
| AKAW682 | 2026-08-30 23:57:36 | 49.98569 | 21.43055 | 95° | 71km/h | 14156m | 3.2m/s | 0°C | 0% | 0hPa | 0V | 00:00:00 | 00:00:00 | 00:00:00 | |
| MIELECB | 2026-08-30 23:57:32 | 49.98569 | 21.42944 | 87° | 71km/h | 14136m | 6.9m/s | 0°C | 0% | 0hPa | 0V | 00:00:00 | 00:00:00 | 00:00:00 | |
| SQ9PSP-11 | 2026-08-30 23:57:28 | 49.98566 | 21.42831 | 90° | 75km/h | 14113m | 6.1m/s | 0°C | 0% | 0hPa | 0V | 00:00:00 | 00:00:00 | 00:00:00 | |
| AKAW68 | 2026-08-30 23:57:26 | 49.98566 | 21.42777 | 94° | 66km/h | 14102m | 5.4m/s | 0°C | 0% | 0hPa | 0V | 00:00:00 | 00:00:00 | 00:00:00 | |
| MIELECB | 2026-08-30 23:57:21 | 49.98566 | 21.42649 | 90° | 62km/h | 14077m | 6.6m/s | 0°C | 0% | 0hPa | 0V | 00:00:00 | 00:00:00 | 00:00:00 | |
| MIELECB | 2026-08-30 23:57:16 | 49.98569 | 21.42518 | 96° | 69km/h | 14049m | 7.4m/s | 0°C | 0% | 0hPa | 0V | 00:00:00 | 00:00:00 | 00:00:00 | |
| AKAW682 | 2026-08-30 23:57:15 | 49.98571 | 21.42489 | 94° | 78km/h | 14045m | 4.5m/s | 0°C | 0% | 0hPa | 0V | 00:00:00 | 00:00:00 | 00:00:00 | |
| SQ9PSP-11 | 2026-08-30 23:57:13 | 49.98574 | 21.42402 | 93° | 69km/h | 14034m | 3.3m/s | 0°C | 0% | 0hPa | 0V | 00:00:00 | 00:00:00 | 00:00:00 | |
| MIELECB | 2026-08-30 23:57:10 | 49.98574 | 21.42342 | 86° | 77km/h | 14021m | 6.3m/s | 0°C | 0% | 0hPa | 0V | 00:00:00 | 00:00:00 | 00:00:00 | |
| MIELECB | 2026-08-30 23:57:05 | 49.98564 | 21.42195 | 86° | 75km/h | 13989m | 7.0m/s | 0°C | 0% | 0hPa | 0V | 00:00:00 | 00:00:00 | 00:00:00 | |
| SQ9EZE-12 | 2026-08-30 23:57:03 | 49.98562 | 21.42139 | 88° | 69km/h | 13979m | 6.9m/s | 0°C | 0% | 0hPa | 0V | 00:00:00 | 00:00:00 | 00:00:00 | |
| MIELECB | 2026-08-30 23:57:00 | 49.98564 | 21.42056 | 92° | 73km/h | 13963m | 6.2m/s | 0°C | 0% | 0hPa | 0V | 00:00:00 | 00:00:00 | 00:00:00 | |
| SQ9PSP-11 | 2026-08-30 23:56:56 | 49.98563 | 21.41950 | 95° | 62km/h | 13937m | 7.8m/s | 0°C | 0% | 0hPa | 0V | 00:00:00 | 00:00:00 | 00:00:00 | |
| MIELECB | 2026-08-30 23:56:54 | 49.98567 | 21.41899 | 96° | 68km/h | 13924m | 4.7m/s | 0°C | 0% | 0hPa | 0V | 00:00:00 | 00:00:00 | 00:00:00 | |
| AKAW682 | 2026-08-30 23:56:53 | 49.98569 | 21.41873 | 97° | 62km/h | 13918m | 6.4m/s | 0°C | 0% | 0hPa | 0V | 00:00:00 | 00:00:00 | 00:00:00 | |
| SQ9EZE-12 | 2026-08-30 23:56:48 | 49.98573 | 21.41751 | 90° | 58km/h | 13889m | 4.3m/s | 0°C | 0% | 0hPa | 0V | 00:00:00 | 00:00:00 | 00:00:00 | |
| AKAW68 | 2026-08-30 23:56:45 | 49.98574 | 21.41682 | 96° | 58km/h | 13874m | 5.9m/s | 0°C | 0% | 0hPa | 0V | 00:00:00 | 00:00:00 | 00:00:00 | |
| MIELECB | 2026-08-30 23:56:42 | 49.98580 | 21.41611 | 98° | 69km/h | 13857m | 2.8m/s | 0°C | 0% | 0hPa | 0V | 00:00:00 | 00:00:00 | 00:00:00 | |
| SQ9PSP-11 | 2026-08-30 23:56:41 | 49.98582 | 21.41584 | 97° | 71km/h | 13853m | 5.9m/s | 0°C | 0% | 0hPa | 0V | 00:00:00 | 00:00:00 | 00:00:00 | |
| MIELECB | 2026-08-30 23:56:37 | 49.98590 | 21.41490 | 104° | 55km/h | 13831m | 6.4m/s | 0°C | 0% | 0hPa | 0V | 00:00:00 | 00:00:00 | 00:00:00 | |
| MIELECB | 2026-08-30 23:56:32 | 49.98603 | 21.41377 | 104° | 66km/h | 13804m | 6.3m/s | 0°C | 0% | 0hPa | 0V | 00:00:00 | 00:00:00 | 00:00:00 | |
| MIELECB | 2026-08-30 23:56:25 | 49.98625 | 21.41211 | 100° | 75km/h | 13764m | 7.1m/s | 0°C | 0% | 0hPa | 0V | 00:00:00 | 00:00:00 | 00:00:00 | |
| AKAW68 | 2026-08-30 23:56:24 | 49.98629 | 21.41181 | 103° | 82km/h | 13759m | 3.9m/s | 0°C | 0% | 0hPa | 0V | 00:00:00 | 00:00:00 | 00:00:00 | |
| SQ9EZE-12 | 2026-08-30 23:56:16 | 49.98668 | 21.40972 | 112° | 71km/h | 13712m | 3.7m/s | 0°C | 0% | 0hPa | 0V | 00:00:00 | 00:00:00 | 00:00:00 | |
| AKAW682 | 2026-08-30 23:56:12 | 49.98692 | 21.40859 | 107° | 77km/h | 13687m | 9.5m/s | 0°C | 0% | 0hPa | 0V | 00:00:00 | 00:00:00 | 00:00:00 | |
| SQ9PSP-11 | 2026-08-30 23:56:09 | 49.98708 | 21.40775 | 102° | 75km/h | 13671m | 5.3m/s | 0°C | 0% | 0hPa | 0V | 00:00:00 | 00:00:00 | 00:00:00 | |
| AKAW68 | 2026-08-30 23:56:03 | 49.98738 | 21.40603 | 106° | 77km/h | 13639m | 7.6m/s | 0°C | 0% | 0hPa | 0V | 00:00:00 | 00:00:00 | 00:00:00 | |
| SQ9EZE-12 | 2026-08-30 23:56:00 | 49.98753 | 21.40510 | 103° | 84km/h | 13623m | 6.4m/s | 0°C | 0% | 0hPa | 0V | 00:00:00 | 00:00:00 | 00:00:00 | |
| SQ9PSP-11 | 2026-08-30 23:55:53 | 49.98778 | 21.40295 | 101° | 77km/h | 13584m | 4.9m/s | 0°C | 0% | 0hPa | 0V | 00:00:00 | 00:00:00 | 00:00:00 | |
| AKAW682 | 2026-08-30 23:55:51 | 49.98783 | 21.40234 | 97° | 82km/h | 13574m | 4.1m/s | 0°C | 0% | 0hPa | 0V | 00:00:00 | 00:00:00 | 00:00:00 | |
| AKAW68 | 2026-08-30 23:55:42 | 49.98810 | 21.39979 | 97° | 73km/h | 13519m | 3.4m/s | 0°C | 0% | 0hPa | 0V | 00:00:00 | 00:00:00 | 00:00:00 | |
| SQ9EZE-12 | 2026-08-30 23:55:41 | 49.98813 | 21.39951 | 101° | 71km/h | 13515m | 6.7m/s | 0°C | 0% | 0hPa | 0V | 00:00:00 | 00:00:00 | 00:00:00 | |
| SQ9PSP-11 | 2026-08-30 23:55:38 | 49.98824 | 21.39868 | 102° | 77km/h | 13500m | 7.3m/s | 0°C | 0% | 0hPa | 0V | 00:00:00 | 00:00:00 | 00:00:00 | |
| AKAW682 | 2026-08-30 23:55:31 | 49.98843 | 21.39672 | 101° | 69km/h | 13462m | 9.5m/s | 0°C | 0% | 0hPa | 0V | 00:00:00 | 00:00:00 | 00:00:00 | |
| SQ9EZE-12 | 2026-08-30 23:55:26 | 49.98859 | 21.39534 | 98° | 71km/h | 13429m | 4.3m/s | 0°C | 0% | 0hPa | 0V | 00:00:00 | 00:00:00 | 00:00:00 | |
| AKAW68 | 2026-08-30 23:55:22 | 49.98866 | 21.39423 | 96° | 69km/h | 13409m | 5.0m/s | 0°C | 0% | 0hPa | 0V | 00:00:00 | 00:00:00 | 00:00:00 | |
| AKAW682 | 2026-08-30 23:55:10 | 49.98890 | 21.39080 | 95° | 78km/h | 13337m | 5.9m/s | 0°C | 0% | 0hPa | 0V | 00:00:00 | 00:00:00 | 00:00:00 | |
| SQ9PSP-11 | 2026-08-30 23:55:06 | 49.98897 | 21.38961 | 102° | 68km/h | 13316m | 5.9m/s | 0°C | 0% | 0hPa | 0V | 00:00:00 | 00:00:00 | 00:00:00 | |
| AKAW68 | 2026-08-30 23:55:01 | 49.98903 | 21.38832 | 95° | 75km/h | 13287m | 5.4m/s | 0°C | 0% | 0hPa | 0V | 00:00:00 | 00:00:00 | 00:00:00 | |
| SQ9PSP-11 | 2026-08-30 23:54:51 | 49.98912 | 21.38576 | 94° | 58km/h | 13234m | 6.1m/s | 0°C | 0% | 0hPa | 0V | 00:00:00 | 00:00:00 | 00:00:00 | |
| AKAW682 | 2026-08-30 23:54:50 | 49.98913 | 21.38552 | 94° | 64km/h | 13228m | 7.7m/s | 0°C | 0% | 0hPa | 0V | 00:00:00 | 00:00:00 | 00:00:00 | |
| AKAW68 | 2026-08-30 23:54:40 | 49.98926 | 21.38318 | 85° | 62km/h | 13169m | 3.5m/s | 0°C | 0% | 0hPa | 0V | 00:00:00 | 00:00:00 | 00:00:00 | |
| SQ9PSP-11 | 2026-08-30 23:54:36 | 49.98927 | 21.38230 | 105° | 64km/h | 13149m | 5.3m/s | 0°C | 0% | 0hPa | 0V | 00:00:00 | 00:00:00 | 00:00:00 | |
| AKAW682 | 2026-08-30 23:54:29 | 49.98940 | 21.38074 | 94° | 44km/h | 13104m | 8.7m/s | 0°C | 0% | 0hPa | 0V | 00:00:00 | 00:00:00 | 00:00:00 | |
| SQ9PSP-11 | 2026-08-30 23:54:20 | 49.98973 | 21.37878 | 109° | 55km/h | 13054m | 6.8m/s | 0°C | 0% | 0hPa | 0V | 00:00:00 | 00:00:00 | 00:00:00 | |
| SQ9EZE-12 | 2026-08-30 23:54:19 | 49.98978 | 21.37856 | 111° | 62km/h | 13047m | 5.6m/s | 0°C | 0% | 0hPa | 0V | 00:00:00 | 00:00:00 | 00:00:00 | |
| AKAW682 | 2026-08-30 23:54:09 | 49.99021 | 21.37603 | 103° | 69km/h | 12991m | 8.2m/s | 0°C | 0% | 0hPa | 0V | 00:00:00 | 00:00:00 | 00:00:00 | |
| SQ9PSP-11 | 2026-08-30 23:54:05 | 49.99038 | 21.37497 | 100° | 66km/h | 12967m | 7.0m/s | 0°C | 0% | 0hPa | 0V | 00:00:00 | 00:00:00 | 00:00:00 | |
| SQ9EZE-12 | 2026-08-30 23:54:03 | 49.99042 | 21.37450 | 99° | 55km/h | 12954m | 3.6m/s | 0°C | 0% | 0hPa | 0V | 00:00:00 | 00:00:00 | 00:00:00 | |
| AKAW68 | 2026-08-30 23:53:59 | 49.99048 | 21.37356 | 99° | 66km/h | 12937m | 2.8m/s | 0°C | 0% | 0hPa | 0V | 00:00:00 | 00:00:00 | 00:00:00 | |
| SQ9PSP-11 | 2026-08-30 23:53:49 | 49.99084 | 21.37099 | 100° | 62km/h | 12881m | 6.3m/s | 0°C | 0% | 0hPa | 0V | 00:00:00 | 00:00:00 | 00:00:00 | |
| AKAW682 | 2026-08-30 23:53:48 | 49.99086 | 21.37076 | 94° | 60km/h | 12874m | 9.1m/s | 0°C | 0% | 0hPa | 0V | 00:00:00 | 00:00:00 | 00:00:00 | |
| SQ9EZE-12 | 2026-08-30 23:53:45 | 49.99093 | 21.37003 | 108° | 64km/h | 12863m | 7.3m/s | 0°C | 0% | 0hPa | 0V | 00:00:00 | 00:00:00 | 00:00:00 | |
| AKAW68 | 2026-08-30 23:53:38 | 49.99132 | 21.36810 | 100° | 77km/h | 12815m | 6.8m/s | 0°C | 0% | 0hPa | 0V | 00:00:00 | 00:00:00 | 00:00:00 | |
| SQ9PSP-11 | 2026-08-30 23:53:33 | 49.99153 | 21.36664 | 104° | 71km/h | 12787m | 4.2m/s | 0°C | 0% | 0hPa | 0V | 00:00:00 | 00:00:00 | 00:00:00 | |
| SQ9EZE-12 | 2026-08-30 23:53:28 | 49.99174 | 21.36520 | 106° | 80km/h | 12761m | 8.2m/s | 0°C | 0% | 0hPa | 0V | 00:00:00 | 00:00:00 | 00:00:00 | |
| AKAW682 | 2026-08-30 23:53:27 | 49.99179 | 21.36491 | 106° | 73km/h | 12756m | 4.4m/s | 0°C | 0% | 0hPa | 0V | 00:00:00 | 00:00:00 | 00:00:00 | |
| SQ9PSP-11 | 2026-08-30 23:53:18 | 49.99218 | 21.36262 | 98° | 71km/h | 12701m | 5.8m/s | 0°C | 0% | 0hPa | 0V | 00:00:00 | 00:00:00 | 00:00:00 | |
| AKAW682 | 2026-08-30 23:53:06 | 49.99266 | 21.35929 | 109° | 77km/h | 12637m | 5.7m/s | 0°C | 0% | 0hPa | 0V | 00:00:00 | 00:00:00 | 00:00:00 | |
| SQ9PSP-11 | 2026-08-30 23:53:03 | 49.99283 | 21.35845 | 107° | 75km/h | 12623m | 9.3m/s | 0°C | 0% | 0hPa | 0V | 00:00:00 | 00:00:00 | 00:00:00 | |
| MIELECB | 2026-08-30 23:53:02 | 49.99288 | 21.35816 | 108° | 78km/h | 12617m | 4.6m/s | 0°C | 0% | 0hPa | 0V | 00:00:00 | 00:00:00 | 00:00:00 | |
| SQ9EZE-12 | 2026-08-30 23:53:00 | 49.99300 | 21.35761 | 113° | 69km/h | 12601m | 3.8m/s | 0°C | 0% | 0hPa | 0V | 00:00:00 | 00:00:00 | 00:00:00 | |
| MIELECB | 2026-08-30 23:52:51 | 49.99347 | 21.35521 | 113° | 75km/h | 12551m | 5.3m/s | 0°C | 0% | 0hPa | 0V | 00:00:00 | 00:00:00 | 00:00:00 | |
| SQ9PSP-11 | 2026-08-30 23:52:48 | 49.99372 | 21.35444 | 118° | 69km/h | 12532m | 3.0m/s | 0°C | 0% | 0hPa | 0V | 00:00:00 | 00:00:00 | 00:00:00 | |
| AKAW682 | 2026-08-30 23:52:45 | 49.99394 | 21.35366 | 112° | 77km/h | 12514m | 5.0m/s | 0°C | 0% | 0hPa | 0V | 00:00:00 | 00:00:00 | 00:00:00 | |
| MIELECB | 2026-08-30 23:52:43 | 49.99409 | 21.35309 | 113° | 80km/h | 12500m | 5.5m/s | 0°C | 0% | 0hPa | 0V | 00:00:00 | 00:00:00 | 00:00:00 | |
| MIELECB | 2026-08-30 23:52:34 | 49.99482 | 21.35073 | 120° | 80km/h | 12452m | 6.9m/s | 0°C | 0% | 0hPa | 0V | 00:00:00 | 00:00:00 | 00:00:00 | |
| SQ9PSP-11 | 2026-08-30 23:52:32 | 49.99499 | 21.35010 | 110° | 91km/h | 12439m | 5.8m/s | 0°C | 0% | 0hPa | 0V | 00:00:00 | 00:00:00 | 00:00:00 | |
| AKAW682 | 2026-08-30 23:52:26 | 49.99549 | 21.34827 | 117° | 75km/h | 12399m | 7.1m/s | 0°C | 0% | 0hPa | 0V | 00:00:00 | 00:00:00 | 00:00:00 | |
| MIELECB | 2026-08-30 23:52:18 | 49.99609 | 21.34603 | 109° | 88km/h | 12348m | 4.4m/s | 0°C | 0% | 0hPa | 0V | 00:00:00 | 00:00:00 | 00:00:00 | |
| SQ9PSP-11 | 2026-08-30 23:52:17 | 49.99616 | 21.34570 | 112° | 89km/h | 12343m | 6.9m/s | 0°C | 0% | 0hPa | 0V | 00:00:00 | 00:00:00 | 00:00:00 | |
| MIELECB | 2026-08-30 23:52:13 | 49.99655 | 21.34439 | 116° | 89km/h | 12321m | 5.2m/s | 0°C | 0% | 0hPa | 0V | 00:00:00 | 00:00:00 | 00:00:00 | |
| MIELECB | 2026-08-30 23:52:05 | 49.99719 | 21.34176 | 116° | 99km/h | 12279m | 6.9m/s | 0°C | 0% | 0hPa | 0V | 00:00:00 | 00:00:00 | 00:00:00 | |
| AKAW682 | 2026-08-30 23:52:04 | 49.99730 | 21.34141 | 115° | 97km/h | 12274m | 3.5m/s | 0°C | 0% | 0hPa | 0V | 00:00:00 | 00:00:00 | 00:00:00 | |
| SQ9PSP-11 | 2026-08-30 23:52:01 | 49.99754 | 21.34036 | 109° | 97km/h | 12256m | 5.1m/s | 0°C | 0% | 0hPa | 0V | 00:00:00 | 00:00:00 | 00:00:00 | |
| MIELECB | 2026-08-30 23:52:00 | 49.99762 | 21.34001 | 113° | 93km/h | 12250m | 9.1m/s | 0°C | 0% | 0hPa | 0V | 00:00:00 | 00:00:00 | 00:00:00 | |
| MIELECB | 2026-08-30 23:51:54 | 49.99812 | 21.33783 | 109° | 95km/h | 12211m | 6.5m/s | 0°C | 0% | 0hPa | 0V | 00:00:00 | 00:00:00 | 00:00:00 | |
| MIELECB | 2026-08-30 23:51:46 | 49.99869 | 21.33488 | 105° | 99km/h | 12169m | 4.8m/s | 0°C | 0% | 0hPa | 0V | 00:00:00 | 00:00:00 | 00:00:00 | |
| SQ9PSP-11 | 2026-08-30 23:51:45 | 49.99874 | 21.33450 | 102° | 100km/h | 12163m | 8.1m/s | 0°C | 0% | 0hPa | 0V | 00:00:00 | 00:00:00 | 00:00:00 | |
| AKAW682 | 2026-08-30 23:51:43 | 49.99885 | 21.33376 | 106° | 95km/h | 12154m | 7.3m/s | 0°C | 0% | 0hPa | 0V | 00:00:00 | 00:00:00 | 00:00:00 | |
| MIELECB | 2026-08-30 23:51:28 | 50.00003 | 21.32830 | 108° | 104km/h | 12066m | 6.6m/s | 0°C | 0% | 0hPa | 0V | 00:00:00 | 00:00:00 | 00:00:00 | |
| MIELECB | 2026-08-30 23:51:23 | 50.00035 | 21.32642 | 109° | 91km/h | 12038m | 5.4m/s | 0°C | 0% | 0hPa | 0V | 00:00:00 | 00:00:00 | 00:00:00 | |
| MIELECB | 2026-08-30 23:51:17 | 50.00086 | 21.32420 | 104° | 100km/h | 12004m | 7.1m/s | 0°C | 0% | 0hPa | 0V | 00:00:00 | 00:00:00 | 00:00:00 | |
| MIELECB | 2026-08-30 23:51:12 | 50.00117 | 21.32240 | 111° | 97km/h | 11970m | 6.0m/s | 0°C | 0% | 0hPa | 0V | 00:00:00 | 00:00:00 | 00:00:00 | |
| MIELECB | 2026-08-30 23:51:06 | 50.00160 | 21.32018 | 103° | 93km/h | 11939m | 6.1m/s | 0°C | 0% | 0hPa | 0V | 00:00:00 | 00:00:00 | 00:00:00 | |
| MIELECB | 2026-08-30 23:51:01 | 50.00195 | 21.31843 | 112° | 102km/h | 11912m | 4.4m/s | 0°C | 0% | 0hPa | 0V | 00:00:00 | 00:00:00 | 00:00:00 | |
| MIELECB | 2026-08-30 23:50:55 | 50.00240 | 21.31616 | 108° | 91km/h | 11878m | 7.1m/s | 0°C | 0% | 0hPa | 0V | 00:00:00 | 00:00:00 | 00:00:00 | |
| MIELECB | 2026-08-30 23:50:49 | 50.00288 | 21.31400 | 109° | 111km/h | 11843m | 6.8m/s | 0°C | 0% | 0hPa | 0V | 00:00:00 | 00:00:00 | 00:00:00 | |
| MIELECB | 2026-08-30 23:50:43 | 50.00334 | 21.31173 | 116° | 95km/h | 11813m | 5.2m/s | 0°C | 0% | 0hPa | 0V | 00:00:00 | 00:00:00 | 00:00:00 | |
| MIELECB | 2026-08-30 23:50:37 | 50.00387 | 21.30953 | 106° | 106km/h | 11780m | 4.4m/s | 0°C | 0% | 0hPa | 0V | 00:00:00 | 00:00:00 | 00:00:00 | |
| MIELECB | 2026-08-30 23:50:31 | 50.00437 | 21.30741 | 111° | 99km/h | 11742m | 4.8m/s | 0°C | 0% | 0hPa | 0V | 00:00:00 | 00:00:00 | 00:00:00 | |
| MIELECB | 2026-08-30 23:50:25 | 50.00485 | 21.30529 | 116° | 93km/h | 11707m | 4.8m/s | 0°C | 0% | 0hPa | 0V | 00:00:00 | 00:00:00 | 00:00:00 | |
| MIELECB | 2026-08-30 23:50:20 | 50.00537 | 21.30351 | 112° | 110km/h | 11681m | 4.1m/s | 0°C | 0% | 0hPa | 0V | 00:00:00 | 00:00:00 | 00:00:00 | |
| MIELECB | 2026-08-30 23:50:15 | 50.00586 | 21.30172 | 113° | 84km/h | 11652m | 3.4m/s | 0°C | 0% | 0hPa | 0V | 00:00:00 | 00:00:00 | 00:00:00 | |
| AKAW68 | 2026-08-30 23:50:13 | 50.00603 | 21.30109 | 116° | 91km/h | 11642m | 3.1m/s | 0°C | 0% | 0hPa | 0V | 00:00:00 | 00:00:00 | 00:00:00 | |
| MIELECB | 2026-08-30 23:50:09 | 50.00647 | 21.29968 | 116° | 106km/h | 11617m | 8.2m/s | 0°C | 0% | 0hPa | 0V | 00:00:00 | 00:00:00 | 00:00:00 | |
| MIELECB | 2026-08-30 23:50:04 | 50.00697 | 21.29795 | 116° | 97km/h | 11593m | 5.9m/s | 0°C | 0% | 0hPa | 0V | 00:00:00 | 00:00:00 | 00:00:00 | |
| MIELECB | 2026-08-30 23:49:58 | 50.00754 | 21.29571 | 114° | 97km/h | 11558m | 6.4m/s | 0°C | 0% | 0hPa | 0V | 00:00:00 | 00:00:00 | 00:00:00 | |
| MIELECB | 2026-08-30 23:49:53 | 50.00816 | 21.29397 | 117° | 106km/h | 11527m | 4.1m/s | 0°C | 0% | 0hPa | 0V | 00:00:00 | 00:00:00 | 00:00:00 | |
| AKAW68 | 2026-08-30 23:49:48 | 50.00867 | 21.29221 | 120° | 89km/h | 11499m | 8.2m/s | 0°C | 0% | 0hPa | 0V | 00:00:00 | 00:00:00 | 00:00:00 | |
| MIELECB | 2026-08-30 23:49:47 | 50.00878 | 21.29190 | 122° | 93km/h | 11493m | 4.7m/s | 0°C | 0% | 0hPa | 0V | 00:00:00 | 00:00:00 | 00:00:00 | |
| MIELECB | 2026-08-30 23:49:41 | 50.00950 | 21.28967 | 111° | 106km/h | 11462m | 9.6m/s | 0°C | 0% | 0hPa | 0V | 00:00:00 | 00:00:00 | 00:00:00 | |
| MIELECB | 2026-08-30 23:49:36 | 50.00999 | 21.28795 | 122° | 99km/h | 11434m | 5.9m/s | 0°C | 0% | 0hPa | 0V | 00:00:00 | 00:00:00 | 00:00:00 | |
| MIELECB | 2026-08-30 23:49:31 | 50.01057 | 21.28610 | 116° | 100km/h | 11404m | 8.2m/s | 0°C | 0% | 0hPa | 0V | 00:00:00 | 00:00:00 | 00:00:00 | |
| AKAW68 | 2026-08-30 23:49:27 | 50.01100 | 21.28477 | 120° | 108km/h | 11382m | 4.3m/s | 0°C | 0% | 0hPa | 0V | 00:00:00 | 00:00:00 | 00:00:00 | |
| MIELECB | 2026-08-30 23:49:25 | 50.01126 | 21.28398 | 117° | 115km/h | 11369m | 4.0m/s | 0°C | 0% | 0hPa | 0V | 00:00:00 | 00:00:00 | 00:00:00 | |
| MIELECB | 2026-08-30 23:49:19 | 50.01190 | 21.28175 | 116° | 91km/h | 11338m | 5.1m/s | 0°C | 0% | 0hPa | 0V | 00:00:00 | 00:00:00 | 00:00:00 | |
| MIELECB | 2026-08-30 23:49:08 | 50.01305 | 21.27777 | 115° | 102km/h | 11281m | 7.6m/s | 0°C | 0% | 0hPa | 0V | 00:00:00 | 00:00:00 | 00:00:00 | |
| AKAW68 | 2026-08-30 23:49:06 | 50.01329 | 21.27709 | 121° | 100km/h | 11269m | 6.4m/s | 0°C | 0% | 0hPa | 0V | 00:00:00 | 00:00:00 | 00:00:00 | |
| MIELECB | 2026-08-30 23:49:02 | 50.01366 | 21.27567 | 108° | 104km/h | 11247m | 6.0m/s | 0°C | 0% | 0hPa | 0V | 00:00:00 | 00:00:00 | 00:00:00 | |
| MIELECB | 2026-08-30 23:48:57 | 50.01401 | 21.27366 | 115° | 91km/h | 11224m | 8.8m/s | 0°C | 0% | 0hPa | 0V | 00:00:00 | 00:00:00 | 00:00:00 | |
| MIELECB | 2026-08-30 23:48:51 | 50.01455 | 21.27173 | 108° | 100km/h | 11177m | 5.9m/s | 0°C | 0% | 0hPa | 0V | 00:00:00 | 00:00:00 | 00:00:00 | |
| MIELECB | 2026-08-30 23:48:45 | 50.01511 | 21.26965 | 116° | 82km/h | 11145m | 3.9m/s | 0°C | 0% | 0hPa | 0V | 00:00:00 | 00:00:00 | 00:00:00 | |
| MIELECB | 2026-08-30 23:48:39 | 50.01562 | 21.26766 | 111° | 88km/h | 11113m | 7.4m/s | 0°C | 0% | 0hPa | 0V | 00:00:00 | 00:00:00 | 00:00:00 | |
| MIELECB | 2026-08-30 23:48:33 | 50.01619 | 21.26570 | 111° | 88km/h | 11081m | 10.1m/s | 0°C | 0% | 0hPa | 0V | 00:00:00 | 00:00:00 | 00:00:00 | |
| SQ9PSP-11 | 2026-08-30 23:48:31 | 50.01632 | 21.26508 | 107° | 84km/h | 11066m | 9.6m/s | 0°C | 0% | 0hPa | 0V | 00:00:00 | 00:00:00 | 00:00:00 | |
| MIELECB | 2026-08-30 23:48:27 | 50.01669 | 21.26377 | 118° | 97km/h | 11043m | 9.8m/s | 0°C | 0% | 0hPa | 0V | 00:00:00 | 00:00:00 | 00:00:00 | |
| AKAW68 | 2026-08-30 23:48:25 | 50.01690 | 21.26311 | 118° | 91km/h | 11030m | 4.0m/s | 0°C | 0% | 0hPa | 0V | 00:00:00 | 00:00:00 | 00:00:00 | |
| MIELECB | 2026-08-30 23:48:22 | 50.01718 | 21.26213 | 110° | 91km/h | 11014m | 6.4m/s | 0°C | 0% | 0hPa | 0V | 00:00:00 | 00:00:00 | 00:00:00 | |
| MIELECB | 2026-08-30 23:48:16 | 50.01762 | 21.26019 | 120° | 86km/h | 10981m | 4.6m/s | 0°C | 0% | 0hPa | 0V | 00:00:00 | 00:00:00 | 00:00:00 | |
| SQ9EZE-12 | 2026-08-30 23:48:12 | 50.01813 | 21.25847 | 112° | 99km/h | 10954m | 7.0m/s | 0°C | 0% | 0hPa | 0V | 00:00:00 | 00:00:00 | 00:00:00 | |
| MIELECB | 2026-08-30 23:48:11 | 50.01813 | 21.25847 | 112° | 99km/h | 10954m | 7.0m/s | 0°C | 0% | 0hPa | 0V | 00:00:00 | 00:00:00 | 00:00:00 | |
| SQ9PSP-11 | 2026-08-30 23:48:08 | 50.01832 | 21.25747 | 106° | 84km/h | 10939m | 6.4m/s | 0°C | 0% | 0hPa | 0V | 00:00:00 | 00:00:00 | 00:00:00 | |
| MIELECB | 2026-08-30 23:48:06 | 50.01847 | 21.25682 | 118° | 93km/h | 10927m | 4.5m/s | 0°C | 0% | 0hPa | 0V | 00:00:00 | 00:00:00 | 00:00:00 | |
| AKAW68 | 2026-08-30 23:48:04 | 50.01870 | 21.25617 | 121° | 97km/h | 10917m | 6.5m/s | 0°C | 0% | 0hPa | 0V | 00:00:00 | 00:00:00 | 00:00:00 | |
| MIELECB | 2026-08-30 23:48:00 | 50.01908 | 21.25479 | 109° | 95km/h | 10894m | 3.7m/s | 0°C | 0% | 0hPa | 0V | 00:00:00 | 00:00:00 | 00:00:00 | |
| MIELECB | 2026-08-30 23:47:54 | 50.01958 | 21.25290 | 113° | 80km/h | 10856m | 3.6m/s | 0°C | 0% | 0hPa | 0V | 00:00:00 | 00:00:00 | 00:00:00 | |
| MIELECB | 2026-08-30 23:47:49 | 50.01999 | 21.25132 | 112° | 100km/h | 10823m | 4.3m/s | 0°C | 0% | 0hPa | 0V | 00:00:00 | 00:00:00 | 00:00:00 | |
| SQ9EZE-12 | 2026-08-30 23:47:48 | 50.02007 | 21.25095 | 111° | 99km/h | 10819m | 5.1m/s | 0°C | 0% | 0hPa | 0V | 00:00:00 | 00:00:00 | 00:00:00 | |
| AKAW682 | 2026-08-30 23:47:47 | 50.02016 | 21.25060 | 111° | 93km/h | 10814m | 4.1m/s | 0°C | 0% | 0hPa | 0V | 00:00:00 | 00:00:00 | 00:00:00 | |
| MIELECB | 2026-08-30 23:47:44 | 50.02036 | 21.24961 | 106° | 88km/h | 10798m | 6.8m/s | 0°C | 0% | 0hPa | 0V | 00:00:00 | 00:00:00 | 00:00:00 | |
| AKAW68 | 2026-08-30 23:47:43 | 50.02042 | 21.24928 | 107° | 89km/h | 10791m | 4.6m/s | 0°C | 0% | 0hPa | 0V | 00:00:00 | 00:00:00 | 00:00:00 | |
| MIELECB | 2026-08-30 23:47:38 | 50.02086 | 21.24769 | 119° | 88km/h | 10760m | 6.3m/s | 0°C | 0% | 0hPa | 0V | 00:00:00 | 00:00:00 | 00:00:00 | |
| MIELECB | 2026-08-30 23:47:33 | 50.02130 | 21.24604 | 108° | 100km/h | 10729m | 6.8m/s | 0°C | 0% | 0hPa | 0V | 00:00:00 | 00:00:00 | 00:00:00 | |
| SQ9PSP-11 | 2026-08-30 23:47:32 | 50.02137 | 21.24567 | 111° | 95km/h | 10723m | 7.3m/s | 0°C | 0% | 0hPa | 0V | 00:00:00 | 00:00:00 | 00:00:00 | |
| MIELECB | 2026-08-30 23:47:27 | 50.02183 | 21.24406 | 117° | 84km/h | 10689m | 5.6m/s | 0°C | 0% | 0hPa | 0V | 00:00:00 | 00:00:00 | 00:00:00 | |
| AKAW682 | 2026-08-30 23:47:25 | 50.02198 | 21.24343 | 108° | 88km/h | 10676m | 4.8m/s | 0°C | 0% | 0hPa | 0V | 00:00:00 | 00:00:00 | 00:00:00 | |
| MIELECB | 2026-08-30 23:47:22 | 50.02220 | 21.24246 | 117° | 88km/h | 10657m | 4.7m/s | 0°C | 0% | 0hPa | 0V | 00:00:00 | 00:00:00 | 00:00:00 | |
| SQ9PSP-11 | 2026-08-30 23:47:17 | 50.02265 | 21.24090 | 108° | 84km/h | 10633m | 6.0m/s | 0°C | 0% | 0hPa | 0V | 00:00:00 | 00:00:00 | 00:00:00 | |
| MIELECB | 2026-08-30 23:47:16 | 50.02270 | 21.24058 | 106° | 86km/h | 10627m | 4.9m/s | 0°C | 0% | 0hPa | 0V | 00:00:00 | 00:00:00 | 00:00:00 | |
| MIELECB | 2026-08-30 23:47:10 | 50.02312 | 21.23878 | 121° | 82km/h | 10593m | 3.9m/s | 0°C | 0% | 0hPa | 0V | 00:00:00 | 00:00:00 | 00:00:00 | |
| MIELECB | 2026-08-30 23:47:04 | 50.02357 | 21.23693 | 108° | 73km/h | 10560m | 4.0m/s | 0°C | 0% | 0hPa | 0V | 00:00:00 | 00:00:00 | 00:00:00 | |
| SQ9PSP-11 | 2026-08-30 23:47:02 | 50.02372 | 21.23638 | 116° | 80km/h | 10549m | 4.3m/s | 0°C | 0% | 0hPa | 0V | 00:00:00 | 00:00:00 | 00:00:00 | |
| SQ9EZE-12 | 2026-08-30 23:47:00 | 50.02390 | 21.23578 | 114° | 84km/h | 10539m | 4.3m/s | 0°C | 0% | 0hPa | 0V | 00:00:00 | 00:00:00 | 00:00:00 | |
| MIELECB | 2026-08-30 23:46:59 | 50.02397 | 21.23548 | 109° | 86km/h | 10534m | 5.7m/s | 0°C | 0% | 0hPa | 0V | 00:00:00 | 00:00:00 | 00:00:00 | |
| MIELECB | 2026-08-30 23:46:54 | 50.02431 | 21.23397 | 108° | 75km/h | 10501m | 3.5m/s | 0°C | 0% | 0hPa | 0V | 00:00:00 | 00:00:00 | 00:00:00 | |
| MIELECB | 2026-08-30 23:46:48 | 50.02476 | 21.23214 | 112° | 80km/h | 10468m | 6.6m/s | 0°C | 0% | 0hPa | 0V | 00:00:00 | 00:00:00 | 00:00:00 | |
| SQ9PSP-11 | 2026-08-30 23:46:46 | 50.02489 | 21.23155 | 104° | 77km/h | 10455m | 4.5m/s | 0°C | 0% | 0hPa | 0V | 00:00:00 | 00:00:00 | 00:00:00 | |
| MIELECB | 2026-08-30 23:46:42 | 50.02513 | 21.23031 | 114° | 84km/h | 10437m | 5.5m/s | 0°C | 0% | 0hPa | 0V | 00:00:00 | 00:00:00 | 00:00:00 | |
| AKAW68 | 2026-08-30 23:46:41 | 50.02522 | 21.23001 | 116° | 88km/h | 10430m | 6.4m/s | 0°C | 0% | 0hPa | 0V | 00:00:00 | 00:00:00 | 00:00:00 | |
| AKAW682 | 2026-08-30 23:46:40 | 50.02531 | 21.22970 | 114° | 82km/h | 10425m | 2.7m/s | 0°C | 0% | 0hPa | 0V | 00:00:00 | 00:00:00 | 00:00:00 | |
| MIELECB | 2026-08-30 23:46:36 | 50.02557 | 21.22856 | 115° | 75km/h | 10403m | 3.7m/s | 0°C | 0% | 0hPa | 0V | 00:00:00 | 00:00:00 | 00:00:00 | |
| MIELECB | 2026-08-30 23:46:30 | 50.02596 | 21.22668 | 109° | 84km/h | 10366m | 4.0m/s | 0°C | 0% | 0hPa | 0V | 00:00:00 | 00:00:00 | 00:00:00 | |
| SQ9PSP-11 | 2026-08-30 23:46:29 | 50.02603 | 21.22637 | 113° | 86km/h | 10362m | 3.6m/s | 0°C | 0% | 0hPa | 0V | 00:00:00 | 00:00:00 | 00:00:00 | |
| MIELECB | 2026-08-30 23:46:25 | 50.02632 | 21.22520 | 114° | 75km/h | 10341m | 5.2m/s | 0°C | 0% | 0hPa | 0V | 00:00:00 | 00:00:00 | 00:00:00 | |
| AKAW68 | 2026-08-30 23:46:21 | 50.02653 | 21.22403 | 110° | 78km/h | 10320m | 3.0m/s | 0°C | 0% | 0hPa | 0V | 00:00:00 | 00:00:00 | 00:00:00 | |
| MIELECB | 2026-08-30 23:46:19 | 50.02668 | 21.22348 | 121° | 80km/h | 10307m | 6.5m/s | 0°C | 0% | 0hPa | 0V | 00:00:00 | 00:00:00 | 00:00:00 | |
| SQ9EZE-12 | 2026-08-30 23:46:17 | 50.02687 | 21.22288 | 116° | 88km/h | 10295m | 5.3m/s | 0°C | 0% | 0hPa | 0V | 00:00:00 | 00:00:00 | 00:00:00 | |
| SQ9PSP-11 | 2026-08-30 23:46:14 | 50.02704 | 21.22190 | 103° | 86km/h | 10277m | 5.3m/s | 0°C | 0% | 0hPa | 0V | 00:00:00 | 00:00:00 | 00:00:00 | |
| MIELECB | 2026-08-30 23:46:13 | 50.02710 | 21.22160 | 109° | 78km/h | 10271m | 3.6m/s | 0°C | 0% | 0hPa | 0V | 00:00:00 | 00:00:00 | 00:00:00 | |
| MIELECB | 2026-08-30 23:46:06 | 50.02762 | 21.21964 | 113° | 88km/h | 10230m | 5.3m/s | 0°C | 0% | 0hPa | 0V | 00:00:00 | 00:00:00 | 00:00:00 | |
| MIELECB | 2026-08-30 23:46:01 | 50.02794 | 21.21819 | 111° | 80km/h | 10205m | 5.2m/s | 0°C | 0% | 0hPa | 0V | 00:00:00 | 00:00:00 | 00:00:00 | |
| AKAW68 | 2026-08-30 23:46:00 | 50.02801 | 21.21790 | 111° | 84km/h | 10199m | 4.6m/s | 0°C | 0% | 0hPa | 0V | 00:00:00 | 00:00:00 | 00:00:00 | |
| SQ9EZE-12 | 2026-08-30 23:45:59 | 50.02809 | 21.21759 | 113° | 80km/h | 10195m | 2.7m/s | 0°C | 0% | 0hPa | 0V | 00:00:00 | 00:00:00 | 00:00:00 | |
| SQ9PSP-11 | 2026-08-30 23:45:58 | 50.02816 | 21.21730 | 112° | 80km/h | 10191m | 6.6m/s | 0°C | 0% | 0hPa | 0V | 00:00:00 | 00:00:00 | 00:00:00 | |
| MIELECB | 2026-08-30 23:45:55 | 50.02831 | 21.21649 | 109° | 75km/h | 10172m | 2.4m/s | 0°C | 0% | 0hPa | 0V | 00:00:00 | 00:00:00 | 00:00:00 | |
| MIELECB | 2026-08-30 23:45:50 | 50.02868 | 21.21498 | 114° | 88km/h | 10143m | 5.0m/s | 0°C | 0% | 0hPa | 0V | 00:00:00 | 00:00:00 | 00:00:00 | |
| MIELECB | 2026-08-30 23:45:44 | 50.02910 | 21.21317 | 111° | 75km/h | 10112m | 5.4m/s | 0°C | 0% | 0hPa | 0V | 00:00:00 | 00:00:00 | 00:00:00 | |
| SQ9PSP-11 | 2026-08-30 23:45:42 | 50.02924 | 21.21262 | 115° | 75km/h | 10102m | 6.3m/s | 0°C | 0% | 0hPa | 0V | 00:00:00 | 00:00:00 | 00:00:00 | |
| SQ9EZE-12 | 2026-08-30 23:45:41 | 50.02932 | 21.21234 | 115° | 78km/h | 10098m | 3.1m/s | 0°C | 0% | 0hPa | 0V | 00:00:00 | 00:00:00 | 00:00:00 | |
| AKAW68 | 2026-08-30 23:45:38 | 50.02953 | 21.21145 | 106° | 78km/h | 10082m | 8.7m/s | 0°C | 0% | 0hPa | 0V | 00:00:00 | 00:00:00 | 00:00:00 | |
| MIELECB | 2026-08-30 23:45:33 | 50.02984 | 21.20995 | 119° | 73km/h | 10047m | 6.3m/s | 0°C | 0% | 0hPa | 0V | 00:00:00 | 00:00:00 | 00:00:00 | |
| MIELECB | 2026-08-30 23:45:27 | 50.03028 | 21.20832 | 103° | 89km/h | 10017m | 7.5m/s | 0°C | 0% | 0hPa | 0V | 00:00:00 | 00:00:00 | 00:00:00 | |
| MIELECB | 2026-08-30 23:45:21 | 50.03069 | 21.20652 | 118° | 73km/h | 9987m | 5.4m/s | 0°C | 0% | 0hPa | 0V | 00:00:00 | 00:00:00 | 00:00:00 | |
| AKAW68 | 2026-08-30 23:45:18 | 50.03091 | 21.20569 | 112° | 78km/h | 9974m | 4.4m/s | 0°C | 0% | 0hPa | 0V | 00:00:00 | 00:00:00 | 00:00:00 | |
| MIELECB | 2026-08-30 23:45:16 | 50.03106 | 21.20507 | 111° | 91km/h | 9962m | 10.3m/s | 0°C | 0% | 0hPa | 0V | 00:00:00 | 00:00:00 | 00:00:00 | |
| AKAW682 | 2026-08-30 23:45:12 | 50.03131 | 21.20383 | 110° | 69km/h | 9939m | 5.7m/s | 0°C | 0% | 0hPa | 0V | 00:00:00 | 00:00:00 | 00:00:00 | |
| MIELECB | 2026-08-30 23:45:11 | 50.03136 | 21.20357 | 106° | 68km/h | 9933m | 7.0m/s | 0°C | 0% | 0hPa | 0V | 00:00:00 | 00:00:00 | 00:00:00 | |
| MIELECB | 2026-08-30 23:45:05 | 50.03175 | 21.20171 | 110° | 84km/h | 9895m | 7.2m/s | 0°C | 0% | 0hPa | 0V | 00:00:00 | 00:00:00 | 00:00:00 | |
| SQ9EZE-12 | 2026-08-30 23:45:02 | 50.03195 | 21.20086 | 109° | 69km/h | 9875m | 7.5m/s | 0°C | 0% | 0hPa | 0V | 00:00:00 | 00:00:00 | 00:00:00 | |
| MIELECB | 2026-08-30 23:45:00 | 50.03206 | 21.20033 | 110° | 75km/h | 9865m | 4.4m/s | 0°C | 0% | 0hPa | 0V | 00:00:00 | 00:00:00 | 00:00:00 | |
| AKAW68 | 2026-08-30 23:44:57 | 50.03225 | 21.19947 | 110° | 75km/h | 9849m | 6.8m/s | 0°C | 0% | 0hPa | 0V | 00:00:00 | 00:00:00 | 00:00:00 | |
| SQ9PSP-11 | 2026-08-30 23:44:55 | 50.03238 | 21.19894 | 112° | 71km/h | 9840m | 5.0m/s | 0°C | 0% | 0hPa | 0V | 00:00:00 | 00:00:00 | 00:00:00 | |
| MIELECB | 2026-08-30 23:44:54 | 50.03244 | 21.19867 | 110° | 77km/h | 9834m | 5.3m/s | 0°C | 0% | 0hPa | 0V | 00:00:00 | 00:00:00 | 00:00:00 | |
| AKAW682 | 2026-08-30 23:44:52 | 50.03262 | 21.19777 | 107° | 78km/h | 9822m | 3.6m/s | 0°C | 0% | 0hPa | 0V | 00:00:00 | 00:00:00 | 00:00:00 | |
| MIELECB | 2026-08-30 23:44:49 | 50.03275 | 21.19718 | 113° | 82km/h | 9812m | 5.4m/s | 0°C | 0% | 0hPa | 0V | 00:00:00 | 00:00:00 | 00:00:00 | |
| SQ9EZE-12 | 2026-08-30 23:44:46 | 50.03298 | 21.19630 | 107° | 80km/h | 9796m | 5.7m/s | 0°C | 0% | 0hPa | 0V | 00:00:00 | 00:00:00 | 00:00:00 | |
| MIELECB | 2026-08-30 23:44:43 | 50.03312 | 21.19545 | 104° | 73km/h | 9779m | 5.9m/s | 0°C | 0% | 0hPa | 0V | 00:00:00 | 00:00:00 | 00:00:00 | |
| SQ9PSP-11 | 2026-08-30 23:44:40 | 50.03327 | 21.19460 | 105° | 75km/h | 9766m | 6.4m/s | 0°C | 0% | 0hPa | 0V | 00:00:00 | 00:00:00 | 00:00:00 | |
| MIELECB | 2026-08-30 23:44:38 | 50.03337 | 21.19406 | 113° | 75km/h | 9754m | 7.2m/s | 0°C | 0% | 0hPa | 0V | 00:00:00 | 00:00:00 | 00:00:00 | |
| AKAW68 | 2026-08-30 23:44:36 | 50.03353 | 21.19351 | 114° | 80km/h | 9744m | 5.0m/s | 0°C | 0% | 0hPa | 0V | 00:00:00 | 00:00:00 | 00:00:00 | |
| MIELECB | 2026-08-30 23:44:32 | 50.03372 | 21.19243 | 105° | 69km/h | 9727m | 5.5m/s | 0°C | 0% | 0hPa | 0V | 00:00:00 | 00:00:00 | 00:00:00 | |
| AKAW682 | 2026-08-30 23:44:31 | 50.03377 | 21.19216 | 112° | 75km/h | 9721m | 4.1m/s | 0°C | 0% | 0hPa | 0V | 00:00:00 | 00:00:00 | 00:00:00 | |
| SQ9EZE-12 | 2026-08-30 23:44:30 | 50.03384 | 21.19188 | 113° | 77km/h | 9717m | 4.2m/s | 0°C | 0% | 0hPa | 0V | 00:00:00 | 00:00:00 | 00:00:00 | |
| MIELECB | 2026-08-30 23:44:27 | 50.03410 | 21.19112 | 118° | 75km/h | 9695m | 6.6m/s | 0°C | 0% | 0hPa | 0V | 00:00:00 | 00:00:00 | 00:00:00 | |
| SQ9PSP-11 | 2026-08-30 23:44:24 | 50.03436 | 21.19029 | 114° | 77km/h | 9678m | 7.2m/s | 0°C | 0% | 0hPa | 0V | 00:00:00 | 00:00:00 | 00:00:00 | |
| MIELECB | 2026-08-30 23:44:22 | 50.03451 | 21.18982 | 122° | 60km/h | 9667m | 5.0m/s | 0°C | 0% | 0hPa | 0V | 00:00:00 | 00:00:00 | 00:00:00 | |
| MIELECB | 2026-08-30 23:44:16 | 50.03492 | 21.18822 | 106° | 78km/h | 9635m | 6.3m/s | 0°C | 0% | 0hPa | 0V | 00:00:00 | 00:00:00 | 00:00:00 | |
| AKAW68 | 2026-08-30 23:44:14 | 50.03501 | 21.18770 | 108° | 62km/h | 9624m | 6.3m/s | 0°C | 0% | 0hPa | 0V | 00:00:00 | 00:00:00 | 00:00:00 | |
| AKAW682 | 2026-08-30 23:44:10 | 50.03521 | 21.18674 | 114° | 73km/h | 9602m | 3.6m/s | 0°C | 0% | 0hPa | 0V | 00:00:00 | 00:00:00 | 00:00:00 | |
| SQ9PSP-11 | 2026-08-30 23:44:08 | 50.03534 | 21.18616 | 108° | 84km/h | 9591m | 5.1m/s | 0°C | 0% | 0hPa | 0V | 00:00:00 | 00:00:00 | 00:00:00 | |
| MIELECB | 2026-08-30 23:44:00 | 50.03579 | 21.18395 | 110° | 73km/h | 9548m | 5.3m/s | 0°C | 0% | 0hPa | 0V | 00:00:00 | 00:00:00 | 00:00:00 | |
| SQ9EZE-12 | 2026-08-30 23:43:59 | 50.03584 | 21.18367 | 105° | 75km/h | 9544m | 3.1m/s | 0°C | 0% | 0hPa | 0V | 00:00:00 | 00:00:00 | 00:00:00 | |
| MIELECB | 2026-08-30 23:43:55 | 50.03608 | 21.18264 | 115° | 69km/h | 9522m | 7.6m/s | 0°C | 0% | 0hPa | 0V | 00:00:00 | 00:00:00 | 00:00:00 | |
| AKAW68 | 2026-08-30 23:43:53 | 50.03620 | 21.18214 | 112° | 73km/h | 9511m | 5.6m/s | 0°C | 0% | 0hPa | 0V | 00:00:00 | 00:00:00 | 00:00:00 | |
| AKAW682 | 2026-08-30 23:43:50 | 50.03633 | 21.18130 | 101° | 77km/h | 9493m | 3.5m/s | 0°C | 0% | 0hPa | 0V | 00:00:00 | 00:00:00 | 00:00:00 | |
| MIELECB | 2026-08-30 23:43:49 | 50.03636 | 21.18099 | 100° | 78km/h | 9487m | 7.7m/s | 0°C | 0% | 0hPa | 0V | 00:00:00 | 00:00:00 | 00:00:00 | |
| SQ9EZE-12 | 2026-08-30 23:43:44 | 50.03667 | 21.17970 | 115° | 62km/h | 9460m | 2.4m/s | 0°C | 0% | 0hPa | 0V | 00:00:00 | 00:00:00 | 00:00:00 | |
| MIELECB | 2026-08-30 23:43:37 | 50.03697 | 21.17750 | 119° | 62km/h | 9421m | 4.2m/s | 0°C | 0% | 0hPa | 0V | 00:00:00 | 00:00:00 | 00:00:00 | |
| AKAW68 | 2026-08-30 23:43:32 | 50.03725 | 21.17652 | 105° | 69km/h | 9404m | 8.1m/s | 0°C | 0% | 0hPa | 0V | 00:00:00 | 00:00:00 | 00:00:00 | |
| AKAW682 | 2026-08-30 23:43:29 | 50.03732 | 21.17571 | 104° | 68km/h | 9387m | 4.1m/s | 0°C | 0% | 0hPa | 0V | 00:00:00 | 00:00:00 | 00:00:00 | |
| SQ9EZE-12 | 2026-08-30 23:43:28 | 50.03735 | 21.17544 | 106° | 73km/h | 9381m | 6.8m/s | 0°C | 0% | 0hPa | 0V | 00:00:00 | 00:00:00 | 00:00:00 | |
| MIELECB | 2026-08-30 23:43:27 | 50.03740 | 21.17515 | 108° | 78km/h | 9375m | 4.1m/s | 0°C | 0% | 0hPa | 0V | 00:00:00 | 00:00:00 | 00:00:00 | |
| SQ9PSP-11 | 2026-08-30 23:43:21 | 50.03772 | 21.17351 | 108° | 64km/h | 9339m | 9.5m/s | 0°C | 0% | 0hPa | 0V | 00:00:00 | 00:00:00 | 00:00:00 | |
| SQ9EZE-12 | 2026-08-30 23:43:13 | 50.03801 | 21.17136 | 109° | 62km/h | 9295m | 4.3m/s | 0°C | 0% | 0hPa | 0V | 00:00:00 | 00:00:00 | 00:00:00 | |
| MIELECB | 2026-08-30 23:43:11 | 50.03808 | 21.17086 | 103° | 75km/h | 9287m | 3.9m/s | 0°C | 0% | 0hPa | 0V | 00:00:00 | 00:00:00 | 00:00:00 | |
| AKAW682 | 2026-08-30 23:43:09 | 50.03815 | 21.17025 | 99° | 86km/h | 9274m | 7.3m/s | 0°C | 0% | 0hPa | 0V | 00:00:00 | 00:00:00 | 00:00:00 | |
| SQ9PSP-11 | 2026-08-30 23:43:06 | 50.03825 | 21.16930 | 99° | 75km/h | 9260m | 3.2m/s | 0°C | 0% | 0hPa | 0V | 00:00:00 | 00:00:00 | 00:00:00 | |
| MIELECB | 2026-08-30 23:43:03 | 50.03836 | 21.16849 | 106° | 71km/h | 9242m | 2.2m/s | 0°C | 0% | 0hPa | 0V | 00:00:00 | 00:00:00 | 00:00:00 | |
| MIELECB | 2026-08-30 23:42:57 | 50.03860 | 21.16659 | 100° | 71km/h | 9213m | 2.9m/s | 0°C | 0% | 0hPa | 0V | 00:00:00 | 00:00:00 | 00:00:00 | |
| MIELECB | 2026-08-30 23:42:52 | 50.03876 | 21.16521 | 105° | 77km/h | 9189m | 2.9m/s | 0°C | 0% | 0hPa | 0V | 00:00:00 | 00:00:00 | 00:00:00 | |
| AKAW68 | 2026-08-30 23:42:51 | 50.03880 | 21.16491 | 105° | 77km/h | 9185m | 7.2m/s | 0°C | 0% | 0hPa | 0V | 00:00:00 | 00:00:00 | 00:00:00 | |
| AKAW682 | 2026-08-30 23:42:48 | 50.03889 | 21.16414 | 102° | 58km/h | 9167m | 5.9m/s | 0°C | 0% | 0hPa | 0V | 00:00:00 | 00:00:00 | 00:00:00 | |
| MIELECB | 2026-08-30 23:42:46 | 50.03895 | 21.16367 | 105° | 64km/h | 9156m | 7.0m/s | 0°C | 0% | 0hPa | 0V | 00:00:00 | 00:00:00 | 00:00:00 | |
| SQ9EZE-12 | 2026-08-30 23:42:42 | 50.03915 | 21.16251 | 109° | 77km/h | 9135m | 3.6m/s | 0°C | 0% | 0hPa | 0V | 00:00:00 | 00:00:00 | 00:00:00 | |
| MIELECB | 2026-08-30 23:42:41 | 50.03921 | 21.16223 | 110° | 69km/h | 9131m | 6.3m/s | 0°C | 0% | 0hPa | 0V | 00:00:00 | 00:00:00 | 00:00:00 | |
| SQ9PSP-11 | 2026-08-30 23:42:36 | 50.03942 | 21.16110 | 100° | 62km/h | 9107m | 8.0m/s | 0°C | 0% | 0hPa | 0V | 00:00:00 | 00:00:00 | 00:00:00 | |
| MIELECB | 2026-08-30 23:42:35 | 50.03945 | 21.16085 | 99° | 66km/h | 9099m | 5.3m/s | 0°C | 0% | 0hPa | 0V | 00:00:00 | 00:00:00 | 00:00:00 | |
| AKAW68 | 2026-08-30 23:42:31 | 50.03958 | 21.15980 | 97° | 69km/h | 9072m | 5.7m/s | 0°C | 0% | 0hPa | 0V | 00:00:00 | 00:00:00 | 00:00:00 | |
| MIELECB | 2026-08-30 23:42:29 | 50.03960 | 21.15929 | 94° | 60km/h | 9060m | 4.3m/s | 0°C | 0% | 0hPa | 0V | 00:00:00 | 00:00:00 | 00:00:00 | |
| AKAW682 | 2026-08-30 23:42:27 | 50.03962 | 21.15877 | 97° | 71km/h | 9049m | 3.5m/s | 0°C | 0% | 0hPa | 0V | 00:00:00 | 00:00:00 | 00:00:00 | |
| SQ9EZE-12 | 2026-08-30 23:42:25 | 50.03968 | 21.15822 | 102° | 71km/h | 9040m | 7.0m/s | 0°C | 0% | 0hPa | 0V | 00:00:00 | 00:00:00 | 00:00:00 | |
| MIELECB | 2026-08-30 23:42:24 | 50.03971 | 21.15794 | 98° | 73km/h | 9033m | 4.0m/s | 0°C | 0% | 0hPa | 0V | 00:00:00 | 00:00:00 | 00:00:00 | |
| SQ9PSP-11 | 2026-08-30 23:42:20 | 50.03978 | 21.15693 | 106° | 57km/h | 9014m | 6.2m/s | 0°C | 0% | 0hPa | 0V | 00:00:00 | 00:00:00 | 00:00:00 | |
| AKAW68 | 2026-08-30 23:42:10 | 50.04013 | 21.15455 | 111° | 62km/h | 8960m | 6.3m/s | 0°C | 0% | 0hPa | 0V | 00:00:00 | 00:00:00 | 00:00:00 | |
| AKAW682 | 2026-08-30 23:42:06 | 50.04026 | 21.15356 | 94° | 66km/h | 8932m | 5.4m/s | 0°C | 0% | 0hPa | 0V | 00:00:00 | 00:00:00 | 00:00:00 | |
| MIELECB | 2026-08-30 23:42:04 | 50.04026 | 21.15300 | 91° | 75km/h | 8919m | 2.8m/s | 0°C | 0% | 0hPa | 0V | 00:00:00 | 00:00:00 | 00:00:00 | |
| MIELECB | 2026-08-30 23:41:57 | 50.04048 | 21.15125 | 98° | 66km/h | 8880m | 4.9m/s | 0°C | 0% | 0hPa | 0V | 00:00:00 | 00:00:00 | 00:00:00 | |
| MIELECB | 2026-08-30 23:41:51 | 50.04066 | 21.14985 | 103° | 58km/h | 8847m | 2.9m/s | 0°C | 0% | 0hPa | 0V | 00:00:00 | 00:00:00 | 00:00:00 | |
| AKAW68 | 2026-08-30 23:41:50 | 50.04069 | 21.14965 | 107° | 51km/h | 8842m | 8.7m/s | 0°C | 0% | 0hPa | 0V | 00:00:00 | 00:00:00 | 00:00:00 | |
| SQ9PSP-11 | 2026-08-30 23:41:49 | 50.04073 | 21.14947 | 102° | 49km/h | 8834m | 6.0m/s | 0°C | 0% | 0hPa | 0V | 00:00:00 | 00:00:00 | 00:00:00 | |
| MIELECB | 2026-08-30 23:41:46 | 50.04081 | 21.14887 | 99° | 58km/h | 8814m | 4.0m/s | 0°C | 0% | 0hPa | 0V | 00:00:00 | 00:00:00 | 00:00:00 | |
| AKAW682 | 2026-08-30 23:41:44 | 50.04083 | 21.14840 | 89° | 60km/h | 8803m | 3.3m/s | 0°C | 0% | 0hPa | 0V | 00:00:00 | 00:00:00 | 00:00:00 | |
| MIELECB | 2026-08-30 23:41:35 | 50.04098 | 21.14632 | 85° | 60km/h | 8758m | 4.5m/s | 0°C | 0% | 0hPa | 0V | 00:00:00 | 00:00:00 | 00:00:00 | |
| SQ9PSP-11 | 2026-08-30 23:41:34 | 50.04099 | 21.14586 | 100° | 55km/h | 8747m | 4.2m/s | 0°C | 0% | 0hPa | 0V | 00:00:00 | 00:00:00 | 00:00:00 | |
| AKAW68 | 2026-08-30 23:41:30 | 50.04110 | 21.14532 | 113° | 44km/h | 8726m | 5.7m/s | 0°C | 0% | 0hPa | 0V | 00:00:00 | 00:00:00 | 00:00:00 | |
| MIELECB | 2026-08-30 23:41:29 | 50.04114 | 21.14515 | 110° | 49km/h | 8721m | 3.5m/s | 0°C | 0% | 0hPa | 0V | 00:00:00 | 00:00:00 | 00:00:00 | |
| MIELECB | 2026-08-30 23:41:19 | 50.04148 | 21.14291 | 103° | 62km/h | 8661m | 6.3m/s | 0°C | 0% | 0hPa | 0V | 00:00:00 | 00:00:00 | 00:00:00 | |
| SQ9PSP-11 | 2026-08-30 23:41:17 | 50.04153 | 21.14242 | 99° | 64km/h | 8650m | 4.2m/s | 0°C | 0% | 0hPa | 0V | 00:00:00 | 00:00:00 | 00:00:00 | |
| MIELECB | 2026-08-30 23:41:11 | 50.04171 | 21.14119 | 107° | 64km/h | 8616m | 3.0m/s | 0°C | 0% | 0hPa | 0V | 00:00:00 | 00:00:00 | 00:00:00 | |
| AKAW68 | 2026-08-30 23:41:09 | 50.04177 | 21.14073 | 100° | 49km/h | 8607m | 4.2m/s | 0°C | 0% | 0hPa | 0V | 00:00:00 | 00:00:00 | 00:00:00 | |
| AKAW682 | 2026-08-30 23:41:07 | 50.04180 | 21.14033 | 96° | 53km/h | 8597m | 6.7m/s | 0°C | 0% | 0hPa | 0V | 00:00:00 | 00:00:00 | 00:00:00 | |
| MIELECB | 2026-08-30 23:41:06 | 50.04181 | 21.14012 | 100° | 51km/h | 8592m | 4.0m/s | 0°C | 0% | 0hPa | 0V | 00:00:00 | 00:00:00 | 00:00:00 | |
| SQ9PSP-11 | 2026-08-30 23:41:01 | 50.04198 | 21.13922 | 92° | 46km/h | 8564m | 5.7m/s | 0°C | 0% | 0hPa | 0V | 00:00:00 | 00:00:00 | 00:00:00 | |
| MIELECB | 2026-08-30 23:41:00 | 50.04198 | 21.13903 | 91° | 51km/h | 8559m | 2.9m/s | 0°C | 0% | 0hPa | 0V | 00:00:00 | 00:00:00 | 00:00:00 | |
| AKAW68 | 2026-08-30 23:40:48 | 50.04223 | 21.13643 | 104° | 64km/h | 8493m | 6.5m/s | 0°C | 0% | 0hPa | 0V | 00:00:00 | 00:00:00 | 00:00:00 | |
| SQ9PSP-11 | 2026-08-30 23:40:46 | 50.04231 | 21.13590 | 101° | 60km/h | 8485m | 2.8m/s | 0°C | 0% | 0hPa | 0V | 00:00:00 | 00:00:00 | 00:00:00 | |
| AKAW682 | 2026-08-30 23:40:45 | 50.04233 | 21.13565 | 100° | 58km/h | 8480m | 6.9m/s | 0°C | 0% | 0hPa | 0V | 00:00:00 | 00:00:00 | 00:00:00 | |
| MIELECB | 2026-08-30 23:40:35 | 50.04252 | 21.13349 | 101° | 62km/h | 8426m | 1.8m/s | 0°C | 0% | 0hPa | 0V | 00:00:00 | 00:00:00 | 00:00:00 | |
| AKAW68 | 2026-08-30 23:40:27 | 50.04273 | 21.13198 | 111° | 55km/h | 8384m | 7.2m/s | 0°C | 0% | 0hPa | 0V | 00:00:00 | 00:00:00 | 00:00:00 | |
| MIELECB | 2026-08-30 23:40:24 | 50.04283 | 21.13134 | 99° | 57km/h | 8366m | 4.2m/s | 0°C | 0% | 0hPa | 0V | 00:00:00 | 00:00:00 | 00:00:00 | |
| AKAW682 | 2026-08-30 23:40:22 | 50.04285 | 21.13094 | 95° | 55km/h | 8357m | 6.4m/s | 0°C | 0% | 0hPa | 0V | 00:00:00 | 00:00:00 | 00:00:00 | |
| MIELECB | 2026-08-30 23:40:17 | 50.04289 | 21.13001 | 92° | 46km/h | 8327m | 5.1m/s | 0°C | 0% | 0hPa | 0V | 00:00:00 | 00:00:00 | 00:00:00 | |
| SQ9PSP-11 | 2026-08-30 23:40:14 | 50.04293 | 21.12941 | 105° | 57km/h | 8311m | 4.3m/s | 0°C | 0% | 0hPa | 0V | 00:00:00 | 00:00:00 | 00:00:00 | |
| MIELECB | 2026-08-30 23:40:12 | 50.04300 | 21.12898 | 106° | 57km/h | 8299m | 3.8m/s | 0°C | 0% | 0hPa | 0V | 00:00:00 | 00:00:00 | 00:00:00 | |
| AKAW68 | 2026-08-30 23:40:06 | 50.04314 | 21.12756 | 98° | 51km/h | 8264m | 3.3m/s | 0°C | 0% | 0hPa | 0V | 00:00:00 | 00:00:00 | 00:00:00 | |
| MIELECB | 2026-08-30 23:40:04 | 50.04317 | 21.12721 | 97° | 44km/h | 8254m | 8.2m/s | 0°C | 0% | 0hPa | 0V | 00:00:00 | 00:00:00 | 00:00:00 | |
| AKAW682 | 2026-08-30 23:40:00 | 50.04323 | 21.12640 | 103° | 60km/h | 8232m | 4.5m/s | 0°C | 0% | 0hPa | 0V | 00:00:00 | 00:00:00 | 00:00:00 | |
| SQ9PSP-11 | 2026-08-30 23:39:59 | 50.04326 | 21.12617 | 106° | 58km/h | 8226m | 6.0m/s | 0°C | 0% | 0hPa | 0V | 00:00:00 | 00:00:00 | 00:00:00 | |
| AKAW68 | 2026-08-30 23:39:45 | 50.04356 | 21.12312 | 108° | 69km/h | 8147m | 6.2m/s | 0°C | 0% | 0hPa | 0V | 00:00:00 | 00:00:00 | 00:00:00 | |
| SQ9PSP-11 | 2026-08-30 23:39:43 | 50.04364 | 21.12263 | 103° | 60km/h | 8135m | 5.5m/s | 0°C | 0% | 0hPa | 0V | 00:00:00 | 00:00:00 | 00:00:00 | |
| AKAW682 | 2026-08-30 23:39:39 | 50.04378 | 21.12173 | 110° | 58km/h | 8108m | 4.6m/s | 0°C | 0% | 0hPa | 0V | 00:00:00 | 00:00:00 | 00:00:00 | |
| SQ9PSP-11 | 2026-08-30 23:39:27 | 50.04420 | 21.11905 | 99° | 53km/h | 8043m | 6.2m/s | 0°C | 0% | 0hPa | 0V | 00:00:00 | 00:00:00 | 00:00:00 | |
| AKAW68 | 2026-08-30 23:39:24 | 50.04426 | 21.11841 | 99° | 58km/h | 8026m | 7.5m/s | 0°C | 0% | 0hPa | 0V | 00:00:00 | 00:00:00 | 00:00:00 | |
| MIELECB | 2026-08-30 23:39:23 | 50.04427 | 21.11817 | 96° | 66km/h | 8018m | 5.8m/s | 0°C | 0% | 0hPa | 0V | 00:00:00 | 00:00:00 | 00:00:00 | |
| AKAW682 | 2026-08-30 23:39:17 | 50.04441 | 21.11678 | 108° | 49km/h | 7985m | 5.5m/s | 0°C | 0% | 0hPa | 0V | 00:00:00 | 00:00:00 | 00:00:00 | |
| SQ9PSP-11 | 2026-08-30 23:39:11 | 50.04466 | 21.11550 | 98° | 68km/h | 7951m | 1.3m/s | 0°C | 0% | 0hPa | 0V | 00:00:00 | 00:00:00 | 00:00:00 | |
| AKAW68 | 2026-08-30 23:39:04 | 50.04475 | 21.11396 | 97° | 58km/h | 7907m | 5.0m/s | 0°C | 0% | 0hPa | 0V | 00:00:00 | 00:00:00 | 00:00:00 | |
| SQ9PSP-11 | 2026-08-30 23:38:55 | 50.04502 | 21.11213 | 102° | 42km/h | 7856m | 4.6m/s | 0°C | 0% | 0hPa | 0V | 00:00:00 | 00:00:00 | 00:00:00 | |
| AKAW682 | 2026-08-30 23:38:54 | 50.04504 | 21.11195 | 103° | 47km/h | 7850m | 5.4m/s | 0°C | 0% | 0hPa | 0V | 00:00:00 | 00:00:00 | 00:00:00 | |
| MIELECB | 2026-08-30 23:38:49 | 50.04517 | 21.11081 | 98° | 57km/h | 7821m | 4.9m/s | 0°C | 0% | 0hPa | 0V | 00:00:00 | 00:00:00 | 00:00:00 | |
| AKAW68 | 2026-08-30 23:38:44 | 50.04527 | 21.10996 | 100° | 35km/h | 7795m | 4.6m/s | 0°C | 0% | 0hPa | 0V | 00:00:00 | 00:00:00 | 00:00:00 | |
| SQ9PSP-11 | 2026-08-30 23:38:39 | 50.04536 | 21.10901 | 105° | 49km/h | 7763m | 6.0m/s | 0°C | 0% | 0hPa | 0V | 00:00:00 | 00:00:00 | 00:00:00 | |
| MIELECB | 2026-08-30 23:38:38 | 50.04539 | 21.10885 | 108° | 40km/h | 7757m | 5.2m/s | 0°C | 0% | 0hPa | 0V | 00:00:00 | 00:00:00 | 00:00:00 | |
| AKAW682 | 2026-08-30 23:38:32 | 50.04564 | 21.10773 | 105° | 58km/h | 7725m | 5.9m/s | 0°C | 0% | 0hPa | 0V | 00:00:00 | 00:00:00 | 00:00:00 | |
| SQ9EZE-15 | 2026-08-30 23:38:29 | 50.04572 | 21.10713 | 102° | 55km/h | 7706m | 7.1m/s | 0°C | 0% | 0hPa | 0V | 00:00:00 | 00:00:00 | 00:00:00 | |
| AKAW68 | 2026-08-30 23:38:25 | 50.04579 | 21.10601 | 93° | 64km/h | 7679m | 1.9m/s | 0°C | 0% | 0hPa | 0V | 00:00:00 | 00:00:00 | 00:00:00 | |
| SQ9PSP-11 | 2026-08-30 23:38:23 | 50.04580 | 21.10577 | 98° | 57km/h | 7675m | 9.2m/s | 0°C | 0% | 0hPa | 0V | 00:00:00 | 00:00:00 | 00:00:00 | |
| AKAW682 | 2026-08-30 23:38:10 | 50.04630 | 21.10338 | 108° | 47km/h | 7595m | 3.2m/s | 0°C | 0% | 0hPa | 0V | 00:00:00 | 00:00:00 | 00:00:00 | |
| SQ9EZE-15 | 2026-08-30 23:38:09 | 50.04632 | 21.10321 | 98° | 46km/h | 7589m | 6.1m/s | 0°C | 0% | 0hPa | 0V | 00:00:00 | 00:00:00 | 00:00:00 | |
| SQ9PSP-11 | 2026-08-30 23:38:08 | 50.04633 | 21.10303 | 93° | 42km/h | 7583m | 5.5m/s | 0°C | 0% | 0hPa | 0V | 00:00:00 | 00:00:00 | 00:00:00 | |
| AKAW68 | 2026-08-30 23:38:03 | 50.04634 | 21.10213 | 91° | 46km/h | 7551m | 7.0m/s | 0°C | 0% | 0hPa | 0V | 00:00:00 | 00:00:00 | 00:00:00 | |
| MIELECB | 2026-08-30 23:37:57 | 50.04655 | 21.10108 | 106° | 51km/h | 7514m | 4.3m/s | 0°C | 0% | 0hPa | 0V | 00:00:00 | 00:00:00 | 00:00:00 | |
| SQ9PSP-11 | 2026-08-30 23:37:52 | 50.04667 | 21.10008 | 98° | 57km/h | 7482m | 4.8m/s | 0°C | 0% | 0hPa | 0V | 00:00:00 | 00:00:00 | 00:00:00 | |
| MIELECB | 2026-08-30 23:37:50 | 50.04671 | 21.09969 | 100° | 46km/h | 7468m | 3.8m/s | 0°C | 0% | 0hPa | 0V | 00:00:00 | 00:00:00 | 00:00:00 | |
| MIELECB | 2026-08-30 23:37:43 | 50.04688 | 21.09850 | 94° | 51km/h | 7430m | 4.0m/s | 0°C | 0% | 0hPa | 0V | 00:00:00 | 00:00:00 | 00:00:00 | |
| SQ9PSP-11 | 2026-08-30 23:37:37 | 50.04691 | 21.09745 | 93° | 47km/h | 7392m | 6.7m/s | 0°C | 0% | 0hPa | 0V | 00:00:00 | 00:00:00 | 00:00:00 | |
| MIELECB | 2026-08-30 23:37:31 | 50.04701 | 21.09617 | 98° | 58km/h | 7357m | 6.2m/s | 0°C | 0% | 0hPa | 0V | 00:00:00 | 00:00:00 | 00:00:00 | |
| AKAW682 | 2026-08-30 23:37:28 | 50.04707 | 21.09557 | 94° | 53km/h | 7340m | 5.7m/s | 0°C | 0% | 0hPa | 0V | 00:00:00 | 00:00:00 | 00:00:00 | |
| AKAW68 | 2026-08-30 23:37:23 | 50.04699 | 21.09443 | 91° | 55km/h | 7314m | 3.2m/s | 0°C | 0% | 0hPa | 0V | 00:00:00 | 00:00:00 | 00:00:00 | |
| SQ9PSP-11 | 2026-08-30 23:37:21 | 50.04701 | 21.09403 | 94° | 49km/h | 7301m | 7.7m/s | 0°C | 0% | 0hPa | 0V | 00:00:00 | 00:00:00 | 00:00:00 | |
| SQ9PSP-11 | 2026-08-30 23:37:06 | 50.04698 | 21.09113 | 93° | 53km/h | 7200m | 5.4m/s | 0°C | 0% | 0hPa | 0V | 00:00:00 | 00:00:00 | 00:00:00 | |
| AKAW68 | 2026-08-30 23:37:02 | 50.04700 | 21.09029 | 93° | 58km/h | 7175m | 4.7m/s | 0°C | 0% | 0hPa | 0V | 00:00:00 | 00:00:00 | 00:00:00 | |
| SQ9PSP-11 | 2026-08-30 23:36:51 | 50.04698 | 21.08811 | 72° | 44km/h | 7109m | 6.8m/s | 0°C | 0% | 0hPa | 0V | 00:00:00 | 00:00:00 | 00:00:00 | |
| AKAW68 | 2026-08-30 23:36:41 | 50.04694 | 21.08626 | 83° | 46km/h | 7049m | 6.2m/s | 0°C | 0% | 0hPa | 0V | 00:00:00 | 00:00:00 | 00:00:00 | |
| AKAW682 | 2026-08-30 23:36:37 | 50.04688 | 21.08556 | 75° | 47km/h | 7026m | 3.4m/s | 0°C | 0% | 0hPa | 0V | 00:00:00 | 00:00:00 | 00:00:00 | |
| SQ9PSP-11 | 2026-08-30 23:36:35 | 50.04687 | 21.08521 | 101° | 44km/h | 7016m | 4.5m/s | 0°C | 0% | 0hPa | 0V | 00:00:00 | 00:00:00 | 00:00:00 | |
| AKAW68 | 2026-08-30 23:36:20 | 50.04687 | 21.08292 | 86° | 42km/h | 6927m | 4.0m/s | 0°C | 0% | 0hPa | 0V | 00:00:00 | 00:00:00 | 00:00:00 | |
| SQ9PSP-11 | 2026-08-30 23:36:19 | 50.04687 | 21.08275 | 90° | 47km/h | 6921m | 5.6m/s | 0°C | 0% | 0hPa | 0V | 00:00:00 | 00:00:00 | 00:00:00 | |
| MIELECB | 2026-08-30 23:36:14 | 50.04690 | 21.08170 | 92° | 51km/h | 6894m | 4.7m/s | 0°C | 0% | 0hPa | 0V | 00:00:00 | 00:00:00 | 00:00:00 | |
| MIELECB | 2026-08-30 23:36:07 | 50.04694 | 21.08027 | 85° | 44km/h | 6845m | 9.4m/s | 0°C | 0% | 0hPa | 0V | 00:00:00 | 00:00:00 | 00:00:00 | |
| SQ9PSP-11 | 2026-08-30 23:36:03 | 50.04697 | 21.07979 | 109° | 44km/h | 6823m | 5.4m/s | 0°C | 0% | 0hPa | 0V | 00:00:00 | 00:00:00 | 00:00:00 | |
| SQ9PSP-11 | 2026-08-30 23:35:48 | 50.04705 | 21.07749 | 77° | 55km/h | 6735m | 5.8m/s | 0°C | 0% | 0hPa | 0V | 00:00:00 | 00:00:00 | 00:00:00 | |
| AKAW68 | 2026-08-30 23:35:36 | 50.04720 | 21.07558 | 98° | 38km/h | 6663m | 5.9m/s | 0°C | 0% | 0hPa | 0V | 00:00:00 | 00:00:00 | 00:00:00 | |
| SQ9PSP-11 | 2026-08-30 23:35:32 | 50.04726 | 21.07491 | 89° | 53km/h | 6637m | 3.2m/s | 0°C | 0% | 0hPa | 0V | 00:00:00 | 00:00:00 | 00:00:00 | |
| SQ9EZE-15 | 2026-08-30 23:35:18 | 50.04725 | 21.07270 | 79° | 44km/h | 6554m | 5.9m/s | 0°C | 0% | 0hPa | 0V | 00:00:00 | 00:00:00 | 00:00:00 | |
| SQ9PSP-11 | 2026-08-30 23:35:17 | 50.04723 | 21.07255 | 85° | 35km/h | 6547m | 6.6m/s | 0°C | 0% | 0hPa | 0V | 00:00:00 | 00:00:00 | 00:00:00 | |
| AKAW68 | 2026-08-30 23:35:15 | 50.04726 | 21.07230 | 111° | 42km/h | 6536m | 6.8m/s | 0°C | 0% | 0hPa | 0V | 00:00:00 | 00:00:00 | 00:00:00 | |
| SQ9PSP-11 | 2026-08-30 23:35:01 | 50.04731 | 21.07016 | 63° | 26km/h | 6469m | 5.8m/s | 0°C | 0% | 0hPa | 0V | 00:00:00 | 00:00:00 | 00:00:00 | |
| SQ9EZE-15 | 2026-08-30 23:34:57 | 50.04732 | 21.06954 | 100° | 53km/h | 6443m | 5.2m/s | 0°C | 0% | 0hPa | 0V | 00:00:00 | 00:00:00 | 00:00:00 | |
| AKAW68 | 2026-08-30 23:34:54 | 50.04732 | 21.06899 | 79° | 40km/h | 6426m | 6.0m/s | 0°C | 0% | 0hPa | 0V | 00:00:00 | 00:00:00 | 00:00:00 | |
| SQ9PSP-11 | 2026-08-30 23:34:45 | 50.04723 | 21.06770 | 97° | 47km/h | 6375m | 5.6m/s | 0°C | 0% | 0hPa | 0V | 00:00:00 | 00:00:00 | 00:00:00 | |
| AKAW68 | 2026-08-30 23:34:33 | 50.04709 | 21.06577 | 77° | 31km/h | 6303m | 3.4m/s | 0°C | 0% | 0hPa | 0V | 00:00:00 | 00:00:00 | 00:00:00 | |
| SQ9PSP-11 | 2026-08-30 23:34:30 | 50.04709 | 21.06540 | 98° | 37km/h | 6289m | 6.9m/s | 0°C | 0% | 0hPa | 0V | 00:00:00 | 00:00:00 | 00:00:00 | |
| SQ9PSP-11 | 2026-08-30 23:34:14 | 50.04701 | 21.06318 | 92° | 26km/h | 6203m | 5.6m/s | 0°C | 0% | 0hPa | 0V | 00:00:00 | 00:00:00 | 00:00:00 | |
| AKAW68 | 2026-08-30 23:34:12 | 50.04701 | 21.06292 | 100° | 33km/h | 6192m | 6.8m/s | 0°C | 0% | 0hPa | 0V | 00:00:00 | 00:00:00 | 00:00:00 | |
| SQ9PSP-11 | 2026-08-30 23:34:00 | 50.04715 | 21.06113 | 113° | 31km/h | 6115m | 7.2m/s | 0°C | 0% | 0hPa | 0V | 00:00:00 | 00:00:00 | 00:00:00 | |
| AKAW68 | 2026-08-30 23:33:52 | 50.04706 | 21.06009 | 93° | 37km/h | 6072m | 2.4m/s | 0°C | 0% | 0hPa | 0V | 00:00:00 | 00:00:00 | 00:00:00 | |
| SQ9PSP-11 | 2026-08-30 23:33:44 | 50.04716 | 21.05893 | 73° | 44km/h | 6025m | 5.9m/s | 0°C | 0% | 0hPa | 0V | 00:00:00 | 00:00:00 | 00:00:00 | |
| AKAW68 | 2026-08-30 23:33:32 | 50.04718 | 21.05730 | 119° | 38km/h | 5955m | 4.6m/s | 0°C | 0% | 0hPa | 0V | 00:00:00 | 00:00:00 | 00:00:00 | |
| SQ9PSP-11 | 2026-08-30 23:33:29 | 50.04723 | 21.05682 | 82° | 42km/h | 5937m | 8.8m/s | 0°C | 0% | 0hPa | 0V | 00:00:00 | 00:00:00 | 00:00:00 | |
| SQ9PSP-11 | 2026-08-30 23:33:13 | 50.04713 | 21.05458 | 85° | 38km/h | 5835m | 5.7m/s | 0°C | 0% | 0hPa | 0V | 00:00:00 | 00:00:00 | 00:00:00 | |
| AKAW68 | 2026-08-30 23:33:10 | 50.04719 | 21.05415 | 105° | 40km/h | 5819m | 6.5m/s | 0°C | 0% | 0hPa | 0V | 00:00:00 | 00:00:00 | 00:00:00 | |
| SQ9EZE-12 | 2026-08-30 23:32:58 | 50.04704 | 21.05214 | 67° | 47km/h | 5748m | 3.4m/s | 0°C | 0% | 0hPa | 0V | 00:00:00 | 00:00:00 | 00:00:00 | |
| SQ9PSP-11 | 2026-08-30 23:32:57 | 50.04701 | 21.05197 | 79° | 44km/h | 5743m | 4.4m/s | 0°C | 0% | 0hPa | 0V | 00:00:00 | 00:00:00 | 00:00:00 | |
| AKAW68 | 2026-08-30 23:32:50 | 50.04695 | 21.05084 | 79° | 37km/h | 5706m | 3.4m/s | 0°C | 0% | 0hPa | 0V | 00:00:00 | 00:00:00 | 00:00:00 | |
| SQ9PSP-11 | 2026-08-30 23:32:42 | 50.04685 | 21.04941 | 84° | 53km/h | 5655m | 4.6m/s | 0°C | 0% | 0hPa | 0V | 00:00:00 | 00:00:00 | 00:00:00 | |
| AKAW68 | 2026-08-30 23:32:27 | 50.04688 | 21.04697 | 112° | 46km/h | 5570m | 1.9m/s | 0°C | 0% | 0hPa | 0V | 00:00:00 | 00:00:00 | 00:00:00 | |
| SQ9PSP-11 | 2026-08-30 23:32:26 | 50.04692 | 21.04679 | 110° | 44km/h | 5565m | 7.4m/s | 0°C | 0% | 0hPa | 0V | 00:00:00 | 00:00:00 | 00:00:00 | |
| SQ9EZE-12 | 2026-08-30 23:32:15 | 50.04692 | 21.04502 | 87° | 42km/h | 5493m | 5.0m/s | 0°C | 0% | 0hPa | 0V | 00:00:00 | 00:00:00 | 00:00:00 | |
| SQ9PSP-11 | 2026-08-30 23:32:11 | 50.04691 | 21.04427 | 87° | 47km/h | 5466m | 7.2m/s | 0°C | 0% | 0hPa | 0V | 00:00:00 | 00:00:00 | 00:00:00 | |
| AKAW68 | 2026-08-30 23:32:07 | 50.04693 | 21.04367 | 108° | 47km/h | 5442m | 3.9m/s | 0°C | 0% | 0hPa | 0V | 00:00:00 | 00:00:00 | 00:00:00 | |
| SQ9PSP-11 | 2026-08-30 23:31:56 | 50.04700 | 21.04166 | 106° | 46km/h | 5379m | 2.3m/s | 0°C | 0% | 0hPa | 0V | 00:00:00 | 00:00:00 | 00:00:00 | |
| SQ9EZE-12 | 2026-08-30 23:31:50 | 50.04691 | 21.04048 | 93° | 49km/h | 5348m | 3.8m/s | 0°C | 0% | 0hPa | 0V | 00:00:00 | 00:00:00 | 00:00:00 | |
| AKAW68 | 2026-08-30 23:31:43 | 50.04694 | 21.03937 | 81° | 58km/h | 5307m | 6.2m/s | 0°C | 0% | 0hPa | 0V | 00:00:00 | 00:00:00 | 00:00:00 | |
| SQ9PSP-11 | 2026-08-30 23:31:40 | 50.04690 | 21.03883 | 89° | 35km/h | 5290m | 6.1m/s | 0°C | 0% | 0hPa | 0V | 00:00:00 | 00:00:00 | 00:00:00 | |
| SQ9PSP-11 | 2026-08-30 23:31:25 | 50.04694 | 21.03606 | 97° | 57km/h | 5209m | 4.4m/s | 0°C | 0% | 0hPa | 0V | 00:00:00 | 00:00:00 | 00:00:00 | |
| AKAW68 | 2026-08-30 23:31:22 | 50.04695 | 21.03537 | 91° | 66km/h | 5191m | 4.2m/s | 0°C | 0% | 0hPa | 0V | 00:00:00 | 00:00:00 | 00:00:00 | |
| SQ9PSP-11 | 2026-08-30 23:31:09 | 50.04680 | 21.03279 | 79° | 37km/h | 5113m | 6.8m/s | 0°C | 0% | 0hPa | 0V | 00:00:00 | 00:00:00 | 00:00:00 | |
| AKAW68 | 2026-08-30 23:30:59 | 50.04662 | 21.03110 | 100° | 51km/h | 5056m | 6.9m/s | 0°C | 0% | 0hPa | 0V | 00:00:00 | 00:00:00 | 00:00:00 | |
| SQ9PSP-11 | 2026-08-30 23:30:54 | 50.04660 | 21.03036 | 63° | 51km/h | 5030m | 4.6m/s | 0°C | 0% | 0hPa | 0V | 00:00:00 | 00:00:00 | 00:00:00 | |
| SQ9EZE-12 | 2026-08-30 23:30:46 | 50.04642 | 21.02900 | 76° | 33km/h | 4984m | 3.1m/s | 0°C | 0% | 0hPa | 0V | 00:00:00 | 00:00:00 | 00:00:00 | |
| AKAW68 | 2026-08-30 23:30:38 | 50.04624 | 21.02753 | 77° | 38km/h | 4937m | 4.3m/s | 0°C | 0% | 0hPa | 0V | 00:00:00 | 00:00:00 | 00:00:00 | |
| SQ9PSP-11 | 2026-08-30 23:30:21 | 50.04597 | 21.02506 | 64° | 37km/h | 4842m | 4.3m/s | 0°C | 0% | 0hPa | 0V | 00:00:00 | 00:00:00 | 00:00:00 | |
| AKAW68 | 2026-08-30 23:30:18 | 50.04579 | 21.02463 | 88° | 37km/h | 4821m | 3.7m/s | 0°C | 0% | 0hPa | 0V | 00:00:00 | 00:00:00 | 00:00:00 | |
| SQ9PSP-11 | 2026-08-30 23:30:06 | 50.04576 | 21.02307 | 58° | 47km/h | 4761m | 1.4m/s | 0°C | 0% | 0hPa | 0V | 00:00:00 | 00:00:00 | 00:00:00 | |
| SQ9PSP-11 | 2026-08-30 23:29:51 | 50.04564 | 21.02096 | 96° | 44km/h | 4677m | 4.3m/s | 0°C | 0% | 0hPa | 0V | 00:00:00 | 00:00:00 | 00:00:00 | |
| AKAW68 | 2026-08-30 23:29:47 | 50.04555 | 21.02020 | 63° | 49km/h | 4655m | 3.8m/s | 0°C | 0% | 0hPa | 0V | 00:00:00 | 00:00:00 | 00:00:00 | |
| SQ9PSP-11 | 2026-08-30 23:29:35 | 50.04558 | 21.01862 | 98° | 29km/h | 4593m | 4.8m/s | 0°C | 0% | 0hPa | 0V | 00:00:00 | 00:00:00 | 00:00:00 | |
| AKAW68 | 2026-08-30 23:29:25 | 50.04542 | 21.01734 | 90° | 40km/h | 4529m | 6.4m/s | 0°C | 0% | 0hPa | 0V | 00:00:00 | 00:00:00 | 00:00:00 | |
| SQ9EZE-12 | 2026-08-30 23:29:02 | 50.04499 | 21.01458 | 86° | 38km/h | 4401m | 5.7m/s | 0°C | 0% | 0hPa | 0V | 00:00:00 | 00:00:00 | 00:00:00 | |
| AKAW68 | 2026-08-30 23:28:55 | 50.04506 | 21.01387 | 120° | 24km/h | 4366m | 2.8m/s | 0°C | 0% | 0hPa | 0V | 00:00:00 | 00:00:00 | 00:00:00 | |
| SQ9PSP-11 | 2026-08-30 23:28:46 | 50.04501 | 21.01285 | 103° | 24km/h | 4314m | 4.0m/s | 0°C | 0% | 0hPa | 0V | 00:00:00 | 00:00:00 | 00:00:00 | |
| AKAW68 | 2026-08-30 23:28:31 | 50.04475 | 21.01098 | 71° | 47km/h | 4233m | 5.8m/s | 0°C | 0% | 0hPa | 0V | 00:00:00 | 00:00:00 | 00:00:00 | |
| SQ9PSP-11 | 2026-08-30 23:28:16 | 50.04445 | 21.00893 | 48° | 33km/h | 4161m | 2.0m/s | 0°C | 0% | 0hPa | 0V | 00:00:00 | 00:00:00 | 00:00:00 | |
| AKAW68 | 2026-08-30 23:28:08 | 50.04438 | 21.00794 | 70° | 47km/h | 4115m | 4.6m/s | 0°C | 0% | 0hPa | 0V | 00:00:00 | 00:00:00 | 00:00:00 | |
| SQ9PSP-11 | 2026-08-30 23:27:58 | 50.04419 | 21.00680 | 63° | 29km/h | 4056m | 2.6m/s | 0°C | 0% | 0hPa | 0V | 00:00:00 | 00:00:00 | 00:00:00 | |
| AKAW68 | 2026-08-30 23:27:42 | 50.04377 | 21.00497 | 69° | 44km/h | 3968m | 3.7m/s | 0°C | 0% | 0hPa | 0V | 00:00:00 | 00:00:00 | 00:00:00 | |
| SQ9PSP-11 | 2026-08-30 23:27:41 | 50.04371 | 21.00480 | 62° | 51km/h | 3965m | 3.9m/s | 0°C | 0% | 0hPa | 0V | 00:00:00 | 00:00:00 | 00:00:00 | |
| SQ9PSP-11 | 2026-08-30 23:27:26 | 50.04315 | 21.00269 | 93° | 37km/h | 3890m | 6.3m/s | 0°C | 0% | 0hPa | 0V | 00:00:00 | 00:00:00 | 00:00:00 | |
| AKAW68 | 2026-08-30 23:27:17 | 50.04280 | 21.00139 | 95° | 31km/h | 3838m | 6.6m/s | 0°C | 0% | 0hPa | 0V | 00:00:00 | 00:00:00 | 00:00:00 | |
| SQ9PSP-11 | 2026-08-30 23:27:10 | 50.04264 | 21.00025 | 80° | 22km/h | 3790m | 5.0m/s | 0°C | 0% | 0hPa | 0V | 00:00:00 | 00:00:00 | 00:00:00 | |
| SQ9PSP-11 | 2026-08-30 23:26:55 | 50.04230 | 20.99830 | 56° | 22km/h | 3716m | 2.8m/s | 0°C | 0% | 0hPa | 0V | 00:00:00 | 00:00:00 | 00:00:00 | |
| AKAW68 | 2026-08-30 23:26:54 | 50.04227 | 20.99822 | 59° | 24km/h | 3712m | 3.7m/s | 0°C | 0% | 0hPa | 0V | 00:00:00 | 00:00:00 | 00:00:00 | |
| SQ9PSP-11 | 2026-08-30 23:26:39 | 50.04172 | 20.99623 | 88° | 49km/h | 3631m | 2.1m/s | 0°C | 0% | 0hPa | 0V | 00:00:00 | 00:00:00 | 00:00:00 | |
| AKAW68 | 2026-08-30 23:26:34 | 50.04153 | 20.99551 | 46° | 27km/h | 3611m | 2.9m/s | 0°C | 0% | 0hPa | 0V | 00:00:00 | 00:00:00 | 00:00:00 | |
| SQ9PSP-11 | 2026-08-30 23:26:23 | 50.04118 | 20.99381 | 74° | 31km/h | 3548m | 6.2m/s | 0°C | 0% | 0hPa | 0V | 00:00:00 | 00:00:00 | 00:00:00 | |
| SQ9PSP-11 | 2026-08-30 23:26:08 | 50.04091 | 20.99182 | 80° | 46km/h | 3469m | 3.7m/s | 0°C | 0% | 0hPa | 0V | 00:00:00 | 00:00:00 | 00:00:00 | |
| AKAW68 | 2026-08-30 23:26:06 | 50.04084 | 20.99142 | 69° | 53km/h | 3461m | 2.5m/s | 0°C | 0% | 0hPa | 0V | 00:00:00 | 00:00:00 | 00:00:00 | |
| SQ9PSP-11 | 2026-08-30 23:25:52 | 50.04050 | 20.99010 | 89° | 44km/h | 3392m | 6.5m/s | 0°C | 0% | 0hPa | 0V | 00:00:00 | 00:00:00 | 00:00:00 | |
| AKAW68 | 2026-08-30 23:25:45 | 50.04018 | 20.98898 | 56° | 31km/h | 3354m | 5.7m/s | 0°C | 0% | 0hPa | 0V | 00:00:00 | 00:00:00 | 00:00:00 | |
| SQ9PSP-11 | 2026-08-30 23:25:37 | 50.03967 | 20.98830 | 46° | 44km/h | 3318m | 2.6m/s | 0°C | 0% | 0hPa | 0V | 00:00:00 | 00:00:00 | 00:00:00 | |
| SQ9PSP-11 | 2026-08-30 23:25:20 | 50.03875 | 20.98578 | 77° | 44km/h | 3239m | 2.6m/s | 0°C | 0% | 0hPa | 0V | 00:00:00 | 00:00:00 | 00:00:00 | |
| AKAW68 | 2026-08-30 23:25:12 | 50.03833 | 20.98469 | 40° | 47km/h | 3204m | 1.0m/s | 0°C | 0% | 0hPa | 0V | 00:00:00 | 00:00:00 | 00:00:00 | |
| SQ9PSP-11 | 2026-08-30 23:25:05 | 50.03797 | 20.98358 | 70° | 42km/h | 3161m | 4.5m/s | 0°C | 0% | 0hPa | 0V | 00:00:00 | 00:00:00 | 00:00:00 | |
| SQ9PSP-11 | 2026-08-30 23:24:49 | 50.03764 | 20.98168 | 66° | 15km/h | 3095m | 3.3m/s | 0°C | 0% | 0hPa | 0V | 00:00:00 | 00:00:00 | 00:00:00 | |
| AKAW68 | 2026-08-30 23:24:44 | 50.03747 | 20.98095 | 58° | 42km/h | 3068m | 3.5m/s | 0°C | 0% | 0hPa | 0V | 00:00:00 | 00:00:00 | 00:00:00 | |
| SQ9PSP-11 | 2026-08-30 23:24:30 | 50.03690 | 20.97954 | 55° | 47km/h | 3003m | 4.1m/s | 0°C | 0% | 0hPa | 0V | 00:00:00 | 00:00:00 | 00:00:00 | |
| AKAW68 | 2026-08-30 23:24:18 | 50.03629 | 20.97812 | 68° | 44km/h | 2940m | 3.7m/s | 0°C | 0% | 0hPa | 0V | 00:00:00 | 00:00:00 | 00:00:00 | |
| SQ9PSP-11 | 2026-08-30 23:24:15 | 50.03621 | 20.97770 | 92° | 26km/h | 2923m | 3.6m/s | 0°C | 0% | 0hPa | 0V | 00:00:00 | 00:00:00 | 00:00:00 | |
| SQ9EZE-12 | 2026-08-30 23:24:07 | 50.03605 | 20.97672 | 49° | 22km/h | 2895m | 1.9m/s | 0°C | 0% | 0hPa | 0V | 00:00:00 | 00:00:00 | 00:00:00 | |
| SQ9PSP-11 | 2026-08-30 23:24:00 | 50.03579 | 20.97567 | 109° | 20km/h | 2858m | 4.7m/s | 0°C | 0% | 0hPa | 0V | 00:00:00 | 00:00:00 | 00:00:00 | |
| SQ9PSP-11 | 2026-08-30 23:23:40 | 50.03526 | 20.97377 | 52° | 29km/h | 2764m | 3.8m/s | 0°C | 0% | 0hPa | 0V | 00:00:00 | 00:00:00 | 00:00:00 | |
| SQ9PSP-11 | 2026-08-30 23:23:20 | 50.03479 | 20.97168 | 86° | 37km/h | 2666m | 5.4m/s | 0°C | 0% | 0hPa | 0V | 00:00:00 | 00:00:00 | 00:00:00 | |
| SQ9PSP-11 | 2026-08-30 23:23:03 | 50.03480 | 20.96996 | 82° | 37km/h | 2574m | 2.5m/s | 0°C | 0% | 0hPa | 0V | 00:00:00 | 00:00:00 | 00:00:00 | |
| AKAW68 | 2026-08-30 23:22:49 | 50.03475 | 20.96870 | 135° | 18km/h | 2516m | 1.8m/s | 0°C | 0% | 0hPa | 0V | 00:00:00 | 00:00:00 | 00:00:00 | |
| SQ9PSP-11 | 2026-08-30 23:22:47 | 50.03475 | 20.96863 | 29° | 16km/h | 2507m | 5.1m/s | 0°C | 0% | 0hPa | 0V | 00:00:00 | 00:00:00 | 00:00:00 | |
| SQ9PSP-11 | 2026-08-30 23:22:27 | 50.03472 | 20.96651 | 71° | 37km/h | 2394m | 3.6m/s | 0°C | 0% | 0hPa | 0V | 00:00:00 | 00:00:00 | 00:00:00 | |
| SQ9PSP-11 | 2026-08-30 23:22:11 | 50.03447 | 20.96522 | 44° | 15km/h | 2320m | 2.6m/s | 0°C | 0% | 0hPa | 0V | 00:00:00 | 00:00:00 | 00:00:00 | |
| SQ9PSP-11 | 2026-08-30 23:21:55 | 50.03461 | 20.96450 | 86° | 29km/h | 2245m | 4.4m/s | 0°C | 0% | 0hPa | 0V | 00:00:00 | 00:00:00 | 00:00:00 | |
| SQ9PSP-11 | 2026-08-30 23:21:40 | 50.03455 | 20.96330 | 40° | 24km/h | 2162m | 7.2m/s | 0°C | 0% | 0hPa | 0V | 00:00:00 | 00:00:00 | 00:00:00 | |
| SQ9PSP-11 | 2026-08-30 23:21:23 | 50.03433 | 20.96232 | 144° | 9km/h | 2072m | 2.7m/s | 0°C | 0% | 0hPa | 0V | 00:00:00 | 00:00:00 | 00:00:00 |